<?xml version="1.0" encoding="UTF-8" standalone="no" ?>
<gpx xmlns="http://www.topografix.com/GPX/1/1" xmlns:xsi="http://www.w3.org/2001/XMLSchema-instance" xsi:schemaLocation="http://www.topografix.com/GPX/1/1 http://www.topografix.com/GPX/1/1/gpx.xsd" version="1.1" creator="VisuGPX - https://www.visugpx.com">
  <metadata>
    <name>Pic de Nore boucle</name>
  </metadata>
  <trk>
    <name><![CDATA[Pic de Nore boucle]]></name>
    <trkseg>
      <trkpt lat="43.33256" lon="2.38137">
        <ele>241.440426</ele>
        <time>2021-05-08T07:45:46.305Z</time>
      </trkpt>
      <trkpt lat="43.33234" lon="2.38148">
        <ele>241.440426</ele>
        <time>2021-05-08T07:49:38.316Z</time>
      </trkpt>
      <trkpt lat="43.33225" lon="2.38156">
        <ele>241.440426</ele>
        <time>2021-05-08T07:49:44.278Z</time>
      </trkpt>
      <trkpt lat="43.33218" lon="2.38166">
        <ele>241.440426</ele>
        <time>2021-05-08T07:49:50.312Z</time>
      </trkpt>
      <trkpt lat="43.3321" lon="2.38175">
        <ele>241.440426</ele>
        <time>2021-05-08T07:49:55.315Z</time>
      </trkpt>
      <trkpt lat="43.33202" lon="2.38185">
        <ele>241.440426</ele>
        <time>2021-05-08T07:50:00.282Z</time>
      </trkpt>
      <trkpt lat="43.33194" lon="2.38194">
        <ele>241.440426</ele>
        <time>2021-05-08T07:50:04.290Z</time>
      </trkpt>
      <trkpt lat="43.33186" lon="2.38202">
        <ele>241.440426</ele>
        <time>2021-05-08T07:50:08.283Z</time>
      </trkpt>
      <trkpt lat="43.33177" lon="2.38211">
        <ele>241.866863</ele>
        <time>2021-05-08T07:50:12.276Z</time>
      </trkpt>
      <trkpt lat="43.33168" lon="2.3822">
        <ele>242.57424</ele>
        <time>2021-05-08T07:50:16.286Z</time>
      </trkpt>
      <trkpt lat="43.33159" lon="2.38229">
        <ele>243.230229</ele>
        <time>2021-05-08T07:50:20.280Z</time>
      </trkpt>
      <trkpt lat="43.33151" lon="2.38238">
        <ele>243.872234</ele>
        <time>2021-05-08T07:50:24.318Z</time>
      </trkpt>
      <trkpt lat="43.33139" lon="2.38238">
        <ele>244.605211</ele>
        <time>2021-05-08T07:50:28.284Z</time>
      </trkpt>
      <trkpt lat="43.3313" lon="2.38229">
        <ele>245.262123</ele>
        <time>2021-05-08T07:50:34.314Z</time>
      </trkpt>
      <trkpt lat="43.33119" lon="2.38231">
        <ele>245.935035</ele>
        <time>2021-05-08T07:50:38.282Z</time>
      </trkpt>
      <trkpt lat="43.3311" lon="2.38242">
        <ele>246.657846</ele>
        <time>2021-05-08T07:50:42.324Z</time>
      </trkpt>
      <trkpt lat="43.33105" lon="2.38256">
        <ele>247.348361</ele>
        <time>2021-05-08T07:50:46.303Z</time>
      </trkpt>
      <trkpt lat="43.33099" lon="2.3827">
        <ele>248.095655</ele>
        <time>2021-05-08T07:50:50.306Z</time>
      </trkpt>
      <trkpt lat="43.3309" lon="2.38279">
        <ele>248.760121</ele>
        <time>2021-05-08T07:50:53.273Z</time>
      </trkpt>
      <trkpt lat="43.33081" lon="2.38286">
        <ele>249.38268</ele>
        <time>2021-05-08T07:50:56.308Z</time>
      </trkpt>
      <trkpt lat="43.33073" lon="2.38296">
        <ele>250.053865</ele>
        <time>2021-05-08T07:51:00.289Z</time>
      </trkpt>
      <trkpt lat="43.33067" lon="2.38308">
        <ele>250.715557</ele>
        <time>2021-05-08T07:51:04.292Z</time>
      </trkpt>
      <trkpt lat="43.33061" lon="2.38322">
        <ele>251.410896</ele>
        <time>2021-05-08T07:51:08.280Z</time>
      </trkpt>
      <trkpt lat="43.33056" lon="2.38332">
        <ele>251.972209</ele>
        <time>2021-05-08T07:51:11.285Z</time>
      </trkpt>
      <trkpt lat="43.33048" lon="2.38343">
        <ele>252.241739</ele>
        <time>2021-05-08T07:51:15.270Z</time>
      </trkpt>
      <trkpt lat="43.33039" lon="2.3835">
        <ele>251.748068</ele>
        <time>2021-05-08T07:51:18.277Z</time>
      </trkpt>
      <trkpt lat="43.33029" lon="2.38356">
        <ele>251.18038</ele>
        <time>2021-05-08T07:51:21.314Z</time>
      </trkpt>
      <trkpt lat="43.33017" lon="2.38357">
        <ele>250.599334</ele>
        <time>2021-05-08T07:51:24.276Z</time>
      </trkpt>
      <trkpt lat="43.33006" lon="2.38354">
        <ele>250.022999</ele>
        <time>2021-05-08T07:51:27.279Z</time>
      </trkpt>
      <trkpt lat="43.32996" lon="2.38351">
        <ele>249.523238</ele>
        <time>2021-05-08T07:51:30.309Z</time>
      </trkpt>
      <trkpt lat="43.32985" lon="2.38343">
        <ele>248.919165</ele>
        <time>2021-05-08T07:51:32.281Z</time>
      </trkpt>
      <trkpt lat="43.32974" lon="2.38335">
        <ele>248.271252</ele>
        <time>2021-05-08T07:51:34.279Z</time>
      </trkpt>
      <trkpt lat="43.32965" lon="2.38329">
        <ele>247.752029</ele>
        <time>2021-05-08T07:51:36.283Z</time>
      </trkpt>
      <trkpt lat="43.32955" lon="2.38324">
        <ele>247.258593</ele>
        <time>2021-05-08T07:51:38.302Z</time>
      </trkpt>
      <trkpt lat="43.32945" lon="2.38317">
        <ele>246.696852</ele>
        <time>2021-05-08T07:51:40.295Z</time>
      </trkpt>
      <trkpt lat="43.32934" lon="2.38309">
        <ele>246.054513</ele>
        <time>2021-05-08T07:51:43.288Z</time>
      </trkpt>
      <trkpt lat="43.32924" lon="2.38303">
        <ele>245.51436</ele>
        <time>2021-05-08T07:51:46.280Z</time>
      </trkpt>
      <trkpt lat="43.32914" lon="2.38299">
        <ele>245.00976</ele>
        <time>2021-05-08T07:51:49.277Z</time>
      </trkpt>
      <trkpt lat="43.32904" lon="2.383">
        <ele>244.495076</ele>
        <time>2021-05-08T07:51:52.296Z</time>
      </trkpt>
      <trkpt lat="43.32891" lon="2.38303">
        <ele>243.84842</ele>
        <time>2021-05-08T07:51:55.280Z</time>
      </trkpt>
      <trkpt lat="43.32882" lon="2.38308">
        <ele>243.397844</ele>
        <time>2021-05-08T07:51:57.278Z</time>
      </trkpt>
      <trkpt lat="43.32873" lon="2.38312">
        <ele>243.071589</ele>
        <time>2021-05-08T07:51:59.309Z</time>
      </trkpt>
      <trkpt lat="43.32864" lon="2.38315">
        <ele>242.747658</ele>
        <time>2021-05-08T07:52:01.275Z</time>
      </trkpt>
      <trkpt lat="43.32855" lon="2.38318">
        <ele>242.437148</ele>
        <time>2021-05-08T07:52:03.314Z</time>
      </trkpt>
      <trkpt lat="43.32846" lon="2.3832">
        <ele>242.124593</ele>
        <time>2021-05-08T07:52:05.281Z</time>
      </trkpt>
      <trkpt lat="43.32836" lon="2.38321">
        <ele>241.788369</ele>
        <time>2021-05-08T07:52:07.286Z</time>
      </trkpt>
      <trkpt lat="43.32827" lon="2.38323">
        <ele>241.455224</ele>
        <time>2021-05-08T07:52:09.276Z</time>
      </trkpt>
      <trkpt lat="43.32817" lon="2.38325">
        <ele>241.107212</ele>
        <time>2021-05-08T07:52:11.319Z</time>
      </trkpt>
      <trkpt lat="43.32806" lon="2.38329">
        <ele>240.724143</ele>
        <time>2021-05-08T07:52:13.280Z</time>
      </trkpt>
      <trkpt lat="43.32795" lon="2.38336">
        <ele>240.327429</ele>
        <time>2021-05-08T07:52:15.280Z</time>
      </trkpt>
      <trkpt lat="43.32786" lon="2.38343">
        <ele>239.982505</ele>
        <time>2021-05-08T07:52:17.276Z</time>
      </trkpt>
      <trkpt lat="43.32777" lon="2.38344">
        <ele>239.669626</ele>
        <time>2021-05-08T07:52:19.311Z</time>
      </trkpt>
      <trkpt lat="43.32768" lon="2.38336">
        <ele>239.303221</ele>
        <time>2021-05-08T07:52:22.289Z</time>
      </trkpt>
      <trkpt lat="43.32763" lon="2.38323">
        <ele>238.931192</ele>
        <time>2021-05-08T07:52:25.279Z</time>
      </trkpt>
      <trkpt lat="43.32761" lon="2.38309">
        <ele>238.578736</ele>
        <time>2021-05-08T07:52:28.284Z</time>
      </trkpt>
      <trkpt lat="43.32755" lon="2.38295">
        <ele>238.174617</ele>
        <time>2021-05-08T07:52:31.295Z</time>
      </trkpt>
      <trkpt lat="43.3275" lon="2.38285">
        <ele>237.865975</ele>
        <time>2021-05-08T07:52:34.276Z</time>
      </trkpt>
      <trkpt lat="43.3274" lon="2.38275">
        <ele>237.451845</ele>
        <time>2021-05-08T07:52:38.282Z</time>
      </trkpt>
      <trkpt lat="43.32727" lon="2.38272">
        <ele>237.218614</ele>
        <time>2021-05-08T07:52:41.282Z</time>
      </trkpt>
      <trkpt lat="43.32715" lon="2.38269">
        <ele>237.076878</ele>
        <time>2021-05-08T07:52:44.280Z</time>
      </trkpt>
      <trkpt lat="43.32703" lon="2.38268">
        <ele>236.943697</ele>
        <time>2021-05-08T07:52:47.279Z</time>
      </trkpt>
      <trkpt lat="43.3269" lon="2.38273">
        <ele>236.787086</ele>
        <time>2021-05-08T07:52:50.298Z</time>
      </trkpt>
      <trkpt lat="43.3268" lon="2.38283">
        <ele>236.640063</ele>
        <time>2021-05-08T07:52:53.281Z</time>
      </trkpt>
      <trkpt lat="43.32673" lon="2.38292">
        <ele>236.534349</ele>
        <time>2021-05-08T07:52:55.285Z</time>
      </trkpt>
      <trkpt lat="43.32666" lon="2.38301">
        <ele>236.425729</ele>
        <time>2021-05-08T07:52:57.272Z</time>
      </trkpt>
      <trkpt lat="43.32659" lon="2.3831">
        <ele>236.315119</ele>
        <time>2021-05-08T07:52:59.295Z</time>
      </trkpt>
      <trkpt lat="43.32648" lon="2.38315">
        <ele>236.184091</ele>
        <time>2021-05-08T07:53:01.280Z</time>
      </trkpt>
      <trkpt lat="43.3264" lon="2.3832">
        <ele>236.076564</ele>
        <time>2021-05-08T07:53:03.277Z</time>
      </trkpt>
      <trkpt lat="43.32628" lon="2.3833">
        <ele>235.925699</ele>
        <time>2021-05-08T07:53:06.316Z</time>
      </trkpt>
      <trkpt lat="43.3262" lon="2.38337">
        <ele>235.814145</ele>
        <time>2021-05-08T07:53:08.278Z</time>
      </trkpt>
      <trkpt lat="43.32609" lon="2.38343">
        <ele>235.67139</ele>
        <time>2021-05-08T07:53:10.276Z</time>
      </trkpt>
      <trkpt lat="43.32598" lon="2.3835">
        <ele>235.540689</ele>
        <time>2021-05-08T07:53:12.285Z</time>
      </trkpt>
      <trkpt lat="43.3259" lon="2.38359">
        <ele>235.421473</ele>
        <time>2021-05-08T07:53:14.274Z</time>
      </trkpt>
      <trkpt lat="43.32582" lon="2.38368">
        <ele>235.30053</ele>
        <time>2021-05-08T07:53:16.280Z</time>
      </trkpt>
      <trkpt lat="43.32576" lon="2.38379">
        <ele>235.063466</ele>
        <time>2021-05-08T07:53:18.281Z</time>
      </trkpt>
      <trkpt lat="43.32571" lon="2.38393">
        <ele>234.742423</ele>
        <time>2021-05-08T07:53:20.283Z</time>
      </trkpt>
      <trkpt lat="43.32566" lon="2.38407">
        <ele>234.435793</ele>
        <time>2021-05-08T07:53:22.277Z</time>
      </trkpt>
      <trkpt lat="43.32561" lon="2.38417">
        <ele>234.159657</ele>
        <time>2021-05-08T07:53:24.278Z</time>
      </trkpt>
      <trkpt lat="43.32555" lon="2.38428">
        <ele>233.898672</ele>
        <time>2021-05-08T07:53:26.284Z</time>
      </trkpt>
      <trkpt lat="43.32548" lon="2.38442">
        <ele>233.52646</ele>
        <time>2021-05-08T07:53:29.309Z</time>
      </trkpt>
      <trkpt lat="43.32541" lon="2.38457">
        <ele>233.167251</ele>
        <time>2021-05-08T07:53:32.281Z</time>
      </trkpt>
      <trkpt lat="43.32534" lon="2.38469">
        <ele>232.840149</ele>
        <time>2021-05-08T07:53:35.311Z</time>
      </trkpt>
      <trkpt lat="43.32525" lon="2.38483">
        <ele>232.449576</ele>
        <time>2021-05-08T07:53:38.310Z</time>
      </trkpt>
      <trkpt lat="43.32518" lon="2.38493">
        <ele>232.173812</ele>
        <time>2021-05-08T07:53:40.282Z</time>
      </trkpt>
      <trkpt lat="43.32512" lon="2.38502">
        <ele>231.906256</ele>
        <time>2021-05-08T07:53:42.314Z</time>
      </trkpt>
      <trkpt lat="43.32505" lon="2.38511">
        <ele>231.636076</ele>
        <time>2021-05-08T07:53:44.309Z</time>
      </trkpt>
      <trkpt lat="43.32498" lon="2.3852">
        <ele>231.359646</ele>
        <time>2021-05-08T07:53:46.326Z</time>
      </trkpt>
      <trkpt lat="43.3249" lon="2.38528">
        <ele>231.071844</ele>
        <time>2021-05-08T07:53:48.287Z</time>
      </trkpt>
      <trkpt lat="43.32481" lon="2.38537">
        <ele>230.767276</ele>
        <time>2021-05-08T07:53:50.294Z</time>
      </trkpt>
      <trkpt lat="43.32473" lon="2.38545">
        <ele>230.474336</ele>
        <time>2021-05-08T07:53:52.285Z</time>
      </trkpt>
      <trkpt lat="43.32464" lon="2.38552">
        <ele>230.192425</ele>
        <time>2021-05-08T07:53:54.294Z</time>
      </trkpt>
      <trkpt lat="43.32456" lon="2.38556">
        <ele>229.953203</ele>
        <time>2021-05-08T07:53:56.301Z</time>
      </trkpt>
      <trkpt lat="43.32445" lon="2.3856">
        <ele>229.691061</ele>
        <time>2021-05-08T07:53:58.271Z</time>
      </trkpt>
      <trkpt lat="43.32435" lon="2.38564">
        <ele>229.424061</ele>
        <time>2021-05-08T07:54:00.293Z</time>
      </trkpt>
      <trkpt lat="43.32425" lon="2.38568">
        <ele>229.162231</ele>
        <time>2021-05-08T07:54:02.279Z</time>
      </trkpt>
      <trkpt lat="43.32415" lon="2.38574">
        <ele>228.912839</ele>
        <time>2021-05-08T07:54:04.277Z</time>
      </trkpt>
      <trkpt lat="43.32406" lon="2.38581">
        <ele>228.655677</ele>
        <time>2021-05-08T07:54:06.280Z</time>
      </trkpt>
      <trkpt lat="43.32397" lon="2.38587">
        <ele>228.410007</ele>
        <time>2021-05-08T07:54:08.295Z</time>
      </trkpt>
      <trkpt lat="43.32387" lon="2.38591">
        <ele>228.1546</ele>
        <time>2021-05-08T07:54:10.281Z</time>
      </trkpt>
      <trkpt lat="43.32375" lon="2.38599">
        <ele>227.836875</ele>
        <time>2021-05-08T07:54:13.284Z</time>
      </trkpt>
      <trkpt lat="43.32365" lon="2.38606">
        <ele>227.559153</ele>
        <time>2021-05-08T07:54:16.309Z</time>
      </trkpt>
      <trkpt lat="43.32356" lon="2.38609">
        <ele>227.315245</ele>
        <time>2021-05-08T07:54:18.305Z</time>
      </trkpt>
      <trkpt lat="43.32343" lon="2.38613">
        <ele>227.001094</ele>
        <time>2021-05-08T07:54:21.301Z</time>
      </trkpt>
      <trkpt lat="43.32334" lon="2.38613">
        <ele>226.768086</ele>
        <time>2021-05-08T07:54:23.294Z</time>
      </trkpt>
      <trkpt lat="43.32323" lon="2.38613">
        <ele>226.510822</ele>
        <time>2021-05-08T07:54:25.308Z</time>
      </trkpt>
      <trkpt lat="43.32313" lon="2.38611">
        <ele>226.266681</ele>
        <time>2021-05-08T07:54:27.313Z</time>
      </trkpt>
      <trkpt lat="43.323" lon="2.38606">
        <ele>225.942126</ele>
        <time>2021-05-08T07:54:29.272Z</time>
      </trkpt>
      <trkpt lat="43.32292" lon="2.38602">
        <ele>225.717254</ele>
        <time>2021-05-08T07:54:31.310Z</time>
      </trkpt>
      <trkpt lat="43.32282" lon="2.38598">
        <ele>225.824663</ele>
        <time>2021-05-08T07:54:33.317Z</time>
      </trkpt>
      <trkpt lat="43.32272" lon="2.38596">
        <ele>225.944857</ele>
        <time>2021-05-08T07:54:35.281Z</time>
      </trkpt>
      <trkpt lat="43.32262" lon="2.38595">
        <ele>226.064565</ele>
        <time>2021-05-08T07:54:37.282Z</time>
      </trkpt>
      <trkpt lat="43.32249" lon="2.38594">
        <ele>226.225695</ele>
        <time>2021-05-08T07:54:40.305Z</time>
      </trkpt>
      <trkpt lat="43.32236" lon="2.38595">
        <ele>226.389255</ele>
        <time>2021-05-08T07:54:43.289Z</time>
      </trkpt>
      <trkpt lat="43.32227" lon="2.38597">
        <ele>226.503195</ele>
        <time>2021-05-08T07:54:45.278Z</time>
      </trkpt>
      <trkpt lat="43.32215" lon="2.38601">
        <ele>226.658158</ele>
        <time>2021-05-08T07:54:48.294Z</time>
      </trkpt>
      <trkpt lat="43.32204" lon="2.38603">
        <ele>226.801155</ele>
        <time>2021-05-08T07:54:51.287Z</time>
      </trkpt>
      <trkpt lat="43.32192" lon="2.38601">
        <ele>226.951266</ele>
        <time>2021-05-08T07:54:54.280Z</time>
      </trkpt>
      <trkpt lat="43.32182" lon="2.38598">
        <ele>227.073778</ele>
        <time>2021-05-08T07:54:56.281Z</time>
      </trkpt>
      <trkpt lat="43.32172" lon="2.38599">
        <ele>227.191794</ele>
        <time>2021-05-08T07:54:58.308Z</time>
      </trkpt>
      <trkpt lat="43.32163" lon="2.38604">
        <ele>227.32283</ele>
        <time>2021-05-08T07:55:00.281Z</time>
      </trkpt>
      <trkpt lat="43.32153" lon="2.38609">
        <ele>227.444292</ele>
        <time>2021-05-08T07:55:02.281Z</time>
      </trkpt>
      <trkpt lat="43.32142" lon="2.38613">
        <ele>227.591115</ele>
        <time>2021-05-08T07:55:04.281Z</time>
      </trkpt>
      <trkpt lat="43.32131" lon="2.38619">
        <ele>227.737745</ele>
        <time>2021-05-08T07:55:06.308Z</time>
      </trkpt>
      <trkpt lat="43.3212" lon="2.38623">
        <ele>227.87525</ele>
        <time>2021-05-08T07:55:08.293Z</time>
      </trkpt>
      <trkpt lat="43.32109" lon="2.38625">
        <ele>228.077575</ele>
        <time>2021-05-08T07:55:10.296Z</time>
      </trkpt>
      <trkpt lat="43.32098" lon="2.38626">
        <ele>228.312999</ele>
        <time>2021-05-08T07:55:12.323Z</time>
      </trkpt>
      <trkpt lat="43.32088" lon="2.38625">
        <ele>228.52819</ele>
        <time>2021-05-08T07:55:14.315Z</time>
      </trkpt>
      <trkpt lat="43.32079" lon="2.38624">
        <ele>228.733346</ele>
        <time>2021-05-08T07:55:16.314Z</time>
      </trkpt>
      <trkpt lat="43.32066" lon="2.38621">
        <ele>229.012491</ele>
        <time>2021-05-08T07:55:19.283Z</time>
      </trkpt>
      <trkpt lat="43.32055" lon="2.3862">
        <ele>229.249236</ele>
        <time>2021-05-08T07:55:22.288Z</time>
      </trkpt>
      <trkpt lat="43.32044" lon="2.38622">
        <ele>229.493927</ele>
        <time>2021-05-08T07:55:25.280Z</time>
      </trkpt>
      <trkpt lat="43.32034" lon="2.38623">
        <ele>229.705725</ele>
        <time>2021-05-08T07:55:27.293Z</time>
      </trkpt>
      <trkpt lat="43.32022" lon="2.38625">
        <ele>229.981343</ele>
        <time>2021-05-08T07:55:30.287Z</time>
      </trkpt>
      <trkpt lat="43.32009" lon="2.38632">
        <ele>230.280675</ele>
        <time>2021-05-08T07:55:33.273Z</time>
      </trkpt>
      <trkpt lat="43.32" lon="2.38637">
        <ele>230.486688</ele>
        <time>2021-05-08T07:55:35.310Z</time>
      </trkpt>
      <trkpt lat="43.31988" lon="2.38645">
        <ele>230.784144</ele>
        <time>2021-05-08T07:55:38.339Z</time>
      </trkpt>
      <trkpt lat="43.31979" lon="2.38648">
        <ele>230.98769</ele>
        <time>2021-05-08T07:55:40.308Z</time>
      </trkpt>
      <trkpt lat="43.31968" lon="2.38653">
        <ele>231.237726</ele>
        <time>2021-05-08T07:55:43.302Z</time>
      </trkpt>
      <trkpt lat="43.31955" lon="2.38659">
        <ele>231.52168</ele>
        <time>2021-05-08T07:55:46.303Z</time>
      </trkpt>
      <trkpt lat="43.31943" lon="2.38666">
        <ele>231.812461</ele>
        <time>2021-05-08T07:55:49.285Z</time>
      </trkpt>
      <trkpt lat="43.31931" lon="2.38672">
        <ele>231.454862</ele>
        <time>2021-05-08T07:55:52.303Z</time>
      </trkpt>
      <trkpt lat="43.31921" lon="2.38678">
        <ele>231.072854</ele>
        <time>2021-05-08T07:55:55.284Z</time>
      </trkpt>
      <trkpt lat="43.31908" lon="2.38683">
        <ele>230.625254</ele>
        <time>2021-05-08T07:55:58.274Z</time>
      </trkpt>
      <trkpt lat="43.31899" lon="2.38688">
        <ele>230.304485</ele>
        <time>2021-05-08T07:56:00.286Z</time>
      </trkpt>
      <trkpt lat="43.3189" lon="2.38693">
        <ele>229.954973</ele>
        <time>2021-05-08T07:56:02.290Z</time>
      </trkpt>
      <trkpt lat="43.31881" lon="2.387">
        <ele>229.606209</ele>
        <time>2021-05-08T07:56:04.325Z</time>
      </trkpt>
      <trkpt lat="43.31872" lon="2.38708">
        <ele>229.262349</ele>
        <time>2021-05-08T07:56:06.284Z</time>
      </trkpt>
      <trkpt lat="43.31865" lon="2.38716">
        <ele>228.945796</ele>
        <time>2021-05-08T07:56:08.288Z</time>
      </trkpt>
      <trkpt lat="43.31857" lon="2.38723">
        <ele>228.622549</ele>
        <time>2021-05-08T07:56:10.297Z</time>
      </trkpt>
      <trkpt lat="43.31847" lon="2.38732">
        <ele>228.217085</ele>
        <time>2021-05-08T07:56:13.286Z</time>
      </trkpt>
      <trkpt lat="43.31836" lon="2.38739">
        <ele>227.81008</ele>
        <time>2021-05-08T07:56:16.288Z</time>
      </trkpt>
      <trkpt lat="43.31824" lon="2.38744">
        <ele>227.393893</ele>
        <time>2021-05-08T07:56:19.282Z</time>
      </trkpt>
      <trkpt lat="43.31815" lon="2.38751">
        <ele>227.022538</ele>
        <time>2021-05-08T07:56:22.285Z</time>
      </trkpt>
      <trkpt lat="43.31806" lon="2.38761">
        <ele>226.64979</ele>
        <time>2021-05-08T07:56:25.312Z</time>
      </trkpt>
      <trkpt lat="43.31797" lon="2.38767">
        <ele>226.297598</ele>
        <time>2021-05-08T07:56:28.298Z</time>
      </trkpt>
      <trkpt lat="43.31787" lon="2.38773">
        <ele>225.945407</ele>
        <time>2021-05-08T07:56:31.293Z</time>
      </trkpt>
      <trkpt lat="43.31778" lon="2.3878">
        <ele>225.944752</ele>
        <time>2021-05-08T07:56:34.275Z</time>
      </trkpt>
      <trkpt lat="43.3177" lon="2.38788">
        <ele>226.295356</ele>
        <time>2021-05-08T07:56:37.284Z</time>
      </trkpt>
      <trkpt lat="43.31763" lon="2.38799">
        <ele>226.696789</ele>
        <time>2021-05-08T07:56:41.274Z</time>
      </trkpt>
      <trkpt lat="43.31761" lon="2.38812">
        <ele>227.040017</ele>
        <time>2021-05-08T07:56:45.287Z</time>
      </trkpt>
      <trkpt lat="43.31765" lon="2.38824">
        <ele>227.379545</ele>
        <time>2021-05-08T07:56:50.312Z</time>
      </trkpt>
      <trkpt lat="43.31771" lon="2.38836">
        <ele>227.750456</ele>
        <time>2021-05-08T07:56:54.283Z</time>
      </trkpt>
      <trkpt lat="43.31775" lon="2.38851">
        <ele>228.178481</ele>
        <time>2021-05-08T07:56:58.282Z</time>
      </trkpt>
      <trkpt lat="43.3177" lon="2.38865">
        <ele>228.587712</ele>
        <time>2021-05-08T07:57:01.311Z</time>
      </trkpt>
      <trkpt lat="43.31765" lon="2.38876">
        <ele>228.911963</ele>
        <time>2021-05-08T07:57:04.282Z</time>
      </trkpt>
      <trkpt lat="43.31762" lon="2.38889">
        <ele>229.283268</ele>
        <time>2021-05-08T07:57:08.284Z</time>
      </trkpt>
      <trkpt lat="43.31758" lon="2.38901">
        <ele>229.629365</ele>
        <time>2021-05-08T07:57:12.303Z</time>
      </trkpt>
      <trkpt lat="43.31751" lon="2.38912">
        <ele>230.012925</ele>
        <time>2021-05-08T07:57:16.282Z</time>
      </trkpt>
      <trkpt lat="43.31746" lon="2.38924">
        <ele>230.379658</ele>
        <time>2021-05-08T07:57:20.310Z</time>
      </trkpt>
      <trkpt lat="43.31743" lon="2.38936">
        <ele>230.731199</ele>
        <time>2021-05-08T07:57:24.281Z</time>
      </trkpt>
      <trkpt lat="43.31743" lon="2.38951">
        <ele>231.129337</ele>
        <time>2021-05-08T07:57:28.282Z</time>
      </trkpt>
      <trkpt lat="43.31744" lon="2.38967">
        <ele>231.527146</ele>
        <time>2021-05-08T07:57:33.281Z</time>
      </trkpt>
      <trkpt lat="43.31746" lon="2.38979">
        <ele>231.864365</ele>
        <time>2021-05-08T07:57:36.281Z</time>
      </trkpt>
      <trkpt lat="43.31749" lon="2.38992">
        <ele>232.229483</ele>
        <time>2021-05-08T07:57:39.307Z</time>
      </trkpt>
      <trkpt lat="43.31752" lon="2.39006">
        <ele>233.312314</ele>
        <time>2021-05-08T07:57:42.291Z</time>
      </trkpt>
      <trkpt lat="43.31754" lon="2.39019">
        <ele>234.392895</ele>
        <time>2021-05-08T07:57:45.276Z</time>
      </trkpt>
      <trkpt lat="43.31758" lon="2.39031">
        <ele>235.434011</ele>
        <time>2021-05-08T07:57:48.321Z</time>
      </trkpt>
      <trkpt lat="43.31759" lon="2.39047">
        <ele>236.731116</ele>
        <time>2021-05-08T07:57:52.277Z</time>
      </trkpt>
      <trkpt lat="43.31757" lon="2.39061">
        <ele>237.903192</ele>
        <time>2021-05-08T07:57:56.283Z</time>
      </trkpt>
      <trkpt lat="43.31751" lon="2.39073">
        <ele>239.03153</ele>
        <time>2021-05-08T07:58:01.274Z</time>
      </trkpt>
      <trkpt lat="43.3175" lon="2.39087">
        <ele>240.180946</ele>
        <time>2021-05-08T07:58:05.271Z</time>
      </trkpt>
      <trkpt lat="43.31753" lon="2.39099">
        <ele>241.19745</ele>
        <time>2021-05-08T07:58:08.280Z</time>
      </trkpt>
      <trkpt lat="43.31759" lon="2.39111">
        <ele>242.371233</ele>
        <time>2021-05-08T07:58:12.287Z</time>
      </trkpt>
      <trkpt lat="43.31766" lon="2.39122">
        <ele>243.599711</ele>
        <time>2021-05-08T07:58:16.275Z</time>
      </trkpt>
      <trkpt lat="43.31771" lon="2.39134">
        <ele>244.712444</ele>
        <time>2021-05-08T07:58:20.288Z</time>
      </trkpt>
      <trkpt lat="43.31776" lon="2.39146">
        <ele>245.778009</ele>
        <time>2021-05-08T07:58:24.312Z</time>
      </trkpt>
      <trkpt lat="43.31781" lon="2.39159">
        <ele>246.9548</ele>
        <time>2021-05-08T07:58:28.284Z</time>
      </trkpt>
      <trkpt lat="43.31782" lon="2.39172">
        <ele>248.017246</ele>
        <time>2021-05-08T07:58:32.319Z</time>
      </trkpt>
      <trkpt lat="43.31783" lon="2.39185">
        <ele>249.105814</ele>
        <time>2021-05-08T07:58:36.281Z</time>
      </trkpt>
      <trkpt lat="43.31784" lon="2.39199">
        <ele>250.239636</ele>
        <time>2021-05-08T07:58:40.302Z</time>
      </trkpt>
      <trkpt lat="43.31786" lon="2.39214">
        <ele>251.432696</ele>
        <time>2021-05-08T07:58:45.315Z</time>
      </trkpt>
      <trkpt lat="43.31788" lon="2.39227">
        <ele>252.444682</ele>
        <time>2021-05-08T07:58:49.283Z</time>
      </trkpt>
      <trkpt lat="43.31791" lon="2.39242">
        <ele>253.277945</ele>
        <time>2021-05-08T07:58:53.288Z</time>
      </trkpt>
      <trkpt lat="43.31793" lon="2.39256">
        <ele>254.09157</ele>
        <time>2021-05-08T07:58:57.280Z</time>
      </trkpt>
      <trkpt lat="43.31796" lon="2.3927">
        <ele>254.915758</ele>
        <time>2021-05-08T07:59:01.281Z</time>
      </trkpt>
      <trkpt lat="43.31799" lon="2.39282">
        <ele>255.657459</ele>
        <time>2021-05-08T07:59:05.277Z</time>
      </trkpt>
      <trkpt lat="43.31802" lon="2.39294">
        <ele>256.36684</ele>
        <time>2021-05-08T07:59:09.307Z</time>
      </trkpt>
      <trkpt lat="43.31804" lon="2.39308">
        <ele>257.181527</ele>
        <time>2021-05-08T07:59:14.281Z</time>
      </trkpt>
      <trkpt lat="43.31806" lon="2.39321">
        <ele>257.936055</ele>
        <time>2021-05-08T07:59:18.323Z</time>
      </trkpt>
      <trkpt lat="43.3181" lon="2.39333">
        <ele>258.646897</ele>
        <time>2021-05-08T07:59:22.315Z</time>
      </trkpt>
      <trkpt lat="43.31812" lon="2.39348">
        <ele>259.511927</ele>
        <time>2021-05-08T07:59:27.283Z</time>
      </trkpt>
      <trkpt lat="43.31814" lon="2.3936">
        <ele>260.216604</ele>
        <time>2021-05-08T07:59:31.288Z</time>
      </trkpt>
      <trkpt lat="43.31816" lon="2.39373">
        <ele>260.985554</ele>
        <time>2021-05-08T07:59:35.281Z</time>
      </trkpt>
      <trkpt lat="43.31819" lon="2.39387">
        <ele>261.822461</ele>
        <time>2021-05-08T07:59:39.284Z</time>
      </trkpt>
      <trkpt lat="43.31821" lon="2.39399">
        <ele>262.540256</ele>
        <time>2021-05-08T07:59:43.315Z</time>
      </trkpt>
      <trkpt lat="43.31825" lon="2.39411">
        <ele>263.260839</ele>
        <time>2021-05-08T07:59:47.328Z</time>
      </trkpt>
      <trkpt lat="43.3183" lon="2.39423">
        <ele>264.04124</ele>
        <time>2021-05-08T07:59:51.320Z</time>
      </trkpt>
      <trkpt lat="43.31836" lon="2.39435">
        <ele>264.859991</ele>
        <time>2021-05-08T07:59:55.276Z</time>
      </trkpt>
      <trkpt lat="43.3184" lon="2.39448">
        <ele>265.654213</ele>
        <time>2021-05-08T07:59:59.314Z</time>
      </trkpt>
      <trkpt lat="43.31843" lon="2.39461">
        <ele>266.166673</ele>
        <time>2021-05-08T08:00:03.287Z</time>
      </trkpt>
      <trkpt lat="43.31847" lon="2.39474">
        <ele>266.182941</ele>
        <time>2021-05-08T08:00:07.287Z</time>
      </trkpt>
      <trkpt lat="43.31851" lon="2.39486">
        <ele>266.199499</ele>
        <time>2021-05-08T08:00:11.309Z</time>
      </trkpt>
      <trkpt lat="43.31856" lon="2.39497">
        <ele>266.215668</ele>
        <time>2021-05-08T08:00:15.308Z</time>
      </trkpt>
      <trkpt lat="43.31862" lon="2.39509">
        <ele>266.233731</ele>
        <time>2021-05-08T08:00:19.288Z</time>
      </trkpt>
      <trkpt lat="43.31866" lon="2.39523">
        <ele>266.252092</ele>
        <time>2021-05-08T08:00:23.291Z</time>
      </trkpt>
      <trkpt lat="43.3187" lon="2.39537">
        <ele>266.271044</ele>
        <time>2021-05-08T08:00:28.285Z</time>
      </trkpt>
      <trkpt lat="43.31873" lon="2.39551">
        <ele>266.289129</ele>
        <time>2021-05-08T08:00:33.303Z</time>
      </trkpt>
      <trkpt lat="43.31875" lon="2.39564">
        <ele>266.306133</ele>
        <time>2021-05-08T08:00:38.287Z</time>
      </trkpt>
      <trkpt lat="43.31877" lon="2.39579">
        <ele>266.325387</ele>
        <time>2021-05-08T08:00:43.283Z</time>
      </trkpt>
      <trkpt lat="43.31881" lon="2.39593">
        <ele>266.342932</ele>
        <time>2021-05-08T08:00:48.292Z</time>
      </trkpt>
      <trkpt lat="43.31883" lon="2.39606">
        <ele>266.360093</ele>
        <time>2021-05-08T08:00:53.281Z</time>
      </trkpt>
      <trkpt lat="43.31884" lon="2.3962">
        <ele>266.377377</ele>
        <time>2021-05-08T08:00:58.278Z</time>
      </trkpt>
      <trkpt lat="43.31885" lon="2.39635">
        <ele>266.395677</ele>
        <time>2021-05-08T08:01:03.294Z</time>
      </trkpt>
      <trkpt lat="43.31885" lon="2.39647">
        <ele>266.4116</ele>
        <time>2021-05-08T08:01:07.276Z</time>
      </trkpt>
      <trkpt lat="43.31886" lon="2.39663">
        <ele>266.430505</ele>
        <time>2021-05-08T08:01:12.325Z</time>
      </trkpt>
      <trkpt lat="43.31885" lon="2.39678">
        <ele>266.449658</ele>
        <time>2021-05-08T08:01:17.287Z</time>
      </trkpt>
      <trkpt lat="43.31888" lon="2.39691">
        <ele>266.46604</ele>
        <time>2021-05-08T08:01:21.285Z</time>
      </trkpt>
      <trkpt lat="43.31888" lon="2.39704">
        <ele>266.686002</ele>
        <time>2021-05-08T08:01:26.297Z</time>
      </trkpt>
      <trkpt lat="43.31891" lon="2.39717">
        <ele>266.926192</ele>
        <time>2021-05-08T08:01:30.285Z</time>
      </trkpt>
      <trkpt lat="43.31893" lon="2.39731">
        <ele>267.186736</ele>
        <time>2021-05-08T08:01:35.285Z</time>
      </trkpt>
      <trkpt lat="43.31894" lon="2.39745">
        <ele>267.44487</ele>
        <time>2021-05-08T08:01:40.289Z</time>
      </trkpt>
      <trkpt lat="43.31894" lon="2.39758">
        <ele>267.669232</ele>
        <time>2021-05-08T08:01:44.286Z</time>
      </trkpt>
      <trkpt lat="43.31897" lon="2.39772">
        <ele>267.928028</ele>
        <time>2021-05-08T08:01:48.300Z</time>
      </trkpt>
      <trkpt lat="43.319" lon="2.39787">
        <ele>268.205428</ele>
        <time>2021-05-08T08:01:52.319Z</time>
      </trkpt>
      <trkpt lat="43.31901" lon="2.398">
        <ele>268.441339</ele>
        <time>2021-05-08T08:01:56.307Z</time>
      </trkpt>
      <trkpt lat="43.31902" lon="2.39815">
        <ele>268.699184</ele>
        <time>2021-05-08T08:02:01.288Z</time>
      </trkpt>
      <trkpt lat="43.31903" lon="2.39828">
        <ele>268.937676</ele>
        <time>2021-05-08T08:02:05.310Z</time>
      </trkpt>
      <trkpt lat="43.31904" lon="2.39843">
        <ele>269.205235</ele>
        <time>2021-05-08T08:02:09.281Z</time>
      </trkpt>
      <trkpt lat="43.31901" lon="2.39859">
        <ele>269.493158</ele>
        <time>2021-05-08T08:02:13.279Z</time>
      </trkpt>
      <trkpt lat="43.31897" lon="2.39872">
        <ele>269.750324</ele>
        <time>2021-05-08T08:02:17.308Z</time>
      </trkpt>
      <trkpt lat="43.31887" lon="2.3988">
        <ele>270.033174</ele>
        <time>2021-05-08T08:02:21.288Z</time>
      </trkpt>
      <trkpt lat="43.31877" lon="2.39882">
        <ele>270.277921</ele>
        <time>2021-05-08T08:02:25.285Z</time>
      </trkpt>
      <trkpt lat="43.31867" lon="2.39881">
        <ele>270.511737</ele>
        <time>2021-05-08T08:02:29.287Z</time>
      </trkpt>
      <trkpt lat="43.31857" lon="2.3988">
        <ele>270.768576</ele>
        <time>2021-05-08T08:02:33.319Z</time>
      </trkpt>
      <trkpt lat="43.31846" lon="2.39882">
        <ele>271.082018</ele>
        <time>2021-05-08T08:02:37.279Z</time>
      </trkpt>
      <trkpt lat="43.31837" lon="2.39888">
        <ele>271.434155</ele>
        <time>2021-05-08T08:02:43.291Z</time>
      </trkpt>
      <trkpt lat="43.31827" lon="2.39892">
        <ele>271.769278</ele>
        <time>2021-05-08T08:02:47.270Z</time>
      </trkpt>
      <trkpt lat="43.31817" lon="2.39897">
        <ele>272.129178</ele>
        <time>2021-05-08T08:02:52.308Z</time>
      </trkpt>
      <trkpt lat="43.31808" lon="2.39901">
        <ele>272.43618</ele>
        <time>2021-05-08T08:02:56.327Z</time>
      </trkpt>
      <trkpt lat="43.318" lon="2.39907">
        <ele>272.741285</ele>
        <time>2021-05-08T08:03:00.278Z</time>
      </trkpt>
      <trkpt lat="43.31792" lon="2.39915">
        <ele>273.053723</ele>
        <time>2021-05-08T08:03:04.277Z</time>
      </trkpt>
      <trkpt lat="43.31784" lon="2.39923">
        <ele>273.389292</ele>
        <time>2021-05-08T08:03:08.304Z</time>
      </trkpt>
      <trkpt lat="43.31776" lon="2.39931">
        <ele>273.715719</ele>
        <time>2021-05-08T08:03:12.313Z</time>
      </trkpt>
      <trkpt lat="43.31769" lon="2.3994">
        <ele>274.035333</ele>
        <time>2021-05-08T08:03:16.283Z</time>
      </trkpt>
      <trkpt lat="43.31762" lon="2.39951">
        <ele>274.369093</ele>
        <time>2021-05-08T08:03:20.302Z</time>
      </trkpt>
      <trkpt lat="43.31758" lon="2.39962">
        <ele>274.67791</ele>
        <time>2021-05-08T08:03:24.279Z</time>
      </trkpt>
      <trkpt lat="43.31754" lon="2.39975">
        <ele>275.012774</ele>
        <time>2021-05-08T08:03:28.311Z</time>
      </trkpt>
      <trkpt lat="43.31751" lon="2.39988">
        <ele>275.355902</ele>
        <time>2021-05-08T08:03:32.295Z</time>
      </trkpt>
      <trkpt lat="43.31748" lon="2.40003">
        <ele>275.716258</ele>
        <time>2021-05-08T08:03:36.313Z</time>
      </trkpt>
      <trkpt lat="43.31744" lon="2.40017">
        <ele>276.077697</ele>
        <time>2021-05-08T08:03:40.288Z</time>
      </trkpt>
      <trkpt lat="43.31741" lon="2.40031">
        <ele>276.424076</ele>
        <time>2021-05-08T08:03:44.314Z</time>
      </trkpt>
      <trkpt lat="43.31738" lon="2.40045">
        <ele>276.782392</ele>
        <time>2021-05-08T08:03:48.275Z</time>
      </trkpt>
      <trkpt lat="43.31736" lon="2.40057">
        <ele>277.117255</ele>
        <time>2021-05-08T08:03:52.285Z</time>
      </trkpt>
      <trkpt lat="43.31734" lon="2.40073">
        <ele>277.514961</ele>
        <time>2021-05-08T08:03:56.284Z</time>
      </trkpt>
      <trkpt lat="43.31732" lon="2.40087">
        <ele>277.903144</ele>
        <time>2021-05-08T08:04:00.283Z</time>
      </trkpt>
      <trkpt lat="43.31726" lon="2.40101">
        <ele>278.30181</ele>
        <time>2021-05-08T08:04:05.296Z</time>
      </trkpt>
      <trkpt lat="43.31722" lon="2.40112">
        <ele>278.647605</ele>
        <time>2021-05-08T08:04:08.288Z</time>
      </trkpt>
      <trkpt lat="43.31718" lon="2.40123">
        <ele>278.972488</ele>
        <time>2021-05-08T08:04:11.307Z</time>
      </trkpt>
      <trkpt lat="43.31714" lon="2.40137">
        <ele>279.340401</ele>
        <time>2021-05-08T08:04:15.279Z</time>
      </trkpt>
      <trkpt lat="43.31711" lon="2.4015">
        <ele>279.705851</ele>
        <time>2021-05-08T08:04:19.281Z</time>
      </trkpt>
      <trkpt lat="43.31712" lon="2.40166">
        <ele>280.107183</ele>
        <time>2021-05-08T08:04:23.287Z</time>
      </trkpt>
      <trkpt lat="43.31712" lon="2.4018">
        <ele>280.467998</ele>
        <time>2021-05-08T08:04:27.301Z</time>
      </trkpt>
      <trkpt lat="43.31711" lon="2.40193">
        <ele>280.80516</ele>
        <time>2021-05-08T08:04:31.281Z</time>
      </trkpt>
      <trkpt lat="43.31711" lon="2.40208">
        <ele>281.196452</ele>
        <time>2021-05-08T08:04:35.301Z</time>
      </trkpt>
      <trkpt lat="43.31711" lon="2.40223">
        <ele>281.604272</ele>
        <time>2021-05-08T08:04:39.319Z</time>
      </trkpt>
      <trkpt lat="43.3171" lon="2.40238">
        <ele>281.974307</ele>
        <time>2021-05-08T08:04:43.281Z</time>
      </trkpt>
      <trkpt lat="43.31708" lon="2.40253">
        <ele>282.370487</ele>
        <time>2021-05-08T08:04:47.282Z</time>
      </trkpt>
      <trkpt lat="43.31707" lon="2.40267">
        <ele>282.747951</ele>
        <time>2021-05-08T08:04:51.312Z</time>
      </trkpt>
      <trkpt lat="43.31706" lon="2.40282">
        <ele>283.131602</ele>
        <time>2021-05-08T08:04:55.281Z</time>
      </trkpt>
      <trkpt lat="43.31707" lon="2.40298">
        <ele>283.514894</ele>
        <time>2021-05-08T08:04:59.289Z</time>
      </trkpt>
      <trkpt lat="43.31707" lon="2.40312">
        <ele>283.870811</ele>
        <time>2021-05-08T08:05:03.285Z</time>
      </trkpt>
      <trkpt lat="43.31708" lon="2.40327">
        <ele>284.234941</ele>
        <time>2021-05-08T08:05:07.296Z</time>
      </trkpt>
      <trkpt lat="43.31709" lon="2.40342">
        <ele>284.598099</ele>
        <time>2021-05-08T08:05:11.304Z</time>
      </trkpt>
      <trkpt lat="43.31708" lon="2.40357">
        <ele>284.944077</ele>
        <time>2021-05-08T08:05:15.281Z</time>
      </trkpt>
      <trkpt lat="43.31707" lon="2.40371">
        <ele>285.293196</ele>
        <time>2021-05-08T08:05:19.281Z</time>
      </trkpt>
      <trkpt lat="43.31706" lon="2.40386">
        <ele>285.663596</ele>
        <time>2021-05-08T08:05:23.283Z</time>
      </trkpt>
      <trkpt lat="43.31704" lon="2.404">
        <ele>285.990626</ele>
        <time>2021-05-08T08:05:27.312Z</time>
      </trkpt>
      <trkpt lat="43.31702" lon="2.40412">
        <ele>286.310163</ele>
        <time>2021-05-08T08:05:31.311Z</time>
      </trkpt>
      <trkpt lat="43.317" lon="2.40425">
        <ele>286.615829</ele>
        <time>2021-05-08T08:05:35.309Z</time>
      </trkpt>
      <trkpt lat="43.31697" lon="2.40436">
        <ele>286.915907</ele>
        <time>2021-05-08T08:05:39.292Z</time>
      </trkpt>
      <trkpt lat="43.31693" lon="2.40449">
        <ele>287.245632</ele>
        <time>2021-05-08T08:05:43.316Z</time>
      </trkpt>
      <trkpt lat="43.31688" lon="2.40461">
        <ele>287.582775</ele>
        <time>2021-05-08T08:05:47.297Z</time>
      </trkpt>
      <trkpt lat="43.31683" lon="2.40473">
        <ele>287.927191</ele>
        <time>2021-05-08T08:05:51.304Z</time>
      </trkpt>
      <trkpt lat="43.31676" lon="2.40486">
        <ele>288.292746</ele>
        <time>2021-05-08T08:05:55.293Z</time>
      </trkpt>
      <trkpt lat="43.31669" lon="2.40497">
        <ele>288.666526</ele>
        <time>2021-05-08T08:05:59.292Z</time>
      </trkpt>
      <trkpt lat="43.31663" lon="2.40509">
        <ele>289.015535</ele>
        <time>2021-05-08T08:06:03.288Z</time>
      </trkpt>
      <trkpt lat="43.31658" lon="2.40522">
        <ele>289.281716</ele>
        <time>2021-05-08T08:06:07.294Z</time>
      </trkpt>
      <trkpt lat="43.31652" lon="2.40535">
        <ele>289.455979</ele>
        <time>2021-05-08T08:06:11.290Z</time>
      </trkpt>
      <trkpt lat="43.31646" lon="2.40546">
        <ele>289.626785</ele>
        <time>2021-05-08T08:06:15.295Z</time>
      </trkpt>
      <trkpt lat="43.3164" lon="2.40557">
        <ele>289.79002</ele>
        <time>2021-05-08T08:06:19.292Z</time>
      </trkpt>
      <trkpt lat="43.31634" lon="2.40569">
        <ele>289.957076</ele>
        <time>2021-05-08T08:06:23.285Z</time>
      </trkpt>
      <trkpt lat="43.31627" lon="2.40581">
        <ele>290.129786</ele>
        <time>2021-05-08T08:06:27.286Z</time>
      </trkpt>
      <trkpt lat="43.31623" lon="2.40593">
        <ele>290.295646</ele>
        <time>2021-05-08T08:06:31.282Z</time>
      </trkpt>
      <trkpt lat="43.3162" lon="2.40606">
        <ele>290.450036</ele>
        <time>2021-05-08T08:06:35.275Z</time>
      </trkpt>
      <trkpt lat="43.31621" lon="2.40622">
        <ele>290.638352</ele>
        <time>2021-05-08T08:06:39.282Z</time>
      </trkpt>
      <trkpt lat="43.31623" lon="2.40636">
        <ele>290.808279</ele>
        <time>2021-05-08T08:06:43.276Z</time>
      </trkpt>
      <trkpt lat="43.31629" lon="2.4065">
        <ele>290.992153</ele>
        <time>2021-05-08T08:06:47.286Z</time>
      </trkpt>
      <trkpt lat="43.31632" lon="2.40662">
        <ele>291.14447</ele>
        <time>2021-05-08T08:06:51.283Z</time>
      </trkpt>
      <trkpt lat="43.31637" lon="2.40675">
        <ele>291.311814</ele>
        <time>2021-05-08T08:06:55.286Z</time>
      </trkpt>
      <trkpt lat="43.31642" lon="2.40688">
        <ele>291.4859</ele>
        <time>2021-05-08T08:06:59.280Z</time>
      </trkpt>
      <trkpt lat="43.31647" lon="2.40701">
        <ele>291.657932</ele>
        <time>2021-05-08T08:07:03.283Z</time>
      </trkpt>
      <trkpt lat="43.31652" lon="2.40714">
        <ele>291.835694</ele>
        <time>2021-05-08T08:07:07.278Z</time>
      </trkpt>
      <trkpt lat="43.31657" lon="2.40727">
        <ele>292.006177</ele>
        <time>2021-05-08T08:07:11.309Z</time>
      </trkpt>
      <trkpt lat="43.31661" lon="2.4074">
        <ele>291.970811</ele>
        <time>2021-05-08T08:07:15.320Z</time>
      </trkpt>
      <trkpt lat="43.31665" lon="2.40753">
        <ele>291.670414</ele>
        <time>2021-05-08T08:07:19.328Z</time>
      </trkpt>
      <trkpt lat="43.31667" lon="2.40768">
        <ele>291.357063</ele>
        <time>2021-05-08T08:07:23.274Z</time>
      </trkpt>
      <trkpt lat="43.31669" lon="2.40783">
        <ele>291.040161</ele>
        <time>2021-05-08T08:07:27.339Z</time>
      </trkpt>
      <trkpt lat="43.3167" lon="2.40795">
        <ele>290.777263</ele>
        <time>2021-05-08T08:07:30.295Z</time>
      </trkpt>
      <trkpt lat="43.31671" lon="2.40808">
        <ele>290.500437</ele>
        <time>2021-05-08T08:07:33.284Z</time>
      </trkpt>
      <trkpt lat="43.31672" lon="2.40821">
        <ele>290.222574</ele>
        <time>2021-05-08T08:07:36.279Z</time>
      </trkpt>
      <trkpt lat="43.31674" lon="2.40835">
        <ele>289.939168</ele>
        <time>2021-05-08T08:07:39.295Z</time>
      </trkpt>
      <trkpt lat="43.31675" lon="2.40848">
        <ele>289.655762</ele>
        <time>2021-05-08T08:07:42.282Z</time>
      </trkpt>
      <trkpt lat="43.31675" lon="2.40863">
        <ele>289.338087</ele>
        <time>2021-05-08T08:07:45.334Z</time>
      </trkpt>
      <trkpt lat="43.31676" lon="2.40876">
        <ele>289.077084</ele>
        <time>2021-05-08T08:07:47.275Z</time>
      </trkpt>
      <trkpt lat="43.31676" lon="2.40889">
        <ele>288.788639</ele>
        <time>2021-05-08T08:07:49.284Z</time>
      </trkpt>
      <trkpt lat="43.31677" lon="2.40904">
        <ele>288.483232</ele>
        <time>2021-05-08T08:07:51.280Z</time>
      </trkpt>
      <trkpt lat="43.31678" lon="2.40918">
        <ele>288.178003</ele>
        <time>2021-05-08T08:07:53.287Z</time>
      </trkpt>
      <trkpt lat="43.31679" lon="2.40932">
        <ele>287.88236</ele>
        <time>2021-05-08T08:07:55.305Z</time>
      </trkpt>
      <trkpt lat="43.31679" lon="2.40946">
        <ele>287.58932</ele>
        <time>2021-05-08T08:07:57.308Z</time>
      </trkpt>
      <trkpt lat="43.3168" lon="2.40959">
        <ele>287.312495</ele>
        <time>2021-05-08T08:07:59.290Z</time>
      </trkpt>
      <trkpt lat="43.31681" lon="2.40972">
        <ele>287.03776</ele>
        <time>2021-05-08T08:08:01.286Z</time>
      </trkpt>
      <trkpt lat="43.31683" lon="2.40985">
        <ele>286.731106</ele>
        <time>2021-05-08T08:08:03.294Z</time>
      </trkpt>
      <trkpt lat="43.31684" lon="2.40998">
        <ele>286.373722</ele>
        <time>2021-05-08T08:08:05.283Z</time>
      </trkpt>
      <trkpt lat="43.31684" lon="2.41012">
        <ele>285.995732</ele>
        <time>2021-05-08T08:08:07.287Z</time>
      </trkpt>
      <trkpt lat="43.31684" lon="2.41026">
        <ele>285.618036</ele>
        <time>2021-05-08T08:08:09.312Z</time>
      </trkpt>
      <trkpt lat="43.31685" lon="2.41039">
        <ele>285.248354</ele>
        <time>2021-05-08T08:08:11.312Z</time>
      </trkpt>
      <trkpt lat="43.31685" lon="2.41053">
        <ele>284.887044</ele>
        <time>2021-05-08T08:08:13.282Z</time>
      </trkpt>
      <trkpt lat="43.31685" lon="2.41067">
        <ele>284.501367</ele>
        <time>2021-05-08T08:08:15.282Z</time>
      </trkpt>
      <trkpt lat="43.31685" lon="2.41082">
        <ele>284.099237</ele>
        <time>2021-05-08T08:08:17.312Z</time>
      </trkpt>
      <trkpt lat="43.31685" lon="2.41097">
        <ele>283.69453</ele>
        <time>2021-05-08T08:08:19.312Z</time>
      </trkpt>
      <trkpt lat="43.31685" lon="2.41112">
        <ele>283.273528</ele>
        <time>2021-05-08T08:08:21.305Z</time>
      </trkpt>
      <trkpt lat="43.31685" lon="2.41128">
        <ele>282.841533</ele>
        <time>2021-05-08T08:08:23.301Z</time>
      </trkpt>
      <trkpt lat="43.31684" lon="2.41144">
        <ele>282.409538</ele>
        <time>2021-05-08T08:08:25.320Z</time>
      </trkpt>
      <trkpt lat="43.31684" lon="2.41159">
        <ele>281.993834</ele>
        <time>2021-05-08T08:08:27.285Z</time>
      </trkpt>
      <trkpt lat="43.31684" lon="2.41174">
        <ele>281.594419</ele>
        <time>2021-05-08T08:08:29.316Z</time>
      </trkpt>
      <trkpt lat="43.31684" lon="2.41188">
        <ele>281.200594</ele>
        <time>2021-05-08T08:08:31.286Z</time>
      </trkpt>
      <trkpt lat="43.31684" lon="2.41203">
        <ele>280.809485</ele>
        <time>2021-05-08T08:08:33.292Z</time>
      </trkpt>
      <trkpt lat="43.31685" lon="2.41217">
        <ele>280.425869</ele>
        <time>2021-05-08T08:08:35.289Z</time>
      </trkpt>
      <trkpt lat="43.31686" lon="2.41231">
        <ele>280.098418</ele>
        <time>2021-05-08T08:08:37.315Z</time>
      </trkpt>
      <trkpt lat="43.31688" lon="2.41246">
        <ele>279.851201</ele>
        <time>2021-05-08T08:08:39.316Z</time>
      </trkpt>
      <trkpt lat="43.3169" lon="2.4126">
        <ele>279.600543</ele>
        <time>2021-05-08T08:08:41.273Z</time>
      </trkpt>
      <trkpt lat="43.31692" lon="2.41275">
        <ele>279.346701</ele>
        <time>2021-05-08T08:08:43.316Z</time>
      </trkpt>
      <trkpt lat="43.31694" lon="2.4129">
        <ele>279.095768</ele>
        <time>2021-05-08T08:08:45.283Z</time>
      </trkpt>
      <trkpt lat="43.31697" lon="2.41305">
        <ele>278.836162</ele>
        <time>2021-05-08T08:08:47.291Z</time>
      </trkpt>
      <trkpt lat="43.31699" lon="2.4132">
        <ele>278.57161</ele>
        <time>2021-05-08T08:08:49.310Z</time>
      </trkpt>
      <trkpt lat="43.31701" lon="2.41336">
        <ele>278.30124</ele>
        <time>2021-05-08T08:08:51.294Z</time>
      </trkpt>
      <trkpt lat="43.31704" lon="2.41352">
        <ele>278.022372</ele>
        <time>2021-05-08T08:08:53.287Z</time>
      </trkpt>
      <trkpt lat="43.31706" lon="2.41369">
        <ele>277.735812</ele>
        <time>2021-05-08T08:08:55.306Z</time>
      </trkpt>
      <trkpt lat="43.31709" lon="2.41386">
        <ele>277.448252</ele>
        <time>2021-05-08T08:08:57.311Z</time>
      </trkpt>
      <trkpt lat="43.31711" lon="2.41402">
        <ele>277.165913</ele>
        <time>2021-05-08T08:08:59.297Z</time>
      </trkpt>
      <trkpt lat="43.31714" lon="2.41419">
        <ele>276.882166</ele>
        <time>2021-05-08T08:09:01.305Z</time>
      </trkpt>
      <trkpt lat="43.31718" lon="2.41435">
        <ele>276.596562</ele>
        <time>2021-05-08T08:09:03.317Z</time>
      </trkpt>
      <trkpt lat="43.31723" lon="2.41451">
        <ele>276.313507</ele>
        <time>2021-05-08T08:09:05.294Z</time>
      </trkpt>
      <trkpt lat="43.31727" lon="2.41466">
        <ele>276.043569</ele>
        <time>2021-05-08T08:09:07.320Z</time>
      </trkpt>
      <trkpt lat="43.31731" lon="2.4148">
        <ele>276.124334</ele>
        <time>2021-05-08T08:09:09.321Z</time>
      </trkpt>
      <trkpt lat="43.31735" lon="2.41494">
        <ele>276.199518</ele>
        <time>2021-05-08T08:09:11.297Z</time>
      </trkpt>
      <trkpt lat="43.31739" lon="2.41506">
        <ele>276.268419</ele>
        <time>2021-05-08T08:09:13.324Z</time>
      </trkpt>
      <trkpt lat="43.31743" lon="2.41523">
        <ele>276.360135</ele>
        <time>2021-05-08T08:09:16.288Z</time>
      </trkpt>
      <trkpt lat="43.31746" lon="2.41539">
        <ele>276.445905</ele>
        <time>2021-05-08T08:09:19.286Z</time>
      </trkpt>
      <trkpt lat="43.31749" lon="2.41555">
        <ele>276.532056</ele>
        <time>2021-05-08T08:09:22.309Z</time>
      </trkpt>
      <trkpt lat="43.31753" lon="2.41571">
        <ele>276.61816</ele>
        <time>2021-05-08T08:09:25.282Z</time>
      </trkpt>
      <trkpt lat="43.31756" lon="2.41586">
        <ele>276.698138</ele>
        <time>2021-05-08T08:09:28.294Z</time>
      </trkpt>
      <trkpt lat="43.31758" lon="2.41601">
        <ele>276.776377</ele>
        <time>2021-05-08T08:09:31.307Z</time>
      </trkpt>
      <trkpt lat="43.3176" lon="2.41614">
        <ele>276.846832</ele>
        <time>2021-05-08T08:09:34.318Z</time>
      </trkpt>
      <trkpt lat="43.31761" lon="2.41627">
        <ele>276.911316</ele>
        <time>2021-05-08T08:09:37.275Z</time>
      </trkpt>
      <trkpt lat="43.31763" lon="2.41639">
        <ele>276.978025</ele>
        <time>2021-05-08T08:09:40.296Z</time>
      </trkpt>
      <trkpt lat="43.31765" lon="2.41652">
        <ele>277.044425</ele>
        <time>2021-05-08T08:09:43.313Z</time>
      </trkpt>
      <trkpt lat="43.31768" lon="2.41666">
        <ele>277.116994</ele>
        <time>2021-05-08T08:09:46.315Z</time>
      </trkpt>
      <trkpt lat="43.3177" lon="2.4168">
        <ele>277.191739</ele>
        <time>2021-05-08T08:09:49.314Z</time>
      </trkpt>
      <trkpt lat="43.31773" lon="2.41693">
        <ele>277.261631</ele>
        <time>2021-05-08T08:09:52.285Z</time>
      </trkpt>
      <trkpt lat="43.31775" lon="2.41706">
        <ele>277.324294</ele>
        <time>2021-05-08T08:09:55.326Z</time>
      </trkpt>
      <trkpt lat="43.31778" lon="2.4172">
        <ele>277.35743</ele>
        <time>2021-05-08T08:09:58.322Z</time>
      </trkpt>
      <trkpt lat="43.3178" lon="2.41737">
        <ele>277.396358</ele>
        <time>2021-05-08T08:10:01.319Z</time>
      </trkpt>
      <trkpt lat="43.31781" lon="2.41754">
        <ele>277.436272</ele>
        <time>2021-05-08T08:10:04.299Z</time>
      </trkpt>
      <trkpt lat="43.31779" lon="2.41772">
        <ele>277.476467</ele>
        <time>2021-05-08T08:10:07.322Z</time>
      </trkpt>
      <trkpt lat="43.31776" lon="2.41786">
        <ele>277.511711</ele>
        <time>2021-05-08T08:10:10.315Z</time>
      </trkpt>
      <trkpt lat="43.31769" lon="2.41798">
        <ele>277.545421</ele>
        <time>2021-05-08T08:10:13.302Z</time>
      </trkpt>
      <trkpt lat="43.31761" lon="2.41807">
        <ele>277.577018</ele>
        <time>2021-05-08T08:10:16.310Z</time>
      </trkpt>
      <trkpt lat="43.31754" lon="2.41817">
        <ele>277.607845</ele>
        <time>2021-05-08T08:10:19.330Z</time>
      </trkpt>
      <trkpt lat="43.31748" lon="2.41827">
        <ele>277.638819</ele>
        <time>2021-05-08T08:10:22.324Z</time>
      </trkpt>
      <trkpt lat="43.31742" lon="2.41838">
        <ele>277.671386</ele>
        <time>2021-05-08T08:10:25.315Z</time>
      </trkpt>
      <trkpt lat="43.31736" lon="2.4185">
        <ele>277.702543</ele>
        <time>2021-05-08T08:10:28.294Z</time>
      </trkpt>
      <trkpt lat="43.31733" lon="2.41864">
        <ele>277.736357</ele>
        <time>2021-05-08T08:10:32.302Z</time>
      </trkpt>
      <trkpt lat="43.31735" lon="2.41879">
        <ele>277.771904</ele>
        <time>2021-05-08T08:10:36.292Z</time>
      </trkpt>
      <trkpt lat="43.31741" lon="2.4189">
        <ele>277.801677</ele>
        <time>2021-05-08T08:10:39.281Z</time>
      </trkpt>
      <trkpt lat="43.31749" lon="2.41895">
        <ele>277.830827</ele>
        <time>2021-05-08T08:10:42.283Z</time>
      </trkpt>
      <trkpt lat="43.31759" lon="2.41901">
        <ele>277.864743</ele>
        <time>2021-05-08T08:10:47.299Z</time>
      </trkpt>
      <trkpt lat="43.31771" lon="2.41901">
        <ele>277.780497</ele>
        <time>2021-05-08T08:10:51.279Z</time>
      </trkpt>
      <trkpt lat="43.31782" lon="2.41903">
        <ele>277.601258</ele>
        <time>2021-05-08T08:10:54.301Z</time>
      </trkpt>
      <trkpt lat="43.31795" lon="2.41904">
        <ele>277.386885</ele>
        <time>2021-05-08T08:10:57.280Z</time>
      </trkpt>
      <trkpt lat="43.31804" lon="2.41906">
        <ele>277.238756</ele>
        <time>2021-05-08T08:10:59.284Z</time>
      </trkpt>
      <trkpt lat="43.31817" lon="2.41908">
        <ele>277.034314</ele>
        <time>2021-05-08T08:11:02.288Z</time>
      </trkpt>
      <trkpt lat="43.31829" lon="2.4191">
        <ele>276.833564</ele>
        <time>2021-05-08T08:11:05.277Z</time>
      </trkpt>
      <trkpt lat="43.31841" lon="2.41912">
        <ele>276.631844</ele>
        <time>2021-05-08T08:11:08.279Z</time>
      </trkpt>
      <trkpt lat="43.31854" lon="2.41915">
        <ele>276.426124</ele>
        <time>2021-05-08T08:11:11.311Z</time>
      </trkpt>
      <trkpt lat="43.31863" lon="2.41917">
        <ele>276.276071</ele>
        <time>2021-05-08T08:11:13.325Z</time>
      </trkpt>
      <trkpt lat="43.31873" lon="2.41919">
        <ele>276.111126</ele>
        <time>2021-05-08T08:11:15.319Z</time>
      </trkpt>
      <trkpt lat="43.31882" lon="2.4192">
        <ele>275.95072</ele>
        <time>2021-05-08T08:11:17.289Z</time>
      </trkpt>
      <trkpt lat="43.31892" lon="2.41919">
        <ele>275.799931</ele>
        <time>2021-05-08T08:11:19.285Z</time>
      </trkpt>
      <trkpt lat="43.31901" lon="2.41917">
        <ele>275.641457</ele>
        <time>2021-05-08T08:11:21.287Z</time>
      </trkpt>
      <trkpt lat="43.31912" lon="2.41915">
        <ele>275.469707</ele>
        <time>2021-05-08T08:11:23.314Z</time>
      </trkpt>
      <trkpt lat="43.31923" lon="2.41914">
        <ele>275.287871</ele>
        <time>2021-05-08T08:11:25.314Z</time>
      </trkpt>
      <trkpt lat="43.31933" lon="2.41914">
        <ele>275.112978</ele>
        <time>2021-05-08T08:11:27.291Z</time>
      </trkpt>
      <trkpt lat="43.31945" lon="2.41916">
        <ele>274.97792</ele>
        <time>2021-05-08T08:11:29.306Z</time>
      </trkpt>
      <trkpt lat="43.31956" lon="2.41918">
        <ele>275.340374</ele>
        <time>2021-05-08T08:11:31.283Z</time>
      </trkpt>
      <trkpt lat="43.31967" lon="2.4192">
        <ele>275.693522</ele>
        <time>2021-05-08T08:11:33.285Z</time>
      </trkpt>
      <trkpt lat="43.31977" lon="2.41922">
        <ele>276.026474</ele>
        <time>2021-05-08T08:11:35.296Z</time>
      </trkpt>
      <trkpt lat="43.31986" lon="2.41922">
        <ele>276.334277</ele>
        <time>2021-05-08T08:11:37.291Z</time>
      </trkpt>
      <trkpt lat="43.31995" lon="2.41926">
        <ele>276.644328</ele>
        <time>2021-05-08T08:11:39.288Z</time>
      </trkpt>
      <trkpt lat="43.32004" lon="2.41932">
        <ele>276.945556</ele>
        <time>2021-05-08T08:11:41.294Z</time>
      </trkpt>
      <trkpt lat="43.32015" lon="2.41938">
        <ele>277.340361</ele>
        <time>2021-05-08T08:11:44.293Z</time>
      </trkpt>
      <trkpt lat="43.32022" lon="2.4195">
        <ele>277.701051</ele>
        <time>2021-05-08T08:11:47.294Z</time>
      </trkpt>
      <trkpt lat="43.32021" lon="2.41962">
        <ele>278.00522</ele>
        <time>2021-05-08T08:11:49.279Z</time>
      </trkpt>
      <trkpt lat="43.32016" lon="2.41975">
        <ele>278.337605</ele>
        <time>2021-05-08T08:11:51.320Z</time>
      </trkpt>
      <trkpt lat="43.32005" lon="2.41985">
        <ele>278.760798</ele>
        <time>2021-05-08T08:11:54.284Z</time>
      </trkpt>
      <trkpt lat="43.31995" lon="2.41987">
        <ele>279.099125</ele>
        <time>2021-05-08T08:11:57.315Z</time>
      </trkpt>
      <trkpt lat="43.31985" lon="2.41987">
        <ele>279.41645</ele>
        <time>2021-05-08T08:12:01.317Z</time>
      </trkpt>
      <trkpt lat="43.31994" lon="2.41988">
        <ele>279.715884</ele>
        <time>2021-05-08T08:12:09.282Z</time>
      </trkpt>
      <trkpt lat="43.32004" lon="2.41984">
        <ele>280.046206</ele>
        <time>2021-05-08T08:12:14.272Z</time>
      </trkpt>
      <trkpt lat="43.32011" lon="2.41976">
        <ele>280.346454</ele>
        <time>2021-05-08T08:12:18.284Z</time>
      </trkpt>
      <trkpt lat="43.32001" lon="2.41978">
        <ele>280.688758</ele>
        <time>2021-05-08T08:12:26.281Z</time>
      </trkpt>
      <trkpt lat="43.3199" lon="2.41981">
        <ele>280.637924</ele>
        <time>2021-05-08T08:12:29.300Z</time>
      </trkpt>
      <trkpt lat="43.31979" lon="2.41982">
        <ele>280.457693</ele>
        <time>2021-05-08T08:12:32.289Z</time>
      </trkpt>
      <trkpt lat="43.31967" lon="2.41984">
        <ele>280.2626</ele>
        <time>2021-05-08T08:12:35.282Z</time>
      </trkpt>
      <trkpt lat="43.31954" lon="2.41985">
        <ele>280.046505</ele>
        <time>2021-05-08T08:12:38.288Z</time>
      </trkpt>
      <trkpt lat="43.31945" lon="2.4199">
        <ele>279.899971</ele>
        <time>2021-05-08T08:12:40.289Z</time>
      </trkpt>
      <trkpt lat="43.31935" lon="2.42001">
        <ele>279.692753</ele>
        <time>2021-05-08T08:12:43.286Z</time>
      </trkpt>
      <trkpt lat="43.31926" lon="2.42011">
        <ele>279.498745</ele>
        <time>2021-05-08T08:12:46.281Z</time>
      </trkpt>
      <trkpt lat="43.31917" lon="2.42023">
        <ele>279.301026</ele>
        <time>2021-05-08T08:12:49.281Z</time>
      </trkpt>
      <trkpt lat="43.31907" lon="2.42032">
        <ele>279.110385</ele>
        <time>2021-05-08T08:12:52.277Z</time>
      </trkpt>
      <trkpt lat="43.31896" lon="2.4204">
        <ele>278.914643</ele>
        <time>2021-05-08T08:12:55.302Z</time>
      </trkpt>
      <trkpt lat="43.31885" lon="2.42046">
        <ele>278.719867</ele>
        <time>2021-05-08T08:12:58.294Z</time>
      </trkpt>
      <trkpt lat="43.31873" lon="2.42053">
        <ele>278.516161</ele>
        <time>2021-05-08T08:13:01.279Z</time>
      </trkpt>
      <trkpt lat="43.31862" lon="2.42062">
        <ele>278.309526</ele>
        <time>2021-05-08T08:13:04.280Z</time>
      </trkpt>
      <trkpt lat="43.31854" lon="2.42074">
        <ele>278.115024</ele>
        <time>2021-05-08T08:13:07.305Z</time>
      </trkpt>
      <trkpt lat="43.31848" lon="2.42088">
        <ele>277.927201</ele>
        <time>2021-05-08T08:13:10.321Z</time>
      </trkpt>
      <trkpt lat="43.31842" lon="2.42102">
        <ele>277.692493</ele>
        <time>2021-05-08T08:13:13.281Z</time>
      </trkpt>
      <trkpt lat="43.31837" lon="2.42116">
        <ele>277.439813</ele>
        <time>2021-05-08T08:13:16.280Z</time>
      </trkpt>
      <trkpt lat="43.31831" lon="2.4213">
        <ele>277.194753</ele>
        <time>2021-05-08T08:13:19.282Z</time>
      </trkpt>
      <trkpt lat="43.31823" lon="2.42141">
        <ele>276.960754</ele>
        <time>2021-05-08T08:13:22.284Z</time>
      </trkpt>
      <trkpt lat="43.31814" lon="2.4215">
        <ele>276.722781</ele>
        <time>2021-05-08T08:13:25.283Z</time>
      </trkpt>
      <trkpt lat="43.31805" lon="2.42158">
        <ele>276.49221</ele>
        <time>2021-05-08T08:13:28.285Z</time>
      </trkpt>
      <trkpt lat="43.31796" lon="2.42166">
        <ele>276.262099</ele>
        <time>2021-05-08T08:13:31.281Z</time>
      </trkpt>
      <trkpt lat="43.31785" lon="2.42174">
        <ele>275.993407</ele>
        <time>2021-05-08T08:13:34.281Z</time>
      </trkpt>
      <trkpt lat="43.31774" lon="2.42182">
        <ele>275.714622</ele>
        <time>2021-05-08T08:13:37.276Z</time>
      </trkpt>
      <trkpt lat="43.31763" lon="2.4219">
        <ele>275.462081</ele>
        <time>2021-05-08T08:13:40.289Z</time>
      </trkpt>
      <trkpt lat="43.31754" lon="2.42199">
        <ele>275.21727</ele>
        <time>2021-05-08T08:13:43.317Z</time>
      </trkpt>
      <trkpt lat="43.31744" lon="2.42207">
        <ele>274.964996</ele>
        <time>2021-05-08T08:13:46.281Z</time>
      </trkpt>
      <trkpt lat="43.31733" lon="2.42215">
        <ele>274.710596</ele>
        <time>2021-05-08T08:13:49.288Z</time>
      </trkpt>
      <trkpt lat="43.31724" lon="2.42223">
        <ele>274.467035</ele>
        <time>2021-05-08T08:13:52.273Z</time>
      </trkpt>
      <trkpt lat="43.31714" lon="2.42231">
        <ele>274.223716</ele>
        <time>2021-05-08T08:13:55.285Z</time>
      </trkpt>
      <trkpt lat="43.31704" lon="2.4224">
        <ele>273.995557</ele>
        <time>2021-05-08T08:13:58.284Z</time>
      </trkpt>
      <trkpt lat="43.31694" lon="2.42248">
        <ele>273.843514</ele>
        <time>2021-05-08T08:14:01.274Z</time>
      </trkpt>
      <trkpt lat="43.31684" lon="2.42257">
        <ele>273.692579</ele>
        <time>2021-05-08T08:14:04.312Z</time>
      </trkpt>
      <trkpt lat="43.31674" lon="2.42265">
        <ele>273.538071</ele>
        <time>2021-05-08T08:14:07.278Z</time>
      </trkpt>
      <trkpt lat="43.31664" lon="2.42275">
        <ele>273.382526</ele>
        <time>2021-05-08T08:14:10.294Z</time>
      </trkpt>
      <trkpt lat="43.31654" lon="2.42285">
        <ele>273.221203</ele>
        <time>2021-05-08T08:14:13.281Z</time>
      </trkpt>
      <trkpt lat="43.31644" lon="2.42295">
        <ele>273.062518</ele>
        <time>2021-05-08T08:14:16.317Z</time>
      </trkpt>
      <trkpt lat="43.31635" lon="2.42305">
        <ele>272.913992</ele>
        <time>2021-05-08T08:14:19.313Z</time>
      </trkpt>
      <trkpt lat="43.31627" lon="2.42317">
        <ele>272.764121</ele>
        <time>2021-05-08T08:14:22.276Z</time>
      </trkpt>
      <trkpt lat="43.31621" lon="2.4233">
        <ele>272.615631</ele>
        <time>2021-05-08T08:14:25.281Z</time>
      </trkpt>
      <trkpt lat="43.31618" lon="2.42345">
        <ele>272.467938</ele>
        <time>2021-05-08T08:14:28.275Z</time>
      </trkpt>
      <trkpt lat="43.31616" lon="2.42361">
        <ele>272.317045</ele>
        <time>2021-05-08T08:14:31.286Z</time>
      </trkpt>
      <trkpt lat="43.31616" lon="2.42377">
        <ele>272.161929</ele>
        <time>2021-05-08T08:14:34.283Z</time>
      </trkpt>
      <trkpt lat="43.31617" lon="2.42395">
        <ele>271.998313</ele>
        <time>2021-05-08T08:14:37.315Z</time>
      </trkpt>
      <trkpt lat="43.31616" lon="2.42412">
        <ele>271.831676</ele>
        <time>2021-05-08T08:14:40.319Z</time>
      </trkpt>
      <trkpt lat="43.31615" lon="2.42425">
        <ele>271.712659</ele>
        <time>2021-05-08T08:14:42.312Z</time>
      </trkpt>
      <trkpt lat="43.31613" lon="2.42442">
        <ele>271.265902</ele>
        <time>2021-05-08T08:14:45.309Z</time>
      </trkpt>
      <trkpt lat="43.3161" lon="2.42458">
        <ele>270.824577</ele>
        <time>2021-05-08T08:14:48.306Z</time>
      </trkpt>
      <trkpt lat="43.31605" lon="2.42473">
        <ele>270.392437</ele>
        <time>2021-05-08T08:14:51.275Z</time>
      </trkpt>
      <trkpt lat="43.31602" lon="2.42485">
        <ele>270.019097</ele>
        <time>2021-05-08T08:14:54.282Z</time>
      </trkpt>
      <trkpt lat="43.31599" lon="2.42499">
        <ele>269.648214</ele>
        <time>2021-05-08T08:14:57.286Z</time>
      </trkpt>
      <trkpt lat="43.31597" lon="2.42513">
        <ele>269.247846</ele>
        <time>2021-05-08T08:15:00.308Z</time>
      </trkpt>
      <trkpt lat="43.31599" lon="2.42531">
        <ele>268.767344</ele>
        <time>2021-05-08T08:15:03.289Z</time>
      </trkpt>
      <trkpt lat="43.31603" lon="2.42546">
        <ele>268.337056</ele>
        <time>2021-05-08T08:15:06.277Z</time>
      </trkpt>
      <trkpt lat="43.31608" lon="2.42558">
        <ele>267.952387</ele>
        <time>2021-05-08T08:15:09.282Z</time>
      </trkpt>
      <trkpt lat="43.31614" lon="2.4257">
        <ele>267.565114</ele>
        <time>2021-05-08T08:15:12.279Z</time>
      </trkpt>
      <trkpt lat="43.31619" lon="2.42584">
        <ele>267.146091</ele>
        <time>2021-05-08T08:15:15.284Z</time>
      </trkpt>
      <trkpt lat="43.31623" lon="2.426">
        <ele>266.687839</ele>
        <time>2021-05-08T08:15:18.324Z</time>
      </trkpt>
      <trkpt lat="43.31626" lon="2.42615">
        <ele>266.27452</ele>
        <time>2021-05-08T08:15:21.277Z</time>
      </trkpt>
      <trkpt lat="43.31627" lon="2.42628">
        <ele>265.908739</ele>
        <time>2021-05-08T08:15:24.318Z</time>
      </trkpt>
      <trkpt lat="43.31626" lon="2.42643">
        <ele>265.517723</ele>
        <time>2021-05-08T08:15:27.283Z</time>
      </trkpt>
      <trkpt lat="43.31624" lon="2.42657">
        <ele>265.131753</ele>
        <time>2021-05-08T08:15:30.310Z</time>
      </trkpt>
      <trkpt lat="43.31622" lon="2.4267">
        <ele>265.193332</ele>
        <time>2021-05-08T08:15:33.289Z</time>
      </trkpt>
      <trkpt lat="43.3162" lon="2.42684">
        <ele>265.444471</ele>
        <time>2021-05-08T08:15:36.312Z</time>
      </trkpt>
      <trkpt lat="43.31618" lon="2.42698">
        <ele>265.689059</ele>
        <time>2021-05-08T08:15:39.293Z</time>
      </trkpt>
      <trkpt lat="43.31617" lon="2.42711">
        <ele>265.922773</ele>
        <time>2021-05-08T08:15:42.280Z</time>
      </trkpt>
      <trkpt lat="43.31615" lon="2.42725">
        <ele>266.17082</ele>
        <time>2021-05-08T08:15:45.284Z</time>
      </trkpt>
      <trkpt lat="43.31614" lon="2.42739">
        <ele>266.412138</ele>
        <time>2021-05-08T08:15:48.289Z</time>
      </trkpt>
      <trkpt lat="43.31613" lon="2.42752">
        <ele>266.651516</ele>
        <time>2021-05-08T08:15:51.311Z</time>
      </trkpt>
      <trkpt lat="43.31612" lon="2.42767">
        <ele>266.906758</ele>
        <time>2021-05-08T08:15:54.298Z</time>
      </trkpt>
      <trkpt lat="43.3161" lon="2.42782">
        <ele>267.174875</ele>
        <time>2021-05-08T08:15:57.307Z</time>
      </trkpt>
      <trkpt lat="43.31607" lon="2.42796">
        <ele>267.433893</ele>
        <time>2021-05-08T08:16:00.319Z</time>
      </trkpt>
      <trkpt lat="43.31605" lon="2.42812">
        <ele>267.713923</ele>
        <time>2021-05-08T08:16:03.280Z</time>
      </trkpt>
      <trkpt lat="43.31603" lon="2.42828">
        <ele>268.000877</ele>
        <time>2021-05-08T08:16:06.311Z</time>
      </trkpt>
      <trkpt lat="43.31602" lon="2.42843">
        <ele>268.266572</ele>
        <time>2021-05-08T08:16:09.310Z</time>
      </trkpt>
      <trkpt lat="43.31601" lon="2.42858">
        <ele>268.527947</ele>
        <time>2021-05-08T08:16:12.280Z</time>
      </trkpt>
      <trkpt lat="43.31601" lon="2.42871">
        <ele>268.758418</ele>
        <time>2021-05-08T08:16:15.315Z</time>
      </trkpt>
      <trkpt lat="43.31602" lon="2.42883">
        <ele>268.976144</ele>
        <time>2021-05-08T08:16:18.307Z</time>
      </trkpt>
      <trkpt lat="43.31603" lon="2.42896">
        <ele>269.205001</ele>
        <time>2021-05-08T08:16:21.314Z</time>
      </trkpt>
      <trkpt lat="43.31603" lon="2.42909">
        <ele>269.412698</ele>
        <time>2021-05-08T08:16:24.320Z</time>
      </trkpt>
      <trkpt lat="43.31604" lon="2.42922">
        <ele>269.554402</ele>
        <time>2021-05-08T08:16:27.282Z</time>
      </trkpt>
      <trkpt lat="43.31604" lon="2.42938">
        <ele>269.741955</ele>
        <time>2021-05-08T08:16:31.314Z</time>
      </trkpt>
      <trkpt lat="43.31605" lon="2.42954">
        <ele>269.929875</ele>
        <time>2021-05-08T08:16:35.323Z</time>
      </trkpt>
      <trkpt lat="43.31605" lon="2.42969">
        <ele>270.102595</ele>
        <time>2021-05-08T08:16:39.280Z</time>
      </trkpt>
      <trkpt lat="43.31606" lon="2.42985">
        <ele>270.27865</ele>
        <time>2021-05-08T08:16:43.306Z</time>
      </trkpt>
      <trkpt lat="43.31605" lon="2.43">
        <ele>270.454648</ele>
        <time>2021-05-08T08:16:47.292Z</time>
      </trkpt>
      <trkpt lat="43.31605" lon="2.43012">
        <ele>270.598431</ele>
        <time>2021-05-08T08:16:50.320Z</time>
      </trkpt>
      <trkpt lat="43.31605" lon="2.43025">
        <ele>270.74695</ele>
        <time>2021-05-08T08:16:53.288Z</time>
      </trkpt>
      <trkpt lat="43.31604" lon="2.4304">
        <ele>270.917659</ele>
        <time>2021-05-08T08:16:57.276Z</time>
      </trkpt>
      <trkpt lat="43.31602" lon="2.43055">
        <ele>271.09367</ele>
        <time>2021-05-08T08:17:01.275Z</time>
      </trkpt>
      <trkpt lat="43.31598" lon="2.43071">
        <ele>271.283928</ele>
        <time>2021-05-08T08:17:05.280Z</time>
      </trkpt>
      <trkpt lat="43.31594" lon="2.43086">
        <ele>271.467715</ele>
        <time>2021-05-08T08:17:09.284Z</time>
      </trkpt>
      <trkpt lat="43.3159" lon="2.43101">
        <ele>271.653677</ele>
        <time>2021-05-08T08:17:13.286Z</time>
      </trkpt>
      <trkpt lat="43.31586" lon="2.43116">
        <ele>271.840702</ele>
        <time>2021-05-08T08:17:17.277Z</time>
      </trkpt>
      <trkpt lat="43.31583" lon="2.43129">
        <ele>271.992577</ele>
        <time>2021-05-08T08:17:20.300Z</time>
      </trkpt>
      <trkpt lat="43.3158" lon="2.43141">
        <ele>272.137059</ele>
        <time>2021-05-08T08:17:23.285Z</time>
      </trkpt>
      <trkpt lat="43.31578" lon="2.43153">
        <ele>272.221111</ele>
        <time>2021-05-08T08:17:26.303Z</time>
      </trkpt>
      <trkpt lat="43.31575" lon="2.43166">
        <ele>272.244068</ele>
        <time>2021-05-08T08:17:29.315Z</time>
      </trkpt>
      <trkpt lat="43.31573" lon="2.43179">
        <ele>272.268291</ele>
        <time>2021-05-08T08:17:32.290Z</time>
      </trkpt>
      <trkpt lat="43.31573" lon="2.43195">
        <ele>272.295212</ele>
        <time>2021-05-08T08:17:35.300Z</time>
      </trkpt>
      <trkpt lat="43.31573" lon="2.4321">
        <ele>272.32231</ele>
        <time>2021-05-08T08:17:38.321Z</time>
      </trkpt>
      <trkpt lat="43.31574" lon="2.43226">
        <ele>272.349066</ele>
        <time>2021-05-08T08:17:41.308Z</time>
      </trkpt>
      <trkpt lat="43.31574" lon="2.43242">
        <ele>272.377566</ele>
        <time>2021-05-08T08:17:44.313Z</time>
      </trkpt>
      <trkpt lat="43.31574" lon="2.43258">
        <ele>272.405877</ele>
        <time>2021-05-08T08:17:47.296Z</time>
      </trkpt>
      <trkpt lat="43.31575" lon="2.43274">
        <ele>272.432849</ele>
        <time>2021-05-08T08:17:50.305Z</time>
      </trkpt>
      <trkpt lat="43.31575" lon="2.4329">
        <ele>272.459947</ele>
        <time>2021-05-08T08:17:53.276Z</time>
      </trkpt>
      <trkpt lat="43.31575" lon="2.43305">
        <ele>272.487388</ele>
        <time>2021-05-08T08:17:56.285Z</time>
      </trkpt>
      <trkpt lat="43.31575" lon="2.43322">
        <ele>272.515524</ele>
        <time>2021-05-08T08:17:59.288Z</time>
      </trkpt>
      <trkpt lat="43.31575" lon="2.43339">
        <ele>272.545223</ele>
        <time>2021-05-08T08:18:02.281Z</time>
      </trkpt>
      <trkpt lat="43.31575" lon="2.43356">
        <ele>272.575617</ele>
        <time>2021-05-08T08:18:05.275Z</time>
      </trkpt>
      <trkpt lat="43.31576" lon="2.43373">
        <ele>272.605537</ele>
        <time>2021-05-08T08:18:08.292Z</time>
      </trkpt>
      <trkpt lat="43.31576" lon="2.43391">
        <ele>272.635598</ele>
        <time>2021-05-08T08:18:11.321Z</time>
      </trkpt>
      <trkpt lat="43.31577" lon="2.43407">
        <ele>272.572381</ele>
        <time>2021-05-08T08:18:14.302Z</time>
      </trkpt>
      <trkpt lat="43.31578" lon="2.43423">
        <ele>272.49397</ele>
        <time>2021-05-08T08:18:17.317Z</time>
      </trkpt>
      <trkpt lat="43.31578" lon="2.43439">
        <ele>272.415141</ele>
        <time>2021-05-08T08:18:20.319Z</time>
      </trkpt>
      <trkpt lat="43.31579" lon="2.43455">
        <ele>272.3377</ele>
        <time>2021-05-08T08:18:23.277Z</time>
      </trkpt>
      <trkpt lat="43.31579" lon="2.43471">
        <ele>272.26086</ele>
        <time>2021-05-08T08:18:26.302Z</time>
      </trkpt>
      <trkpt lat="43.31579" lon="2.43488">
        <ele>272.178696</ele>
        <time>2021-05-08T08:18:29.317Z</time>
      </trkpt>
      <trkpt lat="43.3158" lon="2.43506">
        <ele>272.091095</ele>
        <time>2021-05-08T08:18:32.292Z</time>
      </trkpt>
      <trkpt lat="43.3158" lon="2.43524">
        <ele>272.00309</ele>
        <time>2021-05-08T08:18:35.278Z</time>
      </trkpt>
      <trkpt lat="43.3158" lon="2.4354">
        <ele>271.925779</ele>
        <time>2021-05-08T08:18:38.309Z</time>
      </trkpt>
      <trkpt lat="43.31581" lon="2.43555">
        <ele>271.852607</ele>
        <time>2021-05-08T08:18:41.275Z</time>
      </trkpt>
      <trkpt lat="43.31581" lon="2.4357">
        <ele>271.77769</ele>
        <time>2021-05-08T08:18:44.293Z</time>
      </trkpt>
      <trkpt lat="43.31582" lon="2.43586">
        <ele>271.701802</ele>
        <time>2021-05-08T08:18:47.286Z</time>
      </trkpt>
      <trkpt lat="43.31583" lon="2.43599">
        <ele>271.63576</ele>
        <time>2021-05-08T08:18:50.314Z</time>
      </trkpt>
      <trkpt lat="43.31583" lon="2.43613">
        <ele>271.567208</ele>
        <time>2021-05-08T08:18:53.288Z</time>
      </trkpt>
      <trkpt lat="43.31582" lon="2.43627">
        <ele>271.497543</ele>
        <time>2021-05-08T08:18:56.298Z</time>
      </trkpt>
      <trkpt lat="43.31582" lon="2.43641">
        <ele>271.430739</ele>
        <time>2021-05-08T08:18:59.314Z</time>
      </trkpt>
      <trkpt lat="43.31582" lon="2.43655">
        <ele>271.323778</ele>
        <time>2021-05-08T08:19:02.289Z</time>
      </trkpt>
      <trkpt lat="43.31583" lon="2.4367">
        <ele>271.209939</ele>
        <time>2021-05-08T08:19:05.328Z</time>
      </trkpt>
      <trkpt lat="43.31583" lon="2.43686">
        <ele>271.089466</ele>
        <time>2021-05-08T08:19:08.274Z</time>
      </trkpt>
      <trkpt lat="43.31584" lon="2.43702">
        <ele>270.968709</ele>
        <time>2021-05-08T08:19:11.317Z</time>
      </trkpt>
      <trkpt lat="43.31586" lon="2.43718">
        <ele>270.846733</ele>
        <time>2021-05-08T08:19:14.315Z</time>
      </trkpt>
      <trkpt lat="43.31589" lon="2.43734">
        <ele>270.72868</ele>
        <time>2021-05-08T08:19:17.276Z</time>
      </trkpt>
      <trkpt lat="43.31594" lon="2.43747">
        <ele>270.61695</ele>
        <time>2021-05-08T08:19:20.286Z</time>
      </trkpt>
      <trkpt lat="43.31598" lon="2.43762">
        <ele>270.500236</ele>
        <time>2021-05-08T08:19:23.313Z</time>
      </trkpt>
      <trkpt lat="43.31604" lon="2.43776">
        <ele>270.378454</ele>
        <time>2021-05-08T08:19:26.283Z</time>
      </trkpt>
      <trkpt lat="43.31611" lon="2.43791">
        <ele>270.248098</ele>
        <time>2021-05-08T08:19:29.303Z</time>
      </trkpt>
      <trkpt lat="43.31616" lon="2.43807">
        <ele>270.114159</ele>
        <time>2021-05-08T08:19:32.284Z</time>
      </trkpt>
      <trkpt lat="43.31622" lon="2.43824">
        <ele>269.975544</ele>
        <time>2021-05-08T08:19:35.278Z</time>
      </trkpt>
      <trkpt lat="43.31625" lon="2.43836">
        <ele>269.878748</ele>
        <time>2021-05-08T08:19:37.284Z</time>
      </trkpt>
      <trkpt lat="43.31628" lon="2.43848">
        <ele>269.784907</ele>
        <time>2021-05-08T08:19:39.313Z</time>
      </trkpt>
      <trkpt lat="43.31632" lon="2.43859">
        <ele>269.692051</ele>
        <time>2021-05-08T08:19:41.275Z</time>
      </trkpt>
      <trkpt lat="43.31635" lon="2.4387">
        <ele>269.598428</ele>
        <time>2021-05-08T08:19:43.282Z</time>
      </trkpt>
      <trkpt lat="43.31641" lon="2.43887">
        <ele>269.39227</ele>
        <time>2021-05-08T08:19:46.319Z</time>
      </trkpt>
      <trkpt lat="43.31645" lon="2.43898">
        <ele>269.249786</ele>
        <time>2021-05-08T08:19:48.308Z</time>
      </trkpt>
      <trkpt lat="43.31651" lon="2.43914">
        <ele>269.046869</ele>
        <time>2021-05-08T08:19:51.292Z</time>
      </trkpt>
      <trkpt lat="43.31655" lon="2.4393">
        <ele>268.855267</ele>
        <time>2021-05-08T08:19:54.281Z</time>
      </trkpt>
      <trkpt lat="43.31659" lon="2.43946">
        <ele>268.663787</ele>
        <time>2021-05-08T08:19:57.283Z</time>
      </trkpt>
      <trkpt lat="43.31662" lon="2.43961">
        <ele>268.4791</ele>
        <time>2021-05-08T08:20:00.281Z</time>
      </trkpt>
      <trkpt lat="43.31664" lon="2.43979">
        <ele>268.276091</ele>
        <time>2021-05-08T08:20:03.316Z</time>
      </trkpt>
      <trkpt lat="43.31665" lon="2.43996">
        <ele>268.079065</ele>
        <time>2021-05-08T08:20:06.312Z</time>
      </trkpt>
      <trkpt lat="43.31665" lon="2.44014">
        <ele>267.876375</ele>
        <time>2021-05-08T08:20:09.281Z</time>
      </trkpt>
      <trkpt lat="43.31665" lon="2.44031">
        <ele>267.6795</ele>
        <time>2021-05-08T08:20:12.289Z</time>
      </trkpt>
      <trkpt lat="43.31665" lon="2.44047">
        <ele>267.497076</ele>
        <time>2021-05-08T08:20:15.288Z</time>
      </trkpt>
      <trkpt lat="43.31663" lon="2.44061">
        <ele>267.328522</ele>
        <time>2021-05-08T08:20:18.287Z</time>
      </trkpt>
      <trkpt lat="43.31661" lon="2.44076">
        <ele>267.162139</ele>
        <time>2021-05-08T08:20:22.314Z</time>
      </trkpt>
      <trkpt lat="43.31662" lon="2.44092">
        <ele>266.978836</ele>
        <time>2021-05-08T08:21:15.292Z</time>
      </trkpt>
      <trkpt lat="43.31663" lon="2.44105">
        <ele>266.822379</ele>
        <time>2021-05-08T08:21:22.285Z</time>
      </trkpt>
      <trkpt lat="43.31661" lon="2.4412">
        <ele>266.596327</ele>
        <time>2021-05-08T08:21:28.311Z</time>
      </trkpt>
      <trkpt lat="43.3166" lon="2.44134">
        <ele>266.374056</ele>
        <time>2021-05-08T08:21:31.319Z</time>
      </trkpt>
      <trkpt lat="43.31659" lon="2.44148">
        <ele>266.123574</ele>
        <time>2021-05-08T08:21:34.278Z</time>
      </trkpt>
      <trkpt lat="43.31658" lon="2.44164">
        <ele>265.859415</ele>
        <time>2021-05-08T08:21:37.310Z</time>
      </trkpt>
      <trkpt lat="43.31659" lon="2.44181">
        <ele>265.582765</ele>
        <time>2021-05-08T08:21:40.288Z</time>
      </trkpt>
      <trkpt lat="43.31661" lon="2.44196">
        <ele>265.318091</ele>
        <time>2021-05-08T08:21:43.276Z</time>
      </trkpt>
      <trkpt lat="43.31664" lon="2.44212">
        <ele>265.042016</ele>
        <time>2021-05-08T08:21:46.315Z</time>
      </trkpt>
      <trkpt lat="43.31668" lon="2.44229">
        <ele>264.75831</ele>
        <time>2021-05-08T08:21:49.308Z</time>
      </trkpt>
      <trkpt lat="43.31673" lon="2.44245">
        <ele>264.466901</ele>
        <time>2021-05-08T08:21:52.284Z</time>
      </trkpt>
      <trkpt lat="43.31677" lon="2.4426">
        <ele>264.199071</ele>
        <time>2021-05-08T08:21:55.283Z</time>
      </trkpt>
      <trkpt lat="43.31682" lon="2.44273">
        <ele>263.948486</ele>
        <time>2021-05-08T08:21:58.286Z</time>
      </trkpt>
      <trkpt lat="43.31687" lon="2.44287">
        <ele>263.690409</ele>
        <time>2021-05-08T08:22:01.310Z</time>
      </trkpt>
      <trkpt lat="43.31692" lon="2.443">
        <ele>263.446568</ele>
        <time>2021-05-08T08:22:04.309Z</time>
      </trkpt>
      <trkpt lat="43.31698" lon="2.44313">
        <ele>263.18914</ele>
        <time>2021-05-08T08:22:07.281Z</time>
      </trkpt>
      <trkpt lat="43.31704" lon="2.44327">
        <ele>262.913007</ele>
        <time>2021-05-08T08:22:10.307Z</time>
      </trkpt>
      <trkpt lat="43.3171" lon="2.44341">
        <ele>262.638911</ele>
        <time>2021-05-08T08:22:13.311Z</time>
      </trkpt>
      <trkpt lat="43.31716" lon="2.44356">
        <ele>262.562629</ele>
        <time>2021-05-08T08:22:16.282Z</time>
      </trkpt>
      <trkpt lat="43.31722" lon="2.44372">
        <ele>262.495829</ele>
        <time>2021-05-08T08:22:19.284Z</time>
      </trkpt>
      <trkpt lat="43.31728" lon="2.44388">
        <ele>262.424645</ele>
        <time>2021-05-08T08:22:22.271Z</time>
      </trkpt>
      <trkpt lat="43.31734" lon="2.44402">
        <ele>262.357584</ele>
        <time>2021-05-08T08:22:25.281Z</time>
      </trkpt>
      <trkpt lat="43.3174" lon="2.44416">
        <ele>262.294587</ele>
        <time>2021-05-08T08:22:28.303Z</time>
      </trkpt>
      <trkpt lat="43.31744" lon="2.44432">
        <ele>262.229253</ele>
        <time>2021-05-08T08:22:31.289Z</time>
      </trkpt>
      <trkpt lat="43.31748" lon="2.44448">
        <ele>262.163856</ele>
        <time>2021-05-08T08:22:34.307Z</time>
      </trkpt>
      <trkpt lat="43.3175" lon="2.44465">
        <ele>262.097599</ele>
        <time>2021-05-08T08:22:37.314Z</time>
      </trkpt>
      <trkpt lat="43.31751" lon="2.44482">
        <ele>262.027103</ele>
        <time>2021-05-08T08:22:40.294Z</time>
      </trkpt>
      <trkpt lat="43.31752" lon="2.44495">
        <ele>261.978113</ele>
        <time>2021-05-08T08:22:42.283Z</time>
      </trkpt>
      <trkpt lat="43.31753" lon="2.44507">
        <ele>261.928232</ele>
        <time>2021-05-08T08:22:44.305Z</time>
      </trkpt>
      <trkpt lat="43.31753" lon="2.44521">
        <ele>261.876766</ele>
        <time>2021-05-08T08:22:46.309Z</time>
      </trkpt>
      <trkpt lat="43.31753" lon="2.44539">
        <ele>261.806051</ele>
        <time>2021-05-08T08:22:49.283Z</time>
      </trkpt>
      <trkpt lat="43.31751" lon="2.44555">
        <ele>261.738982</ele>
        <time>2021-05-08T08:22:52.307Z</time>
      </trkpt>
      <trkpt lat="43.31748" lon="2.44572">
        <ele>261.671436</ele>
        <time>2021-05-08T08:22:55.310Z</time>
      </trkpt>
      <trkpt lat="43.31744" lon="2.44589">
        <ele>261.494875</ele>
        <time>2021-05-08T08:22:58.289Z</time>
      </trkpt>
      <trkpt lat="43.3174" lon="2.44605">
        <ele>261.294517</ele>
        <time>2021-05-08T08:23:01.293Z</time>
      </trkpt>
      <trkpt lat="43.31736" lon="2.44622">
        <ele>261.091939</ele>
        <time>2021-05-08T08:23:04.306Z</time>
      </trkpt>
      <trkpt lat="43.31731" lon="2.44638">
        <ele>260.892666</ele>
        <time>2021-05-08T08:23:07.278Z</time>
      </trkpt>
      <trkpt lat="43.31727" lon="2.44655">
        <ele>260.6862</ele>
        <time>2021-05-08T08:23:10.283Z</time>
      </trkpt>
      <trkpt lat="43.31724" lon="2.44667">
        <ele>260.541529</ele>
        <time>2021-05-08T08:23:12.289Z</time>
      </trkpt>
      <trkpt lat="43.31721" lon="2.44678">
        <ele>260.398675</ele>
        <time>2021-05-08T08:23:14.321Z</time>
      </trkpt>
      <trkpt lat="43.31716" lon="2.44695">
        <ele>260.186912</ele>
        <time>2021-05-08T08:23:17.285Z</time>
      </trkpt>
      <trkpt lat="43.31712" lon="2.44707">
        <ele>260.037367</ele>
        <time>2021-05-08T08:23:19.274Z</time>
      </trkpt>
      <trkpt lat="43.31709" lon="2.4472">
        <ele>259.884237</ele>
        <time>2021-05-08T08:23:21.278Z</time>
      </trkpt>
      <trkpt lat="43.31706" lon="2.44737">
        <ele>259.677961</ele>
        <time>2021-05-08T08:23:24.323Z</time>
      </trkpt>
      <trkpt lat="43.31705" lon="2.44755">
        <ele>259.472169</ele>
        <time>2021-05-08T08:23:27.288Z</time>
      </trkpt>
      <trkpt lat="43.31706" lon="2.44772">
        <ele>259.267131</ele>
        <time>2021-05-08T08:23:30.313Z</time>
      </trkpt>
      <trkpt lat="43.31708" lon="2.44791">
        <ele>259.055285</ele>
        <time>2021-05-08T08:23:33.283Z</time>
      </trkpt>
      <trkpt lat="43.31709" lon="2.44808">
        <ele>258.852435</ele>
        <time>2021-05-08T08:23:36.284Z</time>
      </trkpt>
      <trkpt lat="43.3171" lon="2.44825">
        <ele>258.807117</ele>
        <time>2021-05-08T08:23:39.304Z</time>
      </trkpt>
      <trkpt lat="43.31712" lon="2.44841">
        <ele>258.814523</ele>
        <time>2021-05-08T08:23:42.335Z</time>
      </trkpt>
      <trkpt lat="43.31713" lon="2.44859">
        <ele>258.822314</ele>
        <time>2021-05-08T08:23:45.282Z</time>
      </trkpt>
      <trkpt lat="43.31714" lon="2.44876">
        <ele>258.8302</ele>
        <time>2021-05-08T08:23:48.300Z</time>
      </trkpt>
      <trkpt lat="43.31716" lon="2.44892">
        <ele>258.837748</ele>
        <time>2021-05-08T08:23:51.282Z</time>
      </trkpt>
      <trkpt lat="43.31719" lon="2.44908">
        <ele>258.845013</ele>
        <time>2021-05-08T08:23:54.282Z</time>
      </trkpt>
      <trkpt lat="43.31728" lon="2.44927">
        <ele>258.855308</ele>
        <time>2021-05-08T08:23:58.297Z</time>
      </trkpt>
      <trkpt lat="43.31738" lon="2.44939">
        <ele>258.863595</ele>
        <time>2021-05-08T08:24:01.277Z</time>
      </trkpt>
      <trkpt lat="43.31744" lon="2.44948">
        <ele>258.869186</ele>
        <time>2021-05-08T08:24:03.284Z</time>
      </trkpt>
      <trkpt lat="43.31748" lon="2.4496">
        <ele>258.87506</ele>
        <time>2021-05-08T08:24:05.312Z</time>
      </trkpt>
      <trkpt lat="43.31751" lon="2.44972">
        <ele>258.880762</ele>
        <time>2021-05-08T08:24:07.327Z</time>
      </trkpt>
      <trkpt lat="43.31751" lon="2.44985">
        <ele>258.886599</ele>
        <time>2021-05-08T08:24:09.278Z</time>
      </trkpt>
      <trkpt lat="43.31749" lon="2.44998">
        <ele>258.89252</ele>
        <time>2021-05-08T08:24:11.280Z</time>
      </trkpt>
      <trkpt lat="43.31745" lon="2.4501">
        <ele>258.898447</ele>
        <time>2021-05-08T08:24:13.282Z</time>
      </trkpt>
      <trkpt lat="43.3174" lon="2.45021">
        <ele>258.904409</ele>
        <time>2021-05-08T08:24:15.313Z</time>
      </trkpt>
      <trkpt lat="43.31732" lon="2.45034">
        <ele>258.912261</ele>
        <time>2021-05-08T08:24:18.318Z</time>
      </trkpt>
      <trkpt lat="43.31725" lon="2.45044">
        <ele>258.635923</ele>
        <time>2021-05-08T08:24:20.273Z</time>
      </trkpt>
      <trkpt lat="43.31719" lon="2.45053">
        <ele>258.325097</ele>
        <time>2021-05-08T08:24:22.279Z</time>
      </trkpt>
      <trkpt lat="43.31713" lon="2.45063">
        <ele>258.013821</ele>
        <time>2021-05-08T08:24:24.278Z</time>
      </trkpt>
      <trkpt lat="43.31707" lon="2.45074">
        <ele>257.693012</ele>
        <time>2021-05-08T08:24:26.314Z</time>
      </trkpt>
      <trkpt lat="43.31699" lon="2.45089">
        <ele>257.254279</ele>
        <time>2021-05-08T08:24:29.308Z</time>
      </trkpt>
      <trkpt lat="43.31694" lon="2.451">
        <ele>256.938197</ele>
        <time>2021-05-08T08:24:31.325Z</time>
      </trkpt>
      <trkpt lat="43.3169" lon="2.45112">
        <ele>256.63198</ele>
        <time>2021-05-08T08:24:33.312Z</time>
      </trkpt>
      <trkpt lat="43.31686" lon="2.45123">
        <ele>256.327212</ele>
        <time>2021-05-08T08:24:35.293Z</time>
      </trkpt>
      <trkpt lat="43.31682" lon="2.45134">
        <ele>256.024559</ele>
        <time>2021-05-08T08:24:37.315Z</time>
      </trkpt>
      <trkpt lat="43.31678" lon="2.45146">
        <ele>255.714194</ele>
        <time>2021-05-08T08:24:39.275Z</time>
      </trkpt>
      <trkpt lat="43.31671" lon="2.45161">
        <ele>255.291151</ele>
        <time>2021-05-08T08:24:42.282Z</time>
      </trkpt>
      <trkpt lat="43.31664" lon="2.45171">
        <ele>254.962729</ele>
        <time>2021-05-08T08:24:44.283Z</time>
      </trkpt>
      <trkpt lat="43.31656" lon="2.4518">
        <ele>254.620229</ele>
        <time>2021-05-08T08:24:46.320Z</time>
      </trkpt>
      <trkpt lat="43.31647" lon="2.45186">
        <ele>254.27999</ele>
        <time>2021-05-08T08:24:48.282Z</time>
      </trkpt>
      <trkpt lat="43.31638" lon="2.45193">
        <ele>253.955854</ele>
        <time>2021-05-08T08:24:50.292Z</time>
      </trkpt>
      <trkpt lat="43.31627" lon="2.45203">
        <ele>253.521314</ele>
        <time>2021-05-08T08:24:53.319Z</time>
      </trkpt>
      <trkpt lat="43.3162" lon="2.45212">
        <ele>253.2097</ele>
        <time>2021-05-08T08:24:55.292Z</time>
      </trkpt>
      <trkpt lat="43.31614" lon="2.45221">
        <ele>252.933751</ele>
        <time>2021-05-08T08:24:57.282Z</time>
      </trkpt>
      <trkpt lat="43.31608" lon="2.45231">
        <ele>252.736627</ele>
        <time>2021-05-08T08:24:59.286Z</time>
      </trkpt>
      <trkpt lat="43.31601" lon="2.45247">
        <ele>252.455503</ele>
        <time>2021-05-08T08:25:02.289Z</time>
      </trkpt>
      <trkpt lat="43.31598" lon="2.45259">
        <ele>252.264658</ele>
        <time>2021-05-08T08:25:04.280Z</time>
      </trkpt>
      <trkpt lat="43.31596" lon="2.45271">
        <ele>252.066056</ele>
        <time>2021-05-08T08:25:06.282Z</time>
      </trkpt>
      <trkpt lat="43.31593" lon="2.45284">
        <ele>251.874898</ele>
        <time>2021-05-08T08:25:08.303Z</time>
      </trkpt>
      <trkpt lat="43.31591" lon="2.45302">
        <ele>251.593212</ele>
        <time>2021-05-08T08:25:11.285Z</time>
      </trkpt>
      <trkpt lat="43.31589" lon="2.4532">
        <ele>251.307412</ele>
        <time>2021-05-08T08:25:14.291Z</time>
      </trkpt>
      <trkpt lat="43.31588" lon="2.45334">
        <ele>251.092463</ele>
        <time>2021-05-08T08:25:16.301Z</time>
      </trkpt>
      <trkpt lat="43.31587" lon="2.45348">
        <ele>250.878283</ele>
        <time>2021-05-08T08:25:18.313Z</time>
      </trkpt>
      <trkpt lat="43.31584" lon="2.45361">
        <ele>250.665172</ele>
        <time>2021-05-08T08:25:20.315Z</time>
      </trkpt>
      <trkpt lat="43.31581" lon="2.45374">
        <ele>250.452718</ele>
        <time>2021-05-08T08:25:22.312Z</time>
      </trkpt>
      <trkpt lat="43.31574" lon="2.45389">
        <ele>250.18072</ele>
        <time>2021-05-08T08:25:25.291Z</time>
      </trkpt>
      <trkpt lat="43.31568" lon="2.45399">
        <ele>249.986092</ele>
        <time>2021-05-08T08:25:27.282Z</time>
      </trkpt>
      <trkpt lat="43.31562" lon="2.4541">
        <ele>249.77573</ele>
        <time>2021-05-08T08:25:29.310Z</time>
      </trkpt>
      <trkpt lat="43.31555" lon="2.45418">
        <ele>249.585567</ele>
        <time>2021-05-08T08:25:31.294Z</time>
      </trkpt>
      <trkpt lat="43.31545" lon="2.45428">
        <ele>249.317868</ele>
        <time>2021-05-08T08:25:34.282Z</time>
      </trkpt>
      <trkpt lat="43.31533" lon="2.45439">
        <ele>249.381757</ele>
        <time>2021-05-08T08:25:37.279Z</time>
      </trkpt>
      <trkpt lat="43.31522" lon="2.4545">
        <ele>249.643289</ele>
        <time>2021-05-08T08:25:40.286Z</time>
      </trkpt>
      <trkpt lat="43.31515" lon="2.45458">
        <ele>249.832289</ele>
        <time>2021-05-08T08:25:42.287Z</time>
      </trkpt>
      <trkpt lat="43.31508" lon="2.45468">
        <ele>250.023395</ele>
        <time>2021-05-08T08:25:44.277Z</time>
      </trkpt>
      <trkpt lat="43.31502" lon="2.45479">
        <ele>250.207855</ele>
        <time>2021-05-08T08:25:46.315Z</time>
      </trkpt>
      <trkpt lat="43.31499" lon="2.45492">
        <ele>250.404419</ele>
        <time>2021-05-08T08:25:48.293Z</time>
      </trkpt>
      <trkpt lat="43.31499" lon="2.45505">
        <ele>250.584867</ele>
        <time>2021-05-08T08:25:50.289Z</time>
      </trkpt>
      <trkpt lat="43.315" lon="2.45517">
        <ele>250.762383</ele>
        <time>2021-05-08T08:25:52.284Z</time>
      </trkpt>
      <trkpt lat="43.31502" lon="2.45535">
        <ele>251.008504</ele>
        <time>2021-05-08T08:25:55.283Z</time>
      </trkpt>
      <trkpt lat="43.31502" lon="2.45552">
        <ele>251.245101</ele>
        <time>2021-05-08T08:25:58.285Z</time>
      </trkpt>
      <trkpt lat="43.31503" lon="2.4557">
        <ele>251.505459</ele>
        <time>2021-05-08T08:26:01.280Z</time>
      </trkpt>
      <trkpt lat="43.31503" lon="2.45584">
        <ele>251.691592</ele>
        <time>2021-05-08T08:26:03.319Z</time>
      </trkpt>
      <trkpt lat="43.31502" lon="2.45596">
        <ele>251.872694</ele>
        <time>2021-05-08T08:26:05.309Z</time>
      </trkpt>
      <trkpt lat="43.315" lon="2.45615">
        <ele>252.12908</ele>
        <time>2021-05-08T08:26:08.280Z</time>
      </trkpt>
      <trkpt lat="43.31498" lon="2.45627">
        <ele>252.304447</ele>
        <time>2021-05-08T08:26:10.281Z</time>
      </trkpt>
      <trkpt lat="43.31493" lon="2.45643">
        <ele>252.548317</ele>
        <time>2021-05-08T08:26:13.281Z</time>
      </trkpt>
      <trkpt lat="43.31489" lon="2.45659">
        <ele>252.527163</ele>
        <time>2021-05-08T08:26:16.317Z</time>
      </trkpt>
      <trkpt lat="43.31483" lon="2.45675">
        <ele>252.220952</ele>
        <time>2021-05-08T08:26:19.291Z</time>
      </trkpt>
      <trkpt lat="43.31477" lon="2.45691">
        <ele>251.90298</ele>
        <time>2021-05-08T08:26:22.312Z</time>
      </trkpt>
      <trkpt lat="43.3147" lon="2.45706">
        <ele>251.592622</ele>
        <time>2021-05-08T08:26:25.280Z</time>
      </trkpt>
      <trkpt lat="43.31463" lon="2.45721">
        <ele>251.275059</ele>
        <time>2021-05-08T08:26:28.294Z</time>
      </trkpt>
      <trkpt lat="43.31457" lon="2.45731">
        <ele>251.050126</ele>
        <time>2021-05-08T08:26:30.275Z</time>
      </trkpt>
      <trkpt lat="43.31452" lon="2.45741">
        <ele>250.830643</ele>
        <time>2021-05-08T08:26:32.322Z</time>
      </trkpt>
      <trkpt lat="43.31445" lon="2.4575">
        <ele>250.611188</ele>
        <time>2021-05-08T08:26:34.284Z</time>
      </trkpt>
      <trkpt lat="43.31439" lon="2.45759">
        <ele>250.389939</ele>
        <time>2021-05-08T08:26:36.284Z</time>
      </trkpt>
      <trkpt lat="43.31432" lon="2.45766">
        <ele>250.170033</ele>
        <time>2021-05-08T08:26:38.275Z</time>
      </trkpt>
      <trkpt lat="43.31424" lon="2.45774">
        <ele>249.941159</ele>
        <time>2021-05-08T08:26:40.320Z</time>
      </trkpt>
      <trkpt lat="43.31417" lon="2.45782">
        <ele>249.712852</ele>
        <time>2021-05-08T08:26:42.312Z</time>
      </trkpt>
      <trkpt lat="43.31409" lon="2.45788">
        <ele>249.490653</ele>
        <time>2021-05-08T08:26:44.275Z</time>
      </trkpt>
      <trkpt lat="43.31401" lon="2.45794">
        <ele>249.269313</ele>
        <time>2021-05-08T08:26:46.290Z</time>
      </trkpt>
      <trkpt lat="43.31393" lon="2.45801">
        <ele>249.042661</ele>
        <time>2021-05-08T08:26:48.280Z</time>
      </trkpt>
      <trkpt lat="43.31385" lon="2.45809">
        <ele>248.817551</ele>
        <time>2021-05-08T08:26:50.282Z</time>
      </trkpt>
      <trkpt lat="43.31379" lon="2.45818">
        <ele>248.588415</ele>
        <time>2021-05-08T08:26:52.277Z</time>
      </trkpt>
      <trkpt lat="43.31374" lon="2.45829">
        <ele>248.36029</ele>
        <time>2021-05-08T08:26:54.286Z</time>
      </trkpt>
      <trkpt lat="43.3137" lon="2.4584">
        <ele>248.059598</ele>
        <time>2021-05-08T08:26:56.281Z</time>
      </trkpt>
      <trkpt lat="43.31371" lon="2.45853">
        <ele>247.733497</ele>
        <time>2021-05-08T08:26:58.291Z</time>
      </trkpt>
      <trkpt lat="43.31372" lon="2.45867">
        <ele>247.364356</ele>
        <time>2021-05-08T08:27:00.316Z</time>
      </trkpt>
      <trkpt lat="43.31373" lon="2.4588">
        <ele>247.029569</ele>
        <time>2021-05-08T08:27:02.288Z</time>
      </trkpt>
      <trkpt lat="43.31375" lon="2.45892">
        <ele>246.703458</ele>
        <time>2021-05-08T08:27:04.309Z</time>
      </trkpt>
      <trkpt lat="43.3138" lon="2.45909">
        <ele>246.231726</ele>
        <time>2021-05-08T08:27:07.296Z</time>
      </trkpt>
      <trkpt lat="43.31384" lon="2.45921">
        <ele>245.88634</ele>
        <time>2021-05-08T08:27:09.322Z</time>
      </trkpt>
      <trkpt lat="43.31387" lon="2.45934">
        <ele>245.54822</ele>
        <time>2021-05-08T08:27:11.319Z</time>
      </trkpt>
      <trkpt lat="43.31389" lon="2.45946">
        <ele>245.216639</ele>
        <time>2021-05-08T08:27:13.323Z</time>
      </trkpt>
      <trkpt lat="43.31391" lon="2.45959">
        <ele>244.88059</ele>
        <time>2021-05-08T08:27:15.330Z</time>
      </trkpt>
      <trkpt lat="43.31393" lon="2.45977">
        <ele>244.410829</ele>
        <time>2021-05-08T08:27:18.279Z</time>
      </trkpt>
      <trkpt lat="43.31395" lon="2.45991">
        <ele>244.041584</ele>
        <time>2021-05-08T08:27:20.290Z</time>
      </trkpt>
      <trkpt lat="43.31397" lon="2.46007">
        <ele>243.624664</ele>
        <time>2021-05-08T08:27:22.295Z</time>
      </trkpt>
      <trkpt lat="43.31398" lon="2.46024">
        <ele>243.171294</ele>
        <time>2021-05-08T08:27:24.328Z</time>
      </trkpt>
      <trkpt lat="43.314" lon="2.46042">
        <ele>242.70117</ele>
        <time>2021-05-08T08:27:26.301Z</time>
      </trkpt>
      <trkpt lat="43.31402" lon="2.46061">
        <ele>242.213549</ele>
        <time>2021-05-08T08:27:28.288Z</time>
      </trkpt>
      <trkpt lat="43.31403" lon="2.46079">
        <ele>242.108477</ele>
        <time>2021-05-08T08:27:30.322Z</time>
      </trkpt>
      <trkpt lat="43.31404" lon="2.46095">
        <ele>242.499688</ele>
        <time>2021-05-08T08:27:32.299Z</time>
      </trkpt>
      <trkpt lat="43.31406" lon="2.46109">
        <ele>242.84729</ele>
        <time>2021-05-08T08:27:34.274Z</time>
      </trkpt>
      <trkpt lat="43.31406" lon="2.46127">
        <ele>243.267435</ele>
        <time>2021-05-08T08:27:37.278Z</time>
      </trkpt>
      <trkpt lat="43.31409" lon="2.4614">
        <ele>243.618638</ele>
        <time>2021-05-08T08:27:41.315Z</time>
      </trkpt>
      <trkpt lat="43.31419" lon="2.46149">
        <ele>244.00637</ele>
        <time>2021-05-08T08:27:45.294Z</time>
      </trkpt>
      <trkpt lat="43.3143" lon="2.46149">
        <ele>244.372291</ele>
        <time>2021-05-08T08:27:48.286Z</time>
      </trkpt>
      <trkpt lat="43.3144" lon="2.46146">
        <ele>244.69943</ele>
        <time>2021-05-08T08:27:51.320Z</time>
      </trkpt>
      <trkpt lat="43.31451" lon="2.46148">
        <ele>245.091325</ele>
        <time>2021-05-08T08:27:55.300Z</time>
      </trkpt>
      <trkpt lat="43.31461" lon="2.4615">
        <ele>245.418054</ele>
        <time>2021-05-08T08:27:59.283Z</time>
      </trkpt>
      <trkpt lat="43.31472" lon="2.46156">
        <ele>245.804189</ele>
        <time>2021-05-08T08:28:03.283Z</time>
      </trkpt>
      <trkpt lat="43.31481" lon="2.46161">
        <ele>246.144697</ele>
        <time>2021-05-08T08:28:06.281Z</time>
      </trkpt>
      <trkpt lat="43.31488" lon="2.46171">
        <ele>246.490703</ele>
        <time>2021-05-08T08:28:10.286Z</time>
      </trkpt>
      <trkpt lat="43.31498" lon="2.46174">
        <ele>246.809292</ele>
        <time>2021-05-08T08:28:13.317Z</time>
      </trkpt>
      <trkpt lat="43.31509" lon="2.46179">
        <ele>247.197482</ele>
        <time>2021-05-08T08:28:17.278Z</time>
      </trkpt>
      <trkpt lat="43.31519" lon="2.46184">
        <ele>247.554714</ele>
        <time>2021-05-08T08:28:21.275Z</time>
      </trkpt>
      <trkpt lat="43.31529" lon="2.4619">
        <ele>247.925034</ele>
        <time>2021-05-08T08:28:26.310Z</time>
      </trkpt>
      <trkpt lat="43.31538" lon="2.46195">
        <ele>248.522729</ele>
        <time>2021-05-08T08:28:29.281Z</time>
      </trkpt>
      <trkpt lat="43.31549" lon="2.46198">
        <ele>249.282039</ele>
        <time>2021-05-08T08:28:34.286Z</time>
      </trkpt>
      <trkpt lat="43.31559" lon="2.462">
        <ele>249.974052</ele>
        <time>2021-05-08T08:28:38.292Z</time>
      </trkpt>
      <trkpt lat="43.3157" lon="2.46198">
        <ele>250.73083</ele>
        <time>2021-05-08T08:28:41.288Z</time>
      </trkpt>
      <trkpt lat="43.31581" lon="2.46194">
        <ele>251.491382</ele>
        <time>2021-05-08T08:28:44.292Z</time>
      </trkpt>
      <trkpt lat="43.31592" lon="2.46189">
        <ele>252.264051</ele>
        <time>2021-05-08T08:28:47.277Z</time>
      </trkpt>
      <trkpt lat="43.31601" lon="2.46184">
        <ele>252.934411</ele>
        <time>2021-05-08T08:28:50.335Z</time>
      </trkpt>
      <trkpt lat="43.3161" lon="2.46181">
        <ele>253.555529</ele>
        <time>2021-05-08T08:28:53.279Z</time>
      </trkpt>
      <trkpt lat="43.31621" lon="2.46183">
        <ele>254.282997</ele>
        <time>2021-05-08T08:28:57.298Z</time>
      </trkpt>
      <trkpt lat="43.31632" lon="2.46183">
        <ele>255.006066</ele>
        <time>2021-05-08T08:29:02.307Z</time>
      </trkpt>
      <trkpt lat="43.31622" lon="2.46187">
        <ele>255.689119</ele>
        <time>2021-05-08T08:29:17.303Z</time>
      </trkpt>
      <trkpt lat="43.31612" lon="2.46186">
        <ele>256.328784</ele>
        <time>2021-05-08T08:29:20.342Z</time>
      </trkpt>
      <trkpt lat="43.31612" lon="2.4617">
        <ele>257.079053</ele>
        <time>2021-05-08T08:29:25.280Z</time>
      </trkpt>
      <trkpt lat="43.31617" lon="2.46159">
        <ele>257.751052</ele>
        <time>2021-05-08T08:29:27.318Z</time>
      </trkpt>
      <trkpt lat="43.31622" lon="2.46147">
        <ele>258.412868</ele>
        <time>2021-05-08T08:29:29.281Z</time>
      </trkpt>
      <trkpt lat="43.31626" lon="2.46133">
        <ele>259.113242</ele>
        <time>2021-05-08T08:29:31.276Z</time>
      </trkpt>
      <trkpt lat="43.3163" lon="2.46118">
        <ele>259.89601</ele>
        <time>2021-05-08T08:29:33.284Z</time>
      </trkpt>
      <trkpt lat="43.31632" lon="2.46102">
        <ele>259.524815</ele>
        <time>2021-05-08T08:29:35.324Z</time>
      </trkpt>
      <trkpt lat="43.31634" lon="2.46081">
        <ele>258.814518</ele>
        <time>2021-05-08T08:29:37.332Z</time>
      </trkpt>
      <trkpt lat="43.31639" lon="2.4606">
        <ele>258.092124</ele>
        <time>2021-05-08T08:29:39.308Z</time>
      </trkpt>
      <trkpt lat="43.31646" lon="2.46043">
        <ele>257.428355</ele>
        <time>2021-05-08T08:29:41.302Z</time>
      </trkpt>
      <trkpt lat="43.31654" lon="2.46028">
        <ele>256.793967</ele>
        <time>2021-05-08T08:29:43.304Z</time>
      </trkpt>
      <trkpt lat="43.31665" lon="2.46018">
        <ele>256.183274</ele>
        <time>2021-05-08T08:29:45.287Z</time>
      </trkpt>
      <trkpt lat="43.31675" lon="2.4601">
        <ele>255.647929</ele>
        <time>2021-05-08T08:29:47.290Z</time>
      </trkpt>
      <trkpt lat="43.31684" lon="2.46">
        <ele>255.131827</ele>
        <time>2021-05-08T08:29:49.308Z</time>
      </trkpt>
      <trkpt lat="43.31691" lon="2.45992">
        <ele>254.709381</ele>
        <time>2021-05-08T08:29:51.308Z</time>
      </trkpt>
      <trkpt lat="43.31699" lon="2.45986">
        <ele>254.284365</ele>
        <time>2021-05-08T08:29:53.282Z</time>
      </trkpt>
      <trkpt lat="43.31708" lon="2.4598">
        <ele>253.818633</ele>
        <time>2021-05-08T08:29:55.280Z</time>
      </trkpt>
      <trkpt lat="43.31715" lon="2.45971">
        <ele>253.396718</ele>
        <time>2021-05-08T08:29:57.307Z</time>
      </trkpt>
      <trkpt lat="43.31724" lon="2.4596">
        <ele>252.822248</ele>
        <time>2021-05-08T08:30:00.302Z</time>
      </trkpt>
      <trkpt lat="43.31734" lon="2.45949">
        <ele>252.255493</ele>
        <time>2021-05-08T08:30:03.295Z</time>
      </trkpt>
      <trkpt lat="43.31744" lon="2.4594">
        <ele>251.755577</ele>
        <time>2021-05-08T08:30:06.310Z</time>
      </trkpt>
      <trkpt lat="43.31755" lon="2.45933">
        <ele>252.469747</ele>
        <time>2021-05-08T08:30:09.272Z</time>
      </trkpt>
      <trkpt lat="43.31766" lon="2.45925">
        <ele>253.177436</ele>
        <time>2021-05-08T08:30:12.289Z</time>
      </trkpt>
      <trkpt lat="43.31776" lon="2.45918">
        <ele>253.821813</ele>
        <time>2021-05-08T08:30:15.304Z</time>
      </trkpt>
      <trkpt lat="43.31785" lon="2.45913">
        <ele>254.437537</ele>
        <time>2021-05-08T08:30:18.292Z</time>
      </trkpt>
      <trkpt lat="43.31794" lon="2.45906">
        <ele>255.019689</ele>
        <time>2021-05-08T08:30:21.285Z</time>
      </trkpt>
      <trkpt lat="43.31802" lon="2.45897">
        <ele>255.63148</ele>
        <time>2021-05-08T08:30:24.305Z</time>
      </trkpt>
      <trkpt lat="43.3181" lon="2.45888">
        <ele>256.217767</ele>
        <time>2021-05-08T08:30:27.318Z</time>
      </trkpt>
      <trkpt lat="43.31819" lon="2.4588">
        <ele>256.843581</ele>
        <time>2021-05-08T08:30:30.276Z</time>
      </trkpt>
      <trkpt lat="43.31826" lon="2.45871">
        <ele>257.389757</ele>
        <time>2021-05-08T08:30:33.286Z</time>
      </trkpt>
      <trkpt lat="43.31835" lon="2.45859">
        <ele>258.113236</ele>
        <time>2021-05-08T08:30:37.271Z</time>
      </trkpt>
      <trkpt lat="43.31844" lon="2.4585">
        <ele>258.789205</ele>
        <time>2021-05-08T08:30:40.274Z</time>
      </trkpt>
      <trkpt lat="43.31854" lon="2.4584">
        <ele>259.46762</ele>
        <time>2021-05-08T08:30:43.312Z</time>
      </trkpt>
      <trkpt lat="43.31863" lon="2.45831">
        <ele>260.14117</ele>
        <time>2021-05-08T08:30:46.320Z</time>
      </trkpt>
      <trkpt lat="43.31871" lon="2.45822">
        <ele>260.757797</ele>
        <time>2021-05-08T08:30:49.279Z</time>
      </trkpt>
      <trkpt lat="43.3188" lon="2.45813">
        <ele>261.364949</ele>
        <time>2021-05-08T08:30:52.316Z</time>
      </trkpt>
      <trkpt lat="43.31888" lon="2.45804">
        <ele>261.979883</ele>
        <time>2021-05-08T08:30:55.285Z</time>
      </trkpt>
      <trkpt lat="43.31896" lon="2.45793">
        <ele>262.429397</ele>
        <time>2021-05-08T08:30:58.282Z</time>
      </trkpt>
      <trkpt lat="43.31902" lon="2.45781">
        <ele>262.785664</ele>
        <time>2021-05-08T08:31:01.288Z</time>
      </trkpt>
      <trkpt lat="43.31907" lon="2.45768">
        <ele>263.109809</ele>
        <time>2021-05-08T08:31:04.280Z</time>
      </trkpt>
      <trkpt lat="43.31912" lon="2.45755">
        <ele>263.448951</ele>
        <time>2021-05-08T08:31:07.305Z</time>
      </trkpt>
      <trkpt lat="43.31917" lon="2.45743">
        <ele>263.762225</ele>
        <time>2021-05-08T08:31:10.313Z</time>
      </trkpt>
      <trkpt lat="43.31923" lon="2.4573">
        <ele>264.120389</ele>
        <time>2021-05-08T08:31:13.283Z</time>
      </trkpt>
      <trkpt lat="43.31929" lon="2.4572">
        <ele>264.414133</ele>
        <time>2021-05-08T08:31:15.288Z</time>
      </trkpt>
      <trkpt lat="43.31937" lon="2.45712">
        <ele>264.723619</ele>
        <time>2021-05-08T08:31:17.275Z</time>
      </trkpt>
      <trkpt lat="43.31946" lon="2.45706">
        <ele>265.048647</ele>
        <time>2021-05-08T08:31:19.298Z</time>
      </trkpt>
      <trkpt lat="43.31954" lon="2.45699">
        <ele>265.342722</ele>
        <time>2021-05-08T08:31:21.281Z</time>
      </trkpt>
      <trkpt lat="43.31965" lon="2.45692">
        <ele>265.716472</ele>
        <time>2021-05-08T08:31:24.292Z</time>
      </trkpt>
      <trkpt lat="43.31975" lon="2.45686">
        <ele>266.071186</ele>
        <time>2021-05-08T08:31:27.292Z</time>
      </trkpt>
      <trkpt lat="43.31985" lon="2.45677">
        <ele>266.441157</ele>
        <time>2021-05-08T08:31:30.309Z</time>
      </trkpt>
      <trkpt lat="43.31996" lon="2.45671">
        <ele>266.828399</ele>
        <time>2021-05-08T08:31:33.323Z</time>
      </trkpt>
      <trkpt lat="43.32008" lon="2.45666">
        <ele>267.213943</ele>
        <time>2021-05-08T08:31:36.284Z</time>
      </trkpt>
      <trkpt lat="43.32021" lon="2.45662">
        <ele>267.62387</ele>
        <time>2021-05-08T08:31:39.301Z</time>
      </trkpt>
      <trkpt lat="43.32032" lon="2.4566">
        <ele>267.982949</ele>
        <time>2021-05-08T08:31:42.327Z</time>
      </trkpt>
      <trkpt lat="43.32044" lon="2.45657">
        <ele>268.308796</ele>
        <time>2021-05-08T08:31:45.289Z</time>
      </trkpt>
      <trkpt lat="43.32056" lon="2.45657">
        <ele>268.656421</ele>
        <time>2021-05-08T08:31:48.280Z</time>
      </trkpt>
      <trkpt lat="43.32068" lon="2.45657">
        <ele>268.973601</ele>
        <time>2021-05-08T08:31:51.292Z</time>
      </trkpt>
      <trkpt lat="43.3208" lon="2.45661">
        <ele>269.318539</ele>
        <time>2021-05-08T08:31:54.289Z</time>
      </trkpt>
      <trkpt lat="43.32092" lon="2.45663">
        <ele>269.654201</ele>
        <time>2021-05-08T08:31:57.330Z</time>
      </trkpt>
      <trkpt lat="43.32103" lon="2.45666">
        <ele>269.955504</ele>
        <time>2021-05-08T08:32:00.315Z</time>
      </trkpt>
      <trkpt lat="43.32113" lon="2.45671">
        <ele>270.258981</ele>
        <time>2021-05-08T08:32:03.344Z</time>
      </trkpt>
      <trkpt lat="43.32125" lon="2.4567">
        <ele>270.601101</ele>
        <time>2021-05-08T08:32:06.282Z</time>
      </trkpt>
      <trkpt lat="43.32137" lon="2.45665">
        <ele>270.945338</ele>
        <time>2021-05-08T08:32:09.306Z</time>
      </trkpt>
      <trkpt lat="43.32148" lon="2.45663">
        <ele>271.255317</ele>
        <time>2021-05-08T08:32:12.314Z</time>
      </trkpt>
      <trkpt lat="43.32158" lon="2.45661">
        <ele>271.530768</ele>
        <time>2021-05-08T08:32:15.278Z</time>
      </trkpt>
      <trkpt lat="43.32168" lon="2.45659">
        <ele>271.802899</ele>
        <time>2021-05-08T08:32:18.315Z</time>
      </trkpt>
      <trkpt lat="43.32178" lon="2.45656">
        <ele>272.080783</ele>
        <time>2021-05-08T08:32:21.285Z</time>
      </trkpt>
      <trkpt lat="43.32187" lon="2.45655">
        <ele>272.344122</ele>
        <time>2021-05-08T08:32:24.280Z</time>
      </trkpt>
      <trkpt lat="43.32196" lon="2.45653">
        <ele>272.59827</ele>
        <time>2021-05-08T08:32:27.317Z</time>
      </trkpt>
      <trkpt lat="43.32205" lon="2.45649">
        <ele>272.859421</ele>
        <time>2021-05-08T08:32:30.287Z</time>
      </trkpt>
      <trkpt lat="43.32217" lon="2.45647">
        <ele>271.853202</ele>
        <time>2021-05-08T08:32:34.278Z</time>
      </trkpt>
      <trkpt lat="43.32227" lon="2.45645">
        <ele>270.9658</ele>
        <time>2021-05-08T08:32:37.283Z</time>
      </trkpt>
      <trkpt lat="43.32237" lon="2.45643">
        <ele>270.071476</ele>
        <time>2021-05-08T08:32:40.293Z</time>
      </trkpt>
      <trkpt lat="43.32247" lon="2.45639">
        <ele>269.112261</ele>
        <time>2021-05-08T08:32:43.291Z</time>
      </trkpt>
      <trkpt lat="43.32258" lon="2.45634">
        <ele>268.074117</ele>
        <time>2021-05-08T08:32:46.309Z</time>
      </trkpt>
      <trkpt lat="43.32268" lon="2.4563">
        <ele>267.214762</ele>
        <time>2021-05-08T08:32:49.276Z</time>
      </trkpt>
      <trkpt lat="43.32274" lon="2.45617">
        <ele>266.229268</ele>
        <time>2021-05-08T08:32:53.288Z</time>
      </trkpt>
      <trkpt lat="43.32279" lon="2.45604">
        <ele>265.303402</ele>
        <time>2021-05-08T08:32:57.290Z</time>
      </trkpt>
      <trkpt lat="43.32282" lon="2.45591">
        <ele>264.414626</ele>
        <time>2021-05-08T08:33:01.311Z</time>
      </trkpt>
      <trkpt lat="43.32283" lon="2.45576">
        <ele>263.423886</ele>
        <time>2021-05-08T08:33:05.280Z</time>
      </trkpt>
      <trkpt lat="43.32286" lon="2.45563">
        <ele>262.610122</ele>
        <time>2021-05-08T08:33:08.287Z</time>
      </trkpt>
      <trkpt lat="43.32291" lon="2.45552">
        <ele>261.760676</ele>
        <time>2021-05-08T08:33:11.273Z</time>
      </trkpt>
      <trkpt lat="43.32299" lon="2.45541">
        <ele>260.738869</ele>
        <time>2021-05-08T08:33:14.280Z</time>
      </trkpt>
      <trkpt lat="43.32308" lon="2.45533">
        <ele>259.856984</ele>
        <time>2021-05-08T08:33:17.288Z</time>
      </trkpt>
      <trkpt lat="43.32317" lon="2.45527">
        <ele>258.949724</ele>
        <time>2021-05-08T08:33:20.294Z</time>
      </trkpt>
      <trkpt lat="43.32325" lon="2.45521">
        <ele>258.122609</ele>
        <time>2021-05-08T08:33:23.286Z</time>
      </trkpt>
      <trkpt lat="43.32334" lon="2.45517">
        <ele>257.302427</ele>
        <time>2021-05-08T08:33:26.284Z</time>
      </trkpt>
      <trkpt lat="43.32345" lon="2.45512">
        <ele>257.127689</ele>
        <time>2021-05-08T08:33:30.292Z</time>
      </trkpt>
      <trkpt lat="43.32355" lon="2.45511">
        <ele>257.228452</ele>
        <time>2021-05-08T08:33:33.313Z</time>
      </trkpt>
      <trkpt lat="43.32366" lon="2.45511">
        <ele>257.338959</ele>
        <time>2021-05-08T08:33:36.287Z</time>
      </trkpt>
      <trkpt lat="43.32376" lon="2.45511">
        <ele>257.440416</ele>
        <time>2021-05-08T08:33:39.281Z</time>
      </trkpt>
      <trkpt lat="43.32386" lon="2.45512">
        <ele>257.539022</ele>
        <time>2021-05-08T08:33:42.281Z</time>
      </trkpt>
      <trkpt lat="43.32396" lon="2.4551">
        <ele>257.637845</ele>
        <time>2021-05-08T08:33:45.279Z</time>
      </trkpt>
      <trkpt lat="43.32406" lon="2.45509">
        <ele>257.736969</ele>
        <time>2021-05-08T08:33:48.288Z</time>
      </trkpt>
      <trkpt lat="43.32416" lon="2.45507">
        <ele>257.839681</ele>
        <time>2021-05-08T08:33:51.288Z</time>
      </trkpt>
      <trkpt lat="43.32426" lon="2.45502">
        <ele>257.945831</ele>
        <time>2021-05-08T08:33:54.281Z</time>
      </trkpt>
      <trkpt lat="43.32435" lon="2.45495">
        <ele>258.053038</ele>
        <time>2021-05-08T08:33:57.308Z</time>
      </trkpt>
      <trkpt lat="43.32444" lon="2.45487">
        <ele>258.160473</ele>
        <time>2021-05-08T08:34:00.320Z</time>
      </trkpt>
      <trkpt lat="43.32454" lon="2.45479">
        <ele>258.271448</ele>
        <time>2021-05-08T08:34:03.323Z</time>
      </trkpt>
      <trkpt lat="43.32463" lon="2.45472">
        <ele>258.379748</ele>
        <time>2021-05-08T08:34:06.281Z</time>
      </trkpt>
      <trkpt lat="43.32472" lon="2.45463">
        <ele>258.487797</ele>
        <time>2021-05-08T08:34:09.287Z</time>
      </trkpt>
      <trkpt lat="43.32481" lon="2.45455">
        <ele>258.593339</ele>
        <time>2021-05-08T08:34:12.281Z</time>
      </trkpt>
      <trkpt lat="43.32488" lon="2.45447">
        <ele>258.692212</ele>
        <time>2021-05-08T08:34:15.274Z</time>
      </trkpt>
      <trkpt lat="43.32496" lon="2.45438">
        <ele>258.795011</ele>
        <time>2021-05-08T08:34:18.313Z</time>
      </trkpt>
      <trkpt lat="43.32505" lon="2.45432">
        <ele>259.071906</ele>
        <time>2021-05-08T08:34:21.310Z</time>
      </trkpt>
      <trkpt lat="43.32515" lon="2.45426">
        <ele>259.593903</ele>
        <time>2021-05-08T08:34:24.303Z</time>
      </trkpt>
      <trkpt lat="43.32524" lon="2.45421">
        <ele>260.079459</ele>
        <time>2021-05-08T08:34:27.281Z</time>
      </trkpt>
      <trkpt lat="43.32534" lon="2.4542">
        <ele>260.531838</ele>
        <time>2021-05-08T08:34:30.282Z</time>
      </trkpt>
      <trkpt lat="43.32544" lon="2.45422">
        <ele>261.03003</ele>
        <time>2021-05-08T08:34:33.283Z</time>
      </trkpt>
      <trkpt lat="43.32554" lon="2.45425">
        <ele>261.500911</ele>
        <time>2021-05-08T08:34:36.293Z</time>
      </trkpt>
      <trkpt lat="43.32563" lon="2.45427">
        <ele>261.940799</ele>
        <time>2021-05-08T08:34:39.315Z</time>
      </trkpt>
      <trkpt lat="43.32575" lon="2.4543">
        <ele>262.529549</ele>
        <time>2021-05-08T08:34:43.317Z</time>
      </trkpt>
      <trkpt lat="43.32585" lon="2.45433">
        <ele>263.04636</ele>
        <time>2021-05-08T08:34:46.321Z</time>
      </trkpt>
      <trkpt lat="43.32595" lon="2.45436">
        <ele>263.526632</ele>
        <time>2021-05-08T08:34:49.306Z</time>
      </trkpt>
      <trkpt lat="43.32605" lon="2.45442">
        <ele>264.025663</ele>
        <time>2021-05-08T08:34:52.304Z</time>
      </trkpt>
      <trkpt lat="43.32613" lon="2.45451">
        <ele>264.547023</ele>
        <time>2021-05-08T08:34:55.279Z</time>
      </trkpt>
      <trkpt lat="43.32621" lon="2.45464">
        <ele>265.129848</ele>
        <time>2021-05-08T08:34:58.292Z</time>
      </trkpt>
      <trkpt lat="43.32626" lon="2.45477">
        <ele>265.653812</ele>
        <time>2021-05-08T08:35:01.285Z</time>
      </trkpt>
      <trkpt lat="43.32631" lon="2.4549">
        <ele>266.133452</ele>
        <time>2021-05-08T08:35:04.322Z</time>
      </trkpt>
      <trkpt lat="43.32635" lon="2.45503">
        <ele>266.629352</ele>
        <time>2021-05-08T08:35:07.316Z</time>
      </trkpt>
      <trkpt lat="43.32641" lon="2.45515">
        <ele>267.160036</ele>
        <time>2021-05-08T08:35:10.280Z</time>
      </trkpt>
      <trkpt lat="43.32649" lon="2.45524">
        <ele>267.472467</ele>
        <time>2021-05-08T08:35:13.315Z</time>
      </trkpt>
      <trkpt lat="43.32658" lon="2.45533">
        <ele>267.463216</ele>
        <time>2021-05-08T08:35:16.310Z</time>
      </trkpt>
      <trkpt lat="43.32667" lon="2.45541">
        <ele>267.453703</ele>
        <time>2021-05-08T08:35:19.307Z</time>
      </trkpt>
      <trkpt lat="43.32677" lon="2.45547">
        <ele>267.444022</ele>
        <time>2021-05-08T08:35:22.280Z</time>
      </trkpt>
      <trkpt lat="43.32687" lon="2.45552">
        <ele>267.434365</ele>
        <time>2021-05-08T08:35:25.279Z</time>
      </trkpt>
      <trkpt lat="43.32698" lon="2.45558">
        <ele>267.424137</ele>
        <time>2021-05-08T08:35:28.284Z</time>
      </trkpt>
      <trkpt lat="43.32708" lon="2.45565">
        <ele>267.414243</ele>
        <time>2021-05-08T08:35:31.312Z</time>
      </trkpt>
      <trkpt lat="43.32719" lon="2.45569">
        <ele>267.404703</ele>
        <time>2021-05-08T08:35:34.289Z</time>
      </trkpt>
      <trkpt lat="43.3273" lon="2.45571">
        <ele>267.394727</ele>
        <time>2021-05-08T08:35:37.283Z</time>
      </trkpt>
      <trkpt lat="43.32742" lon="2.45573">
        <ele>267.384122</ele>
        <time>2021-05-08T08:35:40.311Z</time>
      </trkpt>
      <trkpt lat="43.32754" lon="2.45572">
        <ele>267.373274</ele>
        <time>2021-05-08T08:35:43.287Z</time>
      </trkpt>
      <trkpt lat="43.32766" lon="2.4557">
        <ele>267.362944</ele>
        <time>2021-05-08T08:35:46.281Z</time>
      </trkpt>
      <trkpt lat="43.32777" lon="2.45566">
        <ele>267.352572</ele>
        <time>2021-05-08T08:35:49.308Z</time>
      </trkpt>
      <trkpt lat="43.32788" lon="2.4556">
        <ele>267.342718</ele>
        <time>2021-05-08T08:35:52.282Z</time>
      </trkpt>
      <trkpt lat="43.32798" lon="2.45555">
        <ele>267.333251</ele>
        <time>2021-05-08T08:35:55.279Z</time>
      </trkpt>
      <trkpt lat="43.32808" lon="2.45549">
        <ele>267.323969</ele>
        <time>2021-05-08T08:35:58.311Z</time>
      </trkpt>
      <trkpt lat="43.32818" lon="2.45543">
        <ele>267.382826</ele>
        <time>2021-05-08T08:36:01.279Z</time>
      </trkpt>
      <trkpt lat="43.32828" lon="2.45538">
        <ele>267.569333</ele>
        <time>2021-05-08T08:36:04.312Z</time>
      </trkpt>
      <trkpt lat="43.32839" lon="2.45531">
        <ele>267.769718</ele>
        <time>2021-05-08T08:36:07.278Z</time>
      </trkpt>
      <trkpt lat="43.32849" lon="2.45526">
        <ele>267.946581</ele>
        <time>2021-05-08T08:36:10.314Z</time>
      </trkpt>
      <trkpt lat="43.32859" lon="2.45521">
        <ele>268.117313</ele>
        <time>2021-05-08T08:36:13.315Z</time>
      </trkpt>
      <trkpt lat="43.32869" lon="2.45516">
        <ele>268.298592</ele>
        <time>2021-05-08T08:36:16.280Z</time>
      </trkpt>
      <trkpt lat="43.32879" lon="2.45512">
        <ele>268.467775</ele>
        <time>2021-05-08T08:36:19.281Z</time>
      </trkpt>
      <trkpt lat="43.3289" lon="2.45509">
        <ele>268.651094</ele>
        <time>2021-05-08T08:36:22.282Z</time>
      </trkpt>
      <trkpt lat="43.32901" lon="2.45505">
        <ele>268.843286</ele>
        <time>2021-05-08T08:36:25.282Z</time>
      </trkpt>
      <trkpt lat="43.32912" lon="2.45502">
        <ele>269.028741</ele>
        <time>2021-05-08T08:36:28.325Z</time>
      </trkpt>
      <trkpt lat="43.32923" lon="2.455">
        <ele>269.205849</ele>
        <time>2021-05-08T08:36:31.330Z</time>
      </trkpt>
      <trkpt lat="43.32934" lon="2.455">
        <ele>269.384377</ele>
        <time>2021-05-08T08:36:34.283Z</time>
      </trkpt>
      <trkpt lat="43.32943" lon="2.455">
        <ele>269.541332</ele>
        <time>2021-05-08T08:36:37.284Z</time>
      </trkpt>
      <trkpt lat="43.32953" lon="2.455">
        <ele>269.711499</ele>
        <time>2021-05-08T08:36:40.274Z</time>
      </trkpt>
      <trkpt lat="43.32963" lon="2.45501">
        <ele>269.875498</ele>
        <time>2021-05-08T08:36:43.307Z</time>
      </trkpt>
      <trkpt lat="43.32973" lon="2.45503">
        <ele>270.039549</ele>
        <time>2021-05-08T08:36:46.332Z</time>
      </trkpt>
      <trkpt lat="43.32984" lon="2.45506">
        <ele>270.219727</ele>
        <time>2021-05-08T08:36:49.285Z</time>
      </trkpt>
      <trkpt lat="43.32993" lon="2.45511">
        <ele>270.507614</ele>
        <time>2021-05-08T08:36:52.280Z</time>
      </trkpt>
      <trkpt lat="43.33002" lon="2.45518">
        <ele>270.939701</ele>
        <time>2021-05-08T08:36:55.282Z</time>
      </trkpt>
      <trkpt lat="43.3301" lon="2.45528">
        <ele>271.379489</ele>
        <time>2021-05-08T08:36:58.290Z</time>
      </trkpt>
      <trkpt lat="43.33015" lon="2.45541">
        <ele>271.800583</ele>
        <time>2021-05-08T08:37:01.288Z</time>
      </trkpt>
      <trkpt lat="43.33017" lon="2.45553">
        <ele>272.170796</ele>
        <time>2021-05-08T08:37:04.314Z</time>
      </trkpt>
      <trkpt lat="43.33015" lon="2.45568">
        <ele>272.604772</ele>
        <time>2021-05-08T08:37:07.308Z</time>
      </trkpt>
      <trkpt lat="43.33012" lon="2.45582">
        <ele>273.038415</ele>
        <time>2021-05-08T08:37:10.285Z</time>
      </trkpt>
      <trkpt lat="43.33006" lon="2.45594">
        <ele>273.438008</ele>
        <time>2021-05-08T08:37:13.319Z</time>
      </trkpt>
      <trkpt lat="43.33002" lon="2.45606">
        <ele>273.81887</ele>
        <time>2021-05-08T08:37:16.297Z</time>
      </trkpt>
      <trkpt lat="43.33" lon="2.45619">
        <ele>274.213465</ele>
        <time>2021-05-08T08:37:19.286Z</time>
      </trkpt>
      <trkpt lat="43.33001" lon="2.45635">
        <ele>274.681737</ele>
        <time>2021-05-08T08:37:23.288Z</time>
      </trkpt>
      <trkpt lat="43.33007" lon="2.45646">
        <ele>275.091426</ele>
        <time>2021-05-08T08:37:26.332Z</time>
      </trkpt>
      <trkpt lat="43.33015" lon="2.45655">
        <ele>275.497499</ele>
        <time>2021-05-08T08:37:29.283Z</time>
      </trkpt>
      <trkpt lat="43.33025" lon="2.45658">
        <ele>275.891126</ele>
        <time>2021-05-08T08:37:32.276Z</time>
      </trkpt>
      <trkpt lat="43.33035" lon="2.45657">
        <ele>276.280039</ele>
        <time>2021-05-08T08:37:35.290Z</time>
      </trkpt>
      <trkpt lat="43.33046" lon="2.45655">
        <ele>276.743013</ele>
        <time>2021-05-08T08:37:39.291Z</time>
      </trkpt>
      <trkpt lat="43.33055" lon="2.4565">
        <ele>277.139572</ele>
        <time>2021-05-08T08:37:42.298Z</time>
      </trkpt>
      <trkpt lat="43.33066" lon="2.45644">
        <ele>277.57639</ele>
        <time>2021-05-08T08:37:45.307Z</time>
      </trkpt>
      <trkpt lat="43.33076" lon="2.4564">
        <ele>277.952371</ele>
        <time>2021-05-08T08:37:48.320Z</time>
      </trkpt>
      <trkpt lat="43.33084" lon="2.45635">
        <ele>278.281841</ele>
        <time>2021-05-08T08:37:51.309Z</time>
      </trkpt>
      <trkpt lat="43.33096" lon="2.4563">
        <ele>278.701664</ele>
        <time>2021-05-08T08:37:55.271Z</time>
      </trkpt>
      <trkpt lat="43.33105" lon="2.45626">
        <ele>279.049459</ele>
        <time>2021-05-08T08:37:58.284Z</time>
      </trkpt>
      <trkpt lat="43.33115" lon="2.45623">
        <ele>279.408764</ele>
        <time>2021-05-08T08:38:01.308Z</time>
      </trkpt>
      <trkpt lat="43.33125" lon="2.45621">
        <ele>279.759079</ele>
        <time>2021-05-08T08:38:04.312Z</time>
      </trkpt>
      <trkpt lat="43.33134" lon="2.45619">
        <ele>280.082293</ele>
        <time>2021-05-08T08:38:07.280Z</time>
      </trkpt>
      <trkpt lat="43.33143" lon="2.45616">
        <ele>280.418178</ele>
        <time>2021-05-08T08:38:10.289Z</time>
      </trkpt>
      <trkpt lat="43.33153" lon="2.45615">
        <ele>280.788244</ele>
        <time>2021-05-08T08:38:13.314Z</time>
      </trkpt>
      <trkpt lat="43.33164" lon="2.45615">
        <ele>281.157409</ele>
        <time>2021-05-08T08:38:16.283Z</time>
      </trkpt>
      <trkpt lat="43.33174" lon="2.45615">
        <ele>281.533752</ele>
        <time>2021-05-08T08:38:19.318Z</time>
      </trkpt>
      <trkpt lat="43.33184" lon="2.45615">
        <ele>281.895817</ele>
        <time>2021-05-08T08:38:22.285Z</time>
      </trkpt>
      <trkpt lat="43.33195" lon="2.45614">
        <ele>282.280881</ele>
        <time>2021-05-08T08:38:25.311Z</time>
      </trkpt>
      <trkpt lat="43.33206" lon="2.45613">
        <ele>282.657579</ele>
        <time>2021-05-08T08:38:28.313Z</time>
      </trkpt>
      <trkpt lat="43.33216" lon="2.45615">
        <ele>283.012403</ele>
        <time>2021-05-08T08:38:31.280Z</time>
      </trkpt>
      <trkpt lat="43.33225" lon="2.45617">
        <ele>283.360963</ele>
        <time>2021-05-08T08:38:34.273Z</time>
      </trkpt>
      <trkpt lat="43.33235" lon="2.45619">
        <ele>283.720445</ele>
        <time>2021-05-08T08:38:37.287Z</time>
      </trkpt>
      <trkpt lat="43.33244" lon="2.45623">
        <ele>284.033375</ele>
        <time>2021-05-08T08:38:40.305Z</time>
      </trkpt>
      <trkpt lat="43.33255" lon="2.45626">
        <ele>284.388239</ele>
        <time>2021-05-08T08:38:43.285Z</time>
      </trkpt>
      <trkpt lat="43.33265" lon="2.45628">
        <ele>284.710901</ele>
        <time>2021-05-08T08:38:46.278Z</time>
      </trkpt>
      <trkpt lat="43.33274" lon="2.45629">
        <ele>285.018278</ele>
        <time>2021-05-08T08:38:49.284Z</time>
      </trkpt>
      <trkpt lat="43.33284" lon="2.4563">
        <ele>285.325654</ele>
        <time>2021-05-08T08:38:52.319Z</time>
      </trkpt>
      <trkpt lat="43.33294" lon="2.45626">
        <ele>285.682201</ele>
        <time>2021-05-08T08:38:55.272Z</time>
      </trkpt>
      <trkpt lat="43.33304" lon="2.45622">
        <ele>286.024873</ele>
        <time>2021-05-08T08:38:58.295Z</time>
      </trkpt>
      <trkpt lat="43.33314" lon="2.45622">
        <ele>286.337935</ele>
        <time>2021-05-08T08:39:01.275Z</time>
      </trkpt>
      <trkpt lat="43.33324" lon="2.45627">
        <ele>286.682143</ele>
        <time>2021-05-08T08:39:04.292Z</time>
      </trkpt>
      <trkpt lat="43.33332" lon="2.45636">
        <ele>287.035951</ele>
        <time>2021-05-08T08:39:07.311Z</time>
      </trkpt>
      <trkpt lat="43.33339" lon="2.45647">
        <ele>287.376184</ele>
        <time>2021-05-08T08:39:10.278Z</time>
      </trkpt>
      <trkpt lat="43.33343" lon="2.45659">
        <ele>287.694862</ele>
        <time>2021-05-08T08:39:13.289Z</time>
      </trkpt>
      <trkpt lat="43.33346" lon="2.45672">
        <ele>287.999147</ele>
        <time>2021-05-08T08:39:16.334Z</time>
      </trkpt>
      <trkpt lat="43.33347" lon="2.45684">
        <ele>288.29779</ele>
        <time>2021-05-08T08:39:19.287Z</time>
      </trkpt>
      <trkpt lat="43.33348" lon="2.45697">
        <ele>288.611644</ele>
        <time>2021-05-08T08:39:22.273Z</time>
      </trkpt>
      <trkpt lat="43.33349" lon="2.45712">
        <ele>288.949956</ele>
        <time>2021-05-08T08:39:25.312Z</time>
      </trkpt>
      <trkpt lat="43.33351" lon="2.45725">
        <ele>289.269635</ele>
        <time>2021-05-08T08:39:28.325Z</time>
      </trkpt>
      <trkpt lat="43.33354" lon="2.45737">
        <ele>289.586106</ele>
        <time>2021-05-08T08:39:31.283Z</time>
      </trkpt>
      <trkpt lat="43.33363" lon="2.45744">
        <ele>289.72681</ele>
        <time>2021-05-08T08:39:34.285Z</time>
      </trkpt>
      <trkpt lat="43.33373" lon="2.45742">
        <ele>289.707384</ele>
        <time>2021-05-08T08:39:37.278Z</time>
      </trkpt>
      <trkpt lat="43.33383" lon="2.45735">
        <ele>289.685211</ele>
        <time>2021-05-08T08:39:40.286Z</time>
      </trkpt>
      <trkpt lat="43.33392" lon="2.45725">
        <ele>289.663163</ele>
        <time>2021-05-08T08:39:43.293Z</time>
      </trkpt>
      <trkpt lat="43.33398" lon="2.45714">
        <ele>289.643569</ele>
        <time>2021-05-08T08:39:46.281Z</time>
      </trkpt>
      <trkpt lat="43.334" lon="2.45701">
        <ele>289.624292</ele>
        <time>2021-05-08T08:39:49.282Z</time>
      </trkpt>
      <trkpt lat="43.33403" lon="2.45686">
        <ele>289.603206</ele>
        <time>2021-05-08T08:39:52.292Z</time>
      </trkpt>
      <trkpt lat="43.33407" lon="2.45672">
        <ele>289.582225</ele>
        <time>2021-05-08T08:39:55.292Z</time>
      </trkpt>
      <trkpt lat="43.33413" lon="2.45658">
        <ele>289.560181</ele>
        <time>2021-05-08T08:39:58.289Z</time>
      </trkpt>
      <trkpt lat="43.33419" lon="2.45645">
        <ele>289.537869</ele>
        <time>2021-05-08T08:40:01.278Z</time>
      </trkpt>
      <trkpt lat="43.33426" lon="2.45632">
        <ele>289.516236</ele>
        <time>2021-05-08T08:40:04.284Z</time>
      </trkpt>
      <trkpt lat="43.33434" lon="2.45622">
        <ele>289.494577</ele>
        <time>2021-05-08T08:40:07.308Z</time>
      </trkpt>
      <trkpt lat="43.33443" lon="2.45612">
        <ele>289.471971</ele>
        <time>2021-05-08T08:40:10.288Z</time>
      </trkpt>
      <trkpt lat="43.33453" lon="2.45603">
        <ele>289.44881</ele>
        <time>2021-05-08T08:40:13.283Z</time>
      </trkpt>
      <trkpt lat="43.33463" lon="2.45597">
        <ele>289.428217</ele>
        <time>2021-05-08T08:40:16.278Z</time>
      </trkpt>
      <trkpt lat="43.33473" lon="2.45592">
        <ele>289.407646</ele>
        <time>2021-05-08T08:40:19.278Z</time>
      </trkpt>
      <trkpt lat="43.33486" lon="2.45589">
        <ele>289.524938</ele>
        <time>2021-05-08T08:40:22.309Z</time>
      </trkpt>
      <trkpt lat="43.33498" lon="2.45588">
        <ele>289.986678</ele>
        <time>2021-05-08T08:40:25.285Z</time>
      </trkpt>
      <trkpt lat="43.33509" lon="2.45588">
        <ele>290.384688</ele>
        <time>2021-05-08T08:40:28.285Z</time>
      </trkpt>
      <trkpt lat="43.33519" lon="2.45591">
        <ele>290.766029</ele>
        <time>2021-05-08T08:40:31.284Z</time>
      </trkpt>
      <trkpt lat="43.33529" lon="2.45598">
        <ele>291.173832</ele>
        <time>2021-05-08T08:40:34.286Z</time>
      </trkpt>
      <trkpt lat="43.33539" lon="2.45606">
        <ele>291.60427</ele>
        <time>2021-05-08T08:40:37.281Z</time>
      </trkpt>
      <trkpt lat="43.33549" lon="2.45614">
        <ele>292.033066</ele>
        <time>2021-05-08T08:40:40.280Z</time>
      </trkpt>
      <trkpt lat="43.3356" lon="2.45618">
        <ele>292.437558</ele>
        <time>2021-05-08T08:40:43.282Z</time>
      </trkpt>
      <trkpt lat="43.33571" lon="2.45617">
        <ele>292.872786</ele>
        <time>2021-05-08T08:40:46.286Z</time>
      </trkpt>
      <trkpt lat="43.33583" lon="2.45615">
        <ele>293.297369</ele>
        <time>2021-05-08T08:40:49.275Z</time>
      </trkpt>
      <trkpt lat="43.33595" lon="2.45614">
        <ele>293.741151</ele>
        <time>2021-05-08T08:40:52.279Z</time>
      </trkpt>
      <trkpt lat="43.33608" lon="2.45613">
        <ele>294.221101</ele>
        <time>2021-05-08T08:40:55.279Z</time>
      </trkpt>
      <trkpt lat="43.3362" lon="2.45611">
        <ele>294.69059</ele>
        <time>2021-05-08T08:40:58.284Z</time>
      </trkpt>
      <trkpt lat="43.33633" lon="2.45611">
        <ele>295.140225</ele>
        <time>2021-05-08T08:41:01.280Z</time>
      </trkpt>
      <trkpt lat="43.33644" lon="2.45614">
        <ele>295.565205</ele>
        <time>2021-05-08T08:41:04.309Z</time>
      </trkpt>
      <trkpt lat="43.33656" lon="2.45617">
        <ele>296.011024</ele>
        <time>2021-05-08T08:41:07.312Z</time>
      </trkpt>
      <trkpt lat="43.33667" lon="2.45623">
        <ele>296.204018</ele>
        <time>2021-05-08T08:41:10.310Z</time>
      </trkpt>
      <trkpt lat="43.33677" lon="2.45631">
        <ele>296.393559</ele>
        <time>2021-05-08T08:41:13.284Z</time>
      </trkpt>
      <trkpt lat="43.33687" lon="2.4564">
        <ele>296.592627</ele>
        <time>2021-05-08T08:41:16.286Z</time>
      </trkpt>
      <trkpt lat="43.33697" lon="2.45649">
        <ele>296.790963</ele>
        <time>2021-05-08T08:41:19.282Z</time>
      </trkpt>
      <trkpt lat="43.33708" lon="2.45658">
        <ele>296.999756</ele>
        <time>2021-05-08T08:41:22.285Z</time>
      </trkpt>
      <trkpt lat="43.33717" lon="2.45666">
        <ele>297.177954</ele>
        <time>2021-05-08T08:41:25.285Z</time>
      </trkpt>
      <trkpt lat="43.33728" lon="2.45673">
        <ele>297.361393</ele>
        <time>2021-05-08T08:41:28.317Z</time>
      </trkpt>
      <trkpt lat="43.33739" lon="2.45679">
        <ele>297.562249</ele>
        <time>2021-05-08T08:41:31.283Z</time>
      </trkpt>
      <trkpt lat="43.33751" lon="2.45684">
        <ele>297.767669</ele>
        <time>2021-05-08T08:41:34.308Z</time>
      </trkpt>
      <trkpt lat="43.33762" lon="2.45685">
        <ele>297.942883</ele>
        <time>2021-05-08T08:41:37.290Z</time>
      </trkpt>
      <trkpt lat="43.33773" lon="2.45683">
        <ele>298.121148</ele>
        <time>2021-05-08T08:41:40.281Z</time>
      </trkpt>
      <trkpt lat="43.33784" lon="2.45681">
        <ele>298.302137</ele>
        <time>2021-05-08T08:41:43.284Z</time>
      </trkpt>
      <trkpt lat="43.33792" lon="2.45672">
        <ele>298.477713</ele>
        <time>2021-05-08T08:41:46.291Z</time>
      </trkpt>
      <trkpt lat="43.33798" lon="2.45658">
        <ele>298.66914</ele>
        <time>2021-05-08T08:41:49.276Z</time>
      </trkpt>
      <trkpt lat="43.338" lon="2.45645">
        <ele>298.826223</ele>
        <time>2021-05-08T08:41:52.287Z</time>
      </trkpt>
      <trkpt lat="43.33798" lon="2.45633">
        <ele>298.998056</ele>
        <time>2021-05-08T08:41:55.319Z</time>
      </trkpt>
      <trkpt lat="43.33794" lon="2.45619">
        <ele>299.284447</ele>
        <time>2021-05-08T08:41:58.284Z</time>
      </trkpt>
      <trkpt lat="43.33789" lon="2.45605">
        <ele>299.587188</ele>
        <time>2021-05-08T08:42:01.308Z</time>
      </trkpt>
      <trkpt lat="43.33785" lon="2.4559">
        <ele>299.909388</ele>
        <time>2021-05-08T08:42:04.280Z</time>
      </trkpt>
      <trkpt lat="43.33782" lon="2.45573">
        <ele>300.24347</ele>
        <time>2021-05-08T08:42:07.315Z</time>
      </trkpt>
      <trkpt lat="43.33783" lon="2.45558">
        <ele>300.550556</ele>
        <time>2021-05-08T08:42:10.297Z</time>
      </trkpt>
      <trkpt lat="43.33789" lon="2.45544">
        <ele>300.855032</ele>
        <time>2021-05-08T08:42:13.311Z</time>
      </trkpt>
      <trkpt lat="43.33797" lon="2.45532">
        <ele>301.173815</ele>
        <time>2021-05-08T08:42:16.298Z</time>
      </trkpt>
      <trkpt lat="43.33807" lon="2.45525">
        <ele>301.492269</ele>
        <time>2021-05-08T08:42:19.288Z</time>
      </trkpt>
      <trkpt lat="43.33818" lon="2.45524">
        <ele>301.771054</ele>
        <time>2021-05-08T08:42:22.305Z</time>
      </trkpt>
      <trkpt lat="43.3383" lon="2.45528">
        <ele>302.105573</ele>
        <time>2021-05-08T08:42:25.275Z</time>
      </trkpt>
      <trkpt lat="43.3384" lon="2.45534">
        <ele>302.392954</ele>
        <time>2021-05-08T08:42:28.287Z</time>
      </trkpt>
      <trkpt lat="43.33848" lon="2.4554">
        <ele>302.654245</ele>
        <time>2021-05-08T08:42:31.306Z</time>
      </trkpt>
      <trkpt lat="43.33857" lon="2.45545">
        <ele>302.910553</ele>
        <time>2021-05-08T08:42:34.282Z</time>
      </trkpt>
      <trkpt lat="43.33867" lon="2.45551">
        <ele>303.215877</ele>
        <time>2021-05-08T08:42:37.288Z</time>
      </trkpt>
      <trkpt lat="43.33878" lon="2.45558">
        <ele>303.532615</ele>
        <time>2021-05-08T08:42:40.273Z</time>
      </trkpt>
      <trkpt lat="43.33888" lon="2.45562">
        <ele>303.813531</ele>
        <time>2021-05-08T08:42:43.329Z</time>
      </trkpt>
      <trkpt lat="43.33898" lon="2.45566">
        <ele>304.239451</ele>
        <time>2021-05-08T08:42:46.282Z</time>
      </trkpt>
      <trkpt lat="43.33909" lon="2.45571">
        <ele>304.671894</ele>
        <time>2021-05-08T08:42:49.281Z</time>
      </trkpt>
      <trkpt lat="43.33917" lon="2.45578">
        <ele>305.051539</ele>
        <time>2021-05-08T08:42:52.275Z</time>
      </trkpt>
      <trkpt lat="43.33925" lon="2.45589">
        <ele>305.487203</ele>
        <time>2021-05-08T08:42:55.282Z</time>
      </trkpt>
      <trkpt lat="43.33931" lon="2.45601">
        <ele>305.893767</ele>
        <time>2021-05-08T08:42:58.281Z</time>
      </trkpt>
      <trkpt lat="43.33936" lon="2.45614">
        <ele>306.306405</ele>
        <time>2021-05-08T08:43:01.308Z</time>
      </trkpt>
      <trkpt lat="43.33941" lon="2.45627">
        <ele>306.732204</ele>
        <time>2021-05-08T08:43:04.311Z</time>
      </trkpt>
      <trkpt lat="43.33946" lon="2.45639">
        <ele>307.113509</ele>
        <time>2021-05-08T08:43:07.284Z</time>
      </trkpt>
      <trkpt lat="43.33952" lon="2.45654">
        <ele>307.58365</ele>
        <time>2021-05-08T08:43:11.274Z</time>
      </trkpt>
      <trkpt lat="43.3396" lon="2.45667">
        <ele>308.08828</ele>
        <time>2021-05-08T08:43:14.289Z</time>
      </trkpt>
      <trkpt lat="43.33972" lon="2.45671">
        <ele>308.533961</ele>
        <time>2021-05-08T08:43:17.276Z</time>
      </trkpt>
      <trkpt lat="43.33983" lon="2.45667">
        <ele>308.981006</ele>
        <time>2021-05-08T08:43:20.280Z</time>
      </trkpt>
      <trkpt lat="43.33993" lon="2.45666">
        <ele>309.367593</ele>
        <time>2021-05-08T08:43:22.288Z</time>
      </trkpt>
      <trkpt lat="43.34005" lon="2.45659">
        <ele>309.867945</ele>
        <time>2021-05-08T08:43:25.273Z</time>
      </trkpt>
      <trkpt lat="43.34016" lon="2.45653">
        <ele>310.341946</ele>
        <time>2021-05-08T08:43:28.319Z</time>
      </trkpt>
      <trkpt lat="43.34025" lon="2.45645">
        <ele>310.762903</ele>
        <time>2021-05-08T08:43:31.294Z</time>
      </trkpt>
      <trkpt lat="43.34033" lon="2.45634">
        <ele>310.376656</ele>
        <time>2021-05-08T08:43:34.296Z</time>
      </trkpt>
      <trkpt lat="43.3404" lon="2.45622">
        <ele>309.954742</ele>
        <time>2021-05-08T08:43:37.279Z</time>
      </trkpt>
      <trkpt lat="43.34046" lon="2.45608">
        <ele>309.530463</ele>
        <time>2021-05-08T08:43:40.304Z</time>
      </trkpt>
      <trkpt lat="43.34052" lon="2.45595">
        <ele>309.116115</ele>
        <time>2021-05-08T08:43:43.282Z</time>
      </trkpt>
      <trkpt lat="43.34056" lon="2.45582">
        <ele>308.729134</ele>
        <time>2021-05-08T08:43:46.301Z</time>
      </trkpt>
      <trkpt lat="43.34062" lon="2.4557">
        <ele>308.351973</ele>
        <time>2021-05-08T08:43:49.296Z</time>
      </trkpt>
      <trkpt lat="43.34069" lon="2.45558">
        <ele>307.943259</ele>
        <time>2021-05-08T08:43:52.282Z</time>
      </trkpt>
      <trkpt lat="43.34077" lon="2.45547">
        <ele>307.534426</ele>
        <time>2021-05-08T08:43:55.285Z</time>
      </trkpt>
      <trkpt lat="43.34085" lon="2.45538">
        <ele>307.138455</ele>
        <time>2021-05-08T08:43:58.289Z</time>
      </trkpt>
      <trkpt lat="43.34093" lon="2.45529">
        <ele>306.776563</ele>
        <time>2021-05-08T08:44:01.300Z</time>
      </trkpt>
      <trkpt lat="43.34101" lon="2.45522">
        <ele>306.415014</ele>
        <time>2021-05-08T08:44:04.337Z</time>
      </trkpt>
      <trkpt lat="43.3411" lon="2.45513">
        <ele>306.038372</ele>
        <time>2021-05-08T08:44:07.328Z</time>
      </trkpt>
      <trkpt lat="43.34117" lon="2.45505">
        <ele>305.686381</ele>
        <time>2021-05-08T08:44:10.323Z</time>
      </trkpt>
      <trkpt lat="43.34125" lon="2.45497">
        <ele>305.337699</ele>
        <time>2021-05-08T08:44:13.285Z</time>
      </trkpt>
      <trkpt lat="43.3413" lon="2.45487">
        <ele>305.008657</ele>
        <time>2021-05-08T08:44:16.287Z</time>
      </trkpt>
      <trkpt lat="43.34134" lon="2.45476">
        <ele>304.676593</ele>
        <time>2021-05-08T08:44:19.313Z</time>
      </trkpt>
      <trkpt lat="43.34137" lon="2.45462">
        <ele>304.295857</ele>
        <time>2021-05-08T08:44:22.288Z</time>
      </trkpt>
      <trkpt lat="43.34141" lon="2.45449">
        <ele>304.557676</ele>
        <time>2021-05-08T08:44:25.274Z</time>
      </trkpt>
      <trkpt lat="43.34148" lon="2.45437">
        <ele>305.099279</ele>
        <time>2021-05-08T08:44:28.279Z</time>
      </trkpt>
      <trkpt lat="43.34157" lon="2.45431">
        <ele>305.615248</ele>
        <time>2021-05-08T08:44:31.289Z</time>
      </trkpt>
      <trkpt lat="43.34166" lon="2.45431">
        <ele>306.072712</ele>
        <time>2021-05-08T08:44:34.321Z</time>
      </trkpt>
      <trkpt lat="43.34175" lon="2.45439">
        <ele>306.613593</ele>
        <time>2021-05-08T08:44:37.283Z</time>
      </trkpt>
      <trkpt lat="43.34182" lon="2.45449">
        <ele>307.099112</ele>
        <time>2021-05-08T08:44:40.304Z</time>
      </trkpt>
      <trkpt lat="43.34187" lon="2.4546">
        <ele>307.582673</ele>
        <time>2021-05-08T08:44:44.301Z</time>
      </trkpt>
      <trkpt lat="43.34194" lon="2.45472">
        <ele>308.137393</ele>
        <time>2021-05-08T08:44:48.287Z</time>
      </trkpt>
      <trkpt lat="43.34205" lon="2.45477">
        <ele>308.722843</ele>
        <time>2021-05-08T08:44:52.322Z</time>
      </trkpt>
      <trkpt lat="43.34217" lon="2.45477">
        <ele>309.294655</ele>
        <time>2021-05-08T08:44:56.275Z</time>
      </trkpt>
      <trkpt lat="43.3423" lon="2.45474">
        <ele>309.948384</ele>
        <time>2021-05-08T08:44:59.286Z</time>
      </trkpt>
      <trkpt lat="43.34241" lon="2.45472">
        <ele>310.521294</ele>
        <time>2021-05-08T08:45:02.314Z</time>
      </trkpt>
      <trkpt lat="43.34251" lon="2.45471">
        <ele>310.991422</ele>
        <time>2021-05-08T08:45:05.286Z</time>
      </trkpt>
      <trkpt lat="43.34262" lon="2.4547">
        <ele>311.559</ele>
        <time>2021-05-08T08:45:09.279Z</time>
      </trkpt>
      <trkpt lat="43.34272" lon="2.45473">
        <ele>312.080022</ele>
        <time>2021-05-08T08:45:12.281Z</time>
      </trkpt>
      <trkpt lat="43.34283" lon="2.45478">
        <ele>312.633809</ele>
        <time>2021-05-08T08:45:15.314Z</time>
      </trkpt>
      <trkpt lat="43.34292" lon="2.45484">
        <ele>313.148545</ele>
        <time>2021-05-08T08:45:18.286Z</time>
      </trkpt>
      <trkpt lat="43.34302" lon="2.45493">
        <ele>313.507501</ele>
        <time>2021-05-08T08:45:21.284Z</time>
      </trkpt>
      <trkpt lat="43.3431" lon="2.45501">
        <ele>313.833719</ele>
        <time>2021-05-08T08:45:24.286Z</time>
      </trkpt>
      <trkpt lat="43.34318" lon="2.45508">
        <ele>314.136687</ele>
        <time>2021-05-08T08:45:27.314Z</time>
      </trkpt>
      <trkpt lat="43.34326" lon="2.45514">
        <ele>314.427548</ele>
        <time>2021-05-08T08:45:30.285Z</time>
      </trkpt>
      <trkpt lat="43.34334" lon="2.45521">
        <ele>314.725385</ele>
        <time>2021-05-08T08:45:33.278Z</time>
      </trkpt>
      <trkpt lat="43.34343" lon="2.45529">
        <ele>315.069045</ele>
        <time>2021-05-08T08:45:37.285Z</time>
      </trkpt>
      <trkpt lat="43.34352" lon="2.45535">
        <ele>315.375467</ele>
        <time>2021-05-08T08:45:40.325Z</time>
      </trkpt>
      <trkpt lat="43.34361" lon="2.45539">
        <ele>315.679442</ele>
        <time>2021-05-08T08:45:43.282Z</time>
      </trkpt>
      <trkpt lat="43.3437" lon="2.45544">
        <ele>315.982194</ele>
        <time>2021-05-08T08:45:46.335Z</time>
      </trkpt>
      <trkpt lat="43.34379" lon="2.45547">
        <ele>316.283948</ele>
        <time>2021-05-08T08:45:49.281Z</time>
      </trkpt>
      <trkpt lat="43.34389" lon="2.45549">
        <ele>316.597738</ele>
        <time>2021-05-08T08:45:52.323Z</time>
      </trkpt>
      <trkpt lat="43.34399" lon="2.45551">
        <ele>316.930301</ele>
        <time>2021-05-08T08:45:55.289Z</time>
      </trkpt>
      <trkpt lat="43.34409" lon="2.45554">
        <ele>317.24722</ele>
        <time>2021-05-08T08:45:58.310Z</time>
      </trkpt>
      <trkpt lat="43.34419" lon="2.45555">
        <ele>317.571047</ele>
        <time>2021-05-08T08:46:01.312Z</time>
      </trkpt>
      <trkpt lat="43.34429" lon="2.45557">
        <ele>317.899924</ele>
        <time>2021-05-08T08:46:04.280Z</time>
      </trkpt>
      <trkpt lat="43.3444" lon="2.45559">
        <ele>318.246422</ele>
        <time>2021-05-08T08:46:07.313Z</time>
      </trkpt>
      <trkpt lat="43.34451" lon="2.45561">
        <ele>318.584135</ele>
        <time>2021-05-08T08:46:10.271Z</time>
      </trkpt>
      <trkpt lat="43.34461" lon="2.45563">
        <ele>318.960318</ele>
        <time>2021-05-08T08:46:13.280Z</time>
      </trkpt>
      <trkpt lat="43.3447" lon="2.45568">
        <ele>319.596566</ele>
        <time>2021-05-08T08:46:16.286Z</time>
      </trkpt>
      <trkpt lat="43.34479" lon="2.45574">
        <ele>320.189016</ele>
        <time>2021-05-08T08:46:19.273Z</time>
      </trkpt>
      <trkpt lat="43.34487" lon="2.45581">
        <ele>320.777695</ele>
        <time>2021-05-08T08:46:22.307Z</time>
      </trkpt>
      <trkpt lat="43.34494" lon="2.45592">
        <ele>321.425301</ele>
        <time>2021-05-08T08:46:25.282Z</time>
      </trkpt>
      <trkpt lat="43.34499" lon="2.45603">
        <ele>322.025099</ele>
        <time>2021-05-08T08:46:28.286Z</time>
      </trkpt>
      <trkpt lat="43.34503" lon="2.45615">
        <ele>322.632168</ele>
        <time>2021-05-08T08:46:31.288Z</time>
      </trkpt>
      <trkpt lat="43.34507" lon="2.45629">
        <ele>323.33069</ele>
        <time>2021-05-08T08:46:35.319Z</time>
      </trkpt>
      <trkpt lat="43.34508" lon="2.45642">
        <ele>323.89872</ele>
        <time>2021-05-08T08:46:38.291Z</time>
      </trkpt>
      <trkpt lat="43.3451" lon="2.45654">
        <ele>324.471947</ele>
        <time>2021-05-08T08:46:41.312Z</time>
      </trkpt>
      <trkpt lat="43.3451" lon="2.4567">
        <ele>325.182854</ele>
        <time>2021-05-08T08:46:45.310Z</time>
      </trkpt>
      <trkpt lat="43.34511" lon="2.45683">
        <ele>325.750238</ele>
        <time>2021-05-08T08:46:48.287Z</time>
      </trkpt>
      <trkpt lat="43.34514" lon="2.45697">
        <ele>326.413145</ele>
        <time>2021-05-08T08:46:52.275Z</time>
      </trkpt>
      <trkpt lat="43.3452" lon="2.45707">
        <ele>326.984343</ele>
        <time>2021-05-08T08:46:55.288Z</time>
      </trkpt>
      <trkpt lat="43.34528" lon="2.45711">
        <ele>327.574041</ele>
        <time>2021-05-08T08:46:58.288Z</time>
      </trkpt>
      <trkpt lat="43.34539" lon="2.45708">
        <ele>328.23304</ele>
        <time>2021-05-08T08:47:01.283Z</time>
      </trkpt>
      <trkpt lat="43.34547" lon="2.457">
        <ele>328.85331</ele>
        <time>2021-05-08T08:47:04.291Z</time>
      </trkpt>
      <trkpt lat="43.34553" lon="2.45689">
        <ele>329.480892</ele>
        <time>2021-05-08T08:47:07.284Z</time>
      </trkpt>
      <trkpt lat="43.34561" lon="2.45681">
        <ele>330.001542</ele>
        <time>2021-05-08T08:47:10.314Z</time>
      </trkpt>
      <trkpt lat="43.34572" lon="2.45677">
        <ele>329.723553</ele>
        <time>2021-05-08T08:47:13.283Z</time>
      </trkpt>
      <trkpt lat="43.34582" lon="2.45676">
        <ele>329.485426</ele>
        <time>2021-05-08T08:47:16.271Z</time>
      </trkpt>
      <trkpt lat="43.34592" lon="2.45677">
        <ele>329.242126</ele>
        <time>2021-05-08T08:47:19.280Z</time>
      </trkpt>
      <trkpt lat="43.34603" lon="2.45678">
        <ele>328.972076</ele>
        <time>2021-05-08T08:47:22.320Z</time>
      </trkpt>
      <trkpt lat="43.34614" lon="2.4568">
        <ele>328.70347</ele>
        <time>2021-05-08T08:47:25.315Z</time>
      </trkpt>
      <trkpt lat="43.34624" lon="2.45683">
        <ele>328.458895</ele>
        <time>2021-05-08T08:47:28.310Z</time>
      </trkpt>
      <trkpt lat="43.34633" lon="2.45687">
        <ele>328.234559</ele>
        <time>2021-05-08T08:47:31.298Z</time>
      </trkpt>
      <trkpt lat="43.34643" lon="2.45693">
        <ele>327.948995</ele>
        <time>2021-05-08T08:47:35.285Z</time>
      </trkpt>
      <trkpt lat="43.34653" lon="2.45698">
        <ele>327.704709</ele>
        <time>2021-05-08T08:47:38.277Z</time>
      </trkpt>
      <trkpt lat="43.34662" lon="2.45705">
        <ele>327.457201</ele>
        <time>2021-05-08T08:47:41.320Z</time>
      </trkpt>
      <trkpt lat="43.3467" lon="2.45711">
        <ele>327.222439</ele>
        <time>2021-05-08T08:47:44.285Z</time>
      </trkpt>
      <trkpt lat="43.34679" lon="2.45717">
        <ele>326.995139</ele>
        <time>2021-05-08T08:47:47.313Z</time>
      </trkpt>
      <trkpt lat="43.34688" lon="2.45722">
        <ele>326.758251</ele>
        <time>2021-05-08T08:47:50.320Z</time>
      </trkpt>
      <trkpt lat="43.34696" lon="2.45727">
        <ele>326.529803</ele>
        <time>2021-05-08T08:47:53.281Z</time>
      </trkpt>
      <trkpt lat="43.34705" lon="2.45733">
        <ele>326.286322</ele>
        <time>2021-05-08T08:47:56.288Z</time>
      </trkpt>
      <trkpt lat="43.34714" lon="2.45739">
        <ele>326.050278</ele>
        <time>2021-05-08T08:47:59.291Z</time>
      </trkpt>
      <trkpt lat="43.34723" lon="2.45746">
        <ele>325.803215</ele>
        <time>2021-05-08T08:48:02.316Z</time>
      </trkpt>
      <trkpt lat="43.34732" lon="2.45751">
        <ele>325.600616</ele>
        <time>2021-05-08T08:48:05.280Z</time>
      </trkpt>
      <trkpt lat="43.34741" lon="2.45758">
        <ele>325.456229</ele>
        <time>2021-05-08T08:48:08.276Z</time>
      </trkpt>
      <trkpt lat="43.3475" lon="2.45769">
        <ele>325.284213</ele>
        <time>2021-05-08T08:48:11.274Z</time>
      </trkpt>
      <trkpt lat="43.34757" lon="2.45781">
        <ele>325.122213</ele>
        <time>2021-05-08T08:48:14.295Z</time>
      </trkpt>
      <trkpt lat="43.34762" lon="2.45792">
        <ele>324.976654</ele>
        <time>2021-05-08T08:48:17.284Z</time>
      </trkpt>
      <trkpt lat="43.34768" lon="2.45803">
        <ele>324.835304</ele>
        <time>2021-05-08T08:48:20.312Z</time>
      </trkpt>
      <trkpt lat="43.34774" lon="2.45814">
        <ele>324.688918</ele>
        <time>2021-05-08T08:48:23.319Z</time>
      </trkpt>
      <trkpt lat="43.3478" lon="2.45824">
        <ele>324.545654</ele>
        <time>2021-05-08T08:48:26.310Z</time>
      </trkpt>
      <trkpt lat="43.3479" lon="2.45832">
        <ele>324.37796</ele>
        <time>2021-05-08T08:48:30.291Z</time>
      </trkpt>
      <trkpt lat="43.34803" lon="2.45832">
        <ele>324.198737</ele>
        <time>2021-05-08T08:48:33.311Z</time>
      </trkpt>
      <trkpt lat="43.34815" lon="2.4583">
        <ele>324.014006</ele>
        <time>2021-05-08T08:48:36.285Z</time>
      </trkpt>
      <trkpt lat="43.34826" lon="2.4583">
        <ele>323.852279</ele>
        <time>2021-05-08T08:48:39.296Z</time>
      </trkpt>
      <trkpt lat="43.34837" lon="2.4583">
        <ele>323.696529</ele>
        <time>2021-05-08T08:48:42.330Z</time>
      </trkpt>
      <trkpt lat="43.34848" lon="2.45832">
        <ele>323.527538</ele>
        <time>2021-05-08T08:48:45.282Z</time>
      </trkpt>
      <trkpt lat="43.34858" lon="2.45836">
        <ele>323.378875</ele>
        <time>2021-05-08T08:48:48.334Z</time>
      </trkpt>
      <trkpt lat="43.34868" lon="2.45844">
        <ele>323.219439</ele>
        <time>2021-05-08T08:48:51.287Z</time>
      </trkpt>
      <trkpt lat="43.34876" lon="2.45855">
        <ele>323.055527</ele>
        <time>2021-05-08T08:48:54.278Z</time>
      </trkpt>
      <trkpt lat="43.34881" lon="2.45867">
        <ele>323.209593</ele>
        <time>2021-05-08T08:48:57.283Z</time>
      </trkpt>
      <trkpt lat="43.34885" lon="2.45882">
        <ele>323.406578</ele>
        <time>2021-05-08T08:49:00.279Z</time>
      </trkpt>
      <trkpt lat="43.34888" lon="2.45895">
        <ele>323.582845</ele>
        <time>2021-05-08T08:49:03.294Z</time>
      </trkpt>
      <trkpt lat="43.34892" lon="2.45908">
        <ele>323.757894</ele>
        <time>2021-05-08T08:49:06.336Z</time>
      </trkpt>
      <trkpt lat="43.34895" lon="2.45921">
        <ele>323.929586</ele>
        <time>2021-05-08T08:49:09.286Z</time>
      </trkpt>
      <trkpt lat="43.34897" lon="2.45935">
        <ele>324.110434</ele>
        <time>2021-05-08T08:49:12.282Z</time>
      </trkpt>
      <trkpt lat="43.34897" lon="2.4595">
        <ele>324.300219</ele>
        <time>2021-05-08T08:49:15.306Z</time>
      </trkpt>
      <trkpt lat="43.34897" lon="2.45965">
        <ele>324.489621</ele>
        <time>2021-05-08T08:49:18.297Z</time>
      </trkpt>
      <trkpt lat="43.34899" lon="2.45981">
        <ele>324.688086</ele>
        <time>2021-05-08T08:49:21.311Z</time>
      </trkpt>
      <trkpt lat="43.349" lon="2.45996">
        <ele>324.878624</ele>
        <time>2021-05-08T08:49:24.296Z</time>
      </trkpt>
      <trkpt lat="43.34902" lon="2.4601">
        <ele>325.058444</ele>
        <time>2021-05-08T08:49:27.314Z</time>
      </trkpt>
      <trkpt lat="43.34903" lon="2.46024">
        <ele>325.233641</ele>
        <time>2021-05-08T08:49:30.292Z</time>
      </trkpt>
      <trkpt lat="43.34905" lon="2.46038">
        <ele>325.414703</ele>
        <time>2021-05-08T08:49:33.283Z</time>
      </trkpt>
      <trkpt lat="43.34907" lon="2.46051">
        <ele>325.587407</ele>
        <time>2021-05-08T08:49:36.326Z</time>
      </trkpt>
      <trkpt lat="43.34909" lon="2.46064">
        <ele>325.752638</ele>
        <time>2021-05-08T08:49:39.299Z</time>
      </trkpt>
      <trkpt lat="43.3491" lon="2.46078">
        <ele>325.924581</ele>
        <time>2021-05-08T08:49:42.285Z</time>
      </trkpt>
      <trkpt lat="43.34911" lon="2.46091">
        <ele>326.099523</ele>
        <time>2021-05-08T08:49:45.282Z</time>
      </trkpt>
      <trkpt lat="43.34911" lon="2.46105">
        <ele>326.63089</ele>
        <time>2021-05-08T08:49:48.311Z</time>
      </trkpt>
      <trkpt lat="43.34913" lon="2.46117">
        <ele>327.290652</ele>
        <time>2021-05-08T08:49:51.320Z</time>
      </trkpt>
      <trkpt lat="43.34914" lon="2.4613">
        <ele>327.973214</ele>
        <time>2021-05-08T08:49:54.305Z</time>
      </trkpt>
      <trkpt lat="43.34916" lon="2.46144">
        <ele>328.723562</ele>
        <time>2021-05-08T08:49:57.335Z</time>
      </trkpt>
      <trkpt lat="43.34918" lon="2.46159">
        <ele>329.531504</ele>
        <time>2021-05-08T08:50:00.295Z</time>
      </trkpt>
      <trkpt lat="43.34921" lon="2.46174">
        <ele>330.349192</ele>
        <time>2021-05-08T08:50:03.292Z</time>
      </trkpt>
      <trkpt lat="43.34925" lon="2.46188">
        <ele>331.149723</ele>
        <time>2021-05-08T08:50:06.291Z</time>
      </trkpt>
      <trkpt lat="43.34931" lon="2.462">
        <ele>331.937973</ele>
        <time>2021-05-08T08:50:09.317Z</time>
      </trkpt>
      <trkpt lat="43.34938" lon="2.4621">
        <ele>332.663777</ele>
        <time>2021-05-08T08:50:12.329Z</time>
      </trkpt>
      <trkpt lat="43.34945" lon="2.46218">
        <ele>333.343635</ele>
        <time>2021-05-08T08:50:15.321Z</time>
      </trkpt>
      <trkpt lat="43.34953" lon="2.46226">
        <ele>334.10353</ele>
        <time>2021-05-08T08:50:18.286Z</time>
      </trkpt>
      <trkpt lat="43.34961" lon="2.46234">
        <ele>334.797156</ele>
        <time>2021-05-08T08:50:21.278Z</time>
      </trkpt>
      <trkpt lat="43.34971" lon="2.4624">
        <ele>335.553557</ele>
        <time>2021-05-08T08:50:24.295Z</time>
      </trkpt>
      <trkpt lat="43.34979" lon="2.46248">
        <ele>336.331781</ele>
        <time>2021-05-08T08:50:27.284Z</time>
      </trkpt>
      <trkpt lat="43.34988" lon="2.46256">
        <ele>337.114518</ele>
        <time>2021-05-08T08:50:30.287Z</time>
      </trkpt>
      <trkpt lat="43.34998" lon="2.46263">
        <ele>337.888245</ele>
        <time>2021-05-08T08:50:33.308Z</time>
      </trkpt>
      <trkpt lat="43.35006" lon="2.4627">
        <ele>338.620835</ele>
        <time>2021-05-08T08:50:36.323Z</time>
      </trkpt>
      <trkpt lat="43.35016" lon="2.46275">
        <ele>339.324273</ele>
        <time>2021-05-08T08:50:39.287Z</time>
      </trkpt>
      <trkpt lat="43.35026" lon="2.46278">
        <ele>339.195401</ele>
        <time>2021-05-08T08:50:42.317Z</time>
      </trkpt>
      <trkpt lat="43.35035" lon="2.46282">
        <ele>339.067293</ele>
        <time>2021-05-08T08:50:45.278Z</time>
      </trkpt>
      <trkpt lat="43.35046" lon="2.46283">
        <ele>338.934147</ele>
        <time>2021-05-08T08:50:48.313Z</time>
      </trkpt>
      <trkpt lat="43.35056" lon="2.46283">
        <ele>338.801534</ele>
        <time>2021-05-08T08:50:51.322Z</time>
      </trkpt>
      <trkpt lat="43.35066" lon="2.46283">
        <ele>338.676503</ele>
        <time>2021-05-08T08:50:54.307Z</time>
      </trkpt>
      <trkpt lat="43.35076" lon="2.46283">
        <ele>338.553966</ele>
        <time>2021-05-08T08:50:57.284Z</time>
      </trkpt>
      <trkpt lat="43.35086" lon="2.46283">
        <ele>338.422606</ele>
        <time>2021-05-08T08:51:00.289Z</time>
      </trkpt>
      <trkpt lat="43.35096" lon="2.46284">
        <ele>338.295978</ele>
        <time>2021-05-08T08:51:03.326Z</time>
      </trkpt>
      <trkpt lat="43.35107" lon="2.46285">
        <ele>338.159136</ele>
        <time>2021-05-08T08:51:06.284Z</time>
      </trkpt>
      <trkpt lat="43.35117" lon="2.46286">
        <ele>338.041506</ele>
        <time>2021-05-08T08:51:09.281Z</time>
      </trkpt>
      <trkpt lat="43.35126" lon="2.46288">
        <ele>337.917763</ele>
        <time>2021-05-08T08:51:12.284Z</time>
      </trkpt>
      <trkpt lat="43.35137" lon="2.46288">
        <ele>337.777501</ele>
        <time>2021-05-08T08:51:15.285Z</time>
      </trkpt>
      <trkpt lat="43.3515" lon="2.46287">
        <ele>337.61931</ele>
        <time>2021-05-08T08:51:18.285Z</time>
      </trkpt>
      <trkpt lat="43.3516" lon="2.46287">
        <ele>337.48796</ele>
        <time>2021-05-08T08:51:21.282Z</time>
      </trkpt>
      <trkpt lat="43.35172" lon="2.46287">
        <ele>337.337644</ele>
        <time>2021-05-08T08:51:25.312Z</time>
      </trkpt>
      <trkpt lat="43.35182" lon="2.46287">
        <ele>337.210083</ele>
        <time>2021-05-08T08:51:28.311Z</time>
      </trkpt>
      <trkpt lat="43.35192" lon="2.46287">
        <ele>337.083785</ele>
        <time>2021-05-08T08:51:31.302Z</time>
      </trkpt>
      <trkpt lat="43.35201" lon="2.46286">
        <ele>337.013771</ele>
        <time>2021-05-08T08:51:34.295Z</time>
      </trkpt>
      <trkpt lat="43.35213" lon="2.46284">
        <ele>336.940408</ele>
        <time>2021-05-08T08:51:38.279Z</time>
      </trkpt>
      <trkpt lat="43.35223" lon="2.46283">
        <ele>336.882343</ele>
        <time>2021-05-08T08:51:41.306Z</time>
      </trkpt>
      <trkpt lat="43.35232" lon="2.46281">
        <ele>336.825829</ele>
        <time>2021-05-08T08:51:44.280Z</time>
      </trkpt>
      <trkpt lat="43.35241" lon="2.46279">
        <ele>336.767564</ele>
        <time>2021-05-08T08:51:47.288Z</time>
      </trkpt>
      <trkpt lat="43.35251" lon="2.46276">
        <ele>336.70895</ele>
        <time>2021-05-08T08:51:50.314Z</time>
      </trkpt>
      <trkpt lat="43.3526" lon="2.46271">
        <ele>336.64757</ele>
        <time>2021-05-08T08:51:53.277Z</time>
      </trkpt>
      <trkpt lat="43.3527" lon="2.46266">
        <ele>336.5825</ele>
        <time>2021-05-08T08:51:56.283Z</time>
      </trkpt>
      <trkpt lat="43.3528" lon="2.4626">
        <ele>336.519893</ele>
        <time>2021-05-08T08:51:59.280Z</time>
      </trkpt>
      <trkpt lat="43.35289" lon="2.46254">
        <ele>336.459487</ele>
        <time>2021-05-08T08:52:02.313Z</time>
      </trkpt>
      <trkpt lat="43.35297" lon="2.46249">
        <ele>336.402239</ele>
        <time>2021-05-08T08:52:05.318Z</time>
      </trkpt>
      <trkpt lat="43.35308" lon="2.46241">
        <ele>336.327064</ele>
        <time>2021-05-08T08:52:09.397Z</time>
      </trkpt>
      <trkpt lat="43.35317" lon="2.46235">
        <ele>336.267593</ele>
        <time>2021-05-08T08:52:12.282Z</time>
      </trkpt>
      <trkpt lat="43.35328" lon="2.46229">
        <ele>336.196863</ele>
        <time>2021-05-08T08:52:16.298Z</time>
      </trkpt>
      <trkpt lat="43.35337" lon="2.46224">
        <ele>336.13835</ele>
        <time>2021-05-08T08:52:19.320Z</time>
      </trkpt>
      <trkpt lat="43.35345" lon="2.46221">
        <ele>336.082982</ele>
        <time>2021-05-08T08:52:22.308Z</time>
      </trkpt>
      <trkpt lat="43.35356" lon="2.46216">
        <ele>336.012581</ele>
        <time>2021-05-08T08:52:26.311Z</time>
      </trkpt>
      <trkpt lat="43.35369" lon="2.46213">
        <ele>336.07812</ele>
        <time>2021-05-08T08:52:30.323Z</time>
      </trkpt>
      <trkpt lat="43.3538" lon="2.46212">
        <ele>336.400667</ele>
        <time>2021-05-08T08:52:33.290Z</time>
      </trkpt>
      <trkpt lat="43.3539" lon="2.46211">
        <ele>336.699547</ele>
        <time>2021-05-08T08:52:37.274Z</time>
      </trkpt>
      <trkpt lat="43.35399" lon="2.46212">
        <ele>336.982914</ele>
        <time>2021-05-08T08:52:40.297Z</time>
      </trkpt>
      <trkpt lat="43.3541" lon="2.46212">
        <ele>337.307584</ele>
        <time>2021-05-08T08:52:43.306Z</time>
      </trkpt>
      <trkpt lat="43.35421" lon="2.46215">
        <ele>337.641891</ele>
        <time>2021-05-08T08:52:46.292Z</time>
      </trkpt>
      <trkpt lat="43.35432" lon="2.46216">
        <ele>337.963755</ele>
        <time>2021-05-08T08:52:49.314Z</time>
      </trkpt>
      <trkpt lat="43.35442" lon="2.46217">
        <ele>338.241711</ele>
        <time>2021-05-08T08:52:52.289Z</time>
      </trkpt>
      <trkpt lat="43.35454" lon="2.46218">
        <ele>338.590492</ele>
        <time>2021-05-08T08:52:56.300Z</time>
      </trkpt>
      <trkpt lat="43.35462" lon="2.46221">
        <ele>338.856917</ele>
        <time>2021-05-08T08:52:59.315Z</time>
      </trkpt>
      <trkpt lat="43.35474" lon="2.46226">
        <ele>339.21154</ele>
        <time>2021-05-08T08:53:03.294Z</time>
      </trkpt>
      <trkpt lat="43.35482" lon="2.46231">
        <ele>339.482645</ele>
        <time>2021-05-08T08:53:06.284Z</time>
      </trkpt>
      <trkpt lat="43.35494" lon="2.46234">
        <ele>339.829214</ele>
        <time>2021-05-08T08:53:10.282Z</time>
      </trkpt>
      <trkpt lat="43.35505" lon="2.46237">
        <ele>340.149734</ele>
        <time>2021-05-08T08:53:14.294Z</time>
      </trkpt>
      <trkpt lat="43.35516" lon="2.46236">
        <ele>340.477478</ele>
        <time>2021-05-08T08:53:18.281Z</time>
      </trkpt>
      <trkpt lat="43.35526" lon="2.46233">
        <ele>340.798798</ele>
        <time>2021-05-08T08:53:22.292Z</time>
      </trkpt>
      <trkpt lat="43.35535" lon="2.46228">
        <ele>341.064403</ele>
        <time>2021-05-08T08:53:26.333Z</time>
      </trkpt>
      <trkpt lat="43.35545" lon="2.46223">
        <ele>341.382378</ele>
        <time>2021-05-08T08:53:31.279Z</time>
      </trkpt>
      <trkpt lat="43.35555" lon="2.4622">
        <ele>341.673603</ele>
        <time>2021-05-08T08:53:35.281Z</time>
      </trkpt>
      <trkpt lat="43.35566" lon="2.46216">
        <ele>342.012684</ele>
        <time>2021-05-08T08:53:39.287Z</time>
      </trkpt>
      <trkpt lat="43.35578" lon="2.46212">
        <ele>342.353339</ele>
        <time>2021-05-08T08:53:43.289Z</time>
      </trkpt>
      <trkpt lat="43.35586" lon="2.46207">
        <ele>342.626325</ele>
        <time>2021-05-08T08:53:46.291Z</time>
      </trkpt>
      <trkpt lat="43.35596" lon="2.46204">
        <ele>342.901448</ele>
        <time>2021-05-08T08:53:49.282Z</time>
      </trkpt>
      <trkpt lat="43.35604" lon="2.46199">
        <ele>343.16704</ele>
        <time>2021-05-08T08:53:52.304Z</time>
      </trkpt>
      <trkpt lat="43.35613" lon="2.46194">
        <ele>343.439203</ele>
        <time>2021-05-08T08:53:55.291Z</time>
      </trkpt>
      <trkpt lat="43.35622" lon="2.4619">
        <ele>343.727233</ele>
        <time>2021-05-08T08:53:58.277Z</time>
      </trkpt>
      <trkpt lat="43.35632" lon="2.46184">
        <ele>344.029889</ele>
        <time>2021-05-08T08:54:01.285Z</time>
      </trkpt>
      <trkpt lat="43.35641" lon="2.4618">
        <ele>344.316497</ele>
        <time>2021-05-08T08:54:04.311Z</time>
      </trkpt>
      <trkpt lat="43.3565" lon="2.46173">
        <ele>344.594213</ele>
        <time>2021-05-08T08:54:07.296Z</time>
      </trkpt>
      <trkpt lat="43.35658" lon="2.46167">
        <ele>344.874934</ele>
        <time>2021-05-08T08:54:10.287Z</time>
      </trkpt>
      <trkpt lat="43.35666" lon="2.46159">
        <ele>345.159149</ele>
        <time>2021-05-08T08:54:13.319Z</time>
      </trkpt>
      <trkpt lat="43.35677" lon="2.46151">
        <ele>345.502027</ele>
        <time>2021-05-08T08:54:17.319Z</time>
      </trkpt>
      <trkpt lat="43.35685" lon="2.46144">
        <ele>345.786922</ele>
        <time>2021-05-08T08:54:20.311Z</time>
      </trkpt>
      <trkpt lat="43.35694" lon="2.46138">
        <ele>346.081722</ele>
        <time>2021-05-08T08:54:23.291Z</time>
      </trkpt>
      <trkpt lat="43.35703" lon="2.46131">
        <ele>346.37485</ele>
        <time>2021-05-08T08:54:26.284Z</time>
      </trkpt>
      <trkpt lat="43.35712" lon="2.46125">
        <ele>346.406604</ele>
        <time>2021-05-08T08:54:29.280Z</time>
      </trkpt>
      <trkpt lat="43.35722" lon="2.46117">
        <ele>346.332019</ele>
        <time>2021-05-08T08:54:33.279Z</time>
      </trkpt>
      <trkpt lat="43.3573" lon="2.46107">
        <ele>346.258049</ele>
        <time>2021-05-08T08:54:37.314Z</time>
      </trkpt>
      <trkpt lat="43.35738" lon="2.46098">
        <ele>346.188122</ele>
        <time>2021-05-08T08:54:40.331Z</time>
      </trkpt>
      <trkpt lat="43.35748" lon="2.46089">
        <ele>346.112282</ele>
        <time>2021-05-08T08:54:43.318Z</time>
      </trkpt>
      <trkpt lat="43.35757" lon="2.46081">
        <ele>346.041173</ele>
        <time>2021-05-08T08:54:46.279Z</time>
      </trkpt>
      <trkpt lat="43.35767" lon="2.46076">
        <ele>345.974475</ele>
        <time>2021-05-08T08:54:49.316Z</time>
      </trkpt>
      <trkpt lat="43.35777" lon="2.46069">
        <ele>345.896864</ele>
        <time>2021-05-08T08:54:53.288Z</time>
      </trkpt>
      <trkpt lat="43.35786" lon="2.46063">
        <ele>345.834277</ele>
        <time>2021-05-08T08:54:56.297Z</time>
      </trkpt>
      <trkpt lat="43.35794" lon="2.46058">
        <ele>345.773737</ele>
        <time>2021-05-08T08:54:59.298Z</time>
      </trkpt>
      <trkpt lat="43.35805" lon="2.46052">
        <ele>345.700791</ele>
        <time>2021-05-08T08:55:03.311Z</time>
      </trkpt>
      <trkpt lat="43.35816" lon="2.46046">
        <ele>345.623972</ele>
        <time>2021-05-08T08:55:07.311Z</time>
      </trkpt>
      <trkpt lat="43.35826" lon="2.4604">
        <ele>345.547239</ele>
        <time>2021-05-08T08:55:11.289Z</time>
      </trkpt>
      <trkpt lat="43.35837" lon="2.46033">
        <ele>345.471212</ele>
        <time>2021-05-08T08:55:15.283Z</time>
      </trkpt>
      <trkpt lat="43.35845" lon="2.46029">
        <ele>345.411441</ele>
        <time>2021-05-08T08:55:18.288Z</time>
      </trkpt>
      <trkpt lat="43.35854" lon="2.46023">
        <ele>345.349708</ele>
        <time>2021-05-08T08:55:21.289Z</time>
      </trkpt>
      <trkpt lat="43.35865" lon="2.46018">
        <ele>345.274592</ele>
        <time>2021-05-08T08:55:25.283Z</time>
      </trkpt>
      <trkpt lat="43.35876" lon="2.46012">
        <ele>345.829977</ele>
        <time>2021-05-08T08:55:29.320Z</time>
      </trkpt>
      <trkpt lat="43.35884" lon="2.46007">
        <ele>346.265605</ele>
        <time>2021-05-08T08:55:32.306Z</time>
      </trkpt>
      <trkpt lat="43.35895" lon="2.46">
        <ele>346.819237</ele>
        <time>2021-05-08T08:55:36.315Z</time>
      </trkpt>
      <trkpt lat="43.35903" lon="2.45994">
        <ele>347.256997</ele>
        <time>2021-05-08T08:55:39.282Z</time>
      </trkpt>
      <trkpt lat="43.35911" lon="2.45987">
        <ele>347.687025</ele>
        <time>2021-05-08T08:55:42.275Z</time>
      </trkpt>
      <trkpt lat="43.35921" lon="2.45977">
        <ele>348.240577</ele>
        <time>2021-05-08T08:55:46.323Z</time>
      </trkpt>
      <trkpt lat="43.35929" lon="2.45971">
        <ele>348.689071</ele>
        <time>2021-05-08T08:55:49.316Z</time>
      </trkpt>
      <trkpt lat="43.35936" lon="2.45963">
        <ele>349.114901</ele>
        <time>2021-05-08T08:55:52.329Z</time>
      </trkpt>
      <trkpt lat="43.35946" lon="2.45956">
        <ele>349.65744</ele>
        <time>2021-05-08T08:55:56.298Z</time>
      </trkpt>
      <trkpt lat="43.35956" lon="2.45954">
        <ele>350.097797</ele>
        <time>2021-05-08T08:55:59.275Z</time>
      </trkpt>
      <trkpt lat="43.35965" lon="2.45953">
        <ele>350.559796</ele>
        <time>2021-05-08T08:56:02.278Z</time>
      </trkpt>
      <trkpt lat="43.35974" lon="2.45951">
        <ele>350.986855</ele>
        <time>2021-05-08T08:56:05.293Z</time>
      </trkpt>
      <trkpt lat="43.35985" lon="2.45948">
        <ele>351.511544</ele>
        <time>2021-05-08T08:56:09.277Z</time>
      </trkpt>
      <trkpt lat="43.35997" lon="2.45947">
        <ele>352.058051</ele>
        <time>2021-05-08T08:56:13.319Z</time>
      </trkpt>
      <trkpt lat="43.36009" lon="2.45945">
        <ele>352.618601</ele>
        <time>2021-05-08T08:56:17.314Z</time>
      </trkpt>
      <trkpt lat="43.3602" lon="2.45945">
        <ele>353.149227</ele>
        <time>2021-05-08T08:56:21.288Z</time>
      </trkpt>
      <trkpt lat="43.3603" lon="2.45943">
        <ele>353.606803</ele>
        <time>2021-05-08T08:56:25.282Z</time>
      </trkpt>
      <trkpt lat="43.3604" lon="2.45941">
        <ele>353.953219</ele>
        <time>2021-05-08T08:56:29.282Z</time>
      </trkpt>
      <trkpt lat="43.3605" lon="2.45941">
        <ele>354.249033</ele>
        <time>2021-05-08T08:56:33.282Z</time>
      </trkpt>
      <trkpt lat="43.3606" lon="2.45941">
        <ele>354.541891</ele>
        <time>2021-05-08T08:56:36.300Z</time>
      </trkpt>
      <trkpt lat="43.3607" lon="2.4594">
        <ele>354.841472</ele>
        <time>2021-05-08T08:56:39.282Z</time>
      </trkpt>
      <trkpt lat="43.36081" lon="2.45939">
        <ele>355.179242</ele>
        <time>2021-05-08T08:56:42.288Z</time>
      </trkpt>
      <trkpt lat="43.36092" lon="2.45938">
        <ele>355.479</ele>
        <time>2021-05-08T08:56:45.287Z</time>
      </trkpt>
      <trkpt lat="43.36101" lon="2.45937">
        <ele>355.748935</ele>
        <time>2021-05-08T08:56:48.320Z</time>
      </trkpt>
      <trkpt lat="43.3611" lon="2.45938">
        <ele>356.033455</ele>
        <time>2021-05-08T08:56:51.292Z</time>
      </trkpt>
      <trkpt lat="43.36122" lon="2.4594">
        <ele>356.374798</ele>
        <time>2021-05-08T08:56:55.312Z</time>
      </trkpt>
      <trkpt lat="43.36132" lon="2.45943">
        <ele>356.69065</ele>
        <time>2021-05-08T08:56:59.297Z</time>
      </trkpt>
      <trkpt lat="43.36142" lon="2.45947">
        <ele>357.003918</ele>
        <time>2021-05-08T08:57:03.305Z</time>
      </trkpt>
      <trkpt lat="43.36153" lon="2.45954">
        <ele>357.344388</ele>
        <time>2021-05-08T08:57:07.312Z</time>
      </trkpt>
      <trkpt lat="43.36164" lon="2.45959">
        <ele>357.689741</ele>
        <time>2021-05-08T08:57:11.318Z</time>
      </trkpt>
      <trkpt lat="43.36174" lon="2.45965">
        <ele>358.025123</ele>
        <time>2021-05-08T08:57:15.291Z</time>
      </trkpt>
      <trkpt lat="43.36184" lon="2.45973">
        <ele>358.350086</ele>
        <time>2021-05-08T08:57:19.287Z</time>
      </trkpt>
      <trkpt lat="43.36193" lon="2.4598">
        <ele>358.672168</ele>
        <time>2021-05-08T08:57:23.278Z</time>
      </trkpt>
      <trkpt lat="43.36201" lon="2.45987">
        <ele>358.942622</ele>
        <time>2021-05-08T08:57:26.298Z</time>
      </trkpt>
      <trkpt lat="43.36209" lon="2.45994">
        <ele>359.325425</ele>
        <time>2021-05-08T08:57:29.310Z</time>
      </trkpt>
      <trkpt lat="43.36218" lon="2.46004">
        <ele>359.875438</ele>
        <time>2021-05-08T08:57:33.284Z</time>
      </trkpt>
      <trkpt lat="43.36227" lon="2.46014">
        <ele>360.429562</ele>
        <time>2021-05-08T08:57:37.278Z</time>
      </trkpt>
      <trkpt lat="43.36234" lon="2.46022">
        <ele>360.850592</ele>
        <time>2021-05-08T08:57:40.277Z</time>
      </trkpt>
      <trkpt lat="43.36243" lon="2.46031">
        <ele>361.375423</ele>
        <time>2021-05-08T08:57:44.277Z</time>
      </trkpt>
      <trkpt lat="43.36252" lon="2.46036">
        <ele>361.815436</ele>
        <time>2021-05-08T08:57:48.310Z</time>
      </trkpt>
      <trkpt lat="43.36262" lon="2.46032">
        <ele>362.314562</ele>
        <time>2021-05-08T08:57:52.316Z</time>
      </trkpt>
      <trkpt lat="43.3627" lon="2.46024">
        <ele>362.773718</ele>
        <time>2021-05-08T08:57:57.281Z</time>
      </trkpt>
      <trkpt lat="43.36274" lon="2.46011">
        <ele>363.250264</ele>
        <time>2021-05-08T08:58:02.284Z</time>
      </trkpt>
      <trkpt lat="43.36278" lon="2.45999">
        <ele>363.700649</ele>
        <time>2021-05-08T08:58:07.295Z</time>
      </trkpt>
      <trkpt lat="43.36285" lon="2.45986">
        <ele>364.253865</ele>
        <time>2021-05-08T08:58:12.297Z</time>
      </trkpt>
      <trkpt lat="43.36286" lon="2.45971">
        <ele>364.771187</ele>
        <time>2021-05-08T08:58:17.279Z</time>
      </trkpt>
      <trkpt lat="43.36292" lon="2.45958">
        <ele>365.269475</ele>
        <time>2021-05-08T08:58:21.286Z</time>
      </trkpt>
      <trkpt lat="43.36298" lon="2.45946">
        <ele>365.773195</ele>
        <time>2021-05-08T08:58:26.314Z</time>
      </trkpt>
      <trkpt lat="43.36302" lon="2.45932">
        <ele>366.287848</ele>
        <time>2021-05-08T08:58:31.320Z</time>
      </trkpt>
      <trkpt lat="43.36307" lon="2.45919">
        <ele>366.784935</ele>
        <time>2021-05-08T08:58:36.320Z</time>
      </trkpt>
      <trkpt lat="43.36309" lon="2.45905">
        <ele>367.263756</ele>
        <time>2021-05-08T08:58:41.273Z</time>
      </trkpt>
      <trkpt lat="43.36311" lon="2.45891">
        <ele>367.632183</ele>
        <time>2021-05-08T08:58:46.313Z</time>
      </trkpt>
      <trkpt lat="43.36313" lon="2.45878">
        <ele>367.889556</ele>
        <time>2021-05-08T08:58:50.315Z</time>
      </trkpt>
      <trkpt lat="43.36317" lon="2.45866">
        <ele>368.151905</ele>
        <time>2021-05-08T08:58:55.294Z</time>
      </trkpt>
      <trkpt lat="43.36322" lon="2.45855">
        <ele>368.412994</ele>
        <time>2021-05-08T08:59:00.281Z</time>
      </trkpt>
      <trkpt lat="43.36327" lon="2.45843">
        <ele>368.692857</ele>
        <time>2021-05-08T08:59:05.308Z</time>
      </trkpt>
      <trkpt lat="43.36334" lon="2.45831">
        <ele>368.977023</ele>
        <time>2021-05-08T08:59:09.327Z</time>
      </trkpt>
      <trkpt lat="43.36341" lon="2.4582">
        <ele>369.278409</ele>
        <time>2021-05-08T08:59:13.289Z</time>
      </trkpt>
      <trkpt lat="43.36347" lon="2.45809">
        <ele>369.537026</ele>
        <time>2021-05-08T08:59:17.320Z</time>
      </trkpt>
      <trkpt lat="43.36352" lon="2.45799">
        <ele>369.781276</ele>
        <time>2021-05-08T08:59:21.281Z</time>
      </trkpt>
      <trkpt lat="43.36359" lon="2.45787">
        <ele>370.079811</ele>
        <time>2021-05-08T08:59:26.314Z</time>
      </trkpt>
      <trkpt lat="43.36366" lon="2.45776">
        <ele>370.377486</ele>
        <time>2021-05-08T08:59:31.296Z</time>
      </trkpt>
      <trkpt lat="43.36373" lon="2.45766">
        <ele>370.652898</ele>
        <time>2021-05-08T08:59:36.284Z</time>
      </trkpt>
      <trkpt lat="43.36382" lon="2.45757">
        <ele>370.943954</ele>
        <time>2021-05-08T08:59:41.281Z</time>
      </trkpt>
      <trkpt lat="43.36387" lon="2.45746">
        <ele>371.205799</ele>
        <time>2021-05-08T08:59:45.312Z</time>
      </trkpt>
      <trkpt lat="43.36393" lon="2.45736">
        <ele>371.462828</ele>
        <time>2021-05-08T08:59:49.283Z</time>
      </trkpt>
      <trkpt lat="43.36397" lon="2.45724">
        <ele>371.714091</ele>
        <time>2021-05-08T08:59:54.296Z</time>
      </trkpt>
      <trkpt lat="43.364" lon="2.45711">
        <ele>371.987874</ele>
        <time>2021-05-08T09:00:00.320Z</time>
      </trkpt>
      <trkpt lat="43.36403" lon="2.45698">
        <ele>372.253859</ele>
        <time>2021-05-08T09:00:05.295Z</time>
      </trkpt>
      <trkpt lat="43.36403" lon="2.45685">
        <ele>372.57194</ele>
        <time>2021-05-08T09:00:09.281Z</time>
      </trkpt>
      <trkpt lat="43.36403" lon="2.4567">
        <ele>372.954763</ele>
        <time>2021-05-08T09:00:14.288Z</time>
      </trkpt>
      <trkpt lat="43.36401" lon="2.45655">
        <ele>373.331023</ele>
        <time>2021-05-08T09:00:19.319Z</time>
      </trkpt>
      <trkpt lat="43.36401" lon="2.45641">
        <ele>373.681999</ele>
        <time>2021-05-08T09:00:24.286Z</time>
      </trkpt>
      <trkpt lat="43.36403" lon="2.45626">
        <ele>374.065518</ele>
        <time>2021-05-08T09:00:30.295Z</time>
      </trkpt>
      <trkpt lat="43.36404" lon="2.45612">
        <ele>374.423414</ele>
        <time>2021-05-08T09:00:35.284Z</time>
      </trkpt>
      <trkpt lat="43.36405" lon="2.45598">
        <ele>374.784203</ele>
        <time>2021-05-08T09:00:40.294Z</time>
      </trkpt>
      <trkpt lat="43.36413" lon="2.45591">
        <ele>375.107458</ele>
        <time>2021-05-08T09:00:45.285Z</time>
      </trkpt>
      <trkpt lat="43.36422" lon="2.45596">
        <ele>375.466335</ele>
        <time>2021-05-08T09:00:50.286Z</time>
      </trkpt>
      <trkpt lat="43.36427" lon="2.45608">
        <ele>375.819966</ele>
        <time>2021-05-08T09:00:56.308Z</time>
      </trkpt>
      <trkpt lat="43.36427" lon="2.45622">
        <ele>376.174917</ele>
        <time>2021-05-08T09:01:02.310Z</time>
      </trkpt>
      <trkpt lat="43.3643" lon="2.45634">
        <ele>376.492018</ele>
        <time>2021-05-08T09:01:08.291Z</time>
      </trkpt>
      <trkpt lat="43.36432" lon="2.45648">
        <ele>376.846869</ele>
        <time>2021-05-08T09:01:14.291Z</time>
      </trkpt>
      <trkpt lat="43.36434" lon="2.45661">
        <ele>377.187786</ele>
        <time>2021-05-08T09:01:20.300Z</time>
      </trkpt>
      <trkpt lat="43.36436" lon="2.45673">
        <ele>377.504851</ele>
        <time>2021-05-08T09:01:24.284Z</time>
      </trkpt>
      <trkpt lat="43.36439" lon="2.45685">
        <ele>377.824734</ele>
        <time>2021-05-08T09:01:28.310Z</time>
      </trkpt>
      <trkpt lat="43.3644" lon="2.457">
        <ele>378.183899</ele>
        <time>2021-05-08T09:01:31.311Z</time>
      </trkpt>
      <trkpt lat="43.36439" lon="2.45715">
        <ele>378.564584</ele>
        <time>2021-05-08T09:01:34.331Z</time>
      </trkpt>
      <trkpt lat="43.36438" lon="2.45727">
        <ele>379.281744</ele>
        <time>2021-05-08T09:01:37.287Z</time>
      </trkpt>
      <trkpt lat="43.36434" lon="2.4574">
        <ele>380.141174</ele>
        <time>2021-05-08T09:01:41.279Z</time>
      </trkpt>
      <trkpt lat="43.36429" lon="2.4575">
        <ele>380.923729</ele>
        <time>2021-05-08T09:01:45.295Z</time>
      </trkpt>
      <trkpt lat="43.36421" lon="2.45761">
        <ele>381.848764</ele>
        <time>2021-05-08T09:01:50.282Z</time>
      </trkpt>
      <trkpt lat="43.36415" lon="2.4577">
        <ele>382.630586</ele>
        <time>2021-05-08T09:01:55.288Z</time>
      </trkpt>
      <trkpt lat="43.3641" lon="2.45782">
        <ele>383.485746</ele>
        <time>2021-05-08T09:02:00.289Z</time>
      </trkpt>
      <trkpt lat="43.36405" lon="2.45794">
        <ele>384.346198</ele>
        <time>2021-05-08T09:02:05.285Z</time>
      </trkpt>
      <trkpt lat="43.36402" lon="2.45807">
        <ele>385.215394</ele>
        <time>2021-05-08T09:02:10.277Z</time>
      </trkpt>
      <trkpt lat="43.36399" lon="2.45821">
        <ele>386.141515</ele>
        <time>2021-05-08T09:02:15.288Z</time>
      </trkpt>
      <trkpt lat="43.36396" lon="2.45833">
        <ele>386.945392</ele>
        <time>2021-05-08T09:02:19.277Z</time>
      </trkpt>
      <trkpt lat="43.36394" lon="2.45846">
        <ele>387.7787</ele>
        <time>2021-05-08T09:02:24.282Z</time>
      </trkpt>
      <trkpt lat="43.36392" lon="2.45861">
        <ele>388.713944</ele>
        <time>2021-05-08T09:02:29.281Z</time>
      </trkpt>
      <trkpt lat="43.36391" lon="2.45876">
        <ele>389.651705</ele>
        <time>2021-05-08T09:02:34.318Z</time>
      </trkpt>
      <trkpt lat="43.36389" lon="2.45888">
        <ele>390.424378</ele>
        <time>2021-05-08T09:02:38.282Z</time>
      </trkpt>
      <trkpt lat="43.36387" lon="2.459">
        <ele>391.200857</ele>
        <time>2021-05-08T09:02:42.281Z</time>
      </trkpt>
      <trkpt lat="43.36385" lon="2.45914">
        <ele>392.103672</ele>
        <time>2021-05-08T09:02:47.290Z</time>
      </trkpt>
      <trkpt lat="43.36383" lon="2.45928">
        <ele>392.939185</ele>
        <time>2021-05-08T09:02:52.320Z</time>
      </trkpt>
      <trkpt lat="43.36384" lon="2.45942">
        <ele>393.844612</ele>
        <time>2021-05-08T09:02:57.283Z</time>
      </trkpt>
      <trkpt lat="43.36385" lon="2.45957">
        <ele>394.41775</ele>
        <time>2021-05-08T09:03:02.317Z</time>
      </trkpt>
      <trkpt lat="43.36388" lon="2.45971">
        <ele>394.838764</ele>
        <time>2021-05-08T09:03:07.304Z</time>
      </trkpt>
      <trkpt lat="43.36392" lon="2.45985">
        <ele>395.298012</ele>
        <time>2021-05-08T09:03:12.332Z</time>
      </trkpt>
      <trkpt lat="43.36398" lon="2.45998">
        <ele>395.767863</ele>
        <time>2021-05-08T09:03:17.282Z</time>
      </trkpt>
      <trkpt lat="43.36404" lon="2.46008">
        <ele>396.172864</ele>
        <time>2021-05-08T09:03:21.286Z</time>
      </trkpt>
      <trkpt lat="43.36412" lon="2.46016">
        <ele>396.580152</ele>
        <time>2021-05-08T09:03:26.318Z</time>
      </trkpt>
      <trkpt lat="43.3642" lon="2.46023">
        <ele>397.001245</ele>
        <time>2021-05-08T09:03:31.291Z</time>
      </trkpt>
      <trkpt lat="43.36429" lon="2.46031">
        <ele>397.415147</ele>
        <time>2021-05-08T09:03:35.286Z</time>
      </trkpt>
      <trkpt lat="43.36437" lon="2.46037">
        <ele>397.813698</ele>
        <time>2021-05-08T09:03:39.283Z</time>
      </trkpt>
      <trkpt lat="43.36448" lon="2.46041">
        <ele>398.27224</ele>
        <time>2021-05-08T09:03:44.276Z</time>
      </trkpt>
      <trkpt lat="43.36458" lon="2.46039">
        <ele>398.711022</ele>
        <time>2021-05-08T09:03:49.285Z</time>
      </trkpt>
      <trkpt lat="43.36466" lon="2.4603">
        <ele>399.126873</ele>
        <time>2021-05-08T09:03:54.335Z</time>
      </trkpt>
      <trkpt lat="43.36471" lon="2.46019">
        <ele>399.534658</ele>
        <time>2021-05-08T09:03:58.320Z</time>
      </trkpt>
      <trkpt lat="43.36476" lon="2.46008">
        <ele>399.92175</ele>
        <time>2021-05-08T09:04:02.280Z</time>
      </trkpt>
      <trkpt lat="43.3648" lon="2.45997">
        <ele>400.310578</ele>
        <time>2021-05-08T09:04:06.311Z</time>
      </trkpt>
      <trkpt lat="43.36485" lon="2.45986">
        <ele>400.70838</ele>
        <time>2021-05-08T09:04:10.281Z</time>
      </trkpt>
      <trkpt lat="43.36492" lon="2.45974">
        <ele>401.174225</ele>
        <time>2021-05-08T09:04:15.292Z</time>
      </trkpt>
      <trkpt lat="43.36499" lon="2.45963">
        <ele>401.627546</ele>
        <time>2021-05-08T09:04:20.325Z</time>
      </trkpt>
      <trkpt lat="43.36504" lon="2.45953">
        <ele>402.244363</ele>
        <time>2021-05-08T09:04:25.318Z</time>
      </trkpt>
      <trkpt lat="43.36512" lon="2.45943">
        <ele>402.954934</ele>
        <time>2021-05-08T09:04:30.283Z</time>
      </trkpt>
      <trkpt lat="43.36519" lon="2.45934">
        <ele>403.618513</ele>
        <time>2021-05-08T09:04:34.317Z</time>
      </trkpt>
      <trkpt lat="43.36528" lon="2.45927">
        <ele>404.342301</ele>
        <time>2021-05-08T09:04:38.292Z</time>
      </trkpt>
      <trkpt lat="43.36538" lon="2.45922">
        <ele>405.063601</ele>
        <time>2021-05-08T09:04:43.288Z</time>
      </trkpt>
      <trkpt lat="43.36547" lon="2.45915">
        <ele>405.758025</ele>
        <time>2021-05-08T09:04:47.304Z</time>
      </trkpt>
      <trkpt lat="43.36554" lon="2.45906">
        <ele>406.434301</ele>
        <time>2021-05-08T09:04:51.284Z</time>
      </trkpt>
      <trkpt lat="43.36563" lon="2.45897">
        <ele>407.199413</ele>
        <time>2021-05-08T09:04:56.302Z</time>
      </trkpt>
      <trkpt lat="43.3657" lon="2.45886">
        <ele>407.899662</ele>
        <time>2021-05-08T09:05:00.301Z</time>
      </trkpt>
      <trkpt lat="43.36575" lon="2.45876">
        <ele>408.525767</ele>
        <time>2021-05-08T09:05:04.293Z</time>
      </trkpt>
      <trkpt lat="43.3658" lon="2.45864">
        <ele>409.208645</ele>
        <time>2021-05-08T09:05:09.313Z</time>
      </trkpt>
      <trkpt lat="43.36587" lon="2.45854">
        <ele>409.875833</ele>
        <time>2021-05-08T09:05:14.311Z</time>
      </trkpt>
      <trkpt lat="43.36594" lon="2.45844">
        <ele>410.586399</ele>
        <time>2021-05-08T09:05:20.293Z</time>
      </trkpt>
      <trkpt lat="43.36602" lon="2.45837">
        <ele>411.267572</ele>
        <time>2021-05-08T09:05:25.316Z</time>
      </trkpt>
      <trkpt lat="43.36612" lon="2.45831">
        <ele>412.006447</ele>
        <time>2021-05-08T09:05:30.287Z</time>
      </trkpt>
      <trkpt lat="43.36621" lon="2.45823">
        <ele>412.751986</ele>
        <time>2021-05-08T09:05:35.290Z</time>
      </trkpt>
      <trkpt lat="43.3663" lon="2.45817">
        <ele>413.414331</ele>
        <time>2021-05-08T09:05:39.282Z</time>
      </trkpt>
      <trkpt lat="43.36639" lon="2.45812">
        <ele>414.029164</ele>
        <time>2021-05-08T09:05:43.285Z</time>
      </trkpt>
      <trkpt lat="43.3665" lon="2.45806">
        <ele>414.504121</ele>
        <time>2021-05-08T09:05:48.299Z</time>
      </trkpt>
      <trkpt lat="43.36659" lon="2.45799">
        <ele>414.968432</ele>
        <time>2021-05-08T09:05:53.319Z</time>
      </trkpt>
      <trkpt lat="43.36668" lon="2.45794">
        <ele>415.361066</ele>
        <time>2021-05-08T09:05:57.283Z</time>
      </trkpt>
      <trkpt lat="43.36677" lon="2.45788">
        <ele>415.820034</ele>
        <time>2021-05-08T09:06:02.291Z</time>
      </trkpt>
      <trkpt lat="43.36686" lon="2.45784">
        <ele>416.211711</ele>
        <time>2021-05-08T09:06:06.285Z</time>
      </trkpt>
      <trkpt lat="43.36695" lon="2.4578">
        <ele>416.608481</ele>
        <time>2021-05-08T09:06:10.281Z</time>
      </trkpt>
      <trkpt lat="43.36704" lon="2.45777">
        <ele>416.998624</ele>
        <time>2021-05-08T09:06:14.275Z</time>
      </trkpt>
      <trkpt lat="43.36713" lon="2.45772">
        <ele>417.443297</ele>
        <time>2021-05-08T09:06:19.307Z</time>
      </trkpt>
      <trkpt lat="43.36722" lon="2.45767">
        <ele>417.83593</ele>
        <time>2021-05-08T09:06:23.315Z</time>
      </trkpt>
      <trkpt lat="43.36732" lon="2.45761">
        <ele>418.302739</ele>
        <time>2021-05-08T09:06:28.281Z</time>
      </trkpt>
      <trkpt lat="43.36741" lon="2.45753">
        <ele>418.772597</ele>
        <time>2021-05-08T09:06:33.313Z</time>
      </trkpt>
      <trkpt lat="43.36747" lon="2.45743">
        <ele>419.166281</ele>
        <time>2021-05-08T09:06:37.288Z</time>
      </trkpt>
      <trkpt lat="43.36753" lon="2.45734">
        <ele>419.576073</ele>
        <time>2021-05-08T09:06:41.278Z</time>
      </trkpt>
      <trkpt lat="43.36761" lon="2.45725">
        <ele>420.001954</ele>
        <time>2021-05-08T09:06:46.288Z</time>
      </trkpt>
      <trkpt lat="43.36771" lon="2.4572">
        <ele>420.453157</ele>
        <time>2021-05-08T09:06:50.292Z</time>
      </trkpt>
      <trkpt lat="43.36781" lon="2.45716">
        <ele>420.894973</ele>
        <time>2021-05-08T09:06:54.287Z</time>
      </trkpt>
      <trkpt lat="43.36791" lon="2.45712">
        <ele>421.359089</ele>
        <time>2021-05-08T09:06:59.286Z</time>
      </trkpt>
      <trkpt lat="43.368" lon="2.45706">
        <ele>422.041886</ele>
        <time>2021-05-08T09:07:04.310Z</time>
      </trkpt>
      <trkpt lat="43.36809" lon="2.45697">
        <ele>423.20959</ele>
        <time>2021-05-08T09:07:09.276Z</time>
      </trkpt>
      <trkpt lat="43.36818" lon="2.45692">
        <ele>424.295371</ele>
        <time>2021-05-08T09:07:14.298Z</time>
      </trkpt>
      <trkpt lat="43.36827" lon="2.45689">
        <ele>425.29447</ele>
        <time>2021-05-08T09:07:19.291Z</time>
      </trkpt>
      <trkpt lat="43.36835" lon="2.45685">
        <ele>426.31469</ele>
        <time>2021-05-08T09:07:24.284Z</time>
      </trkpt>
      <trkpt lat="43.36844" lon="2.45679">
        <ele>427.349165</ele>
        <time>2021-05-08T09:07:29.286Z</time>
      </trkpt>
      <trkpt lat="43.36853" lon="2.45675">
        <ele>428.411803</ele>
        <time>2021-05-08T09:07:33.322Z</time>
      </trkpt>
      <trkpt lat="43.36862" lon="2.45673">
        <ele>429.428844</ele>
        <time>2021-05-08T09:07:37.311Z</time>
      </trkpt>
      <trkpt lat="43.36872" lon="2.4567">
        <ele>430.54306</ele>
        <time>2021-05-08T09:07:42.278Z</time>
      </trkpt>
      <trkpt lat="43.36882" lon="2.45668">
        <ele>431.630517</ele>
        <time>2021-05-08T09:07:47.284Z</time>
      </trkpt>
      <trkpt lat="43.36893" lon="2.45671">
        <ele>432.872339</ele>
        <time>2021-05-08T09:07:53.289Z</time>
      </trkpt>
      <trkpt lat="43.36902" lon="2.45674">
        <ele>433.901128</ele>
        <time>2021-05-08T09:07:57.282Z</time>
      </trkpt>
      <trkpt lat="43.36912" lon="2.45676">
        <ele>434.987442</ele>
        <time>2021-05-08T09:08:02.281Z</time>
      </trkpt>
      <trkpt lat="43.36922" lon="2.45681">
        <ele>436.168171</ele>
        <time>2021-05-08T09:08:07.286Z</time>
      </trkpt>
      <trkpt lat="43.36931" lon="2.45686">
        <ele>437.1893</ele>
        <time>2021-05-08T09:08:12.301Z</time>
      </trkpt>
      <trkpt lat="43.36939" lon="2.45692">
        <ele>438.183761</ele>
        <time>2021-05-08T09:08:16.303Z</time>
      </trkpt>
      <trkpt lat="43.36948" lon="2.45696">
        <ele>439.229521</ele>
        <time>2021-05-08T09:08:21.303Z</time>
      </trkpt>
      <trkpt lat="43.36957" lon="2.45703">
        <ele>440.395294</ele>
        <time>2021-05-08T09:08:26.304Z</time>
      </trkpt>
      <trkpt lat="43.36966" lon="2.45712">
        <ele>441.469813</ele>
        <time>2021-05-08T09:08:31.292Z</time>
      </trkpt>
      <trkpt lat="43.36973" lon="2.4572">
        <ele>441.972017</ele>
        <time>2021-05-08T09:08:36.295Z</time>
      </trkpt>
      <trkpt lat="43.36982" lon="2.4573">
        <ele>442.53469</ele>
        <time>2021-05-08T09:08:41.297Z</time>
      </trkpt>
      <trkpt lat="43.36989" lon="2.45741">
        <ele>443.081695</ele>
        <time>2021-05-08T09:08:46.289Z</time>
      </trkpt>
      <trkpt lat="43.36996" lon="2.45751">
        <ele>443.571623</ele>
        <time>2021-05-08T09:08:51.294Z</time>
      </trkpt>
      <trkpt lat="43.37002" lon="2.45762">
        <ele>444.079912</ele>
        <time>2021-05-08T09:08:56.310Z</time>
      </trkpt>
      <trkpt lat="43.37007" lon="2.45773">
        <ele>444.559063</ele>
        <time>2021-05-08T09:09:01.288Z</time>
      </trkpt>
      <trkpt lat="43.37012" lon="2.45786">
        <ele>445.082438</ele>
        <time>2021-05-08T09:09:07.290Z</time>
      </trkpt>
      <trkpt lat="43.37016" lon="2.45797">
        <ele>445.550855</ele>
        <time>2021-05-08T09:09:11.278Z</time>
      </trkpt>
      <trkpt lat="43.37023" lon="2.45809">
        <ele>446.088956</ele>
        <time>2021-05-08T09:09:16.284Z</time>
      </trkpt>
      <trkpt lat="43.37028" lon="2.45822">
        <ele>446.642118</ele>
        <time>2021-05-08T09:09:21.282Z</time>
      </trkpt>
      <trkpt lat="43.37031" lon="2.45836">
        <ele>447.176083</ele>
        <time>2021-05-08T09:09:26.291Z</time>
      </trkpt>
      <trkpt lat="43.37034" lon="2.4585">
        <ele>447.704257</ele>
        <time>2021-05-08T09:09:31.313Z</time>
      </trkpt>
      <trkpt lat="43.37037" lon="2.45862">
        <ele>448.179142</ele>
        <time>2021-05-08T09:09:36.326Z</time>
      </trkpt>
      <trkpt lat="43.3704" lon="2.45875">
        <ele>448.690561</ele>
        <time>2021-05-08T09:09:41.273Z</time>
      </trkpt>
      <trkpt lat="43.37044" lon="2.45889">
        <ele>449.220399</ele>
        <time>2021-05-08T09:09:46.299Z</time>
      </trkpt>
      <trkpt lat="43.37047" lon="2.459">
        <ele>449.6789</ele>
        <time>2021-05-08T09:09:51.283Z</time>
      </trkpt>
      <trkpt lat="43.3705" lon="2.45913">
        <ele>450.152856</ele>
        <time>2021-05-08T09:09:56.315Z</time>
      </trkpt>
      <trkpt lat="43.3705" lon="2.45927">
        <ele>450.668321</ele>
        <time>2021-05-08T09:10:01.282Z</time>
      </trkpt>
      <trkpt lat="43.37048" lon="2.45942">
        <ele>451.23045</ele>
        <time>2021-05-08T09:10:05.315Z</time>
      </trkpt>
      <trkpt lat="43.37048" lon="2.45955">
        <ele>451.717369</ele>
        <time>2021-05-08T09:10:09.315Z</time>
      </trkpt>
      <trkpt lat="43.3705" lon="2.45968">
        <ele>452.188664</ele>
        <time>2021-05-08T09:10:13.314Z</time>
      </trkpt>
      <trkpt lat="43.37057" lon="2.45977">
        <ele>452.680308</ele>
        <time>2021-05-08T09:10:18.287Z</time>
      </trkpt>
      <trkpt lat="43.37067" lon="2.45978">
        <ele>453.209781</ele>
        <time>2021-05-08T09:10:23.289Z</time>
      </trkpt>
      <trkpt lat="43.37076" lon="2.45973">
        <ele>453.671479</ele>
        <time>2021-05-08T09:10:27.283Z</time>
      </trkpt>
      <trkpt lat="43.37086" lon="2.45967">
        <ele>454.220238</ele>
        <time>2021-05-08T09:10:32.310Z</time>
      </trkpt>
      <trkpt lat="43.37094" lon="2.45961">
        <ele>454.672236</ele>
        <time>2021-05-08T09:10:37.291Z</time>
      </trkpt>
      <trkpt lat="43.37105" lon="2.45957">
        <ele>455.22545</ele>
        <time>2021-05-08T09:10:42.288Z</time>
      </trkpt>
      <trkpt lat="43.37115" lon="2.45954">
        <ele>455.747926</ele>
        <time>2021-05-08T09:10:48.283Z</time>
      </trkpt>
      <trkpt lat="43.37124" lon="2.45955">
        <ele>456.227391</ele>
        <time>2021-05-08T09:10:53.295Z</time>
      </trkpt>
      <trkpt lat="43.37135" lon="2.45954">
        <ele>456.733184</ele>
        <time>2021-05-08T09:10:58.293Z</time>
      </trkpt>
      <trkpt lat="43.37144" lon="2.45956">
        <ele>457.209537</ele>
        <time>2021-05-08T09:11:03.295Z</time>
      </trkpt>
      <trkpt lat="43.37154" lon="2.4596">
        <ele>457.731961</ele>
        <time>2021-05-08T09:11:08.296Z</time>
      </trkpt>
      <trkpt lat="43.37163" lon="2.45966">
        <ele>458.223311</ele>
        <time>2021-05-08T09:11:12.301Z</time>
      </trkpt>
      <trkpt lat="43.37173" lon="2.45969">
        <ele>458.716142</ele>
        <time>2021-05-08T09:11:16.325Z</time>
      </trkpt>
      <trkpt lat="43.37182" lon="2.45972">
        <ele>459.19444</ele>
        <time>2021-05-08T09:11:20.283Z</time>
      </trkpt>
      <trkpt lat="43.37191" lon="2.45975">
        <ele>459.88213</ele>
        <time>2021-05-08T09:11:25.292Z</time>
      </trkpt>
      <trkpt lat="43.37201" lon="2.45976">
        <ele>460.799487</ele>
        <time>2021-05-08T09:11:30.294Z</time>
      </trkpt>
      <trkpt lat="43.3721" lon="2.45975">
        <ele>461.697819</ele>
        <time>2021-05-08T09:11:34.321Z</time>
      </trkpt>
      <trkpt lat="43.37221" lon="2.45972">
        <ele>462.771336</ele>
        <time>2021-05-08T09:11:39.289Z</time>
      </trkpt>
      <trkpt lat="43.3723" lon="2.4597">
        <ele>463.648729</ele>
        <time>2021-05-08T09:11:43.291Z</time>
      </trkpt>
      <trkpt lat="43.37239" lon="2.45968">
        <ele>464.552046</ele>
        <time>2021-05-08T09:11:48.284Z</time>
      </trkpt>
      <trkpt lat="43.37249" lon="2.45968">
        <ele>465.444115</ele>
        <time>2021-05-08T09:11:53.328Z</time>
      </trkpt>
      <trkpt lat="43.37258" lon="2.4597">
        <ele>466.327395</ele>
        <time>2021-05-08T09:11:58.288Z</time>
      </trkpt>
      <trkpt lat="43.37267" lon="2.45974">
        <ele>467.28487</ele>
        <time>2021-05-08T09:12:03.292Z</time>
      </trkpt>
      <trkpt lat="43.37276" lon="2.45978">
        <ele>468.214108</ele>
        <time>2021-05-08T09:12:07.289Z</time>
      </trkpt>
      <trkpt lat="43.37285" lon="2.45983">
        <ele>469.14184</ele>
        <time>2021-05-08T09:12:12.290Z</time>
      </trkpt>
      <trkpt lat="43.37295" lon="2.45985">
        <ele>470.01875</ele>
        <time>2021-05-08T09:12:17.298Z</time>
      </trkpt>
      <trkpt lat="43.37305" lon="2.45987">
        <ele>471.05201</ele>
        <time>2021-05-08T09:12:23.285Z</time>
      </trkpt>
      <trkpt lat="43.37315" lon="2.4599">
        <ele>472.000578</ele>
        <time>2021-05-08T09:12:27.311Z</time>
      </trkpt>
      <trkpt lat="43.37324" lon="2.45994">
        <ele>472.930453</ele>
        <time>2021-05-08T09:12:31.285Z</time>
      </trkpt>
      <trkpt lat="43.37334" lon="2.45998">
        <ele>473.886731</ele>
        <time>2021-05-08T09:12:35.295Z</time>
      </trkpt>
      <trkpt lat="43.37342" lon="2.46005">
        <ele>474.852758</ele>
        <time>2021-05-08T09:12:39.287Z</time>
      </trkpt>
      <trkpt lat="43.37351" lon="2.46013">
        <ele>475.816897</ele>
        <time>2021-05-08T09:12:43.303Z</time>
      </trkpt>
      <trkpt lat="43.3736" lon="2.46019">
        <ele>476.681586</ele>
        <time>2021-05-08T09:12:47.321Z</time>
      </trkpt>
      <trkpt lat="43.37369" lon="2.46025">
        <ele>476.628223</ele>
        <time>2021-05-08T09:12:51.321Z</time>
      </trkpt>
      <trkpt lat="43.37377" lon="2.4603">
        <ele>476.578061</ele>
        <time>2021-05-08T09:12:55.283Z</time>
      </trkpt>
      <trkpt lat="43.37385" lon="2.46036">
        <ele>476.528316</ele>
        <time>2021-05-08T09:12:59.308Z</time>
      </trkpt>
      <trkpt lat="43.37394" lon="2.46042">
        <ele>476.478232</ele>
        <time>2021-05-08T09:13:03.312Z</time>
      </trkpt>
      <trkpt lat="43.37402" lon="2.46047">
        <ele>476.429405</ele>
        <time>2021-05-08T09:13:07.299Z</time>
      </trkpt>
      <trkpt lat="43.37412" lon="2.46055">
        <ele>476.369689</ele>
        <time>2021-05-08T09:13:12.276Z</time>
      </trkpt>
      <trkpt lat="43.37422" lon="2.46059">
        <ele>476.308898</ele>
        <time>2021-05-08T09:13:17.278Z</time>
      </trkpt>
      <trkpt lat="43.37431" lon="2.46063">
        <ele>476.25916</ele>
        <time>2021-05-08T09:13:21.321Z</time>
      </trkpt>
      <trkpt lat="43.37441" lon="2.46066">
        <ele>476.205363</ele>
        <time>2021-05-08T09:13:25.323Z</time>
      </trkpt>
      <trkpt lat="43.3745" lon="2.46069">
        <ele>476.156976</ele>
        <time>2021-05-08T09:13:29.318Z</time>
      </trkpt>
      <trkpt lat="43.3746" lon="2.46073">
        <ele>476.099539</ele>
        <time>2021-05-08T09:13:35.291Z</time>
      </trkpt>
      <trkpt lat="43.3747" lon="2.46078">
        <ele>476.041885</ele>
        <time>2021-05-08T09:13:40.286Z</time>
      </trkpt>
      <trkpt lat="43.37476" lon="2.46089">
        <ele>475.991339</ele>
        <time>2021-05-08T09:13:45.315Z</time>
      </trkpt>
      <trkpt lat="43.3748" lon="2.46102">
        <ele>475.933842</ele>
        <time>2021-05-08T09:13:50.295Z</time>
      </trkpt>
      <trkpt lat="43.37484" lon="2.46115">
        <ele>475.878479</ele>
        <time>2021-05-08T09:13:54.322Z</time>
      </trkpt>
      <trkpt lat="43.37489" lon="2.46128">
        <ele>475.823824</ele>
        <time>2021-05-08T09:13:58.321Z</time>
      </trkpt>
      <trkpt lat="43.37495" lon="2.46137">
        <ele>475.772842</ele>
        <time>2021-05-08T09:14:02.324Z</time>
      </trkpt>
      <trkpt lat="43.37504" lon="2.46141">
        <ele>475.721805</ele>
        <time>2021-05-08T09:14:06.292Z</time>
      </trkpt>
      <trkpt lat="43.37513" lon="2.46132">
        <ele>476.064226</ele>
        <time>2021-05-08T09:14:10.288Z</time>
      </trkpt>
      <trkpt lat="43.37513" lon="2.4612">
        <ele>476.364316</ele>
        <time>2021-05-08T09:14:14.284Z</time>
      </trkpt>
      <trkpt lat="43.37507" lon="2.46108">
        <ele>476.68409</ele>
        <time>2021-05-08T09:14:18.292Z</time>
      </trkpt>
      <trkpt lat="43.37501" lon="2.46097">
        <ele>477.028834</ele>
        <time>2021-05-08T09:14:23.340Z</time>
      </trkpt>
      <trkpt lat="43.37496" lon="2.46086">
        <ele>477.327351</ele>
        <time>2021-05-08T09:14:27.281Z</time>
      </trkpt>
      <trkpt lat="43.37488" lon="2.46078">
        <ele>477.658742</ele>
        <time>2021-05-08T09:14:32.295Z</time>
      </trkpt>
      <trkpt lat="43.37479" lon="2.46072">
        <ele>477.981249</ele>
        <time>2021-05-08T09:14:37.288Z</time>
      </trkpt>
      <trkpt lat="43.37471" lon="2.46068">
        <ele>478.285512</ele>
        <time>2021-05-08T09:14:41.279Z</time>
      </trkpt>
      <trkpt lat="43.37462" lon="2.46063">
        <ele>478.589194</ele>
        <time>2021-05-08T09:14:45.286Z</time>
      </trkpt>
      <trkpt lat="43.37453" lon="2.46054">
        <ele>478.950921</ele>
        <time>2021-05-08T09:14:50.282Z</time>
      </trkpt>
      <trkpt lat="43.37444" lon="2.46045">
        <ele>479.316518</ele>
        <time>2021-05-08T09:14:55.284Z</time>
      </trkpt>
      <trkpt lat="43.37435" lon="2.46035">
        <ele>479.684749</ele>
        <time>2021-05-08T09:15:00.282Z</time>
      </trkpt>
      <trkpt lat="43.37426" lon="2.46027">
        <ele>480.043945</ele>
        <time>2021-05-08T09:15:05.311Z</time>
      </trkpt>
      <trkpt lat="43.37418" lon="2.46018">
        <ele>480.388482</ele>
        <time>2021-05-08T09:15:10.321Z</time>
      </trkpt>
      <trkpt lat="43.37409" lon="2.46008">
        <ele>480.754802</ele>
        <time>2021-05-08T09:15:15.282Z</time>
      </trkpt>
      <trkpt lat="43.37401" lon="2.46">
        <ele>481.072234</ele>
        <time>2021-05-08T09:15:19.281Z</time>
      </trkpt>
      <trkpt lat="43.37395" lon="2.45992">
        <ele>481.369937</ele>
        <time>2021-05-08T09:15:23.294Z</time>
      </trkpt>
      <trkpt lat="43.37386" lon="2.45982">
        <ele>481.88647</ele>
        <time>2021-05-08T09:15:28.309Z</time>
      </trkpt>
      <trkpt lat="43.37378" lon="2.45973">
        <ele>482.722729</ele>
        <time>2021-05-08T09:15:33.313Z</time>
      </trkpt>
      <trkpt lat="43.37371" lon="2.45965">
        <ele>483.422263</ele>
        <time>2021-05-08T09:15:37.288Z</time>
      </trkpt>
      <trkpt lat="43.37363" lon="2.45956">
        <ele>484.252801</ele>
        <time>2021-05-08T09:15:42.295Z</time>
      </trkpt>
      <trkpt lat="43.37354" lon="2.45947">
        <ele>485.092283</ele>
        <time>2021-05-08T09:15:47.290Z</time>
      </trkpt>
      <trkpt lat="43.37345" lon="2.45939">
        <ele>485.955296</ele>
        <time>2021-05-08T09:15:52.317Z</time>
      </trkpt>
      <trkpt lat="43.37336" lon="2.45935">
        <ele>486.683773</ele>
        <time>2021-05-08T09:15:56.285Z</time>
      </trkpt>
      <trkpt lat="43.37327" lon="2.45931">
        <ele>487.401149</ele>
        <time>2021-05-08T09:16:00.323Z</time>
      </trkpt>
      <trkpt lat="43.37318" lon="2.45927">
        <ele>488.127721</ele>
        <time>2021-05-08T09:16:04.274Z</time>
      </trkpt>
      <trkpt lat="43.37308" lon="2.45924">
        <ele>488.925083</ele>
        <time>2021-05-08T09:16:09.280Z</time>
      </trkpt>
      <trkpt lat="43.37297" lon="2.45921">
        <ele>489.805397</ele>
        <time>2021-05-08T09:16:14.306Z</time>
      </trkpt>
      <trkpt lat="43.37287" lon="2.45916">
        <ele>490.679878</ele>
        <time>2021-05-08T09:16:19.277Z</time>
      </trkpt>
      <trkpt lat="43.37278" lon="2.4591">
        <ele>491.420971</ele>
        <time>2021-05-08T09:16:23.289Z</time>
      </trkpt>
      <trkpt lat="43.3727" lon="2.45903">
        <ele>492.180412</ele>
        <time>2021-05-08T09:16:27.300Z</time>
      </trkpt>
      <trkpt lat="43.3726" lon="2.45897">
        <ele>493.036043</ele>
        <time>2021-05-08T09:16:32.326Z</time>
      </trkpt>
      <trkpt lat="43.3725" lon="2.45894">
        <ele>493.848529</ele>
        <time>2021-05-08T09:16:37.312Z</time>
      </trkpt>
      <trkpt lat="43.3724" lon="2.45889">
        <ele>494.652681</ele>
        <time>2021-05-08T09:16:42.290Z</time>
      </trkpt>
      <trkpt lat="43.37231" lon="2.45881">
        <ele>495.527068</ele>
        <time>2021-05-08T09:16:47.317Z</time>
      </trkpt>
      <trkpt lat="43.37222" lon="2.45875">
        <ele>496.454776</ele>
        <time>2021-05-08T09:16:51.312Z</time>
      </trkpt>
      <trkpt lat="43.37214" lon="2.45869">
        <ele>497.438136</ele>
        <time>2021-05-08T09:16:55.313Z</time>
      </trkpt>
      <trkpt lat="43.37205" lon="2.45863">
        <ele>498.368208</ele>
        <time>2021-05-08T09:16:59.318Z</time>
      </trkpt>
      <trkpt lat="43.37197" lon="2.45858">
        <ele>499.344627</ele>
        <time>2021-05-08T09:17:03.317Z</time>
      </trkpt>
      <trkpt lat="43.37188" lon="2.45854">
        <ele>500.296976</ele>
        <time>2021-05-08T09:17:07.311Z</time>
      </trkpt>
      <trkpt lat="43.37179" lon="2.45845">
        <ele>501.385602</ele>
        <time>2021-05-08T09:17:12.274Z</time>
      </trkpt>
      <trkpt lat="43.3718" lon="2.45831">
        <ele>502.450558</ele>
        <time>2021-05-08T09:17:18.280Z</time>
      </trkpt>
      <trkpt lat="43.37189" lon="2.45825">
        <ele>503.389921</ele>
        <time>2021-05-08T09:17:24.288Z</time>
      </trkpt>
      <trkpt lat="43.37198" lon="2.45829">
        <ele>504.373179</ele>
        <time>2021-05-08T09:17:28.284Z</time>
      </trkpt>
      <trkpt lat="43.37207" lon="2.45834">
        <ele>505.376598</ele>
        <time>2021-05-08T09:17:33.324Z</time>
      </trkpt>
      <trkpt lat="43.37216" lon="2.45838">
        <ele>506.31719</ele>
        <time>2021-05-08T09:17:39.296Z</time>
      </trkpt>
      <trkpt lat="43.37225" lon="2.45842">
        <ele>507.26505</ele>
        <time>2021-05-08T09:17:44.288Z</time>
      </trkpt>
      <trkpt lat="43.37233" lon="2.45848">
        <ele>508.232211</ele>
        <time>2021-05-08T09:17:49.284Z</time>
      </trkpt>
      <trkpt lat="43.37242" lon="2.45854">
        <ele>509.272285</ele>
        <time>2021-05-08T09:17:54.287Z</time>
      </trkpt>
      <trkpt lat="43.37253" lon="2.45858">
        <ele>510.392195</ele>
        <time>2021-05-08T09:17:59.292Z</time>
      </trkpt>
      <trkpt lat="43.37263" lon="2.45857">
        <ele>511.381646</ele>
        <time>2021-05-08T09:18:03.330Z</time>
      </trkpt>
      <trkpt lat="43.37272" lon="2.45857">
        <ele>512.341656</ele>
        <time>2021-05-08T09:18:07.342Z</time>
      </trkpt>
      <trkpt lat="43.37281" lon="2.45858">
        <ele>513.289308</ele>
        <time>2021-05-08T09:18:12.280Z</time>
      </trkpt>
      <trkpt lat="43.37291" lon="2.45859">
        <ele>514.003472</ele>
        <time>2021-05-08T09:18:17.293Z</time>
      </trkpt>
      <trkpt lat="43.37299" lon="2.45864">
        <ele>514.072099</ele>
        <time>2021-05-08T09:18:21.281Z</time>
      </trkpt>
      <trkpt lat="43.37308" lon="2.45869">
        <ele>514.144493</ele>
        <time>2021-05-08T09:18:25.279Z</time>
      </trkpt>
      <trkpt lat="43.37317" lon="2.45874">
        <ele>514.217373</ele>
        <time>2021-05-08T09:18:29.329Z</time>
      </trkpt>
      <trkpt lat="43.37327" lon="2.45882">
        <ele>514.29874</ele>
        <time>2021-05-08T09:18:34.292Z</time>
      </trkpt>
      <trkpt lat="43.37334" lon="2.45889">
        <ele>514.368621</ele>
        <time>2021-05-08T09:18:39.316Z</time>
      </trkpt>
      <trkpt lat="43.37342" lon="2.45896">
        <ele>514.436333</ele>
        <time>2021-05-08T09:18:43.291Z</time>
      </trkpt>
      <trkpt lat="43.3735" lon="2.45901">
        <ele>514.50496</ele>
        <time>2021-05-08T09:18:47.289Z</time>
      </trkpt>
      <trkpt lat="43.3736" lon="2.45908">
        <ele>514.582768</ele>
        <time>2021-05-08T09:18:52.290Z</time>
      </trkpt>
      <trkpt lat="43.37369" lon="2.45914">
        <ele>514.662548</ele>
        <time>2021-05-08T09:18:57.280Z</time>
      </trkpt>
      <trkpt lat="43.37378" lon="2.45919">
        <ele>514.730157</ele>
        <time>2021-05-08T09:19:02.282Z</time>
      </trkpt>
      <trkpt lat="43.37386" lon="2.45925">
        <ele>514.801155</ele>
        <time>2021-05-08T09:19:07.292Z</time>
      </trkpt>
      <trkpt lat="43.37394" lon="2.45931">
        <ele>514.869071</ele>
        <time>2021-05-08T09:19:11.292Z</time>
      </trkpt>
      <trkpt lat="43.37403" lon="2.45938">
        <ele>514.949101</ele>
        <time>2021-05-08T09:19:16.289Z</time>
      </trkpt>
      <trkpt lat="43.37412" lon="2.45945">
        <ele>515.024299</ele>
        <time>2021-05-08T09:19:21.300Z</time>
      </trkpt>
      <trkpt lat="43.37422" lon="2.4595">
        <ele>515.101034</ele>
        <time>2021-05-08T09:19:26.281Z</time>
      </trkpt>
      <trkpt lat="43.37431" lon="2.45957">
        <ele>515.175454</ele>
        <time>2021-05-08T09:19:31.289Z</time>
      </trkpt>
      <trkpt lat="43.3744" lon="2.45963">
        <ele>515.248243</ele>
        <time>2021-05-08T09:19:36.304Z</time>
      </trkpt>
      <trkpt lat="43.37447" lon="2.45969">
        <ele>515.315242</ele>
        <time>2021-05-08T09:19:40.397Z</time>
      </trkpt>
      <trkpt lat="43.37457" lon="2.45977">
        <ele>516.157281</ele>
        <time>2021-05-08T09:19:45.279Z</time>
      </trkpt>
      <trkpt lat="43.37466" lon="2.45981">
        <ele>516.911246</ele>
        <time>2021-05-08T09:19:49.284Z</time>
      </trkpt>
      <trkpt lat="43.37475" lon="2.45985">
        <ele>517.727673</ele>
        <time>2021-05-08T09:19:53.311Z</time>
      </trkpt>
      <trkpt lat="43.37484" lon="2.4599">
        <ele>518.530229</ele>
        <time>2021-05-08T09:19:57.301Z</time>
      </trkpt>
      <trkpt lat="43.37493" lon="2.45995">
        <ele>519.299972</ele>
        <time>2021-05-08T09:20:01.318Z</time>
      </trkpt>
      <trkpt lat="43.37502" lon="2.46002">
        <ele>520.1771</ele>
        <time>2021-05-08T09:20:06.292Z</time>
      </trkpt>
      <trkpt lat="43.37512" lon="2.46009">
        <ele>521.067358</ele>
        <time>2021-05-08T09:20:11.279Z</time>
      </trkpt>
      <trkpt lat="43.37522" lon="2.46014">
        <ele>521.963541</ele>
        <time>2021-05-08T09:20:16.285Z</time>
      </trkpt>
      <trkpt lat="43.37531" lon="2.46018">
        <ele>522.786286</ele>
        <time>2021-05-08T09:20:21.285Z</time>
      </trkpt>
      <trkpt lat="43.37541" lon="2.46025">
        <ele>523.656445</ele>
        <time>2021-05-08T09:20:26.298Z</time>
      </trkpt>
      <trkpt lat="43.37551" lon="2.46029">
        <ele>524.503755</ele>
        <time>2021-05-08T09:20:31.282Z</time>
      </trkpt>
      <trkpt lat="43.3756" lon="2.46033">
        <ele>525.307662</ele>
        <time>2021-05-08T09:20:36.312Z</time>
      </trkpt>
      <trkpt lat="43.3757" lon="2.46033">
        <ele>526.138359</ele>
        <time>2021-05-08T09:20:41.277Z</time>
      </trkpt>
      <trkpt lat="43.37581" lon="2.46031">
        <ele>527.036626</ele>
        <time>2021-05-08T09:20:47.299Z</time>
      </trkpt>
      <trkpt lat="43.37591" lon="2.4603">
        <ele>527.82842</ele>
        <time>2021-05-08T09:20:52.322Z</time>
      </trkpt>
      <trkpt lat="43.37601" lon="2.46028">
        <ele>528.704273</ele>
        <time>2021-05-08T09:20:57.278Z</time>
      </trkpt>
      <trkpt lat="43.37612" lon="2.46027">
        <ele>529.626086</ele>
        <time>2021-05-08T09:21:02.299Z</time>
      </trkpt>
      <trkpt lat="43.37622" lon="2.46028">
        <ele>530.516881</ele>
        <time>2021-05-08T09:21:06.283Z</time>
      </trkpt>
      <trkpt lat="43.37631" lon="2.46028">
        <ele>531.507808</ele>
        <time>2021-05-08T09:21:10.319Z</time>
      </trkpt>
      <trkpt lat="43.37641" lon="2.46028">
        <ele>532.575172</ele>
        <time>2021-05-08T09:21:15.320Z</time>
      </trkpt>
      <trkpt lat="43.37652" lon="2.46029">
        <ele>533.806311</ele>
        <time>2021-05-08T09:21:20.284Z</time>
      </trkpt>
      <trkpt lat="43.37664" lon="2.4603">
        <ele>535.037449</ele>
        <time>2021-05-08T09:21:25.303Z</time>
      </trkpt>
      <trkpt lat="43.37673" lon="2.4603">
        <ele>536.049117</ele>
        <time>2021-05-08T09:21:28.289Z</time>
      </trkpt>
      <trkpt lat="43.37682" lon="2.46034">
        <ele>537.102373</ele>
        <time>2021-05-08T09:21:32.332Z</time>
      </trkpt>
      <trkpt lat="43.37693" lon="2.46039">
        <ele>538.323785</ele>
        <time>2021-05-08T09:21:37.281Z</time>
      </trkpt>
      <trkpt lat="43.37703" lon="2.46041">
        <ele>539.393076</ele>
        <time>2021-05-08T09:21:41.282Z</time>
      </trkpt>
      <trkpt lat="43.37711" lon="2.46047">
        <ele>540.468443</ele>
        <time>2021-05-08T09:21:46.277Z</time>
      </trkpt>
      <trkpt lat="43.37719" lon="2.46055">
        <ele>541.495041</ele>
        <time>2021-05-08T09:21:51.302Z</time>
      </trkpt>
      <trkpt lat="43.37724" lon="2.46065">
        <ele>542.531117</ele>
        <time>2021-05-08T09:21:56.291Z</time>
      </trkpt>
      <trkpt lat="43.3773" lon="2.46077">
        <ele>543.639333</ele>
        <time>2021-05-08T09:22:01.289Z</time>
      </trkpt>
      <trkpt lat="43.37736" lon="2.4609">
        <ele>544.869293</ele>
        <time>2021-05-08T09:22:06.290Z</time>
      </trkpt>
      <trkpt lat="43.37742" lon="2.46101">
        <ele>545.950601</ele>
        <time>2021-05-08T09:22:11.299Z</time>
      </trkpt>
      <trkpt lat="43.37751" lon="2.46108">
        <ele>547.054079</ele>
        <time>2021-05-08T09:22:17.286Z</time>
      </trkpt>
      <trkpt lat="43.37757" lon="2.46119">
        <ele>548.149593</ele>
        <time>2021-05-08T09:22:22.284Z</time>
      </trkpt>
      <trkpt lat="43.37765" lon="2.46127">
        <ele>549.260183</ele>
        <time>2021-05-08T09:22:27.289Z</time>
      </trkpt>
      <trkpt lat="43.37774" lon="2.46137">
        <ele>549.935384</ele>
        <time>2021-05-08T09:22:33.293Z</time>
      </trkpt>
      <trkpt lat="43.37781" lon="2.46147">
        <ele>550.340568</ele>
        <time>2021-05-08T09:22:38.287Z</time>
      </trkpt>
      <trkpt lat="43.37787" lon="2.46157">
        <ele>550.6893</ele>
        <time>2021-05-08T09:22:42.287Z</time>
      </trkpt>
      <trkpt lat="43.37793" lon="2.46167">
        <ele>551.045375</ele>
        <time>2021-05-08T09:22:47.294Z</time>
      </trkpt>
      <trkpt lat="43.37798" lon="2.46177">
        <ele>551.392303</ele>
        <time>2021-05-08T09:22:52.289Z</time>
      </trkpt>
      <trkpt lat="43.37804" lon="2.46187">
        <ele>551.759996</ele>
        <time>2021-05-08T09:22:57.284Z</time>
      </trkpt>
      <trkpt lat="43.37811" lon="2.46197">
        <ele>552.14756</ele>
        <time>2021-05-08T09:23:01.287Z</time>
      </trkpt>
      <trkpt lat="43.37817" lon="2.46207">
        <ele>552.500602</ele>
        <time>2021-05-08T09:23:05.283Z</time>
      </trkpt>
      <trkpt lat="43.37826" lon="2.46215">
        <ele>552.915207</ele>
        <time>2021-05-08T09:23:10.282Z</time>
      </trkpt>
      <trkpt lat="43.37834" lon="2.46225">
        <ele>553.310973</ele>
        <time>2021-05-08T09:23:15.294Z</time>
      </trkpt>
      <trkpt lat="43.37841" lon="2.46233">
        <ele>553.681038</ele>
        <time>2021-05-08T09:23:19.285Z</time>
      </trkpt>
      <trkpt lat="43.37851" lon="2.4624">
        <ele>554.102001</ele>
        <time>2021-05-08T09:23:24.296Z</time>
      </trkpt>
      <trkpt lat="43.3786" lon="2.46245">
        <ele>554.481548</ele>
        <time>2021-05-08T09:23:28.281Z</time>
      </trkpt>
      <trkpt lat="43.37869" lon="2.46253">
        <ele>554.874068</ele>
        <time>2021-05-08T09:23:32.286Z</time>
      </trkpt>
      <trkpt lat="43.37878" lon="2.46262">
        <ele>555.296995</ele>
        <time>2021-05-08T09:23:36.284Z</time>
      </trkpt>
      <trkpt lat="43.37886" lon="2.4627">
        <ele>555.700534</ele>
        <time>2021-05-08T09:23:41.285Z</time>
      </trkpt>
      <trkpt lat="43.3789" lon="2.46284">
        <ele>556.105774</ele>
        <time>2021-05-08T09:23:47.288Z</time>
      </trkpt>
      <trkpt lat="43.37895" lon="2.46296">
        <ele>556.484296</ele>
        <time>2021-05-08T09:23:52.310Z</time>
      </trkpt>
      <trkpt lat="43.37902" lon="2.46304">
        <ele>556.836672</ele>
        <time>2021-05-08T09:23:57.316Z</time>
      </trkpt>
      <trkpt lat="43.3791" lon="2.46311">
        <ele>557.220446</ele>
        <time>2021-05-08T09:24:02.290Z</time>
      </trkpt>
      <trkpt lat="43.37918" lon="2.4632">
        <ele>557.595164</ele>
        <time>2021-05-08T09:24:07.285Z</time>
      </trkpt>
      <trkpt lat="43.37925" lon="2.4633">
        <ele>557.982332</ele>
        <time>2021-05-08T09:24:12.304Z</time>
      </trkpt>
      <trkpt lat="43.37932" lon="2.46339">
        <ele>558.380485</ele>
        <time>2021-05-08T09:24:17.289Z</time>
      </trkpt>
      <trkpt lat="43.37939" lon="2.46351">
        <ele>558.781101</ele>
        <time>2021-05-08T09:24:22.288Z</time>
      </trkpt>
      <trkpt lat="43.37945" lon="2.46362">
        <ele>559.166678</ele>
        <time>2021-05-08T09:24:26.294Z</time>
      </trkpt>
      <trkpt lat="43.37953" lon="2.46369">
        <ele>559.520326</ele>
        <time>2021-05-08T09:24:30.291Z</time>
      </trkpt>
      <trkpt lat="43.3796" lon="2.46377">
        <ele>559.875396</ele>
        <time>2021-05-08T09:24:34.286Z</time>
      </trkpt>
      <trkpt lat="43.37967" lon="2.46384">
        <ele>560.240209</ele>
        <time>2021-05-08T09:24:38.297Z</time>
      </trkpt>
      <trkpt lat="43.37977" lon="2.4639">
        <ele>560.639126</ele>
        <time>2021-05-08T09:24:43.288Z</time>
      </trkpt>
      <trkpt lat="43.37987" lon="2.46396">
        <ele>561.068636</ele>
        <time>2021-05-08T09:24:48.322Z</time>
      </trkpt>
      <trkpt lat="43.37996" lon="2.46404">
        <ele>561.462393</ele>
        <time>2021-05-08T09:24:52.289Z</time>
      </trkpt>
      <trkpt lat="43.38004" lon="2.46414">
        <ele>561.894675</ele>
        <time>2021-05-08T09:24:57.285Z</time>
      </trkpt>
      <trkpt lat="43.38013" lon="2.46421">
        <ele>562.309073</ele>
        <time>2021-05-08T09:25:01.316Z</time>
      </trkpt>
      <trkpt lat="43.38022" lon="2.46428">
        <ele>562.70322</ele>
        <time>2021-05-08T09:25:05.292Z</time>
      </trkpt>
      <trkpt lat="43.38031" lon="2.46435">
        <ele>563.105262</ele>
        <time>2021-05-08T09:25:09.282Z</time>
      </trkpt>
      <trkpt lat="43.38041" lon="2.46443">
        <ele>563.611398</ele>
        <time>2021-05-08T09:25:14.288Z</time>
      </trkpt>
      <trkpt lat="43.38049" lon="2.46451">
        <ele>564.737237</ele>
        <time>2021-05-08T09:25:19.290Z</time>
      </trkpt>
      <trkpt lat="43.38057" lon="2.46457">
        <ele>565.765999</ele>
        <time>2021-05-08T09:25:24.288Z</time>
      </trkpt>
      <trkpt lat="43.38065" lon="2.46466">
        <ele>566.822705</ele>
        <time>2021-05-08T09:25:29.284Z</time>
      </trkpt>
      <trkpt lat="43.38074" lon="2.46475">
        <ele>568.034191</ele>
        <time>2021-05-08T09:25:34.275Z</time>
      </trkpt>
      <trkpt lat="43.38083" lon="2.46483">
        <ele>569.251183</ele>
        <time>2021-05-08T09:25:39.290Z</time>
      </trkpt>
      <trkpt lat="43.38092" lon="2.4649">
        <ele>570.342258</ele>
        <time>2021-05-08T09:25:43.326Z</time>
      </trkpt>
      <trkpt lat="43.38101" lon="2.46492">
        <ele>571.387175</ele>
        <time>2021-05-08T09:25:47.283Z</time>
      </trkpt>
      <trkpt lat="43.38112" lon="2.46493">
        <ele>572.567304</ele>
        <time>2021-05-08T09:25:52.278Z</time>
      </trkpt>
      <trkpt lat="43.38121" lon="2.46494">
        <ele>573.569642</ele>
        <time>2021-05-08T09:25:57.290Z</time>
      </trkpt>
      <trkpt lat="43.3813" lon="2.46495">
        <ele>574.612145</ele>
        <time>2021-05-08T09:26:02.289Z</time>
      </trkpt>
      <trkpt lat="43.38139" lon="2.46495">
        <ele>575.600823</ele>
        <time>2021-05-08T09:26:07.281Z</time>
      </trkpt>
      <trkpt lat="43.3815" lon="2.46496">
        <ele>576.767205</ele>
        <time>2021-05-08T09:26:12.284Z</time>
      </trkpt>
      <trkpt lat="43.3816" lon="2.46501">
        <ele>577.969261</ele>
        <time>2021-05-08T09:26:17.279Z</time>
      </trkpt>
      <trkpt lat="43.38171" lon="2.46505">
        <ele>579.142165</ele>
        <time>2021-05-08T09:26:22.281Z</time>
      </trkpt>
      <trkpt lat="43.3818" lon="2.46511">
        <ele>580.229279</ele>
        <time>2021-05-08T09:26:28.282Z</time>
      </trkpt>
      <trkpt lat="43.38188" lon="2.46519">
        <ele>581.342221</ele>
        <time>2021-05-08T09:26:33.318Z</time>
      </trkpt>
      <trkpt lat="43.38196" lon="2.46528">
        <ele>582.463943</ele>
        <time>2021-05-08T09:26:38.295Z</time>
      </trkpt>
      <trkpt lat="43.38205" lon="2.46537">
        <ele>583.212478</ele>
        <time>2021-05-08T09:26:43.293Z</time>
      </trkpt>
      <trkpt lat="43.38212" lon="2.46546">
        <ele>583.212905</ele>
        <time>2021-05-08T09:26:48.291Z</time>
      </trkpt>
      <trkpt lat="43.38219" lon="2.46557">
        <ele>583.213347</ele>
        <time>2021-05-08T09:26:53.295Z</time>
      </trkpt>
      <trkpt lat="43.38228" lon="2.46569">
        <ele>583.213867</ele>
        <time>2021-05-08T09:26:57.292Z</time>
      </trkpt>
      <trkpt lat="43.38238" lon="2.46579">
        <ele>583.214378</ele>
        <time>2021-05-08T09:27:00.301Z</time>
      </trkpt>
      <trkpt lat="43.38244" lon="2.4659">
        <ele>583.214795</ele>
        <time>2021-05-08T09:27:03.290Z</time>
      </trkpt>
      <trkpt lat="43.38248" lon="2.46602">
        <ele>583.215179</ele>
        <time>2021-05-08T09:27:07.289Z</time>
      </trkpt>
      <trkpt lat="43.38256" lon="2.46611">
        <ele>583.215621</ele>
        <time>2021-05-08T09:27:12.288Z</time>
      </trkpt>
      <trkpt lat="43.38264" lon="2.46618">
        <ele>583.216005</ele>
        <time>2021-05-08T09:27:16.327Z</time>
      </trkpt>
      <trkpt lat="43.38272" lon="2.46626">
        <ele>583.216425</ele>
        <time>2021-05-08T09:27:20.307Z</time>
      </trkpt>
      <trkpt lat="43.3828" lon="2.4663">
        <ele>583.216802</ele>
        <time>2021-05-08T09:27:24.284Z</time>
      </trkpt>
      <trkpt lat="43.38291" lon="2.46635">
        <ele>583.217275</ele>
        <time>2021-05-08T09:27:29.279Z</time>
      </trkpt>
      <trkpt lat="43.383" lon="2.46637">
        <ele>583.217672</ele>
        <time>2021-05-08T09:27:33.280Z</time>
      </trkpt>
      <trkpt lat="43.3831" lon="2.46637">
        <ele>583.21806</ele>
        <time>2021-05-08T09:27:37.292Z</time>
      </trkpt>
      <trkpt lat="43.38319" lon="2.46641">
        <ele>583.21845</ele>
        <time>2021-05-08T09:27:41.312Z</time>
      </trkpt>
      <trkpt lat="43.38328" lon="2.46647">
        <ele>583.218893</ele>
        <time>2021-05-08T09:27:46.312Z</time>
      </trkpt>
      <trkpt lat="43.38339" lon="2.46648">
        <ele>583.21935</ele>
        <time>2021-05-08T09:27:51.312Z</time>
      </trkpt>
      <trkpt lat="43.38349" lon="2.46653">
        <ele>583.219796</ele>
        <time>2021-05-08T09:27:56.282Z</time>
      </trkpt>
      <trkpt lat="43.3836" lon="2.46658">
        <ele>583.818062</ele>
        <time>2021-05-08T09:28:01.275Z</time>
      </trkpt>
      <trkpt lat="43.38369" lon="2.46663">
        <ele>584.394311</ele>
        <time>2021-05-08T09:28:06.308Z</time>
      </trkpt>
      <trkpt lat="43.38379" lon="2.46668">
        <ele>584.975848</ele>
        <time>2021-05-08T09:28:12.287Z</time>
      </trkpt>
      <trkpt lat="43.38388" lon="2.46676">
        <ele>585.582915</ele>
        <time>2021-05-08T09:28:17.291Z</time>
      </trkpt>
      <trkpt lat="43.38395" lon="2.46687">
        <ele>586.154444</ele>
        <time>2021-05-08T09:28:21.305Z</time>
      </trkpt>
      <trkpt lat="43.38401" lon="2.46698">
        <ele>586.737669</ele>
        <time>2021-05-08T09:28:25.311Z</time>
      </trkpt>
      <trkpt lat="43.38405" lon="2.46712">
        <ele>587.331034</ele>
        <time>2021-05-08T09:28:29.281Z</time>
      </trkpt>
      <trkpt lat="43.38408" lon="2.46725">
        <ele>587.868904</ele>
        <time>2021-05-08T09:28:33.288Z</time>
      </trkpt>
      <trkpt lat="43.3841" lon="2.46738">
        <ele>588.442924</ele>
        <time>2021-05-08T09:28:37.281Z</time>
      </trkpt>
      <trkpt lat="43.38413" lon="2.46752">
        <ele>589.036188</ele>
        <time>2021-05-08T09:28:42.288Z</time>
      </trkpt>
      <trkpt lat="43.38416" lon="2.46765">
        <ele>589.580013</ele>
        <time>2021-05-08T09:28:46.285Z</time>
      </trkpt>
      <trkpt lat="43.38421" lon="2.46778">
        <ele>590.1718</ele>
        <time>2021-05-08T09:28:50.287Z</time>
      </trkpt>
      <trkpt lat="43.3843" lon="2.46787">
        <ele>590.783672</ele>
        <time>2021-05-08T09:28:54.279Z</time>
      </trkpt>
      <trkpt lat="43.38436" lon="2.46796">
        <ele>591.315198</ele>
        <time>2021-05-08T09:28:59.312Z</time>
      </trkpt>
      <trkpt lat="43.38444" lon="2.46806">
        <ele>591.901626</ele>
        <time>2021-05-08T09:29:04.331Z</time>
      </trkpt>
      <trkpt lat="43.38452" lon="2.46814">
        <ele>592.453289</ele>
        <time>2021-05-08T09:29:09.324Z</time>
      </trkpt>
      <trkpt lat="43.38463" lon="2.46816">
        <ele>593.055241</ele>
        <time>2021-05-08T09:29:14.327Z</time>
      </trkpt>
      <trkpt lat="43.38471" lon="2.46812">
        <ele>593.667721</ele>
        <time>2021-05-08T09:29:18.310Z</time>
      </trkpt>
      <trkpt lat="43.38479" lon="2.46805">
        <ele>594.429319</ele>
        <time>2021-05-08T09:29:23.329Z</time>
      </trkpt>
      <trkpt lat="43.38488" lon="2.46797">
        <ele>595.264114</ele>
        <time>2021-05-08T09:29:28.288Z</time>
      </trkpt>
      <trkpt lat="43.38495" lon="2.46789">
        <ele>595.994286</ele>
        <time>2021-05-08T09:29:32.296Z</time>
      </trkpt>
      <trkpt lat="43.38502" lon="2.46777">
        <ele>596.892206</ele>
        <time>2021-05-08T09:29:37.291Z</time>
      </trkpt>
      <trkpt lat="43.38506" lon="2.46765">
        <ele>597.64484</ele>
        <time>2021-05-08T09:29:41.320Z</time>
      </trkpt>
      <trkpt lat="43.38509" lon="2.4675">
        <ele>598.525874</ele>
        <time>2021-05-08T09:29:46.300Z</time>
      </trkpt>
      <trkpt lat="43.38512" lon="2.46739">
        <ele>599.238248</ele>
        <time>2021-05-08T09:29:50.293Z</time>
      </trkpt>
      <trkpt lat="43.38521" lon="2.46731">
        <ele>600.036844</ele>
        <time>2021-05-08T09:29:56.285Z</time>
      </trkpt>
      <trkpt lat="43.38531" lon="2.46729">
        <ele>600.905081</ele>
        <time>2021-05-08T09:30:00.282Z</time>
      </trkpt>
      <trkpt lat="43.38541" lon="2.4673">
        <ele>601.702561</ele>
        <time>2021-05-08T09:30:05.282Z</time>
      </trkpt>
      <trkpt lat="43.38551" lon="2.46732">
        <ele>602.46698</ele>
        <time>2021-05-08T09:30:11.279Z</time>
      </trkpt>
      <trkpt lat="43.38559" lon="2.46736">
        <ele>603.184495</ele>
        <time>2021-05-08T09:30:15.274Z</time>
      </trkpt>
      <trkpt lat="43.38569" lon="2.4674">
        <ele>604.008698</ele>
        <time>2021-05-08T09:30:20.277Z</time>
      </trkpt>
      <trkpt lat="43.38579" lon="2.46744">
        <ele>604.848638</ele>
        <time>2021-05-08T09:30:25.286Z</time>
      </trkpt>
      <trkpt lat="43.3859" lon="2.46745">
        <ele>605.675385</ele>
        <time>2021-05-08T09:30:29.302Z</time>
      </trkpt>
      <trkpt lat="43.386" lon="2.46745">
        <ele>606.462244</ele>
        <time>2021-05-08T09:30:33.324Z</time>
      </trkpt>
      <trkpt lat="43.38608" lon="2.46741">
        <ele>607.18173</ele>
        <time>2021-05-08T09:30:37.333Z</time>
      </trkpt>
      <trkpt lat="43.38616" lon="2.46732">
        <ele>607.951519</ele>
        <time>2021-05-08T09:30:41.312Z</time>
      </trkpt>
      <trkpt lat="43.3862" lon="2.4672">
        <ele>608.641699</ele>
        <time>2021-05-08T09:30:46.306Z</time>
      </trkpt>
      <trkpt lat="43.38626" lon="2.46709">
        <ele>609.375728</ele>
        <time>2021-05-08T09:30:52.309Z</time>
      </trkpt>
      <trkpt lat="43.38633" lon="2.467">
        <ele>610.083559</ele>
        <time>2021-05-08T09:30:58.319Z</time>
      </trkpt>
      <trkpt lat="43.38642" lon="2.46694">
        <ele>610.784283</ele>
        <time>2021-05-08T09:31:02.280Z</time>
      </trkpt>
      <trkpt lat="43.38651" lon="2.4669">
        <ele>611.443156</ele>
        <time>2021-05-08T09:31:06.289Z</time>
      </trkpt>
      <trkpt lat="43.3866" lon="2.46687">
        <ele>612.124819</ele>
        <time>2021-05-08T09:31:11.285Z</time>
      </trkpt>
      <trkpt lat="43.38669" lon="2.46687">
        <ele>612.793066</ele>
        <time>2021-05-08T09:31:16.293Z</time>
      </trkpt>
      <trkpt lat="43.38679" lon="2.4669">
        <ele>613.557193</ele>
        <time>2021-05-08T09:31:22.291Z</time>
      </trkpt>
      <trkpt lat="43.38688" lon="2.46691">
        <ele>614.225221</ele>
        <time>2021-05-08T09:31:26.282Z</time>
      </trkpt>
      <trkpt lat="43.38699" lon="2.46693">
        <ele>614.983646</ele>
        <time>2021-05-08T09:31:31.291Z</time>
      </trkpt>
      <trkpt lat="43.38708" lon="2.46698">
        <ele>615.745089</ele>
        <time>2021-05-08T09:31:36.275Z</time>
      </trkpt>
      <trkpt lat="43.38718" lon="2.46703">
        <ele>616.441719</ele>
        <time>2021-05-08T09:31:40.286Z</time>
      </trkpt>
      <trkpt lat="43.38728" lon="2.467">
        <ele>617.206227</ele>
        <time>2021-05-08T09:31:46.285Z</time>
      </trkpt>
      <trkpt lat="43.38736" lon="2.46691">
        <ele>617.946358</ele>
        <time>2021-05-08T09:31:51.296Z</time>
      </trkpt>
      <trkpt lat="43.38744" lon="2.46681">
        <ele>618.753427</ele>
        <time>2021-05-08T09:31:56.290Z</time>
      </trkpt>
      <trkpt lat="43.38753" lon="2.46676">
        <ele>619.473302</ele>
        <time>2021-05-08T09:32:00.300Z</time>
      </trkpt>
      <trkpt lat="43.38763" lon="2.46675">
        <ele>620.164434</ele>
        <time>2021-05-08T09:32:05.298Z</time>
      </trkpt>
      <trkpt lat="43.38774" lon="2.46675">
        <ele>620.845198</ele>
        <time>2021-05-08T09:32:10.280Z</time>
      </trkpt>
      <trkpt lat="43.38784" lon="2.46676">
        <ele>621.233682</ele>
        <time>2021-05-08T09:32:14.281Z</time>
      </trkpt>
      <trkpt lat="43.38793" lon="2.46677">
        <ele>621.62583</ele>
        <time>2021-05-08T09:32:19.284Z</time>
      </trkpt>
      <trkpt lat="43.38802" lon="2.46681">
        <ele>622.035334</ele>
        <time>2021-05-08T09:32:24.284Z</time>
      </trkpt>
      <trkpt lat="43.38811" lon="2.46686">
        <ele>622.454255</ele>
        <time>2021-05-08T09:32:28.317Z</time>
      </trkpt>
      <trkpt lat="43.3882" lon="2.46692">
        <ele>622.870672</ele>
        <time>2021-05-08T09:32:32.288Z</time>
      </trkpt>
      <trkpt lat="43.3883" lon="2.46697">
        <ele>623.311982</ele>
        <time>2021-05-08T09:32:37.288Z</time>
      </trkpt>
      <trkpt lat="43.38839" lon="2.46705">
        <ele>623.774327</ele>
        <time>2021-05-08T09:32:42.290Z</time>
      </trkpt>
      <trkpt lat="43.38848" lon="2.4671">
        <ele>624.185469</ele>
        <time>2021-05-08T09:32:46.289Z</time>
      </trkpt>
      <trkpt lat="43.3886" lon="2.46715">
        <ele>624.688518</ele>
        <time>2021-05-08T09:32:51.337Z</time>
      </trkpt>
      <trkpt lat="43.38869" lon="2.46718">
        <ele>625.080826</ele>
        <time>2021-05-08T09:32:54.322Z</time>
      </trkpt>
      <trkpt lat="43.38879" lon="2.4672">
        <ele>625.510197</ele>
        <time>2021-05-08T09:32:58.294Z</time>
      </trkpt>
      <trkpt lat="43.38889" lon="2.46721">
        <ele>625.940215</ele>
        <time>2021-05-08T09:33:02.286Z</time>
      </trkpt>
      <trkpt lat="43.38899" lon="2.46721">
        <ele>626.365805</ele>
        <time>2021-05-08T09:33:06.301Z</time>
      </trkpt>
      <trkpt lat="43.3891" lon="2.46721">
        <ele>626.842008</ele>
        <time>2021-05-08T09:33:11.310Z</time>
      </trkpt>
      <trkpt lat="43.38919" lon="2.46719">
        <ele>627.220905</ele>
        <time>2021-05-08T09:33:15.290Z</time>
      </trkpt>
      <trkpt lat="43.38929" lon="2.46717">
        <ele>627.634983</ele>
        <time>2021-05-08T09:33:20.286Z</time>
      </trkpt>
      <trkpt lat="43.38938" lon="2.46715">
        <ele>628.034727</ele>
        <time>2021-05-08T09:33:25.288Z</time>
      </trkpt>
      <trkpt lat="43.38948" lon="2.46713">
        <ele>628.536709</ele>
        <time>2021-05-08T09:33:30.276Z</time>
      </trkpt>
      <trkpt lat="43.38959" lon="2.46711">
        <ele>629.162753</ele>
        <time>2021-05-08T09:33:35.286Z</time>
      </trkpt>
      <trkpt lat="43.38969" lon="2.46708">
        <ele>629.768135</ele>
        <time>2021-05-08T09:33:40.279Z</time>
      </trkpt>
      <trkpt lat="43.3898" lon="2.46707">
        <ele>630.376255</ele>
        <time>2021-05-08T09:33:45.288Z</time>
      </trkpt>
      <trkpt lat="43.3899" lon="2.46707">
        <ele>630.960766</ele>
        <time>2021-05-08T09:33:51.280Z</time>
      </trkpt>
      <trkpt lat="43.39" lon="2.46707">
        <ele>631.551018</ele>
        <time>2021-05-08T09:33:56.280Z</time>
      </trkpt>
      <trkpt lat="43.3901" lon="2.46709">
        <ele>632.13408</ele>
        <time>2021-05-08T09:34:01.288Z</time>
      </trkpt>
      <trkpt lat="43.39019" lon="2.4671">
        <ele>632.670174</ele>
        <time>2021-05-08T09:34:05.289Z</time>
      </trkpt>
      <trkpt lat="43.39029" lon="2.46704">
        <ele>633.271567</ele>
        <time>2021-05-08T09:34:11.280Z</time>
      </trkpt>
      <trkpt lat="43.39031" lon="2.46691">
        <ele>633.827469</ele>
        <time>2021-05-08T09:34:17.289Z</time>
      </trkpt>
      <trkpt lat="43.39026" lon="2.46679">
        <ele>634.407743</ele>
        <time>2021-05-08T09:34:23.290Z</time>
      </trkpt>
      <trkpt lat="43.39017" lon="2.46674">
        <ele>634.965303</ele>
        <time>2021-05-08T09:34:30.283Z</time>
      </trkpt>
      <trkpt lat="43.39009" lon="2.46666">
        <ele>635.559018</ele>
        <time>2021-05-08T09:34:35.279Z</time>
      </trkpt>
      <trkpt lat="43.38999" lon="2.46661">
        <ele>636.145269</ele>
        <time>2021-05-08T09:34:39.314Z</time>
      </trkpt>
      <trkpt lat="43.38991" lon="2.46654">
        <ele>636.685756</ele>
        <time>2021-05-08T09:34:43.292Z</time>
      </trkpt>
      <trkpt lat="43.38982" lon="2.4665">
        <ele>637.233042</ele>
        <time>2021-05-08T09:34:49.301Z</time>
      </trkpt>
      <trkpt lat="43.38973" lon="2.46647">
        <ele>637.800017</ele>
        <time>2021-05-08T09:34:54.290Z</time>
      </trkpt>
      <trkpt lat="43.38963" lon="2.46644">
        <ele>638.377551</ele>
        <time>2021-05-08T09:34:58.293Z</time>
      </trkpt>
      <trkpt lat="43.38954" lon="2.46642">
        <ele>638.961935</ele>
        <time>2021-05-08T09:35:03.294Z</time>
      </trkpt>
      <trkpt lat="43.38943" lon="2.46639">
        <ele>639.742687</ele>
        <time>2021-05-08T09:35:08.280Z</time>
      </trkpt>
      <trkpt lat="43.38932" lon="2.46639">
        <ele>640.499227</ele>
        <time>2021-05-08T09:35:12.283Z</time>
      </trkpt>
      <trkpt lat="43.38923" lon="2.46636">
        <ele>641.136962</ele>
        <time>2021-05-08T09:35:16.296Z</time>
      </trkpt>
      <trkpt lat="43.38912" lon="2.46634">
        <ele>641.879222</ele>
        <time>2021-05-08T09:35:21.289Z</time>
      </trkpt>
      <trkpt lat="43.38901" lon="2.46633">
        <ele>642.615812</ele>
        <time>2021-05-08T09:35:25.314Z</time>
      </trkpt>
      <trkpt lat="43.38892" lon="2.46631">
        <ele>643.283224</ele>
        <time>2021-05-08T09:35:29.313Z</time>
      </trkpt>
      <trkpt lat="43.38883" lon="2.46628">
        <ele>643.919765</ele>
        <time>2021-05-08T09:35:34.288Z</time>
      </trkpt>
      <trkpt lat="43.38873" lon="2.46625">
        <ele>644.599936</ele>
        <time>2021-05-08T09:35:41.278Z</time>
      </trkpt>
      <trkpt lat="43.38863" lon="2.4662">
        <ele>645.333016</ele>
        <time>2021-05-08T09:35:47.300Z</time>
      </trkpt>
      <trkpt lat="43.38853" lon="2.46616">
        <ele>646.080604</ele>
        <time>2021-05-08T09:35:52.323Z</time>
      </trkpt>
      <trkpt lat="43.38842" lon="2.46614">
        <ele>646.855711</ele>
        <time>2021-05-08T09:35:57.288Z</time>
      </trkpt>
      <trkpt lat="43.38833" lon="2.46609">
        <ele>647.512245</ele>
        <time>2021-05-08T09:36:01.308Z</time>
      </trkpt>
      <trkpt lat="43.38824" lon="2.46604">
        <ele>648.191313</ele>
        <time>2021-05-08T09:36:06.290Z</time>
      </trkpt>
      <trkpt lat="43.38816" lon="2.46596">
        <ele>648.843605</ele>
        <time>2021-05-08T09:36:11.286Z</time>
      </trkpt>
      <trkpt lat="43.38807" lon="2.46589">
        <ele>649.573598</ele>
        <time>2021-05-08T09:36:17.286Z</time>
      </trkpt>
      <trkpt lat="43.38797" lon="2.46583">
        <ele>650.267451</ele>
        <time>2021-05-08T09:36:22.288Z</time>
      </trkpt>
      <trkpt lat="43.38788" lon="2.46577">
        <ele>650.989036</ele>
        <time>2021-05-08T09:36:28.286Z</time>
      </trkpt>
      <trkpt lat="43.38779" lon="2.46569">
        <ele>651.62552</ele>
        <time>2021-05-08T09:36:34.286Z</time>
      </trkpt>
      <trkpt lat="43.38769" lon="2.46565">
        <ele>652.244488</ele>
        <time>2021-05-08T09:36:40.291Z</time>
      </trkpt>
      <trkpt lat="43.38759" lon="2.46562">
        <ele>652.885623</ele>
        <time>2021-05-08T09:36:45.281Z</time>
      </trkpt>
      <trkpt lat="43.3875" lon="2.4656">
        <ele>653.446298</ele>
        <time>2021-05-08T09:36:49.287Z</time>
      </trkpt>
      <trkpt lat="43.3874" lon="2.46559">
        <ele>654.026586</ele>
        <time>2021-05-08T09:36:52.295Z</time>
      </trkpt>
      <trkpt lat="43.38731" lon="2.46563">
        <ele>654.614142</ele>
        <time>2021-05-08T09:36:55.318Z</time>
      </trkpt>
      <trkpt lat="43.38722" lon="2.46568">
        <ele>655.181335</ele>
        <time>2021-05-08T09:36:59.295Z</time>
      </trkpt>
      <trkpt lat="43.38713" lon="2.46575">
        <ele>655.794625</ele>
        <time>2021-05-08T09:37:04.293Z</time>
      </trkpt>
      <trkpt lat="43.38703" lon="2.46579">
        <ele>656.469447</ele>
        <time>2021-05-08T09:37:09.293Z</time>
      </trkpt>
      <trkpt lat="43.38693" lon="2.46579">
        <ele>657.06679</ele>
        <time>2021-05-08T09:37:13.285Z</time>
      </trkpt>
      <trkpt lat="43.38683" lon="2.46577">
        <ele>657.643744</ele>
        <time>2021-05-08T09:37:17.304Z</time>
      </trkpt>
      <trkpt lat="43.38673" lon="2.46574">
        <ele>658.284941</ele>
        <time>2021-05-08T09:37:22.294Z</time>
      </trkpt>
      <trkpt lat="43.38663" lon="2.46571">
        <ele>658.896672</ele>
        <time>2021-05-08T09:37:27.295Z</time>
      </trkpt>
      <trkpt lat="43.38653" lon="2.46568">
        <ele>659.530947</ele>
        <time>2021-05-08T09:37:33.286Z</time>
      </trkpt>
      <trkpt lat="43.38644" lon="2.46564">
        <ele>660.103474</ele>
        <time>2021-05-08T09:37:38.288Z</time>
      </trkpt>
      <trkpt lat="43.38634" lon="2.46564">
        <ele>660.700817</ele>
        <time>2021-05-08T09:37:42.285Z</time>
      </trkpt>
      <trkpt lat="43.38623" lon="2.46567">
        <ele>661.325932</ele>
        <time>2021-05-08T09:37:45.280Z</time>
      </trkpt>
      <trkpt lat="43.38614" lon="2.46571">
        <ele>661.877488</ele>
        <time>2021-05-08T09:37:51.297Z</time>
      </trkpt>
      <trkpt lat="43.38605" lon="2.4658">
        <ele>662.149264</ele>
        <time>2021-05-08T09:37:57.317Z</time>
      </trkpt>
      <trkpt lat="43.38596" lon="2.4659">
        <ele>662.427804</ele>
        <time>2021-05-08T09:38:02.281Z</time>
      </trkpt>
      <trkpt lat="43.38588" lon="2.46597">
        <ele>662.675179</ele>
        <time>2021-05-08T09:38:07.290Z</time>
      </trkpt>
      <trkpt lat="43.38577" lon="2.46601">
        <ele>662.955197</ele>
        <time>2021-05-08T09:38:11.279Z</time>
      </trkpt>
      <trkpt lat="43.38568" lon="2.46602">
        <ele>663.192162</ele>
        <time>2021-05-08T09:38:16.286Z</time>
      </trkpt>
      <trkpt lat="43.38557" lon="2.46602">
        <ele>663.462525</ele>
        <time>2021-05-08T09:38:22.282Z</time>
      </trkpt>
      <trkpt lat="43.38548" lon="2.46602">
        <ele>663.68848</ele>
        <time>2021-05-08T09:38:26.300Z</time>
      </trkpt>
      <trkpt lat="43.38538" lon="2.466">
        <ele>663.925088</ele>
        <time>2021-05-08T09:38:31.276Z</time>
      </trkpt>
      <trkpt lat="43.38528" lon="2.46602">
        <ele>664.17668</ele>
        <time>2021-05-08T09:38:37.278Z</time>
      </trkpt>
      <trkpt lat="43.38518" lon="2.46602">
        <ele>664.434719</ele>
        <time>2021-05-08T09:38:42.292Z</time>
      </trkpt>
      <trkpt lat="43.38508" lon="2.46597">
        <ele>664.688966</ele>
        <time>2021-05-08T09:38:47.287Z</time>
      </trkpt>
      <trkpt lat="43.38499" lon="2.46594">
        <ele>664.917114</ele>
        <time>2021-05-08T09:38:51.280Z</time>
      </trkpt>
      <trkpt lat="43.38491" lon="2.46589">
        <ele>665.140411</ele>
        <time>2021-05-08T09:38:55.297Z</time>
      </trkpt>
      <trkpt lat="43.38482" lon="2.46579">
        <ele>665.41927</ele>
        <time>2021-05-08T09:39:00.321Z</time>
      </trkpt>
      <trkpt lat="43.38476" lon="2.46569">
        <ele>665.652111</ele>
        <time>2021-05-08T09:39:04.292Z</time>
      </trkpt>
      <trkpt lat="43.3847" lon="2.4656">
        <ele>665.879918</ele>
        <time>2021-05-08T09:39:08.307Z</time>
      </trkpt>
      <trkpt lat="43.38463" lon="2.4655">
        <ele>666.134129</ele>
        <time>2021-05-08T09:39:13.272Z</time>
      </trkpt>
      <trkpt lat="43.38457" lon="2.46538">
        <ele>666.857226</ele>
        <time>2021-05-08T09:39:18.311Z</time>
      </trkpt>
      <trkpt lat="43.38456" lon="2.46523">
        <ele>668.585437</ele>
        <time>2021-05-08T09:39:24.284Z</time>
      </trkpt>
      <trkpt lat="43.38452" lon="2.46509">
        <ele>670.332364</ele>
        <time>2021-05-08T09:39:29.276Z</time>
      </trkpt>
      <trkpt lat="43.38449" lon="2.46494">
        <ele>672.031899</ele>
        <time>2021-05-08T09:39:34.309Z</time>
      </trkpt>
      <trkpt lat="43.38446" lon="2.46483">
        <ele>673.460017</ele>
        <time>2021-05-08T09:39:39.285Z</time>
      </trkpt>
      <trkpt lat="43.38443" lon="2.46471">
        <ele>674.908791</ele>
        <time>2021-05-08T09:39:44.287Z</time>
      </trkpt>
      <trkpt lat="43.38439" lon="2.46459">
        <ele>676.433305</ele>
        <time>2021-05-08T09:39:49.280Z</time>
      </trkpt>
      <trkpt lat="43.38436" lon="2.46443">
        <ele>678.229887</ele>
        <time>2021-05-08T09:39:54.280Z</time>
      </trkpt>
      <trkpt lat="43.38433" lon="2.46432">
        <ele>679.673206</ele>
        <time>2021-05-08T09:39:59.281Z</time>
      </trkpt>
      <trkpt lat="43.38429" lon="2.46419">
        <ele>681.246975</ele>
        <time>2021-05-08T09:40:05.291Z</time>
      </trkpt>
      <trkpt lat="43.38425" lon="2.46408">
        <ele>682.723908</ele>
        <time>2021-05-08T09:40:10.306Z</time>
      </trkpt>
      <trkpt lat="43.38422" lon="2.46395">
        <ele>684.243201</ele>
        <time>2021-05-08T09:40:15.278Z</time>
      </trkpt>
      <trkpt lat="43.38418" lon="2.46381">
        <ele>686.000822</ele>
        <time>2021-05-08T09:40:20.320Z</time>
      </trkpt>
      <trkpt lat="43.38412" lon="2.46368">
        <ele>687.730625</ele>
        <time>2021-05-08T09:40:25.288Z</time>
      </trkpt>
      <trkpt lat="43.38407" lon="2.46356">
        <ele>689.297038</ele>
        <time>2021-05-08T09:40:29.280Z</time>
      </trkpt>
      <trkpt lat="43.38405" lon="2.46343">
        <ele>690.869663</ele>
        <time>2021-05-08T09:40:34.289Z</time>
      </trkpt>
      <trkpt lat="43.38401" lon="2.4633">
        <ele>692.502197</ele>
        <time>2021-05-08T09:40:39.284Z</time>
      </trkpt>
      <trkpt lat="43.38393" lon="2.46318">
        <ele>694.25554</ele>
        <time>2021-05-08T09:40:44.321Z</time>
      </trkpt>
      <trkpt lat="43.38389" lon="2.46306">
        <ele>694.736606</ele>
        <time>2021-05-08T09:40:49.290Z</time>
      </trkpt>
      <trkpt lat="43.38383" lon="2.46295">
        <ele>694.684944</ele>
        <time>2021-05-08T09:40:54.314Z</time>
      </trkpt>
      <trkpt lat="43.38376" lon="2.46283">
        <ele>694.630117</ele>
        <time>2021-05-08T09:41:00.285Z</time>
      </trkpt>
      <trkpt lat="43.38369" lon="2.46272">
        <ele>694.578082</ele>
        <time>2021-05-08T09:41:04.290Z</time>
      </trkpt>
      <trkpt lat="43.38365" lon="2.46259">
        <ele>694.523902</ele>
        <time>2021-05-08T09:41:08.284Z</time>
      </trkpt>
      <trkpt lat="43.38359" lon="2.46247">
        <ele>694.471472</ele>
        <time>2021-05-08T09:41:12.284Z</time>
      </trkpt>
      <trkpt lat="43.38354" lon="2.46236">
        <ele>694.424812</ele>
        <time>2021-05-08T09:41:16.294Z</time>
      </trkpt>
      <trkpt lat="43.38348" lon="2.46227">
        <ele>694.37684</ele>
        <time>2021-05-08T09:41:20.281Z</time>
      </trkpt>
      <trkpt lat="43.38341" lon="2.46213">
        <ele>694.318877</ele>
        <time>2021-05-08T09:41:25.279Z</time>
      </trkpt>
      <trkpt lat="43.38335" lon="2.46204">
        <ele>694.270179</ele>
        <time>2021-05-08T09:41:29.281Z</time>
      </trkpt>
      <trkpt lat="43.38329" lon="2.46192">
        <ele>694.219265</ele>
        <time>2021-05-08T09:41:34.315Z</time>
      </trkpt>
      <trkpt lat="43.38324" lon="2.46181">
        <ele>694.168493</ele>
        <time>2021-05-08T09:41:40.290Z</time>
      </trkpt>
      <trkpt lat="43.38315" lon="2.46173">
        <ele>694.117938</ele>
        <time>2021-05-08T09:41:45.320Z</time>
      </trkpt>
      <trkpt lat="43.38306" lon="2.46166">
        <ele>694.063865</ele>
        <time>2021-05-08T09:41:50.318Z</time>
      </trkpt>
      <trkpt lat="43.38299" lon="2.46157">
        <ele>694.014469</ele>
        <time>2021-05-08T09:41:54.278Z</time>
      </trkpt>
      <trkpt lat="43.3829" lon="2.46148">
        <ele>693.95912</ele>
        <time>2021-05-08T09:41:59.289Z</time>
      </trkpt>
      <trkpt lat="43.38281" lon="2.46142">
        <ele>693.909682</ele>
        <time>2021-05-08T09:42:03.283Z</time>
      </trkpt>
      <trkpt lat="43.38271" lon="2.46136">
        <ele>693.896895</ele>
        <time>2021-05-08T09:42:08.293Z</time>
      </trkpt>
      <trkpt lat="43.38262" lon="2.46128">
        <ele>694.136982</ele>
        <time>2021-05-08T09:42:13.276Z</time>
      </trkpt>
      <trkpt lat="43.38254" lon="2.4612">
        <ele>694.376127</ele>
        <time>2021-05-08T09:42:19.287Z</time>
      </trkpt>
      <trkpt lat="43.38244" lon="2.46112">
        <ele>694.636428</ele>
        <time>2021-05-08T09:42:24.279Z</time>
      </trkpt>
      <trkpt lat="43.38239" lon="2.46101">
        <ele>694.852075</ele>
        <time>2021-05-08T09:42:28.308Z</time>
      </trkpt>
      <trkpt lat="43.38232" lon="2.4609">
        <ele>695.080386</ele>
        <time>2021-05-08T09:42:32.283Z</time>
      </trkpt>
      <trkpt lat="43.38227" lon="2.4608">
        <ele>695.287502</ele>
        <time>2021-05-08T09:42:36.274Z</time>
      </trkpt>
      <trkpt lat="43.38219" lon="2.46071">
        <ele>695.513461</ele>
        <time>2021-05-08T09:42:40.275Z</time>
      </trkpt>
      <trkpt lat="43.38212" lon="2.46061">
        <ele>695.729468</ele>
        <time>2021-05-08T09:42:44.296Z</time>
      </trkpt>
      <trkpt lat="43.38204" lon="2.46055">
        <ele>695.956502</ele>
        <time>2021-05-08T09:42:48.293Z</time>
      </trkpt>
      <trkpt lat="43.38196" lon="2.46047">
        <ele>696.17224</ele>
        <time>2021-05-08T09:42:52.281Z</time>
      </trkpt>
      <trkpt lat="43.3819" lon="2.46036">
        <ele>696.388766</ele>
        <time>2021-05-08T09:42:56.280Z</time>
      </trkpt>
      <trkpt lat="43.38183" lon="2.46027">
        <ele>696.60894</ele>
        <time>2021-05-08T09:43:00.314Z</time>
      </trkpt>
      <trkpt lat="43.38181" lon="2.46013">
        <ele>696.847056</ele>
        <time>2021-05-08T09:43:05.295Z</time>
      </trkpt>
      <trkpt lat="43.38178" lon="2.46001">
        <ele>697.057018</ele>
        <time>2021-05-08T09:43:09.305Z</time>
      </trkpt>
      <trkpt lat="43.38174" lon="2.45989">
        <ele>697.274909</ele>
        <time>2021-05-08T09:43:13.285Z</time>
      </trkpt>
      <trkpt lat="43.38169" lon="2.45976">
        <ele>697.510187</ele>
        <time>2021-05-08T09:43:18.283Z</time>
      </trkpt>
      <trkpt lat="43.38164" lon="2.45963">
        <ele>697.754426</ele>
        <time>2021-05-08T09:43:23.280Z</time>
      </trkpt>
      <trkpt lat="43.38158" lon="2.4595">
        <ele>698.226643</ele>
        <time>2021-05-08T09:43:27.289Z</time>
      </trkpt>
      <trkpt lat="43.38156" lon="2.45937">
        <ele>699.098903</ele>
        <time>2021-05-08T09:43:31.286Z</time>
      </trkpt>
      <trkpt lat="43.3816" lon="2.45924">
        <ele>699.993127</ele>
        <time>2021-05-08T09:43:36.308Z</time>
      </trkpt>
      <trkpt lat="43.38172" lon="2.45923">
        <ele>700.994183</ele>
        <time>2021-05-08T09:43:42.278Z</time>
      </trkpt>
      <trkpt lat="43.3818" lon="2.45931">
        <ele>701.891482</ele>
        <time>2021-05-08T09:43:47.277Z</time>
      </trkpt>
      <trkpt lat="43.38183" lon="2.45943">
        <ele>702.719768</ele>
        <time>2021-05-08T09:43:52.288Z</time>
      </trkpt>
      <trkpt lat="43.38187" lon="2.45955">
        <ele>703.551768</ele>
        <time>2021-05-08T09:43:57.279Z</time>
      </trkpt>
      <trkpt lat="43.38191" lon="2.45968">
        <ele>704.461163</ele>
        <time>2021-05-08T09:44:03.280Z</time>
      </trkpt>
      <trkpt lat="43.38194" lon="2.4598">
        <ele>705.258809</ele>
        <time>2021-05-08T09:44:07.285Z</time>
      </trkpt>
      <trkpt lat="43.38196" lon="2.45993">
        <ele>706.147667</ele>
        <time>2021-05-08T09:44:12.328Z</time>
      </trkpt>
      <trkpt lat="43.38201" lon="2.46006">
        <ele>707.041885</ele>
        <time>2021-05-08T09:44:17.288Z</time>
      </trkpt>
      <trkpt lat="43.38205" lon="2.46018">
        <ele>707.883943</ele>
        <time>2021-05-08T09:44:21.280Z</time>
      </trkpt>
      <trkpt lat="43.38208" lon="2.46029">
        <ele>708.688882</ele>
        <time>2021-05-08T09:44:25.284Z</time>
      </trkpt>
      <trkpt lat="43.38215" lon="2.4604">
        <ele>709.603777</ele>
        <time>2021-05-08T09:44:29.310Z</time>
      </trkpt>
      <trkpt lat="43.38219" lon="2.46051">
        <ele>710.407171</ele>
        <time>2021-05-08T09:44:33.272Z</time>
      </trkpt>
      <trkpt lat="43.38227" lon="2.46061">
        <ele>711.330812</ele>
        <time>2021-05-08T09:44:38.283Z</time>
      </trkpt>
      <trkpt lat="43.38232" lon="2.46072">
        <ele>712.161611</ele>
        <time>2021-05-08T09:44:42.285Z</time>
      </trkpt>
      <trkpt lat="43.3824" lon="2.46082">
        <ele>713.138669</ele>
        <time>2021-05-08T09:44:47.284Z</time>
      </trkpt>
      <trkpt lat="43.38249" lon="2.46088">
        <ele>713.976802</ele>
        <time>2021-05-08T09:44:51.285Z</time>
      </trkpt>
      <trkpt lat="43.38259" lon="2.4609">
        <ele>714.852712</ele>
        <time>2021-05-08T09:44:55.311Z</time>
      </trkpt>
      <trkpt lat="43.38268" lon="2.46088">
        <ele>715.620522</ele>
        <time>2021-05-08T09:44:59.309Z</time>
      </trkpt>
      <trkpt lat="43.38277" lon="2.46086">
        <ele>716.400733</ele>
        <time>2021-05-08T09:45:04.287Z</time>
      </trkpt>
      <trkpt lat="43.38286" lon="2.46082">
        <ele>717.179641</ele>
        <time>2021-05-08T09:45:09.309Z</time>
      </trkpt>
      <trkpt lat="43.38295" lon="2.46079">
        <ele>717.961752</ele>
        <time>2021-05-08T09:45:16.290Z</time>
      </trkpt>
      <trkpt lat="43.38305" lon="2.46079">
        <ele>718.850209</ele>
        <time>2021-05-08T09:45:21.286Z</time>
      </trkpt>
      <trkpt lat="43.38315" lon="2.46081">
        <ele>719.708803</ele>
        <time>2021-05-08T09:45:26.316Z</time>
      </trkpt>
      <trkpt lat="43.38326" lon="2.46084">
        <ele>720.655232</ele>
        <time>2021-05-08T09:45:31.292Z</time>
      </trkpt>
      <trkpt lat="43.38336" lon="2.46086">
        <ele>721.572148</ele>
        <time>2021-05-08T09:45:35.290Z</time>
      </trkpt>
      <trkpt lat="43.38346" lon="2.46092">
        <ele>722.430776</ele>
        <time>2021-05-08T09:45:39.326Z</time>
      </trkpt>
      <trkpt lat="43.38354" lon="2.46102">
        <ele>723.349741</ele>
        <time>2021-05-08T09:45:44.289Z</time>
      </trkpt>
      <trkpt lat="43.3836" lon="2.4611">
        <ele>724.128068</ele>
        <time>2021-05-08T09:45:48.299Z</time>
      </trkpt>
      <trkpt lat="43.3837" lon="2.46115">
        <ele>725.016057</ele>
        <time>2021-05-08T09:45:52.292Z</time>
      </trkpt>
      <trkpt lat="43.38377" lon="2.46123">
        <ele>725.815286</ele>
        <time>2021-05-08T09:45:56.302Z</time>
      </trkpt>
      <trkpt lat="43.38386" lon="2.46128">
        <ele>726.633488</ele>
        <time>2021-05-08T09:46:00.287Z</time>
      </trkpt>
      <trkpt lat="43.38394" lon="2.46137">
        <ele>727.502972</ele>
        <time>2021-05-08T09:46:05.294Z</time>
      </trkpt>
      <trkpt lat="43.38402" lon="2.46144">
        <ele>728.30541</ele>
        <time>2021-05-08T09:46:10.287Z</time>
      </trkpt>
      <trkpt lat="43.38409" lon="2.46156">
        <ele>729.211448</ele>
        <time>2021-05-08T09:46:15.279Z</time>
      </trkpt>
      <trkpt lat="43.38416" lon="2.46165">
        <ele>729.667899</ele>
        <time>2021-05-08T09:46:19.296Z</time>
      </trkpt>
      <trkpt lat="43.38424" lon="2.46172">
        <ele>730.100876</ele>
        <time>2021-05-08T09:46:23.329Z</time>
      </trkpt>
      <trkpt lat="43.38432" lon="2.46182">
        <ele>730.596512</ele>
        <time>2021-05-08T09:46:28.310Z</time>
      </trkpt>
      <trkpt lat="43.3844" lon="2.46191">
        <ele>731.079985</ele>
        <time>2021-05-08T09:46:32.294Z</time>
      </trkpt>
      <trkpt lat="43.38448" lon="2.46198">
        <ele>731.536247</ele>
        <time>2021-05-08T09:46:36.316Z</time>
      </trkpt>
      <trkpt lat="43.38455" lon="2.46206">
        <ele>731.97784</ele>
        <time>2021-05-08T09:46:41.317Z</time>
      </trkpt>
      <trkpt lat="43.38463" lon="2.46216">
        <ele>732.471274</ele>
        <time>2021-05-08T09:46:46.282Z</time>
      </trkpt>
      <trkpt lat="43.3847" lon="2.46229">
        <ele>732.989937</ele>
        <time>2021-05-08T09:46:51.290Z</time>
      </trkpt>
      <trkpt lat="43.38477" lon="2.4624">
        <ele>733.493256</ele>
        <time>2021-05-08T09:46:56.291Z</time>
      </trkpt>
      <trkpt lat="43.38483" lon="2.46252">
        <ele>734.003608</ele>
        <time>2021-05-08T09:47:01.288Z</time>
      </trkpt>
      <trkpt lat="43.38488" lon="2.46264">
        <ele>734.471798</ele>
        <time>2021-05-08T09:47:05.286Z</time>
      </trkpt>
      <trkpt lat="43.38495" lon="2.46273">
        <ele>734.937501</ele>
        <time>2021-05-08T09:47:09.278Z</time>
      </trkpt>
      <trkpt lat="43.38505" lon="2.46281">
        <ele>735.442394</ele>
        <time>2021-05-08T09:47:12.279Z</time>
      </trkpt>
      <trkpt lat="43.38511" lon="2.46291">
        <ele>735.897378</ele>
        <time>2021-05-08T09:47:16.326Z</time>
      </trkpt>
      <trkpt lat="43.38519" lon="2.46298">
        <ele>736.346046</ele>
        <time>2021-05-08T09:47:20.282Z</time>
      </trkpt>
      <trkpt lat="43.38527" lon="2.46303">
        <ele>736.77901</ele>
        <time>2021-05-08T09:47:24.290Z</time>
      </trkpt>
      <trkpt lat="43.38537" lon="2.46307">
        <ele>737.258268</ele>
        <time>2021-05-08T09:47:28.274Z</time>
      </trkpt>
      <trkpt lat="43.38547" lon="2.46307">
        <ele>737.677413</ele>
        <time>2021-05-08T09:47:32.318Z</time>
      </trkpt>
      <trkpt lat="43.38557" lon="2.46305">
        <ele>738.030621</ele>
        <time>2021-05-08T09:47:36.279Z</time>
      </trkpt>
      <trkpt lat="43.38568" lon="2.46301">
        <ele>738.391878</ele>
        <time>2021-05-08T09:47:40.336Z</time>
      </trkpt>
      <trkpt lat="43.38579" lon="2.46299">
        <ele>738.761905</ele>
        <time>2021-05-08T09:47:44.289Z</time>
      </trkpt>
      <trkpt lat="43.38589" lon="2.46297">
        <ele>739.10063</ele>
        <time>2021-05-08T09:47:48.291Z</time>
      </trkpt>
      <trkpt lat="43.386" lon="2.46295">
        <ele>739.456796</ele>
        <time>2021-05-08T09:47:52.326Z</time>
      </trkpt>
      <trkpt lat="43.3861" lon="2.46292">
        <ele>739.827885</ele>
        <time>2021-05-08T09:47:57.322Z</time>
      </trkpt>
      <trkpt lat="43.3862" lon="2.46288">
        <ele>740.144458</ele>
        <time>2021-05-08T09:48:01.310Z</time>
      </trkpt>
      <trkpt lat="43.3863" lon="2.46281">
        <ele>740.512621</ele>
        <time>2021-05-08T09:48:06.292Z</time>
      </trkpt>
      <trkpt lat="43.38639" lon="2.46273">
        <ele>740.879287</ele>
        <time>2021-05-08T09:48:10.294Z</time>
      </trkpt>
      <trkpt lat="43.38647" lon="2.46267">
        <ele>741.199541</ele>
        <time>2021-05-08T09:48:13.304Z</time>
      </trkpt>
      <trkpt lat="43.38655" lon="2.4626">
        <ele>741.501223</ele>
        <time>2021-05-08T09:48:17.315Z</time>
      </trkpt>
      <trkpt lat="43.38663" lon="2.46253">
        <ele>741.821188</ele>
        <time>2021-05-08T09:48:21.287Z</time>
      </trkpt>
      <trkpt lat="43.38672" lon="2.46246">
        <ele>742.156299</ele>
        <time>2021-05-08T09:48:26.274Z</time>
      </trkpt>
      <trkpt lat="43.38681" lon="2.46239">
        <ele>742.497116</ele>
        <time>2021-05-08T09:48:31.286Z</time>
      </trkpt>
      <trkpt lat="43.3869" lon="2.46232">
        <ele>742.847322</ele>
        <time>2021-05-08T09:48:36.289Z</time>
      </trkpt>
      <trkpt lat="43.38697" lon="2.46225">
        <ele>743.149022</ele>
        <time>2021-05-08T09:48:41.273Z</time>
      </trkpt>
      <trkpt lat="43.38705" lon="2.46219">
        <ele>743.454111</ele>
        <time>2021-05-08T09:48:46.322Z</time>
      </trkpt>
      <trkpt lat="43.38714" lon="2.46215">
        <ele>743.976411</ele>
        <time>2021-05-08T09:48:51.300Z</time>
      </trkpt>
      <trkpt lat="43.38723" lon="2.4621">
        <ele>744.653097</ele>
        <time>2021-05-08T09:48:57.289Z</time>
      </trkpt>
      <trkpt lat="43.38733" lon="2.46205">
        <ele>745.399446</ele>
        <time>2021-05-08T09:49:01.287Z</time>
      </trkpt>
      <trkpt lat="43.38745" lon="2.462">
        <ele>746.205773</ele>
        <time>2021-05-08T09:49:05.289Z</time>
      </trkpt>
      <trkpt lat="43.38755" lon="2.46194">
        <ele>746.970717</ele>
        <time>2021-05-08T09:49:09.287Z</time>
      </trkpt>
      <trkpt lat="43.38765" lon="2.46187">
        <ele>747.73133</ele>
        <time>2021-05-08T09:49:13.278Z</time>
      </trkpt>
      <trkpt lat="43.38775" lon="2.46181">
        <ele>748.517147</ele>
        <time>2021-05-08T09:49:17.284Z</time>
      </trkpt>
      <trkpt lat="43.38785" lon="2.46176">
        <ele>749.201176</ele>
        <time>2021-05-08T09:49:21.289Z</time>
      </trkpt>
      <trkpt lat="43.38794" lon="2.4617">
        <ele>749.915945</ele>
        <time>2021-05-08T09:49:25.296Z</time>
      </trkpt>
      <trkpt lat="43.38804" lon="2.46165">
        <ele>750.613442</ele>
        <time>2021-05-08T09:49:30.284Z</time>
      </trkpt>
      <trkpt lat="43.38814" lon="2.46159">
        <ele>751.41387</ele>
        <time>2021-05-08T09:49:34.324Z</time>
      </trkpt>
      <trkpt lat="43.38823" lon="2.46154">
        <ele>752.069495</ele>
        <time>2021-05-08T09:49:37.294Z</time>
      </trkpt>
      <trkpt lat="43.38832" lon="2.46149">
        <ele>752.743396</ele>
        <time>2021-05-08T09:49:40.274Z</time>
      </trkpt>
      <trkpt lat="43.3884" lon="2.46142">
        <ele>753.412381</ele>
        <time>2021-05-08T09:49:44.317Z</time>
      </trkpt>
      <trkpt lat="43.38849" lon="2.46134">
        <ele>754.143892</ele>
        <time>2021-05-08T09:49:49.284Z</time>
      </trkpt>
      <trkpt lat="43.38859" lon="2.4613">
        <ele>754.833454</ele>
        <time>2021-05-08T09:49:55.289Z</time>
      </trkpt>
      <trkpt lat="43.38868" lon="2.46126">
        <ele>755.492655</ele>
        <time>2021-05-08T09:49:59.286Z</time>
      </trkpt>
      <trkpt lat="43.38878" lon="2.46122">
        <ele>756.289002</ele>
        <time>2021-05-08T09:50:03.287Z</time>
      </trkpt>
      <trkpt lat="43.38889" lon="2.46119">
        <ele>757.173793</ele>
        <time>2021-05-08T09:50:07.289Z</time>
      </trkpt>
      <trkpt lat="43.38897" lon="2.46112">
        <ele>757.991385</ele>
        <time>2021-05-08T09:50:11.274Z</time>
      </trkpt>
      <trkpt lat="43.38907" lon="2.46106">
        <ele>758.904451</ele>
        <time>2021-05-08T09:50:15.290Z</time>
      </trkpt>
      <trkpt lat="43.38915" lon="2.46099">
        <ele>759.699626</ele>
        <time>2021-05-08T09:50:18.312Z</time>
      </trkpt>
      <trkpt lat="43.38924" lon="2.46094">
        <ele>760.55921</ele>
        <time>2021-05-08T09:50:21.278Z</time>
      </trkpt>
      <trkpt lat="43.38933" lon="2.46091">
        <ele>761.330939</ele>
        <time>2021-05-08T09:50:24.274Z</time>
      </trkpt>
      <trkpt lat="43.38943" lon="2.46086">
        <ele>762.148776</ele>
        <time>2021-05-08T09:50:28.322Z</time>
      </trkpt>
      <trkpt lat="43.38953" lon="2.46084">
        <ele>763.01427</ele>
        <time>2021-05-08T09:50:33.292Z</time>
      </trkpt>
      <trkpt lat="43.38962" lon="2.46087">
        <ele>763.772235</ele>
        <time>2021-05-08T09:50:38.317Z</time>
      </trkpt>
      <trkpt lat="43.38971" lon="2.46089">
        <ele>764.564123</ele>
        <time>2021-05-08T09:50:42.323Z</time>
      </trkpt>
      <trkpt lat="43.38981" lon="2.4609">
        <ele>765.454994</ele>
        <time>2021-05-08T09:50:47.292Z</time>
      </trkpt>
      <trkpt lat="43.38991" lon="2.46093">
        <ele>766.312765</ele>
        <time>2021-05-08T09:50:52.280Z</time>
      </trkpt>
      <trkpt lat="43.39001" lon="2.46097">
        <ele>767.15943</ele>
        <time>2021-05-08T09:50:56.300Z</time>
      </trkpt>
      <trkpt lat="43.39012" lon="2.461">
        <ele>768.056471</ele>
        <time>2021-05-08T09:51:01.289Z</time>
      </trkpt>
      <trkpt lat="43.39022" lon="2.46104">
        <ele>768.954942</ele>
        <time>2021-05-08T09:51:06.294Z</time>
      </trkpt>
      <trkpt lat="43.39031" lon="2.46109">
        <ele>769.786576</ele>
        <time>2021-05-08T09:51:11.287Z</time>
      </trkpt>
      <trkpt lat="43.39039" lon="2.46116">
        <ele>770.594093</ele>
        <time>2021-05-08T09:51:16.291Z</time>
      </trkpt>
      <trkpt lat="43.39049" lon="2.46124">
        <ele>771.376695</ele>
        <time>2021-05-08T09:51:22.280Z</time>
      </trkpt>
      <trkpt lat="43.39059" lon="2.4613">
        <ele>772.013122</ele>
        <time>2021-05-08T09:51:26.279Z</time>
      </trkpt>
      <trkpt lat="43.39069" lon="2.46132">
        <ele>772.627064</ele>
        <time>2021-05-08T09:51:30.311Z</time>
      </trkpt>
      <trkpt lat="43.3908" lon="2.46134">
        <ele>773.229377</ele>
        <time>2021-05-08T09:51:34.285Z</time>
      </trkpt>
      <trkpt lat="43.39089" lon="2.46136">
        <ele>773.786124</ele>
        <time>2021-05-08T09:51:38.278Z</time>
      </trkpt>
      <trkpt lat="43.39098" lon="2.4614">
        <ele>774.315429</ele>
        <time>2021-05-08T09:51:42.314Z</time>
      </trkpt>
      <trkpt lat="43.39108" lon="2.4614">
        <ele>774.891384</ele>
        <time>2021-05-08T09:51:46.296Z</time>
      </trkpt>
      <trkpt lat="43.39118" lon="2.4614">
        <ele>775.519656</ele>
        <time>2021-05-08T09:51:51.284Z</time>
      </trkpt>
      <trkpt lat="43.39128" lon="2.46142">
        <ele>776.074828</ele>
        <time>2021-05-08T09:51:55.278Z</time>
      </trkpt>
      <trkpt lat="43.39139" lon="2.46143">
        <ele>776.722306</ele>
        <time>2021-05-08T09:52:00.290Z</time>
      </trkpt>
      <trkpt lat="43.39149" lon="2.46146">
        <ele>777.310913</ele>
        <time>2021-05-08T09:52:05.282Z</time>
      </trkpt>
      <trkpt lat="43.39159" lon="2.46151">
        <ele>777.915623</ele>
        <time>2021-05-08T09:52:10.318Z</time>
      </trkpt>
      <trkpt lat="43.39168" lon="2.46154">
        <ele>778.477732</ele>
        <time>2021-05-08T09:52:15.333Z</time>
      </trkpt>
      <trkpt lat="43.39177" lon="2.46154">
        <ele>779.01315</ele>
        <time>2021-05-08T09:52:19.324Z</time>
      </trkpt>
      <trkpt lat="43.39186" lon="2.46152">
        <ele>779.561898</ele>
        <time>2021-05-08T09:52:23.285Z</time>
      </trkpt>
      <trkpt lat="43.39197" lon="2.46145">
        <ele>780.231433</ele>
        <time>2021-05-08T09:52:27.313Z</time>
      </trkpt>
      <trkpt lat="43.39208" lon="2.46141">
        <ele>780.879681</ele>
        <time>2021-05-08T09:52:32.281Z</time>
      </trkpt>
      <trkpt lat="43.39219" lon="2.46138">
        <ele>781.473864</ele>
        <time>2021-05-08T09:52:37.279Z</time>
      </trkpt>
      <trkpt lat="43.39229" lon="2.46139">
        <ele>781.260106</ele>
        <time>2021-05-08T09:52:41.301Z</time>
      </trkpt>
      <trkpt lat="43.39239" lon="2.46141">
        <ele>781.053322</ele>
        <time>2021-05-08T09:52:45.297Z</time>
      </trkpt>
      <trkpt lat="43.39249" lon="2.46144">
        <ele>780.839461</ele>
        <time>2021-05-08T09:52:50.288Z</time>
      </trkpt>
      <trkpt lat="43.3926" lon="2.46143">
        <ele>780.617976</ele>
        <time>2021-05-08T09:52:53.290Z</time>
      </trkpt>
      <trkpt lat="43.39271" lon="2.46144">
        <ele>780.392415</ele>
        <time>2021-05-08T09:52:57.278Z</time>
      </trkpt>
      <trkpt lat="43.3928" lon="2.46145">
        <ele>780.198212</ele>
        <time>2021-05-08T09:53:01.288Z</time>
      </trkpt>
      <trkpt lat="43.39292" lon="2.46145">
        <ele>779.964451</ele>
        <time>2021-05-08T09:53:06.315Z</time>
      </trkpt>
      <trkpt lat="43.39301" lon="2.46141">
        <ele>779.774663</ele>
        <time>2021-05-08T09:53:10.278Z</time>
      </trkpt>
      <trkpt lat="43.3931" lon="2.46136">
        <ele>779.565231</ele>
        <time>2021-05-08T09:53:15.298Z</time>
      </trkpt>
      <trkpt lat="43.3932" lon="2.4613">
        <ele>779.339672</ele>
        <time>2021-05-08T09:53:20.280Z</time>
      </trkpt>
      <trkpt lat="43.39329" lon="2.46126">
        <ele>779.149044</ele>
        <time>2021-05-08T09:53:24.277Z</time>
      </trkpt>
      <trkpt lat="43.39339" lon="2.46122">
        <ele>778.939875</ele>
        <time>2021-05-08T09:53:28.282Z</time>
      </trkpt>
      <trkpt lat="43.39347" lon="2.46118">
        <ele>778.754191</ele>
        <time>2021-05-08T09:53:32.290Z</time>
      </trkpt>
      <trkpt lat="43.39356" lon="2.46114">
        <ele>778.556426</ele>
        <time>2021-05-08T09:53:37.294Z</time>
      </trkpt>
      <trkpt lat="43.39365" lon="2.46109">
        <ele>778.370742</ele>
        <time>2021-05-08T09:53:41.310Z</time>
      </trkpt>
      <trkpt lat="43.39373" lon="2.46103">
        <ele>778.177454</ele>
        <time>2021-05-08T09:53:45.286Z</time>
      </trkpt>
      <trkpt lat="43.39381" lon="2.46098">
        <ele>777.989846</ele>
        <time>2021-05-08T09:53:49.295Z</time>
      </trkpt>
      <trkpt lat="43.39391" lon="2.46094">
        <ele>777.85926</ele>
        <time>2021-05-08T09:53:53.290Z</time>
      </trkpt>
      <trkpt lat="43.394" lon="2.46089">
        <ele>778.892215</ele>
        <time>2021-05-08T09:53:57.289Z</time>
      </trkpt>
      <trkpt lat="43.39408" lon="2.46084">
        <ele>779.94597</ele>
        <time>2021-05-08T09:54:01.293Z</time>
      </trkpt>
      <trkpt lat="43.39419" lon="2.46078">
        <ele>781.176634</ele>
        <time>2021-05-08T09:54:05.302Z</time>
      </trkpt>
      <trkpt lat="43.39427" lon="2.46072">
        <ele>782.190244</ele>
        <time>2021-05-08T09:54:09.280Z</time>
      </trkpt>
      <trkpt lat="43.39435" lon="2.46066">
        <ele>783.179052</ele>
        <time>2021-05-08T09:54:13.306Z</time>
      </trkpt>
      <trkpt lat="43.39444" lon="2.46057">
        <ele>784.38471</ele>
        <time>2021-05-08T09:54:17.290Z</time>
      </trkpt>
      <trkpt lat="43.39452" lon="2.46048">
        <ele>785.621758</ele>
        <time>2021-05-08T09:54:21.281Z</time>
      </trkpt>
      <trkpt lat="43.3946" lon="2.46038">
        <ele>786.743749</ele>
        <time>2021-05-08T09:54:26.283Z</time>
      </trkpt>
      <trkpt lat="43.39467" lon="2.4603">
        <ele>787.73648</ele>
        <time>2021-05-08T09:54:30.297Z</time>
      </trkpt>
      <trkpt lat="43.39473" lon="2.46019">
        <ele>788.816678</ele>
        <time>2021-05-08T09:54:35.290Z</time>
      </trkpt>
      <trkpt lat="43.39479" lon="2.46008">
        <ele>789.974554</ele>
        <time>2021-05-08T09:54:40.290Z</time>
      </trkpt>
      <trkpt lat="43.39486" lon="2.45995">
        <ele>791.229627</ele>
        <time>2021-05-08T09:54:44.280Z</time>
      </trkpt>
      <trkpt lat="43.39491" lon="2.45983">
        <ele>792.372946</ele>
        <time>2021-05-08T09:54:48.282Z</time>
      </trkpt>
      <trkpt lat="43.39496" lon="2.4597">
        <ele>793.568227</ele>
        <time>2021-05-08T09:54:52.284Z</time>
      </trkpt>
      <trkpt lat="43.395" lon="2.45958">
        <ele>794.633863</ele>
        <time>2021-05-08T09:54:56.272Z</time>
      </trkpt>
      <trkpt lat="43.39505" lon="2.45946">
        <ele>795.685201</ele>
        <time>2021-05-08T09:55:00.282Z</time>
      </trkpt>
      <trkpt lat="43.39507" lon="2.45931">
        <ele>796.873062</ele>
        <time>2021-05-08T09:55:06.294Z</time>
      </trkpt>
      <trkpt lat="43.3951" lon="2.45919">
        <ele>797.776111</ele>
        <time>2021-05-08T09:55:10.284Z</time>
      </trkpt>
      <trkpt lat="43.39515" lon="2.45908">
        <ele>798.421353</ele>
        <time>2021-05-08T09:55:14.310Z</time>
      </trkpt>
      <trkpt lat="43.39519" lon="2.45896">
        <ele>799.007146</ele>
        <time>2021-05-08T09:55:18.278Z</time>
      </trkpt>
      <trkpt lat="43.39521" lon="2.45884">
        <ele>799.615407</ele>
        <time>2021-05-08T09:55:23.302Z</time>
      </trkpt>
      <trkpt lat="43.39523" lon="2.4587">
        <ele>800.297111</ele>
        <time>2021-05-08T09:55:30.282Z</time>
      </trkpt>
      <trkpt lat="43.39525" lon="2.45857">
        <ele>800.88961</ele>
        <time>2021-05-08T09:55:35.276Z</time>
      </trkpt>
      <trkpt lat="43.39528" lon="2.45843">
        <ele>801.598047</ele>
        <time>2021-05-08T09:55:40.282Z</time>
      </trkpt>
      <trkpt lat="43.39532" lon="2.4583">
        <ele>802.284006</ele>
        <time>2021-05-08T09:55:46.289Z</time>
      </trkpt>
      <trkpt lat="43.39536" lon="2.45816">
        <ele>802.951722</ele>
        <time>2021-05-08T09:55:49.295Z</time>
      </trkpt>
      <trkpt lat="43.3954" lon="2.45804">
        <ele>803.583081</ele>
        <time>2021-05-08T09:55:52.294Z</time>
      </trkpt>
      <trkpt lat="43.39546" lon="2.4579">
        <ele>804.32423</ele>
        <time>2021-05-08T09:55:56.289Z</time>
      </trkpt>
      <trkpt lat="43.3955" lon="2.45779">
        <ele>804.914966</ele>
        <time>2021-05-08T09:55:59.278Z</time>
      </trkpt>
      <trkpt lat="43.39556" lon="2.45767">
        <ele>805.607684</ele>
        <time>2021-05-08T09:56:03.278Z</time>
      </trkpt>
      <trkpt lat="43.39563" lon="2.45756">
        <ele>806.296657</ele>
        <time>2021-05-08T09:56:07.274Z</time>
      </trkpt>
      <trkpt lat="43.39569" lon="2.45745">
        <ele>806.90951</ele>
        <time>2021-05-08T09:56:11.281Z</time>
      </trkpt>
      <trkpt lat="43.39573" lon="2.45734">
        <ele>807.50437</ele>
        <time>2021-05-08T09:56:15.277Z</time>
      </trkpt>
      <trkpt lat="43.39577" lon="2.45722">
        <ele>808.123961</ele>
        <time>2021-05-08T09:56:19.310Z</time>
      </trkpt>
      <trkpt lat="43.39582" lon="2.4571">
        <ele>808.785324</ele>
        <time>2021-05-08T09:56:25.279Z</time>
      </trkpt>
      <trkpt lat="43.39589" lon="2.45699">
        <ele>809.460636</ele>
        <time>2021-05-08T09:56:30.287Z</time>
      </trkpt>
      <trkpt lat="43.39595" lon="2.45688">
        <ele>810.060721</ele>
        <time>2021-05-08T09:56:34.282Z</time>
      </trkpt>
      <trkpt lat="43.39601" lon="2.45677">
        <ele>810.651369</ele>
        <time>2021-05-08T09:56:39.277Z</time>
      </trkpt>
      <trkpt lat="43.39602" lon="2.45664">
        <ele>811.243078</ele>
        <time>2021-05-08T09:56:44.282Z</time>
      </trkpt>
      <trkpt lat="43.39602" lon="2.45651">
        <ele>811.785078</ele>
        <time>2021-05-08T09:56:47.292Z</time>
      </trkpt>
      <trkpt lat="43.396" lon="2.45638">
        <ele>812.375507</ele>
        <time>2021-05-08T09:56:51.280Z</time>
      </trkpt>
      <trkpt lat="43.39596" lon="2.45625">
        <ele>812.972581</ele>
        <time>2021-05-08T09:56:57.289Z</time>
      </trkpt>
      <trkpt lat="43.39596" lon="2.45612">
        <ele>813.561879</ele>
        <time>2021-05-08T09:57:02.292Z</time>
      </trkpt>
      <trkpt lat="43.39592" lon="2.45601">
        <ele>814.113104</ele>
        <time>2021-05-08T09:57:06.306Z</time>
      </trkpt>
      <trkpt lat="43.39593" lon="2.45586">
        <ele>814.774321</ele>
        <time>2021-05-08T09:57:10.280Z</time>
      </trkpt>
      <trkpt lat="43.39597" lon="2.45573">
        <ele>815.383137</ele>
        <time>2021-05-08T09:57:14.282Z</time>
      </trkpt>
      <trkpt lat="43.39601" lon="2.4556">
        <ele>815.994677</ele>
        <time>2021-05-08T09:57:19.286Z</time>
      </trkpt>
      <trkpt lat="43.39604" lon="2.45546">
        <ele>816.628395</ele>
        <time>2021-05-08T09:57:25.289Z</time>
      </trkpt>
      <trkpt lat="43.39609" lon="2.45534">
        <ele>817.223238</ele>
        <time>2021-05-08T09:57:29.279Z</time>
      </trkpt>
      <trkpt lat="43.39612" lon="2.45521">
        <ele>817.827555</ele>
        <time>2021-05-08T09:57:34.292Z</time>
      </trkpt>
      <trkpt lat="43.39615" lon="2.45507">
        <ele>818.461271</ele>
        <time>2021-05-08T09:57:39.294Z</time>
      </trkpt>
      <trkpt lat="43.39618" lon="2.45492">
        <ele>819.138693</ele>
        <time>2021-05-08T09:57:43.319Z</time>
      </trkpt>
      <trkpt lat="43.39623" lon="2.45479">
        <ele>819.778985</ele>
        <time>2021-05-08T09:57:46.309Z</time>
      </trkpt>
      <trkpt lat="43.39631" lon="2.45467">
        <ele>820.278322</ele>
        <time>2021-05-08T09:57:49.316Z</time>
      </trkpt>
      <trkpt lat="43.39634" lon="2.45452">
        <ele>820.644633</ele>
        <time>2021-05-08T09:57:53.281Z</time>
      </trkpt>
      <trkpt lat="43.39636" lon="2.45439">
        <ele>820.977773</ele>
        <time>2021-05-08T09:57:57.281Z</time>
      </trkpt>
      <trkpt lat="43.39639" lon="2.45426">
        <ele>821.312847</ele>
        <time>2021-05-08T09:58:01.289Z</time>
      </trkpt>
      <trkpt lat="43.39644" lon="2.45414">
        <ele>821.62543</ele>
        <time>2021-05-08T09:58:05.282Z</time>
      </trkpt>
      <trkpt lat="43.3965" lon="2.45401">
        <ele>821.982586</ele>
        <time>2021-05-08T09:58:09.283Z</time>
      </trkpt>
      <trkpt lat="43.39655" lon="2.45391">
        <ele>822.287883</ele>
        <time>2021-05-08T09:58:13.279Z</time>
      </trkpt>
      <trkpt lat="43.39659" lon="2.45377">
        <ele>822.644574</ele>
        <time>2021-05-08T09:58:18.290Z</time>
      </trkpt>
      <trkpt lat="43.39661" lon="2.45362">
        <ele>822.999397</ele>
        <time>2021-05-08T09:58:23.275Z</time>
      </trkpt>
      <trkpt lat="43.39661" lon="2.45349">
        <ele>823.326157</ele>
        <time>2021-05-08T09:58:28.276Z</time>
      </trkpt>
      <trkpt lat="43.39662" lon="2.45336">
        <ele>823.636976</ele>
        <time>2021-05-08T09:58:32.325Z</time>
      </trkpt>
      <trkpt lat="43.39665" lon="2.45322">
        <ele>823.982987</ele>
        <time>2021-05-08T09:58:36.274Z</time>
      </trkpt>
      <trkpt lat="43.39668" lon="2.4531">
        <ele>824.287785</ele>
        <time>2021-05-08T09:58:40.312Z</time>
      </trkpt>
      <trkpt lat="43.39671" lon="2.45298">
        <ele>824.583721</ele>
        <time>2021-05-08T09:58:44.280Z</time>
      </trkpt>
      <trkpt lat="43.39675" lon="2.45285">
        <ele>824.926417</ele>
        <time>2021-05-08T09:58:48.296Z</time>
      </trkpt>
      <trkpt lat="43.3968" lon="2.4527">
        <ele>825.298417</ele>
        <time>2021-05-08T09:58:52.312Z</time>
      </trkpt>
      <trkpt lat="43.39684" lon="2.45259">
        <ele>825.619763</ele>
        <time>2021-05-08T09:58:56.279Z</time>
      </trkpt>
      <trkpt lat="43.39688" lon="2.45246">
        <ele>825.951098</ele>
        <time>2021-05-08T09:59:00.281Z</time>
      </trkpt>
      <trkpt lat="43.39696" lon="2.45236">
        <ele>826.237836</ele>
        <time>2021-05-08T09:59:03.330Z</time>
      </trkpt>
      <trkpt lat="43.39702" lon="2.45223">
        <ele>826.551345</ele>
        <time>2021-05-08T09:59:07.283Z</time>
      </trkpt>
      <trkpt lat="43.39708" lon="2.45213">
        <ele>826.803482</ele>
        <time>2021-05-08T09:59:11.288Z</time>
      </trkpt>
      <trkpt lat="43.39715" lon="2.45203">
        <ele>827.08647</ele>
        <time>2021-05-08T09:59:15.299Z</time>
      </trkpt>
      <trkpt lat="43.39719" lon="2.45191">
        <ele>827.348252</ele>
        <time>2021-05-08T09:59:19.285Z</time>
      </trkpt>
      <trkpt lat="43.39724" lon="2.45178">
        <ele>827.640989</ele>
        <time>2021-05-08T09:59:24.285Z</time>
      </trkpt>
      <trkpt lat="43.3973" lon="2.45165">
        <ele>827.951143</ele>
        <time>2021-05-08T09:59:29.284Z</time>
      </trkpt>
      <trkpt lat="43.39735" lon="2.45155">
        <ele>828.2026</ele>
        <time>2021-05-08T09:59:34.295Z</time>
      </trkpt>
      <trkpt lat="43.39742" lon="2.45146">
        <ele>828.463286</ele>
        <time>2021-05-08T09:59:40.280Z</time>
      </trkpt>
      <trkpt lat="43.3975" lon="2.45139">
        <ele>828.722466</ele>
        <time>2021-05-08T09:59:44.282Z</time>
      </trkpt>
      <trkpt lat="43.39758" lon="2.45133">
        <ele>828.984318</ele>
        <time>2021-05-08T09:59:47.305Z</time>
      </trkpt>
      <trkpt lat="43.39766" lon="2.45127">
        <ele>829.23359</ele>
        <time>2021-05-08T09:59:50.306Z</time>
      </trkpt>
      <trkpt lat="43.39777" lon="2.45122">
        <ele>829.544809</ele>
        <time>2021-05-08T09:59:54.282Z</time>
      </trkpt>
      <trkpt lat="43.39788" lon="2.45121">
        <ele>829.837686</ele>
        <time>2021-05-08T09:59:59.312Z</time>
      </trkpt>
      <trkpt lat="43.39797" lon="2.45122">
        <ele>830.108178</ele>
        <time>2021-05-08T10:00:04.279Z</time>
      </trkpt>
      <trkpt lat="43.39809" lon="2.45124">
        <ele>830.428609</ele>
        <time>2021-05-08T10:00:09.271Z</time>
      </trkpt>
      <trkpt lat="43.39817" lon="2.4513">
        <ele>830.683051</ele>
        <time>2021-05-08T10:00:12.277Z</time>
      </trkpt>
      <trkpt lat="43.39827" lon="2.45137">
        <ele>830.804197</ele>
        <time>2021-05-08T10:00:16.281Z</time>
      </trkpt>
      <trkpt lat="43.39836" lon="2.45145">
        <ele>830.455777</ele>
        <time>2021-05-08T10:00:20.273Z</time>
      </trkpt>
      <trkpt lat="43.39845" lon="2.45152">
        <ele>830.126324</ele>
        <time>2021-05-08T10:00:24.318Z</time>
      </trkpt>
      <trkpt lat="43.39855" lon="2.45156">
        <ele>829.79782</ele>
        <time>2021-05-08T10:00:28.314Z</time>
      </trkpt>
      <trkpt lat="43.39865" lon="2.45162">
        <ele>829.451664</ele>
        <time>2021-05-08T10:00:33.316Z</time>
      </trkpt>
      <trkpt lat="43.39875" lon="2.45167">
        <ele>829.111797</ele>
        <time>2021-05-08T10:00:37.283Z</time>
      </trkpt>
      <trkpt lat="43.39885" lon="2.45175">
        <ele>828.73374</ele>
        <time>2021-05-08T10:00:41.280Z</time>
      </trkpt>
      <trkpt lat="43.39895" lon="2.45183">
        <ele>828.378028</ele>
        <time>2021-05-08T10:00:45.279Z</time>
      </trkpt>
      <trkpt lat="43.39903" lon="2.45188">
        <ele>828.084212</ele>
        <time>2021-05-08T10:00:48.281Z</time>
      </trkpt>
      <trkpt lat="43.39912" lon="2.45194">
        <ele>827.771372</ele>
        <time>2021-05-08T10:00:51.317Z</time>
      </trkpt>
      <trkpt lat="43.39921" lon="2.45199">
        <ele>827.47562</ele>
        <time>2021-05-08T10:00:54.278Z</time>
      </trkpt>
      <trkpt lat="43.3993" lon="2.45205">
        <ele>827.144421</ele>
        <time>2021-05-08T10:00:58.290Z</time>
      </trkpt>
      <trkpt lat="43.3994" lon="2.45211">
        <ele>826.817093</ele>
        <time>2021-05-08T10:01:02.274Z</time>
      </trkpt>
      <trkpt lat="43.3995" lon="2.45218">
        <ele>826.448144</ele>
        <time>2021-05-08T10:01:06.313Z</time>
      </trkpt>
      <trkpt lat="43.3996" lon="2.45225">
        <ele>826.08848</ele>
        <time>2021-05-08T10:01:10.314Z</time>
      </trkpt>
      <trkpt lat="43.3997" lon="2.45233">
        <ele>825.725695</ele>
        <time>2021-05-08T10:01:14.276Z</time>
      </trkpt>
      <trkpt lat="43.39979" lon="2.45241">
        <ele>825.375893</ele>
        <time>2021-05-08T10:01:18.275Z</time>
      </trkpt>
      <trkpt lat="43.39988" lon="2.4525">
        <ele>825.328221</ele>
        <time>2021-05-08T10:01:22.316Z</time>
      </trkpt>
      <trkpt lat="43.39997" lon="2.45259">
        <ele>825.727781</ele>
        <time>2021-05-08T10:01:26.314Z</time>
      </trkpt>
      <trkpt lat="43.40006" lon="2.45268">
        <ele>826.134615</ele>
        <time>2021-05-08T10:01:30.284Z</time>
      </trkpt>
      <trkpt lat="43.40015" lon="2.45277">
        <ele>826.535551</ele>
        <time>2021-05-08T10:01:34.281Z</time>
      </trkpt>
      <trkpt lat="43.40024" lon="2.45286">
        <ele>826.945591</ele>
        <time>2021-05-08T10:01:38.283Z</time>
      </trkpt>
      <trkpt lat="43.40032" lon="2.45296">
        <ele>827.327131</ele>
        <time>2021-05-08T10:01:42.296Z</time>
      </trkpt>
      <trkpt lat="43.40041" lon="2.45306">
        <ele>827.72394</ele>
        <time>2021-05-08T10:01:46.300Z</time>
      </trkpt>
      <trkpt lat="43.40049" lon="2.45315">
        <ele>828.089863</ele>
        <time>2021-05-08T10:01:50.279Z</time>
      </trkpt>
      <trkpt lat="43.40057" lon="2.45324">
        <ele>828.467643</ele>
        <time>2021-05-08T10:01:54.291Z</time>
      </trkpt>
      <trkpt lat="43.40066" lon="2.45333">
        <ele>828.87449</ele>
        <time>2021-05-08T10:01:58.280Z</time>
      </trkpt>
      <trkpt lat="43.40075" lon="2.45341">
        <ele>829.256493</ele>
        <time>2021-05-08T10:02:02.310Z</time>
      </trkpt>
      <trkpt lat="43.40086" lon="2.45347">
        <ele>829.674701</ele>
        <time>2021-05-08T10:02:06.292Z</time>
      </trkpt>
      <trkpt lat="43.40097" lon="2.45351">
        <ele>830.066004</ele>
        <time>2021-05-08T10:02:10.294Z</time>
      </trkpt>
      <trkpt lat="43.40108" lon="2.45351">
        <ele>830.45281</ele>
        <time>2021-05-08T10:02:14.274Z</time>
      </trkpt>
      <trkpt lat="43.40119" lon="2.45348">
        <ele>830.857131</ele>
        <time>2021-05-08T10:02:18.305Z</time>
      </trkpt>
      <trkpt lat="43.40128" lon="2.45344">
        <ele>831.21001</ele>
        <time>2021-05-08T10:02:22.297Z</time>
      </trkpt>
      <trkpt lat="43.40138" lon="2.45337">
        <ele>831.605131</ele>
        <time>2021-05-08T10:02:26.318Z</time>
      </trkpt>
      <trkpt lat="43.40148" lon="2.4533">
        <ele>832.447618</ele>
        <time>2021-05-08T10:02:30.318Z</time>
      </trkpt>
      <trkpt lat="43.40158" lon="2.45322">
        <ele>833.303782</ele>
        <time>2021-05-08T10:02:34.310Z</time>
      </trkpt>
      <trkpt lat="43.40166" lon="2.45315">
        <ele>833.966882</ele>
        <time>2021-05-08T10:02:37.282Z</time>
      </trkpt>
      <trkpt lat="43.40176" lon="2.45308">
        <ele>834.81564</ele>
        <time>2021-05-08T10:02:41.282Z</time>
      </trkpt>
      <trkpt lat="43.40187" lon="2.45301">
        <ele>835.681536</ele>
        <time>2021-05-08T10:02:45.276Z</time>
      </trkpt>
      <trkpt lat="43.40196" lon="2.45297">
        <ele>836.39368</ele>
        <time>2021-05-08T10:02:48.287Z</time>
      </trkpt>
      <trkpt lat="43.40205" lon="2.45293">
        <ele>837.116227</ele>
        <time>2021-05-08T10:02:51.295Z</time>
      </trkpt>
      <trkpt lat="43.40215" lon="2.45293">
        <ele>837.859224</ele>
        <time>2021-05-08T10:02:54.315Z</time>
      </trkpt>
      <trkpt lat="43.40227" lon="2.45292">
        <ele>838.682376</ele>
        <time>2021-05-08T10:02:58.291Z</time>
      </trkpt>
      <trkpt lat="43.40236" lon="2.45294">
        <ele>839.350559</ele>
        <time>2021-05-08T10:03:01.312Z</time>
      </trkpt>
      <trkpt lat="43.40245" lon="2.45296">
        <ele>840.081883</ele>
        <time>2021-05-08T10:03:04.278Z</time>
      </trkpt>
      <trkpt lat="43.40255" lon="2.45299">
        <ele>840.798745</ele>
        <time>2021-05-08T10:03:07.327Z</time>
      </trkpt>
      <trkpt lat="43.40264" lon="2.453">
        <ele>841.492336</ele>
        <time>2021-05-08T10:03:10.301Z</time>
      </trkpt>
      <trkpt lat="43.40274" lon="2.45302">
        <ele>842.167791</ele>
        <time>2021-05-08T10:03:13.291Z</time>
      </trkpt>
      <trkpt lat="43.40285" lon="2.45304">
        <ele>843.023181</ele>
        <time>2021-05-08T10:03:17.273Z</time>
      </trkpt>
      <trkpt lat="43.40296" lon="2.45308">
        <ele>843.858659</ele>
        <time>2021-05-08T10:03:21.288Z</time>
      </trkpt>
      <trkpt lat="43.40307" lon="2.45311">
        <ele>844.704904</ele>
        <time>2021-05-08T10:03:25.316Z</time>
      </trkpt>
      <trkpt lat="43.40319" lon="2.45315">
        <ele>845.005454</ele>
        <time>2021-05-08T10:03:29.309Z</time>
      </trkpt>
      <trkpt lat="43.4033" lon="2.45317">
        <ele>845.208006</ele>
        <time>2021-05-08T10:03:33.288Z</time>
      </trkpt>
      <trkpt lat="43.4034" lon="2.4532">
        <ele>845.397078</ele>
        <time>2021-05-08T10:03:37.313Z</time>
      </trkpt>
      <trkpt lat="43.40351" lon="2.45319">
        <ele>845.596192</ele>
        <time>2021-05-08T10:03:41.280Z</time>
      </trkpt>
      <trkpt lat="43.40363" lon="2.45316">
        <ele>845.804706</ele>
        <time>2021-05-08T10:03:45.313Z</time>
      </trkpt>
      <trkpt lat="43.40374" lon="2.45313">
        <ele>846.019571</ele>
        <time>2021-05-08T10:03:49.309Z</time>
      </trkpt>
      <trkpt lat="43.40383" lon="2.45309">
        <ele>846.191168</ele>
        <time>2021-05-08T10:03:52.318Z</time>
      </trkpt>
      <trkpt lat="43.40393" lon="2.45304">
        <ele>846.379008</ele>
        <time>2021-05-08T10:03:55.300Z</time>
      </trkpt>
      <trkpt lat="43.40402" lon="2.45297">
        <ele>846.56722</ele>
        <time>2021-05-08T10:03:58.310Z</time>
      </trkpt>
      <trkpt lat="43.40412" lon="2.45289">
        <ele>846.772629</ele>
        <time>2021-05-08T10:04:02.326Z</time>
      </trkpt>
      <trkpt lat="43.4042" lon="2.4528">
        <ele>846.966335</ele>
        <time>2021-05-08T10:04:06.308Z</time>
      </trkpt>
      <trkpt lat="43.40427" lon="2.45271">
        <ele>847.13962</ele>
        <time>2021-05-08T10:04:09.281Z</time>
      </trkpt>
      <trkpt lat="43.40435" lon="2.4526">
        <ele>847.331727</ele>
        <time>2021-05-08T10:04:12.316Z</time>
      </trkpt>
      <trkpt lat="43.40442" lon="2.45249">
        <ele>847.533598</ele>
        <time>2021-05-08T10:04:15.280Z</time>
      </trkpt>
      <trkpt lat="43.40449" lon="2.45238">
        <ele>847.730134</ele>
        <time>2021-05-08T10:04:18.285Z</time>
      </trkpt>
      <trkpt lat="43.40457" lon="2.45227">
        <ele>847.92571</ele>
        <time>2021-05-08T10:04:21.289Z</time>
      </trkpt>
      <trkpt lat="43.40464" lon="2.45215">
        <ele>848.077542</ele>
        <time>2021-05-08T10:04:24.273Z</time>
      </trkpt>
      <trkpt lat="43.4047" lon="2.45204">
        <ele>848.111972</ele>
        <time>2021-05-08T10:04:27.285Z</time>
      </trkpt>
      <trkpt lat="43.40476" lon="2.45193">
        <ele>848.144681</ele>
        <time>2021-05-08T10:04:30.307Z</time>
      </trkpt>
      <trkpt lat="43.40482" lon="2.45182">
        <ele>848.176457</ele>
        <time>2021-05-08T10:04:33.314Z</time>
      </trkpt>
      <trkpt lat="43.40487" lon="2.45171">
        <ele>848.20901</ele>
        <time>2021-05-08T10:04:36.288Z</time>
      </trkpt>
      <trkpt lat="43.40493" lon="2.4516">
        <ele>848.239432</ele>
        <time>2021-05-08T10:04:39.276Z</time>
      </trkpt>
      <trkpt lat="43.40497" lon="2.45149">
        <ele>848.271169</ele>
        <time>2021-05-08T10:04:42.279Z</time>
      </trkpt>
      <trkpt lat="43.40502" lon="2.45137">
        <ele>848.3027</ele>
        <time>2021-05-08T10:04:45.281Z</time>
      </trkpt>
      <trkpt lat="43.40507" lon="2.45126">
        <ele>848.335014</ele>
        <time>2021-05-08T10:04:48.281Z</time>
      </trkpt>
      <trkpt lat="43.40514" lon="2.45115">
        <ele>848.366421</ele>
        <time>2021-05-08T10:04:51.283Z</time>
      </trkpt>
      <trkpt lat="43.4052" lon="2.45106">
        <ele>848.397494</ele>
        <time>2021-05-08T10:04:54.273Z</time>
      </trkpt>
      <trkpt lat="43.40525" lon="2.45095">
        <ele>848.428267</ele>
        <time>2021-05-08T10:04:57.310Z</time>
      </trkpt>
      <trkpt lat="43.40531" lon="2.45084">
        <ele>848.460399</ele>
        <time>2021-05-08T10:05:00.287Z</time>
      </trkpt>
      <trkpt lat="43.40537" lon="2.45073">
        <ele>848.493297</ele>
        <time>2021-05-08T10:05:03.282Z</time>
      </trkpt>
      <trkpt lat="43.40543" lon="2.45062">
        <ele>848.526379</ele>
        <time>2021-05-08T10:05:06.282Z</time>
      </trkpt>
      <trkpt lat="43.40549" lon="2.45051">
        <ele>848.558354</ele>
        <time>2021-05-08T10:05:09.277Z</time>
      </trkpt>
      <trkpt lat="43.40555" lon="2.4504">
        <ele>848.590299</ele>
        <time>2021-05-08T10:05:12.312Z</time>
      </trkpt>
      <trkpt lat="43.4056" lon="2.4503">
        <ele>848.620328</ele>
        <time>2021-05-08T10:05:15.283Z</time>
      </trkpt>
      <trkpt lat="43.40566" lon="2.4502">
        <ele>848.65151</ele>
        <time>2021-05-08T10:05:18.285Z</time>
      </trkpt>
      <trkpt lat="43.40572" lon="2.4501">
        <ele>848.912769</ele>
        <time>2021-05-08T10:05:21.281Z</time>
      </trkpt>
      <trkpt lat="43.40581" lon="2.45">
        <ele>849.287855</ele>
        <time>2021-05-08T10:05:25.277Z</time>
      </trkpt>
      <trkpt lat="43.40588" lon="2.44991">
        <ele>849.615689</ele>
        <time>2021-05-08T10:05:28.273Z</time>
      </trkpt>
      <trkpt lat="43.40597" lon="2.44982">
        <ele>849.975388</ele>
        <time>2021-05-08T10:05:31.274Z</time>
      </trkpt>
      <trkpt lat="43.40605" lon="2.44975">
        <ele>850.293207</ele>
        <time>2021-05-08T10:05:34.285Z</time>
      </trkpt>
      <trkpt lat="43.40614" lon="2.44968">
        <ele>850.634311</ele>
        <time>2021-05-08T10:05:37.279Z</time>
      </trkpt>
      <trkpt lat="43.40622" lon="2.44961">
        <ele>850.952538</ele>
        <time>2021-05-08T10:05:40.280Z</time>
      </trkpt>
      <trkpt lat="43.40631" lon="2.44955">
        <ele>851.270478</ele>
        <time>2021-05-08T10:05:43.280Z</time>
      </trkpt>
      <trkpt lat="43.4064" lon="2.44951">
        <ele>851.610394</ele>
        <time>2021-05-08T10:05:46.283Z</time>
      </trkpt>
      <trkpt lat="43.4065" lon="2.44946">
        <ele>851.943937</ele>
        <time>2021-05-08T10:05:49.283Z</time>
      </trkpt>
      <trkpt lat="43.4066" lon="2.44942">
        <ele>852.291748</ele>
        <time>2021-05-08T10:05:52.273Z</time>
      </trkpt>
      <trkpt lat="43.40669" lon="2.44935">
        <ele>852.624452</ele>
        <time>2021-05-08T10:05:55.308Z</time>
      </trkpt>
      <trkpt lat="43.40677" lon="2.44929">
        <ele>852.931642</ele>
        <time>2021-05-08T10:05:58.277Z</time>
      </trkpt>
      <trkpt lat="43.40688" lon="2.44922">
        <ele>853.344118</ele>
        <time>2021-05-08T10:06:02.310Z</time>
      </trkpt>
      <trkpt lat="43.40698" lon="2.44915">
        <ele>853.722327</ele>
        <time>2021-05-08T10:06:05.307Z</time>
      </trkpt>
      <trkpt lat="43.40709" lon="2.44907">
        <ele>854.120753</ele>
        <time>2021-05-08T10:06:09.322Z</time>
      </trkpt>
      <trkpt lat="43.40717" lon="2.449">
        <ele>854.436628</ele>
        <time>2021-05-08T10:06:12.281Z</time>
      </trkpt>
      <trkpt lat="43.40723" lon="2.44891">
        <ele>854.813043</ele>
        <time>2021-05-08T10:06:15.287Z</time>
      </trkpt>
      <trkpt lat="43.4073" lon="2.44877">
        <ele>855.459065</ele>
        <time>2021-05-08T10:06:19.284Z</time>
      </trkpt>
      <trkpt lat="43.40735" lon="2.44866">
        <ele>855.96689</ele>
        <time>2021-05-08T10:06:22.284Z</time>
      </trkpt>
      <trkpt lat="43.40739" lon="2.44854">
        <ele>856.465345</ele>
        <time>2021-05-08T10:06:25.286Z</time>
      </trkpt>
      <trkpt lat="43.40741" lon="2.44842">
        <ele>856.970449</ele>
        <time>2021-05-08T10:06:28.304Z</time>
      </trkpt>
      <trkpt lat="43.4074" lon="2.44829">
        <ele>857.451256</ele>
        <time>2021-05-08T10:06:31.286Z</time>
      </trkpt>
      <trkpt lat="43.40739" lon="2.44815">
        <ele>858.017796</ele>
        <time>2021-05-08T10:06:35.320Z</time>
      </trkpt>
      <trkpt lat="43.40739" lon="2.44802">
        <ele>858.517684</ele>
        <time>2021-05-08T10:06:38.271Z</time>
      </trkpt>
      <trkpt lat="43.40739" lon="2.44788">
        <ele>859.036856</ele>
        <time>2021-05-08T10:06:41.306Z</time>
      </trkpt>
      <trkpt lat="43.40739" lon="2.44775">
        <ele>859.56012</ele>
        <time>2021-05-08T10:06:44.281Z</time>
      </trkpt>
      <trkpt lat="43.40739" lon="2.44762">
        <ele>860.060918</ele>
        <time>2021-05-08T10:06:47.318Z</time>
      </trkpt>
      <trkpt lat="43.40741" lon="2.44749">
        <ele>860.554745</ele>
        <time>2021-05-08T10:06:50.286Z</time>
      </trkpt>
      <trkpt lat="43.40741" lon="2.44735">
        <ele>861.125477</ele>
        <time>2021-05-08T10:06:54.281Z</time>
      </trkpt>
      <trkpt lat="43.40742" lon="2.44722">
        <ele>861.613891</ele>
        <time>2021-05-08T10:06:58.305Z</time>
      </trkpt>
      <trkpt lat="43.40741" lon="2.44707">
        <ele>862.199772</ele>
        <time>2021-05-08T10:07:02.290Z</time>
      </trkpt>
      <trkpt lat="43.4074" lon="2.44691">
        <ele>862.824637</ele>
        <time>2021-05-08T10:07:06.281Z</time>
      </trkpt>
      <trkpt lat="43.40741" lon="2.44676">
        <ele>863.405867</ele>
        <time>2021-05-08T10:07:10.284Z</time>
      </trkpt>
      <trkpt lat="43.40741" lon="2.44662">
        <ele>863.964671</ele>
        <time>2021-05-08T10:07:14.292Z</time>
      </trkpt>
      <trkpt lat="43.40741" lon="2.44647">
        <ele>864.490294</ele>
        <time>2021-05-08T10:07:18.284Z</time>
      </trkpt>
      <trkpt lat="43.40741" lon="2.44634">
        <ele>864.896945</ele>
        <time>2021-05-08T10:07:21.288Z</time>
      </trkpt>
      <trkpt lat="43.40744" lon="2.44619">
        <ele>865.422293</ele>
        <time>2021-05-08T10:07:25.284Z</time>
      </trkpt>
      <trkpt lat="43.40748" lon="2.44604">
        <ele>865.914131</ele>
        <time>2021-05-08T10:07:29.290Z</time>
      </trkpt>
      <trkpt lat="43.4075" lon="2.4459">
        <ele>866.386712</ele>
        <time>2021-05-08T10:07:33.314Z</time>
      </trkpt>
      <trkpt lat="43.40753" lon="2.44574">
        <ele>866.910132</ele>
        <time>2021-05-08T10:07:37.308Z</time>
      </trkpt>
      <trkpt lat="43.40756" lon="2.44562">
        <ele>867.312146</ele>
        <time>2021-05-08T10:07:40.273Z</time>
      </trkpt>
      <trkpt lat="43.40758" lon="2.44547">
        <ele>867.819661</ele>
        <time>2021-05-08T10:07:44.283Z</time>
      </trkpt>
      <trkpt lat="43.4076" lon="2.44532">
        <ele>868.313231</ele>
        <time>2021-05-08T10:07:48.294Z</time>
      </trkpt>
      <trkpt lat="43.40763" lon="2.44517">
        <ele>868.82293</ele>
        <time>2021-05-08T10:07:52.286Z</time>
      </trkpt>
      <trkpt lat="43.40765" lon="2.44501">
        <ele>869.352757</ele>
        <time>2021-05-08T10:07:56.300Z</time>
      </trkpt>
      <trkpt lat="43.40766" lon="2.44486">
        <ele>869.854269</ele>
        <time>2021-05-08T10:08:00.288Z</time>
      </trkpt>
      <trkpt lat="43.40762" lon="2.44474">
        <ele>870.284257</ele>
        <time>2021-05-08T10:08:05.278Z</time>
      </trkpt>
      <trkpt lat="43.40761" lon="2.4446">
        <ele>870.744608</ele>
        <time>2021-05-08T10:08:08.289Z</time>
      </trkpt>
      <trkpt lat="43.40757" lon="2.44446">
        <ele>871.202791</ele>
        <time>2021-05-08T10:08:11.283Z</time>
      </trkpt>
      <trkpt lat="43.40751" lon="2.44433">
        <ele>871.716105</ele>
        <time>2021-05-08T10:08:15.280Z</time>
      </trkpt>
      <trkpt lat="43.40743" lon="2.44423">
        <ele>872.215769</ele>
        <time>2021-05-08T10:08:19.284Z</time>
      </trkpt>
      <trkpt lat="43.40736" lon="2.44411">
        <ele>872.267526</ele>
        <time>2021-05-08T10:08:23.316Z</time>
      </trkpt>
      <trkpt lat="43.40733" lon="2.44399">
        <ele>872.272292</ele>
        <time>2021-05-08T10:08:26.311Z</time>
      </trkpt>
      <trkpt lat="43.40731" lon="2.44385">
        <ele>872.277546</ele>
        <time>2021-05-08T10:08:29.278Z</time>
      </trkpt>
      <trkpt lat="43.40729" lon="2.44371">
        <ele>872.282899</ele>
        <time>2021-05-08T10:08:32.275Z</time>
      </trkpt>
      <trkpt lat="43.40728" lon="2.44357">
        <ele>872.288099</ele>
        <time>2021-05-08T10:08:35.281Z</time>
      </trkpt>
      <trkpt lat="43.40728" lon="2.44342">
        <ele>872.293598</ele>
        <time>2021-05-08T10:08:38.282Z</time>
      </trkpt>
      <trkpt lat="43.40728" lon="2.44329">
        <ele>872.298464</ele>
        <time>2021-05-08T10:08:41.285Z</time>
      </trkpt>
      <trkpt lat="43.40727" lon="2.44315">
        <ele>872.303903</ele>
        <time>2021-05-08T10:08:45.283Z</time>
      </trkpt>
      <trkpt lat="43.40727" lon="2.44301">
        <ele>872.30888</ele>
        <time>2021-05-08T10:08:48.279Z</time>
      </trkpt>
      <trkpt lat="43.40727" lon="2.44289">
        <ele>872.313599</ele>
        <time>2021-05-08T10:08:51.282Z</time>
      </trkpt>
      <trkpt lat="43.40728" lon="2.44274">
        <ele>872.319039</ele>
        <time>2021-05-08T10:08:54.306Z</time>
      </trkpt>
      <trkpt lat="43.40728" lon="2.44262">
        <ele>872.32365</ele>
        <time>2021-05-08T10:08:57.282Z</time>
      </trkpt>
      <trkpt lat="43.40726" lon="2.44249">
        <ele>872.32838</ele>
        <time>2021-05-08T10:09:00.312Z</time>
      </trkpt>
      <trkpt lat="43.40724" lon="2.44236">
        <ele>872.333425</ele>
        <time>2021-05-08T10:09:03.283Z</time>
      </trkpt>
      <trkpt lat="43.4072" lon="2.44224">
        <ele>872.338229</ele>
        <time>2021-05-08T10:09:06.283Z</time>
      </trkpt>
      <trkpt lat="43.40717" lon="2.44208">
        <ele>872.344286</ele>
        <time>2021-05-08T10:09:09.284Z</time>
      </trkpt>
      <trkpt lat="43.40713" lon="2.44195">
        <ele>872.349584</ele>
        <time>2021-05-08T10:09:12.278Z</time>
      </trkpt>
      <trkpt lat="43.40706" lon="2.44179">
        <ele>872.455007</ele>
        <time>2021-05-08T10:09:15.281Z</time>
      </trkpt>
      <trkpt lat="43.40702" lon="2.44166">
        <ele>872.732168</ele>
        <time>2021-05-08T10:09:17.279Z</time>
      </trkpt>
      <trkpt lat="43.40698" lon="2.44152">
        <ele>873.018345</ele>
        <time>2021-05-08T10:09:19.281Z</time>
      </trkpt>
      <trkpt lat="43.40693" lon="2.4414">
        <ele>873.28288</ele>
        <time>2021-05-08T10:09:21.315Z</time>
      </trkpt>
      <trkpt lat="43.40689" lon="2.44127">
        <ele>873.551152</ele>
        <time>2021-05-08T10:09:23.310Z</time>
      </trkpt>
      <trkpt lat="43.40687" lon="2.44113">
        <ele>873.816044</ele>
        <time>2021-05-08T10:09:26.279Z</time>
      </trkpt>
      <trkpt lat="43.40695" lon="2.44105">
        <ele>874.068281</ele>
        <time>2021-05-08T10:09:29.296Z</time>
      </trkpt>
      <trkpt lat="43.40704" lon="2.44109">
        <ele>874.318646</ele>
        <time>2021-05-08T10:09:33.275Z</time>
      </trkpt>
      <trkpt lat="43.40709" lon="2.44121">
        <ele>874.59119</ele>
        <time>2021-05-08T10:09:38.320Z</time>
      </trkpt>
      <trkpt lat="43.40713" lon="2.44134">
        <ele>874.869294</ele>
        <time>2021-05-08T10:09:43.323Z</time>
      </trkpt>
      <trkpt lat="43.40715" lon="2.44148">
        <ele>875.133267</ele>
        <time>2021-05-08T10:09:47.286Z</time>
      </trkpt>
      <trkpt lat="43.4072" lon="2.44159">
        <ele>875.389918</ele>
        <time>2021-05-08T10:09:51.308Z</time>
      </trkpt>
      <trkpt lat="43.40726" lon="2.44171">
        <ele>875.661532</ele>
        <time>2021-05-08T10:09:55.285Z</time>
      </trkpt>
      <trkpt lat="43.40732" lon="2.44182">
        <ele>875.92831</ele>
        <time>2021-05-08T10:09:59.277Z</time>
      </trkpt>
      <trkpt lat="43.40739" lon="2.44194">
        <ele>876.21639</ele>
        <time>2021-05-08T10:10:04.315Z</time>
      </trkpt>
      <trkpt lat="43.40745" lon="2.44206">
        <ele>876.495437</ele>
        <time>2021-05-08T10:10:09.307Z</time>
      </trkpt>
      <trkpt lat="43.40754" lon="2.44214">
        <ele>876.779589</ele>
        <time>2021-05-08T10:10:14.289Z</time>
      </trkpt>
      <trkpt lat="43.40763" lon="2.44211">
        <ele>877.020382</ele>
        <time>2021-05-08T10:10:18.274Z</time>
      </trkpt>
      <trkpt lat="43.40769" lon="2.44201">
        <ele>877.742504</ele>
        <time>2021-05-08T10:10:22.276Z</time>
      </trkpt>
      <trkpt lat="43.40771" lon="2.44186">
        <ele>878.821366</ele>
        <time>2021-05-08T10:10:27.314Z</time>
      </trkpt>
      <trkpt lat="43.4077" lon="2.44174">
        <ele>879.721075</ele>
        <time>2021-05-08T10:10:31.287Z</time>
      </trkpt>
      <trkpt lat="43.40769" lon="2.44159">
        <ele>880.75432</ele>
        <time>2021-05-08T10:10:35.287Z</time>
      </trkpt>
      <trkpt lat="43.40769" lon="2.44145">
        <ele>881.756134</ele>
        <time>2021-05-08T10:10:39.286Z</time>
      </trkpt>
      <trkpt lat="43.4077" lon="2.44131">
        <ele>882.796512</ele>
        <time>2021-05-08T10:10:43.304Z</time>
      </trkpt>
      <trkpt lat="43.4077" lon="2.44118">
        <ele>883.71487</ele>
        <time>2021-05-08T10:10:47.286Z</time>
      </trkpt>
      <trkpt lat="43.40767" lon="2.44103">
        <ele>884.823714</ele>
        <time>2021-05-08T10:10:52.335Z</time>
      </trkpt>
      <trkpt lat="43.40763" lon="2.4409">
        <ele>885.861263</ele>
        <time>2021-05-08T10:10:56.280Z</time>
      </trkpt>
      <trkpt lat="43.40757" lon="2.44077">
        <ele>886.962472</ele>
        <time>2021-05-08T10:11:00.281Z</time>
      </trkpt>
      <trkpt lat="43.40751" lon="2.44065">
        <ele>887.969714</ele>
        <time>2021-05-08T10:11:04.291Z</time>
      </trkpt>
      <trkpt lat="43.40746" lon="2.44055">
        <ele>888.862566</ele>
        <time>2021-05-08T10:11:07.283Z</time>
      </trkpt>
      <trkpt lat="43.40741" lon="2.44043">
        <ele>889.839898</ele>
        <time>2021-05-08T10:11:11.285Z</time>
      </trkpt>
      <trkpt lat="43.40737" lon="2.44032">
        <ele>890.721011</ele>
        <time>2021-05-08T10:11:15.274Z</time>
      </trkpt>
      <trkpt lat="43.40739" lon="2.44018">
        <ele>891.73856</ele>
        <time>2021-05-08T10:11:20.291Z</time>
      </trkpt>
      <trkpt lat="43.40749" lon="2.44012">
        <ele>892.765728</ele>
        <time>2021-05-08T10:11:25.282Z</time>
      </trkpt>
      <trkpt lat="43.40759" lon="2.44015">
        <ele>893.813663</ele>
        <time>2021-05-08T10:11:29.278Z</time>
      </trkpt>
      <trkpt lat="43.40766" lon="2.44023">
        <ele>894.759917</ele>
        <time>2021-05-08T10:11:36.285Z</time>
      </trkpt>
      <trkpt lat="43.40773" lon="2.44033">
        <ele>895.906312</ele>
        <time>2021-05-08T10:11:42.284Z</time>
      </trkpt>
      <trkpt lat="43.40781" lon="2.44045">
        <ele>897.239765</ele>
        <time>2021-05-08T10:11:47.288Z</time>
      </trkpt>
      <trkpt lat="43.40786" lon="2.44054">
        <ele>898.317778</ele>
        <time>2021-05-08T10:11:51.287Z</time>
      </trkpt>
      <trkpt lat="43.40792" lon="2.44064">
        <ele>899.395007</ele>
        <time>2021-05-08T10:11:55.284Z</time>
      </trkpt>
      <trkpt lat="43.40795" lon="2.44077">
        <ele>900.56327</ele>
        <time>2021-05-08T10:11:59.280Z</time>
      </trkpt>
      <trkpt lat="43.40799" lon="2.44088">
        <ele>901.636077</ele>
        <time>2021-05-08T10:12:03.311Z</time>
      </trkpt>
      <trkpt lat="43.40802" lon="2.44105">
        <ele>903.122233</ele>
        <time>2021-05-08T10:12:08.301Z</time>
      </trkpt>
      <trkpt lat="43.40806" lon="2.44118">
        <ele>904.349424</ele>
        <time>2021-05-08T10:12:12.282Z</time>
      </trkpt>
      <trkpt lat="43.40809" lon="2.44131">
        <ele>905.525624</ele>
        <time>2021-05-08T10:12:17.292Z</time>
      </trkpt>
      <trkpt lat="43.40813" lon="2.44142">
        <ele>906.600357</ele>
        <time>2021-05-08T10:12:22.284Z</time>
      </trkpt>
      <trkpt lat="43.40813" lon="2.44157">
        <ele>907.86407</ele>
        <time>2021-05-08T10:12:26.287Z</time>
      </trkpt>
      <trkpt lat="43.40814" lon="2.4417">
        <ele>909.059275</ele>
        <time>2021-05-08T10:12:30.272Z</time>
      </trkpt>
      <trkpt lat="43.40819" lon="2.44184">
        <ele>910.329007</ele>
        <time>2021-05-08T10:12:34.276Z</time>
      </trkpt>
      <trkpt lat="43.40823" lon="2.44195">
        <ele>911.418889</ele>
        <time>2021-05-08T10:12:38.314Z</time>
      </trkpt>
      <trkpt lat="43.40826" lon="2.44209">
        <ele>912.716138</ele>
        <time>2021-05-08T10:12:43.312Z</time>
      </trkpt>
      <trkpt lat="43.4083" lon="2.44222">
        <ele>913.919667</ele>
        <time>2021-05-08T10:12:48.320Z</time>
      </trkpt>
      <trkpt lat="43.40834" lon="2.44235">
        <ele>915.168821</ele>
        <time>2021-05-08T10:12:53.284Z</time>
      </trkpt>
      <trkpt lat="43.40839" lon="2.44248">
        <ele>916.27353</ele>
        <time>2021-05-08T10:12:58.301Z</time>
      </trkpt>
      <trkpt lat="43.40843" lon="2.44261">
        <ele>916.70377</ele>
        <time>2021-05-08T10:13:03.306Z</time>
      </trkpt>
      <trkpt lat="43.40847" lon="2.44273">
        <ele>917.115027</ele>
        <time>2021-05-08T10:13:08.284Z</time>
      </trkpt>
      <trkpt lat="43.4085" lon="2.44285">
        <ele>917.49071</ele>
        <time>2021-05-08T10:13:13.279Z</time>
      </trkpt>
      <trkpt lat="43.40855" lon="2.44299">
        <ele>917.960905</ele>
        <time>2021-05-08T10:13:18.274Z</time>
      </trkpt>
      <trkpt lat="43.40858" lon="2.44311">
        <ele>918.346559</ele>
        <time>2021-05-08T10:13:22.286Z</time>
      </trkpt>
      <trkpt lat="43.40863" lon="2.44322">
        <ele>918.734306</ele>
        <time>2021-05-08T10:13:28.286Z</time>
      </trkpt>
      <trkpt lat="43.4087" lon="2.44333">
        <ele>919.157434</ele>
        <time>2021-05-08T10:13:34.281Z</time>
      </trkpt>
      <trkpt lat="43.40875" lon="2.44344">
        <ele>919.574567</ele>
        <time>2021-05-08T10:13:39.282Z</time>
      </trkpt>
      <trkpt lat="43.40879" lon="2.44356">
        <ele>919.98785</ele>
        <time>2021-05-08T10:13:44.283Z</time>
      </trkpt>
      <trkpt lat="43.40884" lon="2.4437">
        <ele>920.42838</ele>
        <time>2021-05-08T10:13:48.322Z</time>
      </trkpt>
      <trkpt lat="43.40889" lon="2.44383">
        <ele>920.871804</ele>
        <time>2021-05-08T10:13:52.326Z</time>
      </trkpt>
      <trkpt lat="43.40893" lon="2.44395">
        <ele>921.268143</ele>
        <time>2021-05-08T10:13:56.306Z</time>
      </trkpt>
      <trkpt lat="43.40897" lon="2.44405">
        <ele>921.645099</ele>
        <time>2021-05-08T10:14:00.289Z</time>
      </trkpt>
      <trkpt lat="43.40901" lon="2.44418">
        <ele>922.064829</ele>
        <time>2021-05-08T10:14:05.301Z</time>
      </trkpt>
      <trkpt lat="43.40907" lon="2.4443">
        <ele>922.511668</ele>
        <time>2021-05-08T10:14:10.297Z</time>
      </trkpt>
      <trkpt lat="43.40914" lon="2.44441">
        <ele>922.957712</ele>
        <time>2021-05-08T10:14:15.284Z</time>
      </trkpt>
      <trkpt lat="43.40925" lon="2.44456">
        <ele>923.590707</ele>
        <time>2021-05-08T10:14:22.289Z</time>
      </trkpt>
      <trkpt lat="43.40929" lon="2.44468">
        <ele>924.033549</ele>
        <time>2021-05-08T10:14:27.281Z</time>
      </trkpt>
      <trkpt lat="43.40935" lon="2.4448">
        <ele>924.533316</ele>
        <time>2021-05-08T10:14:31.286Z</time>
      </trkpt>
      <trkpt lat="43.40944" lon="2.44491">
        <ele>925.080638</ele>
        <time>2021-05-08T10:14:35.275Z</time>
      </trkpt>
      <trkpt lat="43.40951" lon="2.445">
        <ele>925.537188</ele>
        <time>2021-05-08T10:14:38.296Z</time>
      </trkpt>
      <trkpt lat="43.40959" lon="2.4451">
        <ele>926.023411</ele>
        <time>2021-05-08T10:14:42.280Z</time>
      </trkpt>
      <trkpt lat="43.40967" lon="2.44515">
        <ele>926.446018</ele>
        <time>2021-05-08T10:14:45.330Z</time>
      </trkpt>
      <trkpt lat="43.40976" lon="2.44525">
        <ele>926.993102</ele>
        <time>2021-05-08T10:14:49.274Z</time>
      </trkpt>
      <trkpt lat="43.40981" lon="2.44537">
        <ele>927.471726</ele>
        <time>2021-05-08T10:14:53.294Z</time>
      </trkpt>
      <trkpt lat="43.40988" lon="2.44547">
        <ele>927.936714</ele>
        <time>2021-05-08T10:14:57.279Z</time>
      </trkpt>
      <trkpt lat="43.40997" lon="2.44555">
        <ele>928.443618</ele>
        <time>2021-05-08T10:15:01.303Z</time>
      </trkpt>
      <trkpt lat="43.41005" lon="2.44562">
        <ele>928.893303</ele>
        <time>2021-05-08T10:15:05.286Z</time>
      </trkpt>
      <trkpt lat="43.41013" lon="2.4457">
        <ele>929.334741</ele>
        <time>2021-05-08T10:15:09.306Z</time>
      </trkpt>
      <trkpt lat="43.4102" lon="2.44579">
        <ele>929.822406</ele>
        <time>2021-05-08T10:15:14.289Z</time>
      </trkpt>
      <trkpt lat="43.41029" lon="2.44587">
        <ele>930.306186</ele>
        <time>2021-05-08T10:15:20.286Z</time>
      </trkpt>
      <trkpt lat="43.41036" lon="2.44595">
        <ele>930.744093</ele>
        <time>2021-05-08T10:15:25.276Z</time>
      </trkpt>
      <trkpt lat="43.41044" lon="2.44602">
        <ele>931.171448</ele>
        <time>2021-05-08T10:15:30.286Z</time>
      </trkpt>
      <trkpt lat="43.41053" lon="2.44608">
        <ele>931.647596</ele>
        <time>2021-05-08T10:15:34.289Z</time>
      </trkpt>
      <trkpt lat="43.41061" lon="2.44614">
        <ele>932.087408</ele>
        <time>2021-05-08T10:15:37.280Z</time>
      </trkpt>
      <trkpt lat="43.41073" lon="2.44618">
        <ele>932.796865</ele>
        <time>2021-05-08T10:15:41.282Z</time>
      </trkpt>
      <trkpt lat="43.41082" lon="2.44622">
        <ele>933.425992</ele>
        <time>2021-05-08T10:15:45.310Z</time>
      </trkpt>
      <trkpt lat="43.41091" lon="2.44623">
        <ele>934.002042</ele>
        <time>2021-05-08T10:15:49.319Z</time>
      </trkpt>
      <trkpt lat="43.41101" lon="2.44622">
        <ele>934.607345</ele>
        <time>2021-05-08T10:15:54.291Z</time>
      </trkpt>
      <trkpt lat="43.41112" lon="2.4462">
        <ele>935.330941</ele>
        <time>2021-05-08T10:15:59.286Z</time>
      </trkpt>
      <trkpt lat="43.41121" lon="2.4462">
        <ele>935.903915</ele>
        <time>2021-05-08T10:16:02.279Z</time>
      </trkpt>
      <trkpt lat="43.41132" lon="2.44621">
        <ele>936.585463</ele>
        <time>2021-05-08T10:16:06.308Z</time>
      </trkpt>
      <trkpt lat="43.41142" lon="2.44616">
        <ele>937.230879</ele>
        <time>2021-05-08T10:16:09.282Z</time>
      </trkpt>
      <trkpt lat="43.4115" lon="2.4461">
        <ele>937.811352</ele>
        <time>2021-05-08T10:16:13.293Z</time>
      </trkpt>
      <trkpt lat="43.41158" lon="2.44603">
        <ele>938.424925</ele>
        <time>2021-05-08T10:16:17.277Z</time>
      </trkpt>
      <trkpt lat="43.41168" lon="2.44598">
        <ele>939.056952</ele>
        <time>2021-05-08T10:16:24.290Z</time>
      </trkpt>
      <trkpt lat="43.41178" lon="2.44592">
        <ele>939.782705</ele>
        <time>2021-05-08T10:16:29.284Z</time>
      </trkpt>
      <trkpt lat="43.41187" lon="2.44587">
        <ele>940.372144</ele>
        <time>2021-05-08T10:16:33.311Z</time>
      </trkpt>
      <trkpt lat="43.41196" lon="2.44582">
        <ele>940.978227</ele>
        <time>2021-05-08T10:16:37.277Z</time>
      </trkpt>
      <trkpt lat="43.41205" lon="2.44578">
        <ele>941.585702</ele>
        <time>2021-05-08T10:16:42.318Z</time>
      </trkpt>
      <trkpt lat="43.41213" lon="2.44573">
        <ele>942.150392</ele>
        <time>2021-05-08T10:16:46.319Z</time>
      </trkpt>
      <trkpt lat="43.41223" lon="2.44566">
        <ele>942.82885</ele>
        <time>2021-05-08T10:16:51.280Z</time>
      </trkpt>
      <trkpt lat="43.41233" lon="2.4456">
        <ele>943.543536</ele>
        <time>2021-05-08T10:16:56.282Z</time>
      </trkpt>
      <trkpt lat="43.41243" lon="2.44554">
        <ele>944.28838</ele>
        <time>2021-05-08T10:17:00.320Z</time>
      </trkpt>
      <trkpt lat="43.41254" lon="2.44549">
        <ele>945.050731</ele>
        <time>2021-05-08T10:17:04.323Z</time>
      </trkpt>
      <trkpt lat="43.41263" lon="2.44544">
        <ele>945.686433</ele>
        <time>2021-05-08T10:17:08.289Z</time>
      </trkpt>
      <trkpt lat="43.41272" lon="2.44539">
        <ele>946.360028</ele>
        <time>2021-05-08T10:17:14.314Z</time>
      </trkpt>
      <trkpt lat="43.41281" lon="2.44533">
        <ele>947.050891</ele>
        <time>2021-05-08T10:17:20.307Z</time>
      </trkpt>
      <trkpt lat="43.4129" lon="2.44529">
        <ele>947.684236</ele>
        <time>2021-05-08T10:17:26.289Z</time>
      </trkpt>
      <trkpt lat="43.413" lon="2.44522">
        <ele>948.430682</ele>
        <time>2021-05-08T10:17:32.287Z</time>
      </trkpt>
      <trkpt lat="43.41309" lon="2.44516">
        <ele>949.10318</ele>
        <time>2021-05-08T10:17:36.287Z</time>
      </trkpt>
      <trkpt lat="43.41318" lon="2.4451">
        <ele>949.790005</ele>
        <time>2021-05-08T10:17:40.271Z</time>
      </trkpt>
      <trkpt lat="43.41328" lon="2.44505">
        <ele>950.473481</ele>
        <time>2021-05-08T10:17:44.281Z</time>
      </trkpt>
      <trkpt lat="43.41337" lon="2.44501">
        <ele>951.119473</ele>
        <time>2021-05-08T10:17:47.305Z</time>
      </trkpt>
      <trkpt lat="43.41347" lon="2.44497">
        <ele>951.839178</ele>
        <time>2021-05-08T10:17:51.291Z</time>
      </trkpt>
      <trkpt lat="43.41355" lon="2.44492">
        <ele>952.449092</ele>
        <time>2021-05-08T10:17:55.328Z</time>
      </trkpt>
      <trkpt lat="43.41364" lon="2.44488">
        <ele>953.08416</ele>
        <time>2021-05-08T10:17:59.319Z</time>
      </trkpt>
      <trkpt lat="43.41373" lon="2.44482">
        <ele>953.746696</ele>
        <time>2021-05-08T10:18:03.321Z</time>
      </trkpt>
      <trkpt lat="43.41382" lon="2.44474">
        <ele>954.441859</ele>
        <time>2021-05-08T10:18:08.306Z</time>
      </trkpt>
      <trkpt lat="43.4139" lon="2.44467">
        <ele>955.12609</ele>
        <time>2021-05-08T10:18:13.273Z</time>
      </trkpt>
      <trkpt lat="43.41398" lon="2.44458">
        <ele>955.842616</ele>
        <time>2021-05-08T10:18:18.283Z</time>
      </trkpt>
      <trkpt lat="43.41409" lon="2.44453">
        <ele>956.698105</ele>
        <time>2021-05-08T10:18:23.293Z</time>
      </trkpt>
      <trkpt lat="43.41419" lon="2.44447">
        <ele>957.518198</ele>
        <time>2021-05-08T10:18:28.282Z</time>
      </trkpt>
      <trkpt lat="43.41428" lon="2.4444">
        <ele>958.316076</ele>
        <time>2021-05-08T10:18:33.312Z</time>
      </trkpt>
      <trkpt lat="43.41437" lon="2.44434">
        <ele>959.053223</ele>
        <time>2021-05-08T10:18:38.300Z</time>
      </trkpt>
      <trkpt lat="43.41445" lon="2.44428">
        <ele>959.765872</ele>
        <time>2021-05-08T10:18:42.287Z</time>
      </trkpt>
      <trkpt lat="43.41454" lon="2.44421">
        <ele>960.545067</ele>
        <time>2021-05-08T10:18:46.322Z</time>
      </trkpt>
      <trkpt lat="43.41465" lon="2.44415">
        <ele>961.422747</ele>
        <time>2021-05-08T10:18:50.311Z</time>
      </trkpt>
      <trkpt lat="43.41473" lon="2.44408">
        <ele>962.194409</ele>
        <time>2021-05-08T10:18:54.302Z</time>
      </trkpt>
      <trkpt lat="43.41482" lon="2.444">
        <ele>962.974252</ele>
        <time>2021-05-08T10:18:58.319Z</time>
      </trkpt>
      <trkpt lat="43.41491" lon="2.44392">
        <ele>963.802089</ele>
        <time>2021-05-08T10:19:02.275Z</time>
      </trkpt>
      <trkpt lat="43.415" lon="2.44385">
        <ele>964.613181</ele>
        <time>2021-05-08T10:19:06.289Z</time>
      </trkpt>
      <trkpt lat="43.41509" lon="2.44377">
        <ele>965.370952</ele>
        <time>2021-05-08T10:19:10.281Z</time>
      </trkpt>
      <trkpt lat="43.41518" lon="2.4437">
        <ele>966.167851</ele>
        <time>2021-05-08T10:19:14.283Z</time>
      </trkpt>
      <trkpt lat="43.41526" lon="2.44361">
        <ele>966.960043</ele>
        <time>2021-05-08T10:19:18.292Z</time>
      </trkpt>
      <trkpt lat="43.41533" lon="2.44353">
        <ele>967.671697</ele>
        <time>2021-05-08T10:19:22.320Z</time>
      </trkpt>
      <trkpt lat="43.41542" lon="2.44344">
        <ele>968.505645</ele>
        <time>2021-05-08T10:19:27.277Z</time>
      </trkpt>
      <trkpt lat="43.41549" lon="2.44334">
        <ele>969.288562</ele>
        <time>2021-05-08T10:19:32.281Z</time>
      </trkpt>
      <trkpt lat="43.41557" lon="2.44326">
        <ele>969.822716</ele>
        <time>2021-05-08T10:19:37.286Z</time>
      </trkpt>
      <trkpt lat="43.41565" lon="2.44317">
        <ele>970.427092</ele>
        <time>2021-05-08T10:19:42.277Z</time>
      </trkpt>
      <trkpt lat="43.41573" lon="2.44309">
        <ele>971.040275</ele>
        <time>2021-05-08T10:19:47.277Z</time>
      </trkpt>
      <trkpt lat="43.41583" lon="2.44301">
        <ele>971.690005</ele>
        <time>2021-05-08T10:19:52.281Z</time>
      </trkpt>
      <trkpt lat="43.41591" lon="2.44294">
        <ele>972.223901</ele>
        <time>2021-05-08T10:19:56.313Z</time>
      </trkpt>
      <trkpt lat="43.41599" lon="2.44284">
        <ele>972.870637</ele>
        <time>2021-05-08T10:20:01.271Z</time>
      </trkpt>
      <trkpt lat="43.41605" lon="2.44275">
        <ele>973.399432</ele>
        <time>2021-05-08T10:20:05.279Z</time>
      </trkpt>
      <trkpt lat="43.41614" lon="2.44265">
        <ele>974.051821</ele>
        <time>2021-05-08T10:20:10.322Z</time>
      </trkpt>
      <trkpt lat="43.41621" lon="2.44257">
        <ele>974.585974</ele>
        <time>2021-05-08T10:20:14.314Z</time>
      </trkpt>
      <trkpt lat="43.4163" lon="2.44251">
        <ele>975.169648</ele>
        <time>2021-05-08T10:20:18.290Z</time>
      </trkpt>
      <trkpt lat="43.41639" lon="2.44244">
        <ele>975.75755</ele>
        <time>2021-05-08T10:20:22.283Z</time>
      </trkpt>
      <trkpt lat="43.41647" lon="2.44238">
        <ele>976.312378</ele>
        <time>2021-05-08T10:20:26.282Z</time>
      </trkpt>
      <trkpt lat="43.41656" lon="2.44231">
        <ele>976.915419</ele>
        <time>2021-05-08T10:20:30.290Z</time>
      </trkpt>
      <trkpt lat="43.41665" lon="2.44223">
        <ele>977.547485</ele>
        <time>2021-05-08T10:20:35.296Z</time>
      </trkpt>
      <trkpt lat="43.41673" lon="2.44216">
        <ele>978.086849</ele>
        <time>2021-05-08T10:20:40.279Z</time>
      </trkpt>
      <trkpt lat="43.41683" lon="2.44211">
        <ele>978.687461</ele>
        <time>2021-05-08T10:20:45.280Z</time>
      </trkpt>
      <trkpt lat="43.41692" lon="2.44207">
        <ele>979.212488</ele>
        <time>2021-05-08T10:20:49.279Z</time>
      </trkpt>
      <trkpt lat="43.41702" lon="2.44203">
        <ele>979.776115</ele>
        <time>2021-05-08T10:20:54.278Z</time>
      </trkpt>
      <trkpt lat="43.41712" lon="2.442">
        <ele>979.966327</ele>
        <time>2021-05-08T10:20:58.283Z</time>
      </trkpt>
      <trkpt lat="43.4172" lon="2.44196">
        <ele>980.15373</ele>
        <time>2021-05-08T10:21:02.283Z</time>
      </trkpt>
      <trkpt lat="43.4173" lon="2.44192">
        <ele>980.343201</ele>
        <time>2021-05-08T10:21:06.301Z</time>
      </trkpt>
      <trkpt lat="43.41738" lon="2.44189">
        <ele>980.526516</ele>
        <time>2021-05-08T10:21:10.283Z</time>
      </trkpt>
      <trkpt lat="43.41747" lon="2.44185">
        <ele>980.706713</ele>
        <time>2021-05-08T10:21:14.339Z</time>
      </trkpt>
      <trkpt lat="43.41757" lon="2.44182">
        <ele>980.901668</ele>
        <time>2021-05-08T10:21:18.290Z</time>
      </trkpt>
      <trkpt lat="43.41767" lon="2.44179">
        <ele>981.115802</ele>
        <time>2021-05-08T10:21:23.311Z</time>
      </trkpt>
      <trkpt lat="43.41776" lon="2.44176">
        <ele>981.298102</ele>
        <time>2021-05-08T10:21:27.295Z</time>
      </trkpt>
      <trkpt lat="43.41786" lon="2.44172">
        <ele>981.510531</ele>
        <time>2021-05-08T10:21:32.281Z</time>
      </trkpt>
      <trkpt lat="43.41796" lon="2.44167">
        <ele>981.729102</ele>
        <time>2021-05-08T10:21:37.278Z</time>
      </trkpt>
      <trkpt lat="43.41805" lon="2.44164">
        <ele>981.913348</ele>
        <time>2021-05-08T10:21:41.308Z</time>
      </trkpt>
      <trkpt lat="43.41814" lon="2.4416">
        <ele>982.09751</ele>
        <time>2021-05-08T10:21:45.274Z</time>
      </trkpt>
      <trkpt lat="43.41825" lon="2.44158">
        <ele>982.306815</ele>
        <time>2021-05-08T10:21:50.315Z</time>
      </trkpt>
      <trkpt lat="43.41834" lon="2.44155">
        <ele>982.493562</ele>
        <time>2021-05-08T10:21:54.304Z</time>
      </trkpt>
      <trkpt lat="43.41842" lon="2.44152">
        <ele>982.674657</ele>
        <time>2021-05-08T10:21:58.282Z</time>
      </trkpt>
      <trkpt lat="43.41853" lon="2.44149">
        <ele>982.892666</ele>
        <time>2021-05-08T10:22:03.325Z</time>
      </trkpt>
      <trkpt lat="43.41862" lon="2.44145">
        <ele>983.086672</ele>
        <time>2021-05-08T10:22:07.297Z</time>
      </trkpt>
      <trkpt lat="43.41872" lon="2.44142">
        <ele>983.277315</ele>
        <time>2021-05-08T10:22:12.299Z</time>
      </trkpt>
      <trkpt lat="43.41882" lon="2.4414">
        <ele>984.570807</ele>
        <time>2021-05-08T10:22:17.294Z</time>
      </trkpt>
      <trkpt lat="43.41892" lon="2.4414">
        <ele>985.964776</ele>
        <time>2021-05-08T10:22:21.310Z</time>
      </trkpt>
      <trkpt lat="43.41903" lon="2.44141">
        <ele>987.510953</ele>
        <time>2021-05-08T10:22:26.274Z</time>
      </trkpt>
      <trkpt lat="43.41913" lon="2.44145">
        <ele>989.021967</ele>
        <time>2021-05-08T10:22:31.300Z</time>
      </trkpt>
      <trkpt lat="43.41922" lon="2.44148">
        <ele>990.393832</ele>
        <time>2021-05-08T10:22:35.310Z</time>
      </trkpt>
      <trkpt lat="43.41932" lon="2.44151">
        <ele>991.831918</ele>
        <time>2021-05-08T10:22:40.282Z</time>
      </trkpt>
      <trkpt lat="43.41942" lon="2.44154">
        <ele>993.31698</ele>
        <time>2021-05-08T10:22:45.287Z</time>
      </trkpt>
      <trkpt lat="43.41951" lon="2.44156">
        <ele>994.691316</ele>
        <time>2021-05-08T10:22:49.300Z</time>
      </trkpt>
      <trkpt lat="43.41961" lon="2.44158">
        <ele>996.221421</ele>
        <time>2021-05-08T10:22:54.292Z</time>
      </trkpt>
      <trkpt lat="43.41971" lon="2.44165">
        <ele>997.787942</ele>
        <time>2021-05-08T10:22:59.287Z</time>
      </trkpt>
      <trkpt lat="43.41977" lon="2.44174">
        <ele>999.126149</ele>
        <time>2021-05-08T10:23:03.282Z</time>
      </trkpt>
      <trkpt lat="43.41979" lon="2.44188">
        <ele>1000.632517</ele>
        <time>2021-05-08T10:23:07.284Z</time>
      </trkpt>
      <trkpt lat="43.4198" lon="2.44203">
        <ele>1002.212489</ele>
        <time>2021-05-08T10:23:12.284Z</time>
      </trkpt>
      <trkpt lat="43.41979" lon="2.44217">
        <ele>1003.6164</ele>
        <time>2021-05-08T10:23:17.314Z</time>
      </trkpt>
      <trkpt lat="43.41978" lon="2.44229">
        <ele>1004.950751</ele>
        <time>2021-05-08T10:23:22.322Z</time>
      </trkpt>
      <trkpt lat="43.41976" lon="2.44244">
        <ele>1006.55617</ele>
        <time>2021-05-08T10:23:27.284Z</time>
      </trkpt>
      <trkpt lat="43.41973" lon="2.44256">
        <ele>1007.910406</ele>
        <time>2021-05-08T10:23:31.288Z</time>
      </trkpt>
      <trkpt lat="43.41969" lon="2.44269">
        <ele>1009.383041</ele>
        <time>2021-05-08T10:23:36.281Z</time>
      </trkpt>
      <trkpt lat="43.41964" lon="2.44283">
        <ele>1010.310136</ele>
        <time>2021-05-08T10:23:41.293Z</time>
      </trkpt>
      <trkpt lat="43.4196" lon="2.44296">
        <ele>1011.16037</ele>
        <time>2021-05-08T10:23:46.332Z</time>
      </trkpt>
      <trkpt lat="43.41956" lon="2.44309">
        <ele>1011.962893</ele>
        <time>2021-05-08T10:23:51.288Z</time>
      </trkpt>
      <trkpt lat="43.41952" lon="2.44322">
        <ele>1012.817833</ele>
        <time>2021-05-08T10:23:56.278Z</time>
      </trkpt>
      <trkpt lat="43.41948" lon="2.44334">
        <ele>1013.574857</ele>
        <time>2021-05-08T10:24:01.289Z</time>
      </trkpt>
      <trkpt lat="43.41943" lon="2.44346">
        <ele>1014.415208</ele>
        <time>2021-05-08T10:24:06.288Z</time>
      </trkpt>
      <trkpt lat="43.41939" lon="2.44357">
        <ele>1015.15141</ele>
        <time>2021-05-08T10:24:10.288Z</time>
      </trkpt>
      <trkpt lat="43.41935" lon="2.4437">
        <ele>1015.98133</ele>
        <time>2021-05-08T10:24:15.290Z</time>
      </trkpt>
      <trkpt lat="43.41931" lon="2.44381">
        <ele>1016.718719</ele>
        <time>2021-05-08T10:24:20.289Z</time>
      </trkpt>
      <trkpt lat="43.41927" lon="2.44392">
        <ele>1017.46151</ele>
        <time>2021-05-08T10:24:25.288Z</time>
      </trkpt>
      <trkpt lat="43.41924" lon="2.44405">
        <ele>1018.279378</ele>
        <time>2021-05-08T10:24:30.281Z</time>
      </trkpt>
      <trkpt lat="43.41921" lon="2.44419">
        <ele>1019.102504</ele>
        <time>2021-05-08T10:24:35.281Z</time>
      </trkpt>
      <trkpt lat="43.41919" lon="2.44431">
        <ele>1019.856788</ele>
        <time>2021-05-08T10:24:39.285Z</time>
      </trkpt>
      <trkpt lat="43.41916" lon="2.44445">
        <ele>1020.70113</ele>
        <time>2021-05-08T10:24:43.287Z</time>
      </trkpt>
      <trkpt lat="43.41914" lon="2.44459">
        <ele>1021.584215</ele>
        <time>2021-05-08T10:24:47.323Z</time>
      </trkpt>
      <trkpt lat="43.41912" lon="2.44472">
        <ele>1022.365668</ele>
        <time>2021-05-08T10:24:51.308Z</time>
      </trkpt>
      <trkpt lat="43.4191" lon="2.44486">
        <ele>1023.197516</ele>
        <time>2021-05-08T10:24:55.298Z</time>
      </trkpt>
      <trkpt lat="43.41908" lon="2.445">
        <ele>1024.051629</ele>
        <time>2021-05-08T10:25:00.305Z</time>
      </trkpt>
      <trkpt lat="43.41904" lon="2.44515">
        <ele>1024.598842</ele>
        <time>2021-05-08T10:25:05.321Z</time>
      </trkpt>
      <trkpt lat="43.41902" lon="2.44529">
        <ele>1025.111431</ele>
        <time>2021-05-08T10:25:10.288Z</time>
      </trkpt>
      <trkpt lat="43.419" lon="2.44541">
        <ele>1025.540427</ele>
        <time>2021-05-08T10:25:14.288Z</time>
      </trkpt>
      <trkpt lat="43.419" lon="2.44557">
        <ele>1026.083712</ele>
        <time>2021-05-08T10:25:19.280Z</time>
      </trkpt>
      <trkpt lat="43.41899" lon="2.44573">
        <ele>1026.654976</ele>
        <time>2021-05-08T10:25:23.314Z</time>
      </trkpt>
      <trkpt lat="43.41896" lon="2.44589">
        <ele>1027.211163</ele>
        <time>2021-05-08T10:25:27.290Z</time>
      </trkpt>
      <trkpt lat="43.41895" lon="2.44604">
        <ele>1027.717819</ele>
        <time>2021-05-08T10:25:31.285Z</time>
      </trkpt>
      <trkpt lat="43.41893" lon="2.44619">
        <ele>1028.24809</ele>
        <time>2021-05-08T10:25:35.286Z</time>
      </trkpt>
      <trkpt lat="43.4189" lon="2.44634">
        <ele>1028.78857</ele>
        <time>2021-05-08T10:25:39.318Z</time>
      </trkpt>
      <trkpt lat="43.41888" lon="2.44648">
        <ele>1029.301017</ele>
        <time>2021-05-08T10:25:43.280Z</time>
      </trkpt>
      <trkpt lat="43.41887" lon="2.44663">
        <ele>1029.801589</ele>
        <time>2021-05-08T10:25:47.275Z</time>
      </trkpt>
      <trkpt lat="43.41888" lon="2.44678">
        <ele>1030.318056</ele>
        <time>2021-05-08T10:25:51.282Z</time>
      </trkpt>
      <trkpt lat="43.41889" lon="2.44694">
        <ele>1030.877217</ele>
        <time>2021-05-08T10:25:55.314Z</time>
      </trkpt>
      <trkpt lat="43.41891" lon="2.44708">
        <ele>1031.393089</ele>
        <time>2021-05-08T10:25:59.309Z</time>
      </trkpt>
      <trkpt lat="43.41895" lon="2.44721">
        <ele>1031.882277</ele>
        <time>2021-05-08T10:26:03.280Z</time>
      </trkpt>
      <trkpt lat="43.419" lon="2.44733">
        <ele>1032.37876</ele>
        <time>2021-05-08T10:26:07.319Z</time>
      </trkpt>
      <trkpt lat="43.41907" lon="2.44744">
        <ele>1033.115818</ele>
        <time>2021-05-08T10:26:11.321Z</time>
      </trkpt>
      <trkpt lat="43.41914" lon="2.44752">
        <ele>1034.217383</ele>
        <time>2021-05-08T10:26:15.307Z</time>
      </trkpt>
      <trkpt lat="43.41922" lon="2.44762">
        <ele>1035.453219</ele>
        <time>2021-05-08T10:26:20.288Z</time>
      </trkpt>
      <trkpt lat="43.41929" lon="2.44769">
        <ele>1036.506939</ele>
        <time>2021-05-08T10:26:24.322Z</time>
      </trkpt>
      <trkpt lat="43.41937" lon="2.4478">
        <ele>1037.759732</ele>
        <time>2021-05-08T10:26:29.285Z</time>
      </trkpt>
      <trkpt lat="43.41944" lon="2.44791">
        <ele>1038.950385</ele>
        <time>2021-05-08T10:26:34.290Z</time>
      </trkpt>
      <trkpt lat="43.4195" lon="2.448">
        <ele>1040.025025</ele>
        <time>2021-05-08T10:26:39.278Z</time>
      </trkpt>
      <trkpt lat="43.41957" lon="2.44809">
        <ele>1041.115861</ele>
        <time>2021-05-08T10:26:44.309Z</time>
      </trkpt>
      <trkpt lat="43.41962" lon="2.44819">
        <ele>1042.202012</ele>
        <time>2021-05-08T10:26:49.273Z</time>
      </trkpt>
      <trkpt lat="43.41969" lon="2.44829">
        <ele>1043.306025</ele>
        <time>2021-05-08T10:26:54.278Z</time>
      </trkpt>
      <trkpt lat="43.41976" lon="2.44839">
        <ele>1044.530424</ele>
        <time>2021-05-08T10:27:00.292Z</time>
      </trkpt>
      <trkpt lat="43.41983" lon="2.44847">
        <ele>1045.594598</ele>
        <time>2021-05-08T10:27:05.289Z</time>
      </trkpt>
      <trkpt lat="43.41989" lon="2.44856">
        <ele>1046.633038</ele>
        <time>2021-05-08T10:27:10.289Z</time>
      </trkpt>
      <trkpt lat="43.41995" lon="2.44868">
        <ele>1047.828052</ele>
        <time>2021-05-08T10:27:15.280Z</time>
      </trkpt>
      <trkpt lat="43.42002" lon="2.44878">
        <ele>1048.937177</ele>
        <time>2021-05-08T10:27:19.309Z</time>
      </trkpt>
      <trkpt lat="43.42007" lon="2.44888">
        <ele>1049.99574</ele>
        <time>2021-05-08T10:27:23.284Z</time>
      </trkpt>
      <trkpt lat="43.4201" lon="2.449">
        <ele>1051.063164</ele>
        <time>2021-05-08T10:27:27.312Z</time>
      </trkpt>
      <trkpt lat="43.42011" lon="2.44913">
        <ele>1052.194103</ele>
        <time>2021-05-08T10:27:31.303Z</time>
      </trkpt>
      <trkpt lat="43.4201" lon="2.44926">
        <ele>1053.274451</ele>
        <time>2021-05-08T10:27:35.277Z</time>
      </trkpt>
      <trkpt lat="43.4201" lon="2.44941">
        <ele>1054.106885</ele>
        <time>2021-05-08T10:27:40.281Z</time>
      </trkpt>
      <trkpt lat="43.42012" lon="2.44954">
        <ele>1054.754798</ele>
        <time>2021-05-08T10:27:45.307Z</time>
      </trkpt>
      <trkpt lat="43.42013" lon="2.44967">
        <ele>1055.349989</ele>
        <time>2021-05-08T10:27:50.290Z</time>
      </trkpt>
      <trkpt lat="43.42016" lon="2.44981">
        <ele>1056.034489</ele>
        <time>2021-05-08T10:27:55.282Z</time>
      </trkpt>
      <trkpt lat="43.4202" lon="2.44994">
        <ele>1056.720865</ele>
        <time>2021-05-08T10:28:00.304Z</time>
      </trkpt>
      <trkpt lat="43.42026" lon="2.45005">
        <ele>1057.351053</ele>
        <time>2021-05-08T10:28:04.274Z</time>
      </trkpt>
      <trkpt lat="43.42033" lon="2.45015">
        <ele>1057.984034</ele>
        <time>2021-05-08T10:28:08.285Z</time>
      </trkpt>
      <trkpt lat="43.42041" lon="2.45023">
        <ele>1058.624192</ele>
        <time>2021-05-08T10:28:13.288Z</time>
      </trkpt>
      <trkpt lat="43.4205" lon="2.4503">
        <ele>1059.299364</ele>
        <time>2021-05-08T10:28:18.301Z</time>
      </trkpt>
      <trkpt lat="43.42057" lon="2.45038">
        <ele>1059.926893</ele>
        <time>2021-05-08T10:28:23.308Z</time>
      </trkpt>
      <trkpt lat="43.42068" lon="2.45043">
        <ele>1060.638823</ele>
        <time>2021-05-08T10:28:28.276Z</time>
      </trkpt>
      <trkpt lat="43.42077" lon="2.45047">
        <ele>1061.278248</ele>
        <time>2021-05-08T10:28:32.288Z</time>
      </trkpt>
      <trkpt lat="43.42085" lon="2.45054">
        <ele>1061.90681</ele>
        <time>2021-05-08T10:28:36.273Z</time>
      </trkpt>
      <trkpt lat="43.42094" lon="2.4506">
        <ele>1062.521827</ele>
        <time>2021-05-08T10:28:40.294Z</time>
      </trkpt>
      <trkpt lat="43.42101" lon="2.4507">
        <ele>1063.205702</ele>
        <time>2021-05-08T10:28:46.293Z</time>
      </trkpt>
      <trkpt lat="43.42105" lon="2.45083">
        <ele>1063.864585</ele>
        <time>2021-05-08T10:28:51.272Z</time>
      </trkpt>
      <trkpt lat="43.42107" lon="2.45097">
        <ele>1064.505357</ele>
        <time>2021-05-08T10:28:56.313Z</time>
      </trkpt>
      <trkpt lat="43.4211" lon="2.45109">
        <ele>1065.129275</ele>
        <time>2021-05-08T10:29:01.289Z</time>
      </trkpt>
      <trkpt lat="43.42114" lon="2.45121">
        <ele>1065.885529</ele>
        <time>2021-05-08T10:29:06.299Z</time>
      </trkpt>
      <trkpt lat="43.42119" lon="2.45132">
        <ele>1066.624951</ele>
        <time>2021-05-08T10:29:10.295Z</time>
      </trkpt>
      <trkpt lat="43.42125" lon="2.45142">
        <ele>1067.382541</ele>
        <time>2021-05-08T10:29:14.282Z</time>
      </trkpt>
      <trkpt lat="43.42132" lon="2.45153">
        <ele>1068.197445</ele>
        <time>2021-05-08T10:29:18.283Z</time>
      </trkpt>
      <trkpt lat="43.4214" lon="2.45162">
        <ele>1069.01385</ele>
        <time>2021-05-08T10:29:22.327Z</time>
      </trkpt>
      <trkpt lat="43.42148" lon="2.45171">
        <ele>1069.848449</ele>
        <time>2021-05-08T10:29:27.285Z</time>
      </trkpt>
      <trkpt lat="43.42157" lon="2.45178">
        <ele>1070.65594</ele>
        <time>2021-05-08T10:29:33.289Z</time>
      </trkpt>
      <trkpt lat="43.42166" lon="2.45182">
        <ele>1071.416299</ele>
        <time>2021-05-08T10:29:38.291Z</time>
      </trkpt>
      <trkpt lat="43.42175" lon="2.45185">
        <ele>1072.153843</ele>
        <time>2021-05-08T10:29:43.290Z</time>
      </trkpt>
      <trkpt lat="43.42185" lon="2.45188">
        <ele>1072.923391</ele>
        <time>2021-05-08T10:29:48.288Z</time>
      </trkpt>
      <trkpt lat="43.42194" lon="2.45189">
        <ele>1073.640191</ele>
        <time>2021-05-08T10:29:52.286Z</time>
      </trkpt>
      <trkpt lat="43.42204" lon="2.45189">
        <ele>1074.425772</ele>
        <time>2021-05-08T10:29:57.293Z</time>
      </trkpt>
      <trkpt lat="43.42214" lon="2.45191">
        <ele>1075.230008</ele>
        <time>2021-05-08T10:30:02.281Z</time>
      </trkpt>
      <trkpt lat="43.42223" lon="2.45193">
        <ele>1075.980648</ele>
        <time>2021-05-08T10:30:07.279Z</time>
      </trkpt>
      <trkpt lat="43.42233" lon="2.45194">
        <ele>1076.744872</ele>
        <time>2021-05-08T10:30:12.285Z</time>
      </trkpt>
      <trkpt lat="43.42244" lon="2.45197">
        <ele>1077.630295</ele>
        <time>2021-05-08T10:30:17.306Z</time>
      </trkpt>
      <trkpt lat="43.42254" lon="2.452">
        <ele>1078.474773</ele>
        <time>2021-05-08T10:30:21.312Z</time>
      </trkpt>
      <trkpt lat="43.42263" lon="2.45206">
        <ele>1079.239124</ele>
        <time>2021-05-08T10:30:25.282Z</time>
      </trkpt>
      <trkpt lat="43.42272" lon="2.45211">
        <ele>1080.56546</ele>
        <time>2021-05-08T10:30:30.283Z</time>
      </trkpt>
      <trkpt lat="43.42281" lon="2.45217">
        <ele>1082.211243</ele>
        <time>2021-05-08T10:30:35.279Z</time>
      </trkpt>
      <trkpt lat="43.4229" lon="2.45224">
        <ele>1083.749319</ele>
        <time>2021-05-08T10:30:41.285Z</time>
      </trkpt>
      <trkpt lat="43.42299" lon="2.4523">
        <ele>1085.251143</ele>
        <time>2021-05-08T10:30:48.281Z</time>
      </trkpt>
      <trkpt lat="43.42307" lon="2.45237">
        <ele>1086.752646</ele>
        <time>2021-05-08T10:30:54.290Z</time>
      </trkpt>
      <trkpt lat="43.42316" lon="2.45243">
        <ele>1088.385029</ele>
        <time>2021-05-08T10:31:00.281Z</time>
      </trkpt>
      <trkpt lat="43.42325" lon="2.45251">
        <ele>1090.020979</ele>
        <time>2021-05-08T10:31:06.280Z</time>
      </trkpt>
      <trkpt lat="43.42332" lon="2.45261">
        <ele>1091.690717</ele>
        <time>2021-05-08T10:31:10.283Z</time>
      </trkpt>
      <trkpt lat="43.42336" lon="2.45273">
        <ele>1093.141339</ele>
        <time>2021-05-08T10:31:14.291Z</time>
      </trkpt>
      <trkpt lat="43.42337" lon="2.45286">
        <ele>1094.647304</ele>
        <time>2021-05-08T10:31:19.290Z</time>
      </trkpt>
      <trkpt lat="43.42336" lon="2.453">
        <ele>1096.23616</ele>
        <time>2021-05-08T10:31:25.294Z</time>
      </trkpt>
      <trkpt lat="43.42337" lon="2.45312">
        <ele>1097.653297</ele>
        <time>2021-05-08T10:31:31.296Z</time>
      </trkpt>
      <trkpt lat="43.42338" lon="2.45327">
        <ele>1099.299807</ele>
        <time>2021-05-08T10:31:36.310Z</time>
      </trkpt>
      <trkpt lat="43.42339" lon="2.45342">
        <ele>1101.027484</ele>
        <time>2021-05-08T10:31:41.275Z</time>
      </trkpt>
      <trkpt lat="43.42345" lon="2.45354">
        <ele>1102.638777</ele>
        <time>2021-05-08T10:31:47.282Z</time>
      </trkpt>
      <trkpt lat="43.4235" lon="2.45364">
        <ele>1104.115978</ele>
        <time>2021-05-08T10:31:51.291Z</time>
      </trkpt>
      <trkpt lat="43.42358" lon="2.45375">
        <ele>1105.823543</ele>
        <time>2021-05-08T10:31:56.287Z</time>
      </trkpt>
      <trkpt lat="43.42365" lon="2.45385">
        <ele>1107.405118</ele>
        <time>2021-05-08T10:32:01.292Z</time>
      </trkpt>
      <trkpt lat="43.42367" lon="2.45399">
        <ele>1108.006284</ele>
        <time>2021-05-08T10:32:07.281Z</time>
      </trkpt>
      <trkpt lat="43.4236" lon="2.4541">
        <ele>1108.333612</ele>
        <time>2021-05-08T10:32:12.274Z</time>
      </trkpt>
      <trkpt lat="43.42351" lon="2.45414">
        <ele>1108.650631</ele>
        <time>2021-05-08T10:32:18.286Z</time>
      </trkpt>
      <trkpt lat="43.42343" lon="2.45421">
        <ele>1108.966576</ele>
        <time>2021-05-08T10:32:26.310Z</time>
      </trkpt>
      <trkpt lat="43.42334" lon="2.45425">
        <ele>1109.262768</ele>
        <time>2021-05-08T10:32:34.280Z</time>
      </trkpt>
      <trkpt lat="43.42325" lon="2.45431">
        <ele>1109.5621</ele>
        <time>2021-05-08T10:32:41.305Z</time>
      </trkpt>
      <trkpt lat="43.42316" lon="2.45436">
        <ele>1109.895813</ele>
        <time>2021-05-08T10:32:47.316Z</time>
      </trkpt>
      <trkpt lat="43.42306" lon="2.45439">
        <ele>1110.201209</ele>
        <time>2021-05-08T10:32:52.274Z</time>
      </trkpt>
      <trkpt lat="43.42297" lon="2.45444">
        <ele>1110.51373</ele>
        <time>2021-05-08T10:32:57.287Z</time>
      </trkpt>
      <trkpt lat="43.42288" lon="2.45447">
        <ele>1110.804354</ele>
        <time>2021-05-08T10:33:02.277Z</time>
      </trkpt>
      <trkpt lat="43.42279" lon="2.45454">
        <ele>1111.131212</ele>
        <time>2021-05-08T10:33:08.291Z</time>
      </trkpt>
      <trkpt lat="43.42271" lon="2.45462">
        <ele>1111.45738</ele>
        <time>2021-05-08T10:33:14.278Z</time>
      </trkpt>
      <trkpt lat="43.42263" lon="2.45468">
        <ele>1111.749713</ele>
        <time>2021-05-08T10:33:19.289Z</time>
      </trkpt>
      <trkpt lat="43.42255" lon="2.45474">
        <ele>1112.044512</ele>
        <time>2021-05-08T10:33:24.298Z</time>
      </trkpt>
      <trkpt lat="43.42246" lon="2.45482">
        <ele>1112.370193</ele>
        <time>2021-05-08T10:33:29.278Z</time>
      </trkpt>
      <trkpt lat="43.4224" lon="2.45491">
        <ele>1112.663913</ele>
        <time>2021-05-08T10:33:34.288Z</time>
      </trkpt>
      <trkpt lat="43.42232" lon="2.45501">
        <ele>1113.002169</ele>
        <time>2021-05-08T10:33:39.287Z</time>
      </trkpt>
      <trkpt lat="43.42225" lon="2.45509">
        <ele>1113.320748</ele>
        <time>2021-05-08T10:33:44.290Z</time>
      </trkpt>
      <trkpt lat="43.42217" lon="2.45519">
        <ele>1113.866736</ele>
        <time>2021-05-08T10:33:49.289Z</time>
      </trkpt>
      <trkpt lat="43.42209" lon="2.45528">
        <ele>1114.686927</ele>
        <time>2021-05-08T10:33:54.284Z</time>
      </trkpt>
      <trkpt lat="43.42201" lon="2.45537">
        <ele>1115.460259</ele>
        <time>2021-05-08T10:33:59.270Z</time>
      </trkpt>
      <trkpt lat="43.42194" lon="2.45547">
        <ele>1116.268837</ele>
        <time>2021-05-08T10:34:04.283Z</time>
      </trkpt>
      <trkpt lat="43.42187" lon="2.45557">
        <ele>1117.101815</ele>
        <time>2021-05-08T10:34:09.292Z</time>
      </trkpt>
      <trkpt lat="43.4218" lon="2.45569">
        <ele>1117.948705</ele>
        <time>2021-05-08T10:34:14.291Z</time>
      </trkpt>
      <trkpt lat="43.42174" lon="2.4558">
        <ele>1118.708427</ele>
        <time>2021-05-08T10:34:19.282Z</time>
      </trkpt>
      <trkpt lat="43.42169" lon="2.45592">
        <ele>1119.46256</ele>
        <time>2021-05-08T10:34:25.285Z</time>
      </trkpt>
      <trkpt lat="43.42166" lon="2.45604">
        <ele>1120.180859</ele>
        <time>2021-05-08T10:34:31.282Z</time>
      </trkpt>
      <trkpt lat="43.42164" lon="2.45617">
        <ele>1120.969535</ele>
        <time>2021-05-08T10:34:36.289Z</time>
      </trkpt>
      <trkpt lat="43.42159" lon="2.4563">
        <ele>1121.75697</ele>
        <time>2021-05-08T10:34:41.283Z</time>
      </trkpt>
      <trkpt lat="43.42156" lon="2.45643">
        <ele>1122.5492</ele>
        <time>2021-05-08T10:34:47.283Z</time>
      </trkpt>
      <trkpt lat="43.42152" lon="2.45654">
        <ele>1123.256735</ele>
        <time>2021-05-08T10:34:52.279Z</time>
      </trkpt>
      <trkpt lat="43.42149" lon="2.45668">
        <ele>1124.059866</ele>
        <time>2021-05-08T10:34:57.282Z</time>
      </trkpt>
      <trkpt lat="43.42143" lon="2.45679">
        <ele>1124.836533</ele>
        <time>2021-05-08T10:35:02.291Z</time>
      </trkpt>
      <trkpt lat="43.42138" lon="2.4569">
        <ele>1125.587102</ele>
        <time>2021-05-08T10:35:07.286Z</time>
      </trkpt>
      <trkpt lat="43.42134" lon="2.45702">
        <ele>1126.308891</ele>
        <time>2021-05-08T10:35:12.303Z</time>
      </trkpt>
      <trkpt lat="43.42131" lon="2.45714">
        <ele>1127.010701</ele>
        <time>2021-05-08T10:35:17.299Z</time>
      </trkpt>
      <trkpt lat="43.42128" lon="2.45728">
        <ele>1128.011856</ele>
        <time>2021-05-08T10:35:22.294Z</time>
      </trkpt>
      <trkpt lat="43.42126" lon="2.45741">
        <ele>1129.156152</ele>
        <time>2021-05-08T10:35:27.283Z</time>
      </trkpt>
      <trkpt lat="43.42125" lon="2.45757">
        <ele>1130.414768</ele>
        <time>2021-05-08T10:35:32.314Z</time>
      </trkpt>
      <trkpt lat="43.42127" lon="2.45771">
        <ele>1131.585316</ele>
        <time>2021-05-08T10:35:37.284Z</time>
      </trkpt>
      <trkpt lat="43.42129" lon="2.45783">
        <ele>1132.632725</ele>
        <time>2021-05-08T10:35:42.316Z</time>
      </trkpt>
      <trkpt lat="43.4213" lon="2.45797">
        <ele>1133.822654</ele>
        <time>2021-05-08T10:35:48.277Z</time>
      </trkpt>
      <trkpt lat="43.42134" lon="2.4581">
        <ele>1134.896317</ele>
        <time>2021-05-08T10:35:53.290Z</time>
      </trkpt>
      <trkpt lat="43.42137" lon="2.45822">
        <ele>1135.950498</ele>
        <time>2021-05-08T10:35:59.315Z</time>
      </trkpt>
      <trkpt lat="43.42141" lon="2.45836">
        <ele>1137.261651</ele>
        <time>2021-05-08T10:36:06.285Z</time>
      </trkpt>
      <trkpt lat="43.42144" lon="2.45849">
        <ele>1138.402247</ele>
        <time>2021-05-08T10:36:11.288Z</time>
      </trkpt>
      <trkpt lat="43.42145" lon="2.45862">
        <ele>1139.438122</ele>
        <time>2021-05-08T10:36:15.287Z</time>
      </trkpt>
      <trkpt lat="43.42145" lon="2.45875">
        <ele>1140.493685</ele>
        <time>2021-05-08T10:36:19.323Z</time>
      </trkpt>
      <trkpt lat="43.42147" lon="2.45888">
        <ele>1141.603624</ele>
        <time>2021-05-08T10:36:24.284Z</time>
      </trkpt>
      <trkpt lat="43.42145" lon="2.45901">
        <ele>1142.68293</ele>
        <time>2021-05-08T10:36:29.318Z</time>
      </trkpt>
      <trkpt lat="43.42142" lon="2.45913">
        <ele>1143.738386</ele>
        <time>2021-05-08T10:36:34.306Z</time>
      </trkpt>
      <trkpt lat="43.42137" lon="2.45926">
        <ele>1144.93889</ele>
        <time>2021-05-08T10:36:39.290Z</time>
      </trkpt>
      <trkpt lat="43.42132" lon="2.45938">
        <ele>1146.071242</ele>
        <time>2021-05-08T10:36:44.307Z</time>
      </trkpt>
      <trkpt lat="43.42127" lon="2.4595">
        <ele>1147.21214</ele>
        <time>2021-05-08T10:36:49.307Z</time>
      </trkpt>
      <trkpt lat="43.42123" lon="2.45964">
        <ele>1148.095611</ele>
        <time>2021-05-08T10:36:54.285Z</time>
      </trkpt>
      <trkpt lat="43.42119" lon="2.45976">
        <ele>1148.482419</ele>
        <time>2021-05-08T10:36:59.273Z</time>
      </trkpt>
      <trkpt lat="43.42114" lon="2.45987">
        <ele>1148.839122</ele>
        <time>2021-05-08T10:37:04.275Z</time>
      </trkpt>
      <trkpt lat="43.42109" lon="2.45999">
        <ele>1149.229533</ele>
        <time>2021-05-08T10:37:09.282Z</time>
      </trkpt>
      <trkpt lat="43.42105" lon="2.46011">
        <ele>1149.617538</ele>
        <time>2021-05-08T10:37:14.291Z</time>
      </trkpt>
      <trkpt lat="43.42101" lon="2.46023">
        <ele>1149.983972</ele>
        <time>2021-05-08T10:37:19.325Z</time>
      </trkpt>
      <trkpt lat="43.42094" lon="2.46032">
        <ele>1150.333027</ele>
        <time>2021-05-08T10:37:24.291Z</time>
      </trkpt>
      <trkpt lat="43.42087" lon="2.46041">
        <ele>1150.704171</ele>
        <time>2021-05-08T10:37:29.291Z</time>
      </trkpt>
      <trkpt lat="43.4208" lon="2.4605">
        <ele>1151.077501</ele>
        <time>2021-05-08T10:37:34.281Z</time>
      </trkpt>
      <trkpt lat="43.42074" lon="2.46062">
        <ele>1151.480497</ele>
        <time>2021-05-08T10:37:39.283Z</time>
      </trkpt>
      <trkpt lat="43.42067" lon="2.46073">
        <ele>1151.900967</ele>
        <time>2021-05-08T10:37:44.313Z</time>
      </trkpt>
      <trkpt lat="43.4206" lon="2.46081">
        <ele>1152.275032</ele>
        <time>2021-05-08T10:37:49.274Z</time>
      </trkpt>
      <trkpt lat="43.42051" lon="2.46087">
        <ele>1152.64011</ele>
        <time>2021-05-08T10:37:54.283Z</time>
      </trkpt>
      <trkpt lat="43.42041" lon="2.46087">
        <ele>1153.043193</ele>
        <time>2021-05-08T10:37:59.303Z</time>
      </trkpt>
      <trkpt lat="43.42031" lon="2.46087">
        <ele>1153.419263</ele>
        <time>2021-05-08T10:38:04.279Z</time>
      </trkpt>
      <trkpt lat="43.42021" lon="2.46085">
        <ele>1153.810759</ele>
        <time>2021-05-08T10:38:09.287Z</time>
      </trkpt>
      <trkpt lat="43.42011" lon="2.46083">
        <ele>1154.214163</ele>
        <time>2021-05-08T10:38:14.281Z</time>
      </trkpt>
      <trkpt lat="43.42" lon="2.46084">
        <ele>1154.624106</ele>
        <time>2021-05-08T10:38:19.284Z</time>
      </trkpt>
      <trkpt lat="43.41989" lon="2.46084">
        <ele>1155.055047</ele>
        <time>2021-05-08T10:38:24.281Z</time>
      </trkpt>
      <trkpt lat="43.41979" lon="2.46085">
        <ele>1155.466794</ele>
        <time>2021-05-08T10:38:29.280Z</time>
      </trkpt>
      <trkpt lat="43.41969" lon="2.46085">
        <ele>1155.865827</ele>
        <time>2021-05-08T10:38:34.279Z</time>
      </trkpt>
      <trkpt lat="43.41959" lon="2.46084">
        <ele>1156.27716</ele>
        <time>2021-05-08T10:38:39.274Z</time>
      </trkpt>
      <trkpt lat="43.41949" lon="2.46083">
        <ele>1156.707452</ele>
        <time>2021-05-08T10:38:44.284Z</time>
      </trkpt>
      <trkpt lat="43.41939" lon="2.46081">
        <ele>1157.087906</ele>
        <time>2021-05-08T10:38:49.280Z</time>
      </trkpt>
      <trkpt lat="43.4193" lon="2.46084">
        <ele>1157.470151</ele>
        <time>2021-05-08T10:38:54.290Z</time>
      </trkpt>
      <trkpt lat="43.41921" lon="2.46086">
        <ele>1157.847205</ele>
        <time>2021-05-08T10:38:58.272Z</time>
      </trkpt>
      <trkpt lat="43.4191" lon="2.46089">
        <ele>1158.300167</ele>
        <time>2021-05-08T10:39:03.284Z</time>
      </trkpt>
      <trkpt lat="43.41901" lon="2.46093">
        <ele>1158.689435</ele>
        <time>2021-05-08T10:39:07.327Z</time>
      </trkpt>
      <trkpt lat="43.41893" lon="2.46099">
        <ele>1159.081613</ele>
        <time>2021-05-08T10:39:11.288Z</time>
      </trkpt>
      <trkpt lat="43.41885" lon="2.46106">
        <ele>1159.463977</ele>
        <time>2021-05-08T10:39:15.281Z</time>
      </trkpt>
      <trkpt lat="43.41878" lon="2.46118">
        <ele>1159.914681</ele>
        <time>2021-05-08T10:39:20.296Z</time>
      </trkpt>
      <trkpt lat="43.41876" lon="2.46132">
        <ele>1160.332457</ele>
        <time>2021-05-08T10:39:25.286Z</time>
      </trkpt>
      <trkpt lat="43.41879" lon="2.46147">
        <ele>1160.788342</ele>
        <time>2021-05-08T10:39:30.288Z</time>
      </trkpt>
      <trkpt lat="43.4188" lon="2.46161">
        <ele>1161.212541</ele>
        <time>2021-05-08T10:39:35.318Z</time>
      </trkpt>
      <trkpt lat="43.41881" lon="2.46176">
        <ele>1161.647582</ele>
        <time>2021-05-08T10:39:40.284Z</time>
      </trkpt>
      <trkpt lat="43.41882" lon="2.46191">
        <ele>1162.087821</ele>
        <time>2021-05-08T10:39:45.310Z</time>
      </trkpt>
      <trkpt lat="43.41885" lon="2.46204">
        <ele>1162.710359</ele>
        <time>2021-05-08T10:39:50.311Z</time>
      </trkpt>
      <trkpt lat="43.41887" lon="2.46217">
        <ele>1163.429651</ele>
        <time>2021-05-08T10:39:55.323Z</time>
      </trkpt>
      <trkpt lat="43.41888" lon="2.46232">
        <ele>1164.180328</ele>
        <time>2021-05-08T10:40:00.286Z</time>
      </trkpt>
      <trkpt lat="43.41891" lon="2.46245">
        <ele>1164.918777</ele>
        <time>2021-05-08T10:40:05.282Z</time>
      </trkpt>
      <trkpt lat="43.41894" lon="2.46257">
        <ele>1165.584121</ele>
        <time>2021-05-08T10:40:10.283Z</time>
      </trkpt>
      <trkpt lat="43.41899" lon="2.46268">
        <ele>1166.254483</ele>
        <time>2021-05-08T10:40:15.283Z</time>
      </trkpt>
      <trkpt lat="43.41905" lon="2.46279">
        <ele>1166.986267</ele>
        <time>2021-05-08T10:40:20.290Z</time>
      </trkpt>
      <trkpt lat="43.41913" lon="2.46287">
        <ele>1167.64612</ele>
        <time>2021-05-08T10:40:25.309Z</time>
      </trkpt>
      <trkpt lat="43.41921" lon="2.46295">
        <ele>1168.378108</ele>
        <time>2021-05-08T10:40:30.312Z</time>
      </trkpt>
      <trkpt lat="43.41929" lon="2.46303">
        <ele>1169.068719</ele>
        <time>2021-05-08T10:40:35.308Z</time>
      </trkpt>
      <trkpt lat="43.41938" lon="2.46309">
        <ele>1169.800876</ele>
        <time>2021-05-08T10:40:40.280Z</time>
      </trkpt>
      <trkpt lat="43.41947" lon="2.46316">
        <ele>1170.535854</ele>
        <time>2021-05-08T10:40:45.305Z</time>
      </trkpt>
      <trkpt lat="43.41956" lon="2.46323">
        <ele>1171.262901</ele>
        <time>2021-05-08T10:40:50.309Z</time>
      </trkpt>
      <trkpt lat="43.41964" lon="2.46329">
        <ele>1171.920618</ele>
        <time>2021-05-08T10:40:55.277Z</time>
      </trkpt>
      <trkpt lat="43.41972" lon="2.46335">
        <ele>1172.620069</ele>
        <time>2021-05-08T10:41:00.281Z</time>
      </trkpt>
      <trkpt lat="43.41981" lon="2.4634">
        <ele>1173.300058</ele>
        <time>2021-05-08T10:41:05.279Z</time>
      </trkpt>
      <trkpt lat="43.41989" lon="2.46348">
        <ele>1174.020115</ele>
        <time>2021-05-08T10:41:10.301Z</time>
      </trkpt>
      <trkpt lat="43.41998" lon="2.46355">
        <ele>1174.727156</ele>
        <time>2021-05-08T10:41:15.281Z</time>
      </trkpt>
      <trkpt lat="43.42007" lon="2.46361">
        <ele>1175.596836</ele>
        <time>2021-05-08T10:41:20.285Z</time>
      </trkpt>
      <trkpt lat="43.42016" lon="2.46368">
        <ele>1176.680393</ele>
        <time>2021-05-08T10:41:25.282Z</time>
      </trkpt>
      <trkpt lat="43.42025" lon="2.46374">
        <ele>1177.704321</ele>
        <time>2021-05-08T10:41:30.280Z</time>
      </trkpt>
      <trkpt lat="43.42035" lon="2.46379">
        <ele>1178.810684</ele>
        <time>2021-05-08T10:41:35.302Z</time>
      </trkpt>
      <trkpt lat="43.42044" lon="2.46383">
        <ele>1179.804012</ele>
        <time>2021-05-08T10:41:40.312Z</time>
      </trkpt>
      <trkpt lat="43.42053" lon="2.46386">
        <ele>1180.839001</ele>
        <time>2021-05-08T10:41:45.280Z</time>
      </trkpt>
      <trkpt lat="43.42064" lon="2.46386">
        <ele>1181.924069</ele>
        <time>2021-05-08T10:41:50.295Z</time>
      </trkpt>
      <trkpt lat="43.42074" lon="2.46382">
        <ele>1183.008217</ele>
        <time>2021-05-08T10:41:54.309Z</time>
      </trkpt>
      <trkpt lat="43.42083" lon="2.46379">
        <ele>1183.987533</ele>
        <time>2021-05-08T10:41:58.314Z</time>
      </trkpt>
      <trkpt lat="43.42093" lon="2.46375">
        <ele>1185.057267</ele>
        <time>2021-05-08T10:42:03.285Z</time>
      </trkpt>
      <trkpt lat="43.42101" lon="2.4637">
        <ele>1186.030661</ele>
        <time>2021-05-08T10:42:08.288Z</time>
      </trkpt>
      <trkpt lat="43.42109" lon="2.46362">
        <ele>1187.040104</ele>
        <time>2021-05-08T10:42:12.305Z</time>
      </trkpt>
      <trkpt lat="43.42116" lon="2.46354">
        <ele>1187.972737</ele>
        <time>2021-05-08T10:42:16.312Z</time>
      </trkpt>
      <trkpt lat="43.42124" lon="2.46345">
        <ele>1189.075689</ele>
        <time>2021-05-08T10:42:21.286Z</time>
      </trkpt>
      <trkpt lat="43.42131" lon="2.46336">
        <ele>1190.059207</ele>
        <time>2021-05-08T10:42:25.283Z</time>
      </trkpt>
      <trkpt lat="43.42139" lon="2.46325">
        <ele>1191.18536</ele>
        <time>2021-05-08T10:42:30.311Z</time>
      </trkpt>
      <trkpt lat="43.42146" lon="2.46315">
        <ele>1192.294189</ele>
        <time>2021-05-08T10:42:35.310Z</time>
      </trkpt>
      <trkpt lat="43.42152" lon="2.46305">
        <ele>1193.243197</ele>
        <time>2021-05-08T10:42:39.280Z</time>
      </trkpt>
      <trkpt lat="43.42158" lon="2.46294">
        <ele>1194.446311</ele>
        <time>2021-05-08T10:42:44.281Z</time>
      </trkpt>
      <trkpt lat="43.42164" lon="2.46284">
        <ele>1195.72087</ele>
        <time>2021-05-08T10:42:48.282Z</time>
      </trkpt>
      <trkpt lat="43.42171" lon="2.46273">
        <ele>1197.149908</ele>
        <time>2021-05-08T10:42:53.284Z</time>
      </trkpt>
      <trkpt lat="43.42178" lon="2.46262">
        <ele>1198.58639</ele>
        <time>2021-05-08T10:42:58.312Z</time>
      </trkpt>
      <trkpt lat="43.42185" lon="2.46252">
        <ele>1199.955082</ele>
        <time>2021-05-08T10:43:03.278Z</time>
      </trkpt>
      <trkpt lat="43.42193" lon="2.46241">
        <ele>1201.447132</ele>
        <time>2021-05-08T10:43:08.278Z</time>
      </trkpt>
      <trkpt lat="43.42198" lon="2.4623">
        <ele>1202.752919</ele>
        <time>2021-05-08T10:43:12.278Z</time>
      </trkpt>
      <trkpt lat="43.42205" lon="2.46217">
        <ele>1204.240725</ele>
        <time>2021-05-08T10:43:16.279Z</time>
      </trkpt>
      <trkpt lat="43.42212" lon="2.46207">
        <ele>1205.651084</ele>
        <time>2021-05-08T10:43:20.292Z</time>
      </trkpt>
      <trkpt lat="43.42218" lon="2.46197">
        <ele>1206.873655</ele>
        <time>2021-05-08T10:43:24.289Z</time>
      </trkpt>
      <trkpt lat="43.42223" lon="2.46187">
        <ele>1208.132358</ele>
        <time>2021-05-08T10:43:28.274Z</time>
      </trkpt>
      <trkpt lat="43.4223" lon="2.46175">
        <ele>1209.58964</ele>
        <time>2021-05-08T10:43:33.310Z</time>
      </trkpt>
      <trkpt lat="43.42235" lon="2.46165">
        <ele>1210.809521</ele>
        <time>2021-05-08T10:43:37.282Z</time>
      </trkpt>
      <trkpt lat="43.42241" lon="2.46155">
        <ele>1212.037524</ele>
        <time>2021-05-08T10:43:41.304Z</time>
      </trkpt>
      <trkpt lat="43.42246" lon="2.46145">
        <ele>1213.287929</ele>
        <time>2021-05-08T10:43:45.281Z</time>
      </trkpt>
      <trkpt lat="43.42252" lon="2.46133">
        <ele>1214.649367</ele>
        <time>2021-05-08T10:43:50.288Z</time>
      </trkpt>
      <trkpt lat="43.4226" lon="2.46123">
        <ele>1216.09678</ele>
        <time>2021-05-08T10:43:55.314Z</time>
      </trkpt>
      <trkpt lat="43.42266" lon="2.46113">
        <ele>1217.35502</ele>
        <time>2021-05-08T10:43:59.315Z</time>
      </trkpt>
      <trkpt lat="43.42272" lon="2.46104">
        <ele>1218.176174</ele>
        <time>2021-05-08T10:44:03.310Z</time>
      </trkpt>
      <trkpt lat="43.42278" lon="2.46094">
        <ele>1218.328581</ele>
        <time>2021-05-08T10:44:07.313Z</time>
      </trkpt>
      <trkpt lat="43.42286" lon="2.46085">
        <ele>1218.493348</ele>
        <time>2021-05-08T10:44:11.321Z</time>
      </trkpt>
      <trkpt lat="43.42292" lon="2.46075">
        <ele>1218.642561</ele>
        <time>2021-05-08T10:44:15.284Z</time>
      </trkpt>
      <trkpt lat="43.42298" lon="2.46067">
        <ele>1218.788452</ele>
        <time>2021-05-08T10:44:19.281Z</time>
      </trkpt>
      <trkpt lat="43.42305" lon="2.46058">
        <ele>1218.942349</ele>
        <time>2021-05-08T10:44:23.315Z</time>
      </trkpt>
      <trkpt lat="43.42312" lon="2.4605">
        <ele>1219.09024</ele>
        <time>2021-05-08T10:44:27.313Z</time>
      </trkpt>
      <trkpt lat="43.4232" lon="2.46042">
        <ele>1219.245572</ele>
        <time>2021-05-08T10:44:31.301Z</time>
      </trkpt>
      <trkpt lat="43.42327" lon="2.46032">
        <ele>1219.408233</ele>
        <time>2021-05-08T10:44:35.278Z</time>
      </trkpt>
      <trkpt lat="43.42334" lon="2.46022">
        <ele>1219.572999</ele>
        <time>2021-05-08T10:44:39.275Z</time>
      </trkpt>
      <trkpt lat="43.42341" lon="2.46014">
        <ele>1219.720468</ele>
        <time>2021-05-08T10:44:43.283Z</time>
      </trkpt>
      <trkpt lat="43.4235" lon="2.46005">
        <ele>1219.899717</ele>
        <time>2021-05-08T10:44:48.280Z</time>
      </trkpt>
      <trkpt lat="43.42358" lon="2.45996">
        <ele>1220.067294</ele>
        <time>2021-05-08T10:44:52.276Z</time>
      </trkpt>
      <trkpt lat="43.42367" lon="2.45989">
        <ele>1220.241899</ele>
        <time>2021-05-08T10:44:56.314Z</time>
      </trkpt>
      <trkpt lat="43.42376" lon="2.45984">
        <ele>1220.389459</ele>
        <time>2021-05-08T10:44:59.278Z</time>
      </trkpt>
      <trkpt lat="43.42386" lon="2.45979">
        <ele>1220.574923</ele>
        <time>2021-05-08T10:45:03.318Z</time>
      </trkpt>
      <trkpt lat="43.42397" lon="2.45974">
        <ele>1220.756894</ele>
        <time>2021-05-08T10:45:07.289Z</time>
      </trkpt>
      <trkpt lat="43.42406" lon="2.45971">
        <ele>1220.911614</ele>
        <time>2021-05-08T10:45:11.280Z</time>
      </trkpt>
      <trkpt lat="43.42415" lon="2.45968">
        <ele>1221.070304</ele>
        <time>2021-05-08T10:45:15.304Z</time>
      </trkpt>
      <trkpt lat="43.42425" lon="2.45965">
        <ele>1221.278932</ele>
        <time>2021-05-08T10:45:19.271Z</time>
      </trkpt>
      <trkpt lat="43.42436" lon="2.45964">
        <ele>1221.500178</ele>
        <time>2021-05-08T10:45:23.276Z</time>
      </trkpt>
      <trkpt lat="43.42446" lon="2.45965">
        <ele>1221.706501</ele>
        <time>2021-05-08T10:45:27.298Z</time>
      </trkpt>
      <trkpt lat="43.42455" lon="2.45967">
        <ele>1221.908396</ele>
        <time>2021-05-08T10:45:31.319Z</time>
      </trkpt>
      <trkpt lat="43.42465" lon="2.45969">
        <ele>1222.124307</ele>
        <time>2021-05-08T10:45:35.278Z</time>
      </trkpt>
      <trkpt lat="43.42476" lon="2.45971">
        <ele>1222.344928</ele>
        <time>2021-05-08T10:45:39.325Z</time>
      </trkpt>
      <trkpt lat="43.42486" lon="2.45974">
        <ele>1222.565486</ele>
        <time>2021-05-08T10:45:43.292Z</time>
      </trkpt>
      <trkpt lat="43.42496" lon="2.45977">
        <ele>1222.767022</ele>
        <time>2021-05-08T10:45:47.314Z</time>
      </trkpt>
      <trkpt lat="43.42505" lon="2.4598">
        <ele>1222.972994</ele>
        <time>2021-05-08T10:45:51.300Z</time>
      </trkpt>
      <trkpt lat="43.42516" lon="2.45982">
        <ele>1223.188897</ele>
        <time>2021-05-08T10:45:55.280Z</time>
      </trkpt>
      <trkpt lat="43.42526" lon="2.45984">
        <ele>1223.415705</ele>
        <time>2021-05-08T10:45:59.322Z</time>
      </trkpt>
      <trkpt lat="43.42537" lon="2.45987">
        <ele>1223.643397</ele>
        <time>2021-05-08T10:46:03.280Z</time>
      </trkpt>
      <trkpt lat="43.42547" lon="2.45989">
        <ele>1223.858052</ele>
        <time>2021-05-08T10:46:07.290Z</time>
      </trkpt>
      <trkpt lat="43.42558" lon="2.45992">
        <ele>1224.081247</ele>
        <time>2021-05-08T10:46:11.284Z</time>
      </trkpt>
      <trkpt lat="43.42569" lon="2.45995">
        <ele>1224.315891</ele>
        <time>2021-05-08T10:46:15.278Z</time>
      </trkpt>
      <trkpt lat="43.4258" lon="2.45997">
        <ele>1224.552031</ele>
        <time>2021-05-08T10:46:19.286Z</time>
      </trkpt>
      <trkpt lat="43.42591" lon="2.45999">
        <ele>1224.782538</ele>
        <time>2021-05-08T10:46:23.276Z</time>
      </trkpt>
      <trkpt lat="43.42602" lon="2.46002">
        <ele>1225.416129</ele>
        <time>2021-05-08T10:46:27.282Z</time>
      </trkpt>
      <trkpt lat="43.42613" lon="2.46006">
        <ele>1226.048311</ele>
        <time>2021-05-08T10:46:31.318Z</time>
      </trkpt>
      <trkpt lat="43.42624" lon="2.46009">
        <ele>1226.656807</ele>
        <time>2021-05-08T10:46:35.296Z</time>
      </trkpt>
      <trkpt lat="43.42634" lon="2.46013">
        <ele>1227.282984</ele>
        <time>2021-05-08T10:46:39.292Z</time>
      </trkpt>
      <trkpt lat="43.42644" lon="2.46019">
        <ele>1227.891558</ele>
        <time>2021-05-08T10:46:43.287Z</time>
      </trkpt>
      <trkpt lat="43.42653" lon="2.46026">
        <ele>1228.474802</ele>
        <time>2021-05-08T10:46:47.281Z</time>
      </trkpt>
      <trkpt lat="43.42661" lon="2.46034">
        <ele>1228.99362</ele>
        <time>2021-05-08T10:46:51.281Z</time>
      </trkpt>
      <trkpt lat="43.42669" lon="2.46045">
        <ele>1229.621436</ele>
        <time>2021-05-08T10:46:55.282Z</time>
      </trkpt>
      <trkpt lat="43.42674" lon="2.46055">
        <ele>1230.137283</ele>
        <time>2021-05-08T10:46:58.323Z</time>
      </trkpt>
      <trkpt lat="43.42678" lon="2.4607">
        <ele>1230.800044</ele>
        <time>2021-05-08T10:47:02.315Z</time>
      </trkpt>
      <trkpt lat="43.4268" lon="2.46083">
        <ele>1231.32741</ele>
        <time>2021-05-08T10:47:05.292Z</time>
      </trkpt>
      <trkpt lat="43.4268" lon="2.46096">
        <ele>1231.850155</ele>
        <time>2021-05-08T10:47:08.284Z</time>
      </trkpt>
      <trkpt lat="43.42677" lon="2.46109">
        <ele>1232.423054</ele>
        <time>2021-05-08T10:47:11.290Z</time>
      </trkpt>
      <trkpt lat="43.42674" lon="2.46122">
        <ele>1232.970142</ele>
        <time>2021-05-08T10:47:14.304Z</time>
      </trkpt>
      <trkpt lat="43.4267" lon="2.46134">
        <ele>1233.508491</ele>
        <time>2021-05-08T10:47:17.274Z</time>
      </trkpt>
      <trkpt lat="43.42666" lon="2.46145">
        <ele>1234.020685</ele>
        <time>2021-05-08T10:47:20.338Z</time>
      </trkpt>
      <trkpt lat="43.42662" lon="2.46159">
        <ele>1234.654102</ele>
        <time>2021-05-08T10:47:24.311Z</time>
      </trkpt>
      <trkpt lat="43.42657" lon="2.46173">
        <ele>1235.279429</ele>
        <time>2021-05-08T10:47:28.308Z</time>
      </trkpt>
      <trkpt lat="43.42653" lon="2.46188">
        <ele>1235.960791</ele>
        <time>2021-05-08T10:47:32.295Z</time>
      </trkpt>
      <trkpt lat="43.42648" lon="2.46198">
        <ele>1236.499497</ele>
        <time>2021-05-08T10:47:35.290Z</time>
      </trkpt>
      <trkpt lat="43.42643" lon="2.46209">
        <ele>1237.047372</ele>
        <time>2021-05-08T10:47:38.287Z</time>
      </trkpt>
      <trkpt lat="43.42636" lon="2.46222">
        <ele>1237.721533</ele>
        <time>2021-05-08T10:47:42.311Z</time>
      </trkpt>
      <trkpt lat="43.42629" lon="2.46233">
        <ele>1238.355948</ele>
        <time>2021-05-08T10:47:46.323Z</time>
      </trkpt>
      <trkpt lat="43.42622" lon="2.46244">
        <ele>1238.974288</ele>
        <time>2021-05-08T10:47:50.325Z</time>
      </trkpt>
      <trkpt lat="43.42614" lon="2.46255">
        <ele>1239.609308</ele>
        <time>2021-05-08T10:47:54.311Z</time>
      </trkpt>
      <trkpt lat="43.42607" lon="2.46266">
        <ele>1240.231541</ele>
        <time>2021-05-08T10:47:58.284Z</time>
      </trkpt>
      <trkpt lat="43.42601" lon="2.46277">
        <ele>1240.847786</ele>
        <time>2021-05-08T10:48:02.277Z</time>
      </trkpt>
      <trkpt lat="43.42594" lon="2.46288">
        <ele>1241.433164</ele>
        <time>2021-05-08T10:48:06.279Z</time>
      </trkpt>
      <trkpt lat="43.42588" lon="2.46299">
        <ele>1242.046533</ele>
        <time>2021-05-08T10:48:10.288Z</time>
      </trkpt>
      <trkpt lat="43.42581" lon="2.4631">
        <ele>1242.666428</ele>
        <time>2021-05-08T10:48:14.313Z</time>
      </trkpt>
      <trkpt lat="43.42573" lon="2.4632">
        <ele>1243.280116</ele>
        <time>2021-05-08T10:48:18.273Z</time>
      </trkpt>
      <trkpt lat="43.42566" lon="2.46331">
        <ele>1243.910103</ele>
        <time>2021-05-08T10:48:22.284Z</time>
      </trkpt>
      <trkpt lat="43.42558" lon="2.46342">
        <ele>1244.572618</ele>
        <time>2021-05-08T10:48:26.314Z</time>
      </trkpt>
      <trkpt lat="43.42551" lon="2.46354">
        <ele>1245.206546</ele>
        <time>2021-05-08T10:48:30.281Z</time>
      </trkpt>
      <trkpt lat="43.42544" lon="2.46365">
        <ele>1245.82724</ele>
        <time>2021-05-08T10:48:34.281Z</time>
      </trkpt>
      <trkpt lat="43.42537" lon="2.46378">
        <ele>1246.434923</ele>
        <time>2021-05-08T10:48:38.277Z</time>
      </trkpt>
      <trkpt lat="43.4253" lon="2.46389">
        <ele>1247.013253</ele>
        <time>2021-05-08T10:48:42.304Z</time>
      </trkpt>
      <trkpt lat="43.42523" lon="2.46397">
        <ele>1247.502473</ele>
        <time>2021-05-08T10:48:45.301Z</time>
      </trkpt>
      <trkpt lat="43.42514" lon="2.46407">
        <ele>1248.132544</ele>
        <time>2021-05-08T10:48:49.286Z</time>
      </trkpt>
      <trkpt lat="43.42504" lon="2.46414">
        <ele>1248.735325</ele>
        <time>2021-05-08T10:48:53.281Z</time>
      </trkpt>
      <trkpt lat="43.42495" lon="2.46419">
        <ele>1249.244382</ele>
        <time>2021-05-08T10:48:57.278Z</time>
      </trkpt>
      <trkpt lat="43.42486" lon="2.46422">
        <ele>1249.741121</ele>
        <time>2021-05-08T10:49:01.281Z</time>
      </trkpt>
      <trkpt lat="43.42477" lon="2.46423">
        <ele>1250.237662</ele>
        <time>2021-05-08T10:49:05.306Z</time>
      </trkpt>
      <trkpt lat="43.42467" lon="2.46421">
        <ele>1250.764594</ele>
        <time>2021-05-08T10:49:09.285Z</time>
      </trkpt>
      <trkpt lat="43.42458" lon="2.46415">
        <ele>1251.306967</ele>
        <time>2021-05-08T10:49:13.276Z</time>
      </trkpt>
      <trkpt lat="43.42451" lon="2.46404">
        <ele>1251.866452</ele>
        <time>2021-05-08T10:49:17.282Z</time>
      </trkpt>
      <trkpt lat="43.42445" lon="2.46393">
        <ele>1252.423965</ele>
        <time>2021-05-08T10:49:21.275Z</time>
      </trkpt>
      <trkpt lat="43.4244" lon="2.4638">
        <ele>1252.987224</ele>
        <time>2021-05-08T10:49:25.279Z</time>
      </trkpt>
      <trkpt lat="43.42435" lon="2.46368">
        <ele>1253.529254</ele>
        <time>2021-05-08T10:49:29.282Z</time>
      </trkpt>
      <trkpt lat="43.42429" lon="2.46356">
        <ele>1254.111429</ele>
        <time>2021-05-08T10:49:33.286Z</time>
      </trkpt>
      <trkpt lat="43.42424" lon="2.46343">
        <ele>1254.678075</ele>
        <time>2021-05-08T10:49:37.321Z</time>
      </trkpt>
      <trkpt lat="43.4242" lon="2.4633">
        <ele>1255.043456</ele>
        <time>2021-05-08T10:49:41.316Z</time>
      </trkpt>
      <trkpt lat="43.42416" lon="2.46318">
        <ele>1254.798186</ele>
        <time>2021-05-08T10:49:45.285Z</time>
      </trkpt>
      <trkpt lat="43.42412" lon="2.46308">
        <ele>1254.564889</ele>
        <time>2021-05-08T10:51:11.731Z</time>
      </trkpt>
      <trkpt lat="43.42412" lon="2.46305">
        <ele>1254.510615</ele>
        <time>2021-05-08T11:28:42.050Z</time>
      </trkpt>
      <trkpt lat="43.4242" lon="2.46324">
        <ele>1254.07819</ele>
        <time>2021-05-08T11:29:10.100Z</time>
      </trkpt>
      <trkpt lat="43.42424" lon="2.46337">
        <ele>1253.802739</ele>
        <time>2021-05-08T11:29:16.097Z</time>
      </trkpt>
      <trkpt lat="43.42428" lon="2.46352">
        <ele>1253.496645</ele>
        <time>2021-05-08T11:29:20.095Z</time>
      </trkpt>
      <trkpt lat="43.42432" lon="2.46367">
        <ele>1253.194057</ele>
        <time>2021-05-08T11:29:23.103Z</time>
      </trkpt>
      <trkpt lat="43.42436" lon="2.4638">
        <ele>1252.926187</ele>
        <time>2021-05-08T11:29:25.099Z</time>
      </trkpt>
      <trkpt lat="43.4244" lon="2.46392">
        <ele>1252.654567</ele>
        <time>2021-05-08T11:29:27.100Z</time>
      </trkpt>
      <trkpt lat="43.42447" lon="2.46404">
        <ele>1252.375397</ele>
        <time>2021-05-08T11:29:29.099Z</time>
      </trkpt>
      <trkpt lat="43.42454" lon="2.46414">
        <ele>1252.087599</ele>
        <time>2021-05-08T11:29:31.099Z</time>
      </trkpt>
      <trkpt lat="43.42462" lon="2.46423">
        <ele>1251.820065</ele>
        <time>2021-05-08T11:29:33.095Z</time>
      </trkpt>
      <trkpt lat="43.4247" lon="2.46429">
        <ele>1251.563631</ele>
        <time>2021-05-08T11:29:35.099Z</time>
      </trkpt>
      <trkpt lat="43.4248" lon="2.4643">
        <ele>1251.312729</ele>
        <time>2021-05-08T11:29:37.121Z</time>
      </trkpt>
      <trkpt lat="43.4249" lon="2.46427">
        <ele>1251.023079</ele>
        <time>2021-05-08T11:29:39.123Z</time>
      </trkpt>
      <trkpt lat="43.42502" lon="2.46422">
        <ele>1250.694144</ele>
        <time>2021-05-08T11:29:41.101Z</time>
      </trkpt>
      <trkpt lat="43.42514" lon="2.46415">
        <ele>1250.351996</ele>
        <time>2021-05-08T11:29:43.096Z</time>
      </trkpt>
      <trkpt lat="43.42523" lon="2.46405">
        <ele>1249.612678</ele>
        <time>2021-05-08T11:29:45.120Z</time>
      </trkpt>
      <trkpt lat="43.42533" lon="2.46392">
        <ele>1248.728593</ele>
        <time>2021-05-08T11:29:47.117Z</time>
      </trkpt>
      <trkpt lat="43.42543" lon="2.46377">
        <ele>1247.781755</ele>
        <time>2021-05-08T11:29:49.096Z</time>
      </trkpt>
      <trkpt lat="43.42553" lon="2.46362">
        <ele>1246.789726</ele>
        <time>2021-05-08T11:29:51.089Z</time>
      </trkpt>
      <trkpt lat="43.42563" lon="2.46346">
        <ele>1245.78774</ele>
        <time>2021-05-08T11:29:53.096Z</time>
      </trkpt>
      <trkpt lat="43.42573" lon="2.4633">
        <ele>1244.768386</ele>
        <time>2021-05-08T11:29:55.099Z</time>
      </trkpt>
      <trkpt lat="43.42584" lon="2.46313">
        <ele>1243.736762</ele>
        <time>2021-05-08T11:29:57.126Z</time>
      </trkpt>
      <trkpt lat="43.42594" lon="2.46297">
        <ele>1242.711783</ele>
        <time>2021-05-08T11:29:59.093Z</time>
      </trkpt>
      <trkpt lat="43.42604" lon="2.46281">
        <ele>1241.675936</ele>
        <time>2021-05-08T11:30:01.109Z</time>
      </trkpt>
      <trkpt lat="43.42614" lon="2.46264">
        <ele>1240.634438</ele>
        <time>2021-05-08T11:30:03.093Z</time>
      </trkpt>
      <trkpt lat="43.42625" lon="2.46248">
        <ele>1239.572748</ele>
        <time>2021-05-08T11:30:05.135Z</time>
      </trkpt>
      <trkpt lat="43.42635" lon="2.46231">
        <ele>1238.564704</ele>
        <time>2021-05-08T11:30:07.090Z</time>
      </trkpt>
      <trkpt lat="43.42644" lon="2.46214">
        <ele>1237.914367</ele>
        <time>2021-05-08T11:30:09.119Z</time>
      </trkpt>
      <trkpt lat="43.42654" lon="2.46197">
        <ele>1237.268953</ele>
        <time>2021-05-08T11:30:11.093Z</time>
      </trkpt>
      <trkpt lat="43.42661" lon="2.46178">
        <ele>1236.616608</ele>
        <time>2021-05-08T11:30:13.128Z</time>
      </trkpt>
      <trkpt lat="43.42667" lon="2.46157">
        <ele>1235.952473</ele>
        <time>2021-05-08T11:30:15.098Z</time>
      </trkpt>
      <trkpt lat="43.42673" lon="2.46137">
        <ele>1235.286299</ele>
        <time>2021-05-08T11:30:17.112Z</time>
      </trkpt>
      <trkpt lat="43.42679" lon="2.46117">
        <ele>1234.629553</ele>
        <time>2021-05-08T11:30:19.127Z</time>
      </trkpt>
      <trkpt lat="43.42684" lon="2.46097">
        <ele>1234.019498</ele>
        <time>2021-05-08T11:30:21.103Z</time>
      </trkpt>
      <trkpt lat="43.42686" lon="2.46077">
        <ele>1233.402936</ele>
        <time>2021-05-08T11:30:23.093Z</time>
      </trkpt>
      <trkpt lat="43.42683" lon="2.46057">
        <ele>1232.785234</ele>
        <time>2021-05-08T11:30:25.116Z</time>
      </trkpt>
      <trkpt lat="43.42673" lon="2.4604">
        <ele>1232.136666</ele>
        <time>2021-05-08T11:30:27.099Z</time>
      </trkpt>
      <trkpt lat="43.4266" lon="2.46027">
        <ele>1231.466353</ele>
        <time>2021-05-08T11:30:29.135Z</time>
      </trkpt>
      <trkpt lat="43.42646" lon="2.46017">
        <ele>1230.799834</ele>
        <time>2021-05-08T11:30:31.124Z</time>
      </trkpt>
      <trkpt lat="43.42631" lon="2.4601">
        <ele>1230.041809</ele>
        <time>2021-05-08T11:30:33.095Z</time>
      </trkpt>
      <trkpt lat="43.42613" lon="2.46005">
        <ele>1229.21226</ele>
        <time>2021-05-08T11:30:35.091Z</time>
      </trkpt>
      <trkpt lat="43.42596" lon="2.46001">
        <ele>1228.420985</ele>
        <time>2021-05-08T11:30:37.109Z</time>
      </trkpt>
      <trkpt lat="43.4258" lon="2.45998">
        <ele>1227.634831</ele>
        <time>2021-05-08T11:30:39.096Z</time>
      </trkpt>
      <trkpt lat="43.42563" lon="2.45994">
        <ele>1226.869963</ele>
        <time>2021-05-08T11:30:41.101Z</time>
      </trkpt>
      <trkpt lat="43.42547" lon="2.4599">
        <ele>1226.094753</ele>
        <time>2021-05-08T11:30:43.090Z</time>
      </trkpt>
      <trkpt lat="43.42531" lon="2.45985">
        <ele>1225.312453</ele>
        <time>2021-05-08T11:30:45.102Z</time>
      </trkpt>
      <trkpt lat="43.42514" lon="2.45981">
        <ele>1224.545775</ele>
        <time>2021-05-08T11:30:47.126Z</time>
      </trkpt>
      <trkpt lat="43.42499" lon="2.45977">
        <ele>1223.816911</ele>
        <time>2021-05-08T11:30:49.131Z</time>
      </trkpt>
      <trkpt lat="43.42484" lon="2.45973">
        <ele>1223.08927</ele>
        <time>2021-05-08T11:30:51.095Z</time>
      </trkpt>
      <trkpt lat="43.42468" lon="2.45969">
        <ele>1222.290866</ele>
        <time>2021-05-08T11:30:53.087Z</time>
      </trkpt>
      <trkpt lat="43.42452" lon="2.45966">
        <ele>1221.415633</ele>
        <time>2021-05-08T11:30:55.097Z</time>
      </trkpt>
      <trkpt lat="43.42437" lon="2.45964">
        <ele>1220.542838</ele>
        <time>2021-05-08T11:30:57.119Z</time>
      </trkpt>
      <trkpt lat="43.4242" lon="2.45965">
        <ele>1219.639619</ele>
        <time>2021-05-08T11:30:59.098Z</time>
      </trkpt>
      <trkpt lat="43.42404" lon="2.45969">
        <ele>1218.718998</ele>
        <time>2021-05-08T11:31:01.090Z</time>
      </trkpt>
      <trkpt lat="43.42388" lon="2.45976">
        <ele>1217.791076</ele>
        <time>2021-05-08T11:31:03.095Z</time>
      </trkpt>
      <trkpt lat="43.42371" lon="2.45985">
        <ele>1216.81068</ele>
        <time>2021-05-08T11:31:05.130Z</time>
      </trkpt>
      <trkpt lat="43.42356" lon="2.45999">
        <ele>1215.8247</ele>
        <time>2021-05-08T11:31:07.090Z</time>
      </trkpt>
      <trkpt lat="43.42349" lon="2.46007">
        <ele>1215.326615</ele>
        <time>2021-05-08T11:31:08.092Z</time>
      </trkpt>
      <trkpt lat="43.42342" lon="2.46015">
        <ele>1214.825022</ele>
        <time>2021-05-08T11:31:09.114Z</time>
      </trkpt>
      <trkpt lat="43.42336" lon="2.46024">
        <ele>1214.323662</ele>
        <time>2021-05-08T11:31:10.093Z</time>
      </trkpt>
      <trkpt lat="43.42329" lon="2.46033">
        <ele>1213.8116</ele>
        <time>2021-05-08T11:31:11.129Z</time>
      </trkpt>
      <trkpt lat="43.42323" lon="2.46043">
        <ele>1213.304787</ele>
        <time>2021-05-08T11:31:12.129Z</time>
      </trkpt>
      <trkpt lat="43.42317" lon="2.46052">
        <ele>1212.782778</ele>
        <time>2021-05-08T11:31:13.124Z</time>
      </trkpt>
      <trkpt lat="43.4231" lon="2.4606">
        <ele>1212.145356</ele>
        <time>2021-05-08T11:31:14.129Z</time>
      </trkpt>
      <trkpt lat="43.42303" lon="2.46069">
        <ele>1211.501099</ele>
        <time>2021-05-08T11:31:15.126Z</time>
      </trkpt>
      <trkpt lat="43.42296" lon="2.46078">
        <ele>1210.866619</ele>
        <time>2021-05-08T11:31:16.130Z</time>
      </trkpt>
      <trkpt lat="43.4229" lon="2.46087">
        <ele>1210.232138</ele>
        <time>2021-05-08T11:31:17.100Z</time>
      </trkpt>
      <trkpt lat="43.42283" lon="2.46096">
        <ele>1209.597658</ele>
        <time>2021-05-08T11:31:18.131Z</time>
      </trkpt>
      <trkpt lat="43.42277" lon="2.46105">
        <ele>1208.978476</ele>
        <time>2021-05-08T11:31:19.093Z</time>
      </trkpt>
      <trkpt lat="43.42264" lon="2.46123">
        <ele>1207.754915</ele>
        <time>2021-05-08T11:31:21.100Z</time>
      </trkpt>
      <trkpt lat="43.42253" lon="2.46142">
        <ele>1206.556313</ele>
        <time>2021-05-08T11:31:23.095Z</time>
      </trkpt>
      <trkpt lat="43.42241" lon="2.4616">
        <ele>1205.310163</ele>
        <time>2021-05-08T11:31:25.103Z</time>
      </trkpt>
      <trkpt lat="43.42235" lon="2.4617">
        <ele>1204.669875</ele>
        <time>2021-05-08T11:31:26.135Z</time>
      </trkpt>
      <trkpt lat="43.42228" lon="2.46179">
        <ele>1204.026003</ele>
        <time>2021-05-08T11:31:27.101Z</time>
      </trkpt>
      <trkpt lat="43.42222" lon="2.46189">
        <ele>1203.364792</ele>
        <time>2021-05-08T11:31:28.102Z</time>
      </trkpt>
      <trkpt lat="43.42215" lon="2.46199">
        <ele>1202.708076</ele>
        <time>2021-05-08T11:31:29.111Z</time>
      </trkpt>
      <trkpt lat="43.42209" lon="2.46209">
        <ele>1202.039387</ele>
        <time>2021-05-08T11:31:30.105Z</time>
      </trkpt>
      <trkpt lat="43.42203" lon="2.46219">
        <ele>1201.370698</ele>
        <time>2021-05-08T11:31:31.093Z</time>
      </trkpt>
      <trkpt lat="43.42196" lon="2.4623">
        <ele>1200.698865</ele>
        <time>2021-05-08T11:31:32.106Z</time>
      </trkpt>
      <trkpt lat="43.4219" lon="2.4624">
        <ele>1199.912195</ele>
        <time>2021-05-08T11:31:33.103Z</time>
      </trkpt>
      <trkpt lat="43.42184" lon="2.4625">
        <ele>1199.067236</ele>
        <time>2021-05-08T11:31:34.115Z</time>
      </trkpt>
      <trkpt lat="43.42177" lon="2.46261">
        <ele>1198.223184</ele>
        <time>2021-05-08T11:31:35.095Z</time>
      </trkpt>
      <trkpt lat="43.42171" lon="2.46271">
        <ele>1197.37085</ele>
        <time>2021-05-08T11:31:36.095Z</time>
      </trkpt>
      <trkpt lat="43.42165" lon="2.46282">
        <ele>1196.523836</ele>
        <time>2021-05-08T11:31:37.093Z</time>
      </trkpt>
      <trkpt lat="43.42158" lon="2.46293">
        <ele>1195.655228</ele>
        <time>2021-05-08T11:31:38.095Z</time>
      </trkpt>
      <trkpt lat="43.42152" lon="2.46303">
        <ele>1194.800866</ele>
        <time>2021-05-08T11:31:39.102Z</time>
      </trkpt>
      <trkpt lat="43.42146" lon="2.46313">
        <ele>1193.956811</ele>
        <time>2021-05-08T11:31:40.098Z</time>
      </trkpt>
      <trkpt lat="43.42139" lon="2.46323">
        <ele>1193.148627</ele>
        <time>2021-05-08T11:31:41.143Z</time>
      </trkpt>
      <trkpt lat="43.42127" lon="2.46341">
        <ele>1191.630504</ele>
        <time>2021-05-08T11:31:43.096Z</time>
      </trkpt>
      <trkpt lat="43.42114" lon="2.46356">
        <ele>1190.156651</ele>
        <time>2021-05-08T11:31:45.127Z</time>
      </trkpt>
      <trkpt lat="43.421" lon="2.4637">
        <ele>1188.70187</ele>
        <time>2021-05-08T11:31:47.123Z</time>
      </trkpt>
      <trkpt lat="43.42084" lon="2.4638">
        <ele>1187.169124</ele>
        <time>2021-05-08T11:31:49.097Z</time>
      </trkpt>
      <trkpt lat="43.42075" lon="2.46383">
        <ele>1186.380507</ele>
        <time>2021-05-08T11:31:50.096Z</time>
      </trkpt>
      <trkpt lat="43.42066" lon="2.46385">
        <ele>1185.599889</ele>
        <time>2021-05-08T11:31:51.090Z</time>
      </trkpt>
      <trkpt lat="43.42057" lon="2.46386">
        <ele>1184.76409</ele>
        <time>2021-05-08T11:31:52.102Z</time>
      </trkpt>
      <trkpt lat="43.42048" lon="2.46385">
        <ele>1183.851169</ele>
        <time>2021-05-08T11:31:53.106Z</time>
      </trkpt>
      <trkpt lat="43.42039" lon="2.46382">
        <ele>1182.943581</ele>
        <time>2021-05-08T11:31:54.095Z</time>
      </trkpt>
      <trkpt lat="43.4203" lon="2.46378">
        <ele>1181.979368</ele>
        <time>2021-05-08T11:31:55.104Z</time>
      </trkpt>
      <trkpt lat="43.42021" lon="2.46374">
        <ele>1181.012342</ele>
        <time>2021-05-08T11:31:56.096Z</time>
      </trkpt>
      <trkpt lat="43.42012" lon="2.46368">
        <ele>1180.043816</ele>
        <time>2021-05-08T11:31:57.099Z</time>
      </trkpt>
      <trkpt lat="43.42004" lon="2.46362">
        <ele>1179.040358</ele>
        <time>2021-05-08T11:31:58.127Z</time>
      </trkpt>
      <trkpt lat="43.41995" lon="2.46355">
        <ele>1178.071906</ele>
        <time>2021-05-08T11:31:59.120Z</time>
      </trkpt>
      <trkpt lat="43.41987" lon="2.46348">
        <ele>1177.100448</ele>
        <time>2021-05-08T11:32:00.097Z</time>
      </trkpt>
      <trkpt lat="43.41979" lon="2.46341">
        <ele>1176.112537</ele>
        <time>2021-05-08T11:32:01.126Z</time>
      </trkpt>
      <trkpt lat="43.41971" lon="2.46334">
        <ele>1175.153558</ele>
        <time>2021-05-08T11:32:02.105Z</time>
      </trkpt>
      <trkpt lat="43.41963" lon="2.46327">
        <ele>1174.218682</ele>
        <time>2021-05-08T11:32:03.097Z</time>
      </trkpt>
      <trkpt lat="43.41955" lon="2.46321">
        <ele>1173.302327</ele>
        <time>2021-05-08T11:32:04.095Z</time>
      </trkpt>
      <trkpt lat="43.41941" lon="2.4631">
        <ele>1171.639822</ele>
        <time>2021-05-08T11:32:06.144Z</time>
      </trkpt>
      <trkpt lat="43.41928" lon="2.46299">
        <ele>1170.086369</ele>
        <time>2021-05-08T11:32:08.101Z</time>
      </trkpt>
      <trkpt lat="43.41915" lon="2.46289">
        <ele>1168.618305</ele>
        <time>2021-05-08T11:32:10.101Z</time>
      </trkpt>
      <trkpt lat="43.41905" lon="2.46276">
        <ele>1167.217069</ele>
        <time>2021-05-08T11:32:12.128Z</time>
      </trkpt>
      <trkpt lat="43.41897" lon="2.46257">
        <ele>1165.81032</ele>
        <time>2021-05-08T11:32:14.125Z</time>
      </trkpt>
      <trkpt lat="43.41892" lon="2.46234">
        <ele>1164.267267</ele>
        <time>2021-05-08T11:32:16.107Z</time>
      </trkpt>
      <trkpt lat="43.41889" lon="2.4621">
        <ele>1162.736529</ele>
        <time>2021-05-08T11:32:18.145Z</time>
      </trkpt>
      <trkpt lat="43.41885" lon="2.46188">
        <ele>1161.269854</ele>
        <time>2021-05-08T11:32:20.103Z</time>
      </trkpt>
      <trkpt lat="43.41882" lon="2.46168">
        <ele>1159.988965</ele>
        <time>2021-05-08T11:32:22.096Z</time>
      </trkpt>
      <trkpt lat="43.41881" lon="2.4615">
        <ele>1158.805767</ele>
        <time>2021-05-08T11:32:24.097Z</time>
      </trkpt>
      <trkpt lat="43.41883" lon="2.4613">
        <ele>1157.522841</ele>
        <time>2021-05-08T11:32:26.088Z</time>
      </trkpt>
      <trkpt lat="43.4189" lon="2.4611">
        <ele>1156.114068</ele>
        <time>2021-05-08T11:32:28.100Z</time>
      </trkpt>
      <trkpt lat="43.41903" lon="2.46096">
        <ele>1154.671458</ele>
        <time>2021-05-08T11:32:30.098Z</time>
      </trkpt>
      <trkpt lat="43.41919" lon="2.46089">
        <ele>1153.258446</ele>
        <time>2021-05-08T11:32:32.126Z</time>
      </trkpt>
      <trkpt lat="43.41935" lon="2.46086">
        <ele>1151.773709</ele>
        <time>2021-05-08T11:32:34.100Z</time>
      </trkpt>
      <trkpt lat="43.41952" lon="2.46085">
        <ele>1150.465781</ele>
        <time>2021-05-08T11:32:36.108Z</time>
      </trkpt>
      <trkpt lat="43.4197" lon="2.46086">
        <ele>1149.214754</ele>
        <time>2021-05-08T11:32:38.104Z</time>
      </trkpt>
      <trkpt lat="43.41979" lon="2.46087">
        <ele>1148.57003</ele>
        <time>2021-05-08T11:32:39.118Z</time>
      </trkpt>
      <trkpt lat="43.41988" lon="2.46088">
        <ele>1147.922305</ele>
        <time>2021-05-08T11:32:40.094Z</time>
      </trkpt>
      <trkpt lat="43.41997" lon="2.46089">
        <ele>1147.276266</ele>
        <time>2021-05-08T11:32:41.092Z</time>
      </trkpt>
      <trkpt lat="43.42006" lon="2.4609">
        <ele>1146.631541</ele>
        <time>2021-05-08T11:32:42.092Z</time>
      </trkpt>
      <trkpt lat="43.42023" lon="2.46091">
        <ele>1145.379902</ele>
        <time>2021-05-08T11:32:44.106Z</time>
      </trkpt>
      <trkpt lat="43.4204" lon="2.4609">
        <ele>1144.199369</ele>
        <time>2021-05-08T11:32:46.103Z</time>
      </trkpt>
      <trkpt lat="43.42055" lon="2.46085">
        <ele>1143.050313</ele>
        <time>2021-05-08T11:32:48.098Z</time>
      </trkpt>
      <trkpt lat="43.42068" lon="2.46073">
        <ele>1141.935066</ele>
        <time>2021-05-08T11:32:50.091Z</time>
      </trkpt>
      <trkpt lat="43.4208" lon="2.46054">
        <ele>1140.664144</ele>
        <time>2021-05-08T11:32:52.094Z</time>
      </trkpt>
      <trkpt lat="43.4209" lon="2.46035">
        <ele>1139.403914</ele>
        <time>2021-05-08T11:32:54.115Z</time>
      </trkpt>
      <trkpt lat="43.42101" lon="2.46017">
        <ele>1138.167292</ele>
        <time>2021-05-08T11:32:56.109Z</time>
      </trkpt>
      <trkpt lat="43.42113" lon="2.45998">
        <ele>1136.942441</ele>
        <time>2021-05-08T11:32:58.117Z</time>
      </trkpt>
      <trkpt lat="43.42124" lon="2.45981">
        <ele>1135.794518</ele>
        <time>2021-05-08T11:33:00.104Z</time>
      </trkpt>
      <trkpt lat="43.42133" lon="2.45965">
        <ele>1134.7496</ele>
        <time>2021-05-08T11:33:02.109Z</time>
      </trkpt>
      <trkpt lat="43.42142" lon="2.45951">
        <ele>1133.813041</ele>
        <time>2021-05-08T11:33:04.131Z</time>
      </trkpt>
      <trkpt lat="43.42151" lon="2.45938">
        <ele>1132.909978</ele>
        <time>2021-05-08T11:33:06.094Z</time>
      </trkpt>
      <trkpt lat="43.42156" lon="2.45923">
        <ele>1132.060006</ele>
        <time>2021-05-08T11:33:08.097Z</time>
      </trkpt>
      <trkpt lat="43.42158" lon="2.45904">
        <ele>1131.123891</ele>
        <time>2021-05-08T11:33:10.096Z</time>
      </trkpt>
      <trkpt lat="43.42156" lon="2.45885">
        <ele>1130.125392</ele>
        <time>2021-05-08T11:33:12.093Z</time>
      </trkpt>
      <trkpt lat="43.42153" lon="2.45865">
        <ele>1129.071595</ele>
        <time>2021-05-08T11:33:14.103Z</time>
      </trkpt>
      <trkpt lat="43.42148" lon="2.45845">
        <ele>1128.010907</ele>
        <time>2021-05-08T11:33:16.112Z</time>
      </trkpt>
      <trkpt lat="43.42143" lon="2.45826">
        <ele>1126.99037</ele>
        <time>2021-05-08T11:33:18.141Z</time>
      </trkpt>
      <trkpt lat="43.42138" lon="2.45804">
        <ele>1125.849259</ele>
        <time>2021-05-08T11:33:20.112Z</time>
      </trkpt>
      <trkpt lat="43.42133" lon="2.45781">
        <ele>1124.598275</ele>
        <time>2021-05-08T11:33:22.091Z</time>
      </trkpt>
      <trkpt lat="43.42131" lon="2.45769">
        <ele>1123.950196</ele>
        <time>2021-05-08T11:33:23.124Z</time>
      </trkpt>
      <trkpt lat="43.4213" lon="2.45746">
        <ele>1122.758937</ele>
        <time>2021-05-08T11:33:25.103Z</time>
      </trkpt>
      <trkpt lat="43.42135" lon="2.45722">
        <ele>1121.460466</ele>
        <time>2021-05-08T11:33:27.128Z</time>
      </trkpt>
      <trkpt lat="43.42139" lon="2.45709">
        <ele>1120.771874</ele>
        <time>2021-05-08T11:33:28.104Z</time>
      </trkpt>
      <trkpt lat="43.42142" lon="2.45697">
        <ele>1120.063606</ele>
        <time>2021-05-08T11:33:29.130Z</time>
      </trkpt>
      <trkpt lat="43.42146" lon="2.45684">
        <ele>1119.349909</ele>
        <time>2021-05-08T11:33:30.090Z</time>
      </trkpt>
      <trkpt lat="43.4215" lon="2.45672">
        <ele>1118.652353</ele>
        <time>2021-05-08T11:33:31.094Z</time>
      </trkpt>
      <trkpt lat="43.42154" lon="2.45659">
        <ele>1117.947148</ele>
        <time>2021-05-08T11:33:32.110Z</time>
      </trkpt>
      <trkpt lat="43.42158" lon="2.45647">
        <ele>1117.245758</ele>
        <time>2021-05-08T11:33:33.097Z</time>
      </trkpt>
      <trkpt lat="43.42162" lon="2.45634">
        <ele>1116.551879</ele>
        <time>2021-05-08T11:33:34.109Z</time>
      </trkpt>
      <trkpt lat="43.42165" lon="2.45622">
        <ele>1115.870679</ele>
        <time>2021-05-08T11:33:35.121Z</time>
      </trkpt>
      <trkpt lat="43.42168" lon="2.4561">
        <ele>1115.201676</ele>
        <time>2021-05-08T11:33:36.104Z</time>
      </trkpt>
      <trkpt lat="43.42172" lon="2.45598">
        <ele>1114.556845</ele>
        <time>2021-05-08T11:33:37.136Z</time>
      </trkpt>
      <trkpt lat="43.4218" lon="2.45577">
        <ele>1113.306465</ele>
        <time>2021-05-08T11:33:39.123Z</time>
      </trkpt>
      <trkpt lat="43.4219" lon="2.45557">
        <ele>1111.88647</ele>
        <time>2021-05-08T11:33:41.127Z</time>
      </trkpt>
      <trkpt lat="43.42197" lon="2.45547">
        <ele>1111.114388</ele>
        <time>2021-05-08T11:33:42.104Z</time>
      </trkpt>
      <trkpt lat="43.42204" lon="2.45538">
        <ele>1110.327485</ele>
        <time>2021-05-08T11:33:43.097Z</time>
      </trkpt>
      <trkpt lat="43.42211" lon="2.45529">
        <ele>1109.516253</ele>
        <time>2021-05-08T11:33:44.092Z</time>
      </trkpt>
      <trkpt lat="43.42218" lon="2.4552">
        <ele>1108.725235</ele>
        <time>2021-05-08T11:33:45.096Z</time>
      </trkpt>
      <trkpt lat="43.42225" lon="2.45512">
        <ele>1107.970633</ele>
        <time>2021-05-08T11:33:46.116Z</time>
      </trkpt>
      <trkpt lat="43.42237" lon="2.45495">
        <ele>1106.551999</ele>
        <time>2021-05-08T11:33:48.137Z</time>
      </trkpt>
      <trkpt lat="43.4225" lon="2.4548">
        <ele>1105.186056</ele>
        <time>2021-05-08T11:33:50.110Z</time>
      </trkpt>
      <trkpt lat="43.42263" lon="2.45466">
        <ele>1103.808149</ele>
        <time>2021-05-08T11:33:52.102Z</time>
      </trkpt>
      <trkpt lat="43.42278" lon="2.45456">
        <ele>1102.445652</ele>
        <time>2021-05-08T11:33:54.099Z</time>
      </trkpt>
      <trkpt lat="43.42293" lon="2.45449">
        <ele>1101.132534</ele>
        <time>2021-05-08T11:33:56.113Z</time>
      </trkpt>
      <trkpt lat="43.42309" lon="2.45445">
        <ele>1099.812627</ele>
        <time>2021-05-08T11:33:58.093Z</time>
      </trkpt>
      <trkpt lat="43.42325" lon="2.45441">
        <ele>1098.450151</ele>
        <time>2021-05-08T11:34:00.104Z</time>
      </trkpt>
      <trkpt lat="43.42342" lon="2.45437">
        <ele>1096.953591</ele>
        <time>2021-05-08T11:34:02.092Z</time>
      </trkpt>
      <trkpt lat="43.42357" lon="2.45433">
        <ele>1095.52382</ele>
        <time>2021-05-08T11:34:04.126Z</time>
      </trkpt>
      <trkpt lat="43.42371" lon="2.45429">
        <ele>1094.224028</ele>
        <time>2021-05-08T11:34:06.101Z</time>
      </trkpt>
      <trkpt lat="43.42383" lon="2.45424">
        <ele>1093.048998</ele>
        <time>2021-05-08T11:34:08.107Z</time>
      </trkpt>
      <trkpt lat="43.4239" lon="2.45412">
        <ele>1092.030976</ele>
        <time>2021-05-08T11:34:10.127Z</time>
      </trkpt>
      <trkpt lat="43.42387" lon="2.45397">
        <ele>1091.024364</ele>
        <time>2021-05-08T11:34:12.103Z</time>
      </trkpt>
      <trkpt lat="43.42377" lon="2.45383">
        <ele>1089.742886</ele>
        <time>2021-05-08T11:34:14.104Z</time>
      </trkpt>
      <trkpt lat="43.42365" lon="2.45373">
        <ele>1088.399137</ele>
        <time>2021-05-08T11:34:16.098Z</time>
      </trkpt>
      <trkpt lat="43.42354" lon="2.45358">
        <ele>1087.034883</ele>
        <time>2021-05-08T11:34:18.102Z</time>
      </trkpt>
      <trkpt lat="43.42348" lon="2.4534">
        <ele>1085.692459</ele>
        <time>2021-05-08T11:34:20.090Z</time>
      </trkpt>
      <trkpt lat="43.42346" lon="2.4532">
        <ele>1084.352702</ele>
        <time>2021-05-08T11:34:22.092Z</time>
      </trkpt>
      <trkpt lat="43.42347" lon="2.45299">
        <ele>1082.94951</ele>
        <time>2021-05-08T11:34:24.099Z</time>
      </trkpt>
      <trkpt lat="43.42348" lon="2.45279">
        <ele>1081.67429</ele>
        <time>2021-05-08T11:34:26.091Z</time>
      </trkpt>
      <trkpt lat="43.42346" lon="2.45261">
        <ele>1080.922911</ele>
        <time>2021-05-08T11:34:28.094Z</time>
      </trkpt>
      <trkpt lat="43.42335" lon="2.45248">
        <ele>1080.088183</ele>
        <time>2021-05-08T11:34:30.110Z</time>
      </trkpt>
      <trkpt lat="43.42319" lon="2.45238">
        <ele>1079.112249</ele>
        <time>2021-05-08T11:34:32.097Z</time>
      </trkpt>
      <trkpt lat="43.42303" lon="2.45228">
        <ele>1078.086256</ele>
        <time>2021-05-08T11:34:34.091Z</time>
      </trkpt>
      <trkpt lat="43.42294" lon="2.45222">
        <ele>1077.549585</ele>
        <time>2021-05-08T11:34:35.102Z</time>
      </trkpt>
      <trkpt lat="43.42286" lon="2.45216">
        <ele>1076.995812</ele>
        <time>2021-05-08T11:34:36.102Z</time>
      </trkpt>
      <trkpt lat="43.42277" lon="2.4521">
        <ele>1076.450808</ele>
        <time>2021-05-08T11:34:37.113Z</time>
      </trkpt>
      <trkpt lat="43.42268" lon="2.45205">
        <ele>1075.914574</ele>
        <time>2021-05-08T11:34:38.098Z</time>
      </trkpt>
      <trkpt lat="43.4226" lon="2.45201">
        <ele>1075.376396</ele>
        <time>2021-05-08T11:34:39.098Z</time>
      </trkpt>
      <trkpt lat="43.4225" lon="2.45198">
        <ele>1074.826293</ele>
        <time>2021-05-08T11:34:40.111Z</time>
      </trkpt>
      <trkpt lat="43.42241" lon="2.45196">
        <ele>1074.29801</ele>
        <time>2021-05-08T11:34:41.133Z</time>
      </trkpt>
      <trkpt lat="43.42224" lon="2.45193">
        <ele>1073.318441</ele>
        <time>2021-05-08T11:34:43.086Z</time>
      </trkpt>
      <trkpt lat="43.42207" lon="2.45191">
        <ele>1072.38106</ele>
        <time>2021-05-08T11:34:45.120Z</time>
      </trkpt>
      <trkpt lat="43.42191" lon="2.45188">
        <ele>1071.454305</ele>
        <time>2021-05-08T11:34:47.130Z</time>
      </trkpt>
      <trkpt lat="43.42175" lon="2.45184">
        <ele>1070.114934</ele>
        <time>2021-05-08T11:34:49.105Z</time>
      </trkpt>
      <trkpt lat="43.42159" lon="2.45177">
        <ele>1068.737447</ele>
        <time>2021-05-08T11:34:51.089Z</time>
      </trkpt>
      <trkpt lat="43.42143" lon="2.45167">
        <ele>1067.385185</ele>
        <time>2021-05-08T11:34:53.098Z</time>
      </trkpt>
      <trkpt lat="43.42132" lon="2.45152">
        <ele>1066.085572</ele>
        <time>2021-05-08T11:34:55.112Z</time>
      </trkpt>
      <trkpt lat="43.42122" lon="2.45132">
        <ele>1064.678634</ele>
        <time>2021-05-08T11:34:57.108Z</time>
      </trkpt>
      <trkpt lat="43.42116" lon="2.45109">
        <ele>1063.26894</ele>
        <time>2021-05-08T11:34:59.137Z</time>
      </trkpt>
      <trkpt lat="43.42109" lon="2.45087">
        <ele>1061.853846</ele>
        <time>2021-05-08T11:35:01.097Z</time>
      </trkpt>
      <trkpt lat="43.42102" lon="2.45066">
        <ele>1060.525411</ele>
        <time>2021-05-08T11:35:03.124Z</time>
      </trkpt>
      <trkpt lat="43.42092" lon="2.45051">
        <ele>1059.318731</ele>
        <time>2021-05-08T11:35:05.137Z</time>
      </trkpt>
      <trkpt lat="43.42078" lon="2.45042">
        <ele>1058.083398</ele>
        <time>2021-05-08T11:35:07.091Z</time>
      </trkpt>
      <trkpt lat="43.42062" lon="2.45036">
        <ele>1056.782327</ele>
        <time>2021-05-08T11:35:09.099Z</time>
      </trkpt>
      <trkpt lat="43.42048" lon="2.45027">
        <ele>1055.549608</ele>
        <time>2021-05-08T11:35:11.100Z</time>
      </trkpt>
      <trkpt lat="43.42038" lon="2.45014">
        <ele>1054.455096</ele>
        <time>2021-05-08T11:35:13.133Z</time>
      </trkpt>
      <trkpt lat="43.4203" lon="2.44995">
        <ele>1053.221828</ele>
        <time>2021-05-08T11:35:15.099Z</time>
      </trkpt>
      <trkpt lat="43.42028" lon="2.44983">
        <ele>1052.509562</ele>
        <time>2021-05-08T11:35:16.091Z</time>
      </trkpt>
      <trkpt lat="43.42025" lon="2.44959">
        <ele>1051.093813</ele>
        <time>2021-05-08T11:35:18.100Z</time>
      </trkpt>
      <trkpt lat="43.42024" lon="2.44947">
        <ele>1050.380448</ele>
        <time>2021-05-08T11:35:19.099Z</time>
      </trkpt>
      <trkpt lat="43.42024" lon="2.44924">
        <ele>1049.063754</ele>
        <time>2021-05-08T11:35:21.092Z</time>
      </trkpt>
      <trkpt lat="43.42022" lon="2.44904">
        <ele>1047.916421</ele>
        <time>2021-05-08T11:35:23.096Z</time>
      </trkpt>
      <trkpt lat="43.42017" lon="2.44885">
        <ele>1046.756409</ele>
        <time>2021-05-08T11:35:25.140Z</time>
      </trkpt>
      <trkpt lat="43.42007" lon="2.44867">
        <ele>1045.472318</ele>
        <time>2021-05-08T11:35:27.103Z</time>
      </trkpt>
      <trkpt lat="43.41995" lon="2.44852">
        <ele>1044.177605</ele>
        <time>2021-05-08T11:35:29.127Z</time>
      </trkpt>
      <trkpt lat="43.41982" lon="2.44837">
        <ele>1042.837225</ele>
        <time>2021-05-08T11:35:31.100Z</time>
      </trkpt>
      <trkpt lat="43.41975" lon="2.44829">
        <ele>1042.040321</ele>
        <time>2021-05-08T11:35:32.123Z</time>
      </trkpt>
      <trkpt lat="43.41968" lon="2.44821">
        <ele>1041.205532</ele>
        <time>2021-05-08T11:35:33.133Z</time>
      </trkpt>
      <trkpt lat="43.4196" lon="2.44812">
        <ele>1040.337165</ele>
        <time>2021-05-08T11:35:34.098Z</time>
      </trkpt>
      <trkpt lat="43.41953" lon="2.44802">
        <ele>1039.434262</ele>
        <time>2021-05-08T11:35:35.097Z</time>
      </trkpt>
      <trkpt lat="43.41946" lon="2.44792">
        <ele>1038.530685</ele>
        <time>2021-05-08T11:35:36.101Z</time>
      </trkpt>
      <trkpt lat="43.41938" lon="2.44782">
        <ele>1037.629749</ele>
        <time>2021-05-08T11:35:37.097Z</time>
      </trkpt>
      <trkpt lat="43.41931" lon="2.44773">
        <ele>1036.757064</ele>
        <time>2021-05-08T11:35:38.108Z</time>
      </trkpt>
      <trkpt lat="43.41924" lon="2.44764">
        <ele>1035.923067</ele>
        <time>2021-05-08T11:35:39.126Z</time>
      </trkpt>
      <trkpt lat="43.41912" lon="2.44747">
        <ele>1034.406143</ele>
        <time>2021-05-08T11:35:41.111Z</time>
      </trkpt>
      <trkpt lat="43.41903" lon="2.4473">
        <ele>1033.055032</ele>
        <time>2021-05-08T11:35:43.094Z</time>
      </trkpt>
      <trkpt lat="43.41897" lon="2.4471">
        <ele>1031.719036</ele>
        <time>2021-05-08T11:35:45.098Z</time>
      </trkpt>
      <trkpt lat="43.41896" lon="2.44687">
        <ele>1030.240947</ele>
        <time>2021-05-08T11:35:47.105Z</time>
      </trkpt>
      <trkpt lat="43.41897" lon="2.44663">
        <ele>1028.680317</ele>
        <time>2021-05-08T11:35:49.093Z</time>
      </trkpt>
      <trkpt lat="43.41899" lon="2.4465">
        <ele>1027.883053</ele>
        <time>2021-05-08T11:35:50.090Z</time>
      </trkpt>
      <trkpt lat="43.419" lon="2.44627">
        <ele>1026.363526</ele>
        <time>2021-05-08T11:35:52.094Z</time>
      </trkpt>
      <trkpt lat="43.41902" lon="2.44603">
        <ele>1024.913235</ele>
        <time>2021-05-08T11:35:54.103Z</time>
      </trkpt>
      <trkpt lat="43.41903" lon="2.4458">
        <ele>1023.411577</ele>
        <time>2021-05-08T11:35:56.099Z</time>
      </trkpt>
      <trkpt lat="43.41906" lon="2.44555">
        <ele>1021.876057</ele>
        <time>2021-05-08T11:35:58.110Z</time>
      </trkpt>
      <trkpt lat="43.41907" lon="2.44543">
        <ele>1021.094255</ele>
        <time>2021-05-08T11:35:59.113Z</time>
      </trkpt>
      <trkpt lat="43.41909" lon="2.44531">
        <ele>1020.318612</ele>
        <time>2021-05-08T11:36:00.149Z</time>
      </trkpt>
      <trkpt lat="43.41913" lon="2.44507">
        <ele>1018.822097</ele>
        <time>2021-05-08T11:36:02.095Z</time>
      </trkpt>
      <trkpt lat="43.41916" lon="2.44485">
        <ele>1017.362286</ele>
        <time>2021-05-08T11:36:04.106Z</time>
      </trkpt>
      <trkpt lat="43.4192" lon="2.44461">
        <ele>1015.838006</ele>
        <time>2021-05-08T11:36:06.101Z</time>
      </trkpt>
      <trkpt lat="43.41922" lon="2.44449">
        <ele>1015.061609</ele>
        <time>2021-05-08T11:36:07.097Z</time>
      </trkpt>
      <trkpt lat="43.41927" lon="2.44425">
        <ele>1013.512945</ele>
        <time>2021-05-08T11:36:09.107Z</time>
      </trkpt>
      <trkpt lat="43.41929" lon="2.44413">
        <ele>1012.741451</ele>
        <time>2021-05-08T11:36:10.099Z</time>
      </trkpt>
      <trkpt lat="43.41932" lon="2.44401">
        <ele>1011.950201</ele>
        <time>2021-05-08T11:36:11.102Z</time>
      </trkpt>
      <trkpt lat="43.41936" lon="2.44389">
        <ele>1011.232331</ele>
        <time>2021-05-08T11:36:12.100Z</time>
      </trkpt>
      <trkpt lat="43.4194" lon="2.44377">
        <ele>1010.62394</ele>
        <time>2021-05-08T11:36:13.107Z</time>
      </trkpt>
      <trkpt lat="43.41944" lon="2.44365">
        <ele>1010.018168</ele>
        <time>2021-05-08T11:36:14.102Z</time>
      </trkpt>
      <trkpt lat="43.41948" lon="2.44353">
        <ele>1009.425938</ele>
        <time>2021-05-08T11:36:15.109Z</time>
      </trkpt>
      <trkpt lat="43.41951" lon="2.44341">
        <ele>1008.832757</ele>
        <time>2021-05-08T11:36:16.144Z</time>
      </trkpt>
      <trkpt lat="43.41955" lon="2.4433">
        <ele>1008.257404</ele>
        <time>2021-05-08T11:36:17.114Z</time>
      </trkpt>
      <trkpt lat="43.41959" lon="2.44319">
        <ele>1007.686443</ele>
        <time>2021-05-08T11:36:18.114Z</time>
      </trkpt>
      <trkpt lat="43.41963" lon="2.44308">
        <ele>1007.116836</ele>
        <time>2021-05-08T11:36:19.125Z</time>
      </trkpt>
      <trkpt lat="43.41971" lon="2.44286">
        <ele>1005.999851</ele>
        <time>2021-05-08T11:36:21.142Z</time>
      </trkpt>
      <trkpt lat="43.41978" lon="2.44266">
        <ele>1004.969958</ele>
        <time>2021-05-08T11:36:23.097Z</time>
      </trkpt>
      <trkpt lat="43.41983" lon="2.44247">
        <ele>1004.026989</ele>
        <time>2021-05-08T11:36:25.104Z</time>
      </trkpt>
      <trkpt lat="43.41987" lon="2.44228">
        <ele>1003.112778</ele>
        <time>2021-05-08T11:36:27.093Z</time>
      </trkpt>
      <trkpt lat="43.41988" lon="2.44209">
        <ele>1002.222652</ele>
        <time>2021-05-08T11:36:29.095Z</time>
      </trkpt>
      <trkpt lat="43.41986" lon="2.44189">
        <ele>1001.320402</ele>
        <time>2021-05-08T11:36:31.106Z</time>
      </trkpt>
      <trkpt lat="43.41979" lon="2.44171">
        <ele>1000.359606</ele>
        <time>2021-05-08T11:36:33.099Z</time>
      </trkpt>
      <trkpt lat="43.41966" lon="2.44156">
        <ele>999.364548</ele>
        <time>2021-05-08T11:36:35.102Z</time>
      </trkpt>
      <trkpt lat="43.41951" lon="2.44151">
        <ele>998.376022</ele>
        <time>2021-05-08T11:36:37.100Z</time>
      </trkpt>
      <trkpt lat="43.41934" lon="2.4415">
        <ele>997.379835</ele>
        <time>2021-05-08T11:36:39.093Z</time>
      </trkpt>
      <trkpt lat="43.41918" lon="2.44149">
        <ele>996.375512</ele>
        <time>2021-05-08T11:36:41.126Z</time>
      </trkpt>
      <trkpt lat="43.41902" lon="2.44145">
        <ele>995.356365</ele>
        <time>2021-05-08T11:36:43.106Z</time>
      </trkpt>
      <trkpt lat="43.41884" lon="2.44141">
        <ele>994.291181</ele>
        <time>2021-05-08T11:36:45.127Z</time>
      </trkpt>
      <trkpt lat="43.41867" lon="2.44142">
        <ele>993.195717</ele>
        <time>2021-05-08T11:36:47.095Z</time>
      </trkpt>
      <trkpt lat="43.41857" lon="2.44146">
        <ele>992.592625</ele>
        <time>2021-05-08T11:36:48.087Z</time>
      </trkpt>
      <trkpt lat="43.41847" lon="2.4415">
        <ele>991.979931</ele>
        <time>2021-05-08T11:36:49.098Z</time>
      </trkpt>
      <trkpt lat="43.41838" lon="2.44154">
        <ele>991.368507</ele>
        <time>2021-05-08T11:36:50.104Z</time>
      </trkpt>
      <trkpt lat="43.41828" lon="2.44157">
        <ele>990.758323</ele>
        <time>2021-05-08T11:36:51.091Z</time>
      </trkpt>
      <trkpt lat="43.41819" lon="2.44161">
        <ele>990.152804</ele>
        <time>2021-05-08T11:36:52.111Z</time>
      </trkpt>
      <trkpt lat="43.41809" lon="2.44164">
        <ele>989.557416</ele>
        <time>2021-05-08T11:36:53.155Z</time>
      </trkpt>
      <trkpt lat="43.41799" lon="2.44167">
        <ele>988.923101</ele>
        <time>2021-05-08T11:36:54.105Z</time>
      </trkpt>
      <trkpt lat="43.4179" lon="2.4417">
        <ele>988.221825</ele>
        <time>2021-05-08T11:36:55.103Z</time>
      </trkpt>
      <trkpt lat="43.4178" lon="2.44174">
        <ele>987.534169</ele>
        <time>2021-05-08T11:36:56.113Z</time>
      </trkpt>
      <trkpt lat="43.41771" lon="2.44177">
        <ele>986.832893</ele>
        <time>2021-05-08T11:36:57.099Z</time>
      </trkpt>
      <trkpt lat="43.41761" lon="2.4418">
        <ele>986.171598</ele>
        <time>2021-05-08T11:36:58.105Z</time>
      </trkpt>
      <trkpt lat="43.41752" lon="2.44182">
        <ele>985.491791</ele>
        <time>2021-05-08T11:36:59.095Z</time>
      </trkpt>
      <trkpt lat="43.41742" lon="2.44186">
        <ele>984.772365</ele>
        <time>2021-05-08T11:37:00.101Z</time>
      </trkpt>
      <trkpt lat="43.41732" lon="2.44189">
        <ele>984.080299</ele>
        <time>2021-05-08T11:37:01.127Z</time>
      </trkpt>
      <trkpt lat="43.41723" lon="2.44192">
        <ele>983.399445</ele>
        <time>2021-05-08T11:37:02.107Z</time>
      </trkpt>
      <trkpt lat="43.41714" lon="2.44195">
        <ele>982.73088</ele>
        <time>2021-05-08T11:37:03.101Z</time>
      </trkpt>
      <trkpt lat="43.41705" lon="2.44198">
        <ele>982.095802</ele>
        <time>2021-05-08T11:37:04.108Z</time>
      </trkpt>
      <trkpt lat="43.41688" lon="2.44203">
        <ele>980.867793</ele>
        <time>2021-05-08T11:37:06.107Z</time>
      </trkpt>
      <trkpt lat="43.41671" lon="2.44208">
        <ele>979.641902</ele>
        <time>2021-05-08T11:37:08.126Z</time>
      </trkpt>
      <trkpt lat="43.41662" lon="2.44211">
        <ele>979.011259</ele>
        <time>2021-05-08T11:37:09.134Z</time>
      </trkpt>
      <trkpt lat="43.41653" lon="2.44214">
        <ele>978.366936</ele>
        <time>2021-05-08T11:37:10.144Z</time>
      </trkpt>
      <trkpt lat="43.41644" lon="2.44219">
        <ele>977.709114</ele>
        <time>2021-05-08T11:37:11.123Z</time>
      </trkpt>
      <trkpt lat="43.41636" lon="2.44225">
        <ele>977.048765</ele>
        <time>2021-05-08T11:37:12.127Z</time>
      </trkpt>
      <trkpt lat="43.41628" lon="2.44233">
        <ele>976.36746</ele>
        <time>2021-05-08T11:37:13.130Z</time>
      </trkpt>
      <trkpt lat="43.41621" lon="2.44241">
        <ele>975.573739</ele>
        <time>2021-05-08T11:37:14.125Z</time>
      </trkpt>
      <trkpt lat="43.41614" lon="2.4425">
        <ele>974.790721</ele>
        <time>2021-05-08T11:37:15.094Z</time>
      </trkpt>
      <trkpt lat="43.41608" lon="2.4426">
        <ele>974.000362</ele>
        <time>2021-05-08T11:37:16.094Z</time>
      </trkpt>
      <trkpt lat="43.41602" lon="2.44269">
        <ele>973.223373</ele>
        <time>2021-05-08T11:37:17.094Z</time>
      </trkpt>
      <trkpt lat="43.41594" lon="2.44277">
        <ele>972.438663</ele>
        <time>2021-05-08T11:37:18.106Z</time>
      </trkpt>
      <trkpt lat="43.41587" lon="2.44284">
        <ele>971.670897</ele>
        <time>2021-05-08T11:37:19.097Z</time>
      </trkpt>
      <trkpt lat="43.4158" lon="2.44292">
        <ele>970.906955</ele>
        <time>2021-05-08T11:37:20.129Z</time>
      </trkpt>
      <trkpt lat="43.41573" lon="2.443">
        <ele>970.133525</ele>
        <time>2021-05-08T11:37:21.124Z</time>
      </trkpt>
      <trkpt lat="43.41566" lon="2.44308">
        <ele>969.366754</ele>
        <time>2021-05-08T11:37:22.103Z</time>
      </trkpt>
      <trkpt lat="43.41552" lon="2.44323">
        <ele>967.877976</ele>
        <time>2021-05-08T11:37:24.121Z</time>
      </trkpt>
      <trkpt lat="43.41539" lon="2.44338">
        <ele>966.472161</ele>
        <time>2021-05-08T11:37:26.130Z</time>
      </trkpt>
      <trkpt lat="43.41527" lon="2.44353">
        <ele>965.079183</ele>
        <time>2021-05-08T11:37:28.099Z</time>
      </trkpt>
      <trkpt lat="43.41514" lon="2.44368">
        <ele>963.644748</ele>
        <time>2021-05-08T11:37:30.103Z</time>
      </trkpt>
      <trkpt lat="43.415" lon="2.44383">
        <ele>962.18297</ele>
        <time>2021-05-08T11:37:32.102Z</time>
      </trkpt>
      <trkpt lat="43.41486" lon="2.44398">
        <ele>960.680214</ele>
        <time>2021-05-08T11:37:34.116Z</time>
      </trkpt>
      <trkpt lat="43.41472" lon="2.44413">
        <ele>959.165921</ele>
        <time>2021-05-08T11:37:36.097Z</time>
      </trkpt>
      <trkpt lat="43.41457" lon="2.44425">
        <ele>957.692273</ele>
        <time>2021-05-08T11:37:38.100Z</time>
      </trkpt>
      <trkpt lat="43.41443" lon="2.44435">
        <ele>956.263279</ele>
        <time>2021-05-08T11:37:40.111Z</time>
      </trkpt>
      <trkpt lat="43.41427" lon="2.44444">
        <ele>954.825402</ele>
        <time>2021-05-08T11:37:42.097Z</time>
      </trkpt>
      <trkpt lat="43.41411" lon="2.44453">
        <ele>953.334059</ele>
        <time>2021-05-08T11:37:44.110Z</time>
      </trkpt>
      <trkpt lat="43.41403" lon="2.44458">
        <ele>952.54823</ele>
        <time>2021-05-08T11:37:45.106Z</time>
      </trkpt>
      <trkpt lat="43.41394" lon="2.44462">
        <ele>951.746361</ele>
        <time>2021-05-08T11:37:46.098Z</time>
      </trkpt>
      <trkpt lat="43.41385" lon="2.44467">
        <ele>950.947906</ele>
        <time>2021-05-08T11:37:47.095Z</time>
      </trkpt>
      <trkpt lat="43.41377" lon="2.44472">
        <ele>950.14147</ele>
        <time>2021-05-08T11:37:48.102Z</time>
      </trkpt>
      <trkpt lat="43.41368" lon="2.44477">
        <ele>949.325404</ele>
        <time>2021-05-08T11:37:49.136Z</time>
      </trkpt>
      <trkpt lat="43.41359" lon="2.44482">
        <ele>948.505229</ele>
        <time>2021-05-08T11:37:50.096Z</time>
      </trkpt>
      <trkpt lat="43.4135" lon="2.44487">
        <ele>947.678154</ele>
        <time>2021-05-08T11:37:51.092Z</time>
      </trkpt>
      <trkpt lat="43.41341" lon="2.44492">
        <ele>946.846274</ele>
        <time>2021-05-08T11:37:52.131Z</time>
      </trkpt>
      <trkpt lat="43.41332" lon="2.44497">
        <ele>946.016816</ele>
        <time>2021-05-08T11:37:53.111Z</time>
      </trkpt>
      <trkpt lat="43.41323" lon="2.44503">
        <ele>945.209539</ele>
        <time>2021-05-08T11:37:54.097Z</time>
      </trkpt>
      <trkpt lat="43.41314" lon="2.44508">
        <ele>944.439943</ele>
        <time>2021-05-08T11:37:55.103Z</time>
      </trkpt>
      <trkpt lat="43.41306" lon="2.44512">
        <ele>943.699419</ele>
        <time>2021-05-08T11:37:56.112Z</time>
      </trkpt>
      <trkpt lat="43.4129" lon="2.44522">
        <ele>942.324612</ele>
        <time>2021-05-08T11:37:58.108Z</time>
      </trkpt>
      <trkpt lat="43.41276" lon="2.44531">
        <ele>941.059671</ele>
        <time>2021-05-08T11:38:00.101Z</time>
      </trkpt>
      <trkpt lat="43.41262" lon="2.44541">
        <ele>939.777302</ele>
        <time>2021-05-08T11:38:02.109Z</time>
      </trkpt>
      <trkpt lat="43.41247" lon="2.44551">
        <ele>938.406543</ele>
        <time>2021-05-08T11:38:04.124Z</time>
      </trkpt>
      <trkpt lat="43.41231" lon="2.44562">
        <ele>936.989838</ele>
        <time>2021-05-08T11:38:06.139Z</time>
      </trkpt>
      <trkpt lat="43.41215" lon="2.44571">
        <ele>935.605157</ele>
        <time>2021-05-08T11:38:08.126Z</time>
      </trkpt>
      <trkpt lat="43.412" lon="2.44582">
        <ele>934.208067</ele>
        <time>2021-05-08T11:38:10.123Z</time>
      </trkpt>
      <trkpt lat="43.41184" lon="2.44592">
        <ele>932.798601</ele>
        <time>2021-05-08T11:38:12.108Z</time>
      </trkpt>
      <trkpt lat="43.41168" lon="2.44603">
        <ele>931.375881</ele>
        <time>2021-05-08T11:38:14.104Z</time>
      </trkpt>
      <trkpt lat="43.41153" lon="2.44611">
        <ele>930.51489</ele>
        <time>2021-05-08T11:38:16.143Z</time>
      </trkpt>
      <trkpt lat="43.41138" lon="2.44619">
        <ele>929.600812</ele>
        <time>2021-05-08T11:38:18.107Z</time>
      </trkpt>
      <trkpt lat="43.41129" lon="2.44622">
        <ele>929.098799</ele>
        <time>2021-05-08T11:38:19.095Z</time>
      </trkpt>
      <trkpt lat="43.41112" lon="2.44627">
        <ele>928.136433</ele>
        <time>2021-05-08T11:38:21.096Z</time>
      </trkpt>
      <trkpt lat="43.41094" lon="2.44627">
        <ele>927.180737</ele>
        <time>2021-05-08T11:38:23.089Z</time>
      </trkpt>
      <trkpt lat="43.41085" lon="2.44626">
        <ele>926.682806</ele>
        <time>2021-05-08T11:38:24.121Z</time>
      </trkpt>
      <trkpt lat="43.41068" lon="2.4462">
        <ele>925.714724</ele>
        <time>2021-05-08T11:38:26.097Z</time>
      </trkpt>
      <trkpt lat="43.41052" lon="2.44611">
        <ele>924.780626</ele>
        <time>2021-05-08T11:38:28.085Z</time>
      </trkpt>
      <trkpt lat="43.41039" lon="2.44598">
        <ele>923.862023</ele>
        <time>2021-05-08T11:38:30.104Z</time>
      </trkpt>
      <trkpt lat="43.41027" lon="2.44582">
        <ele>922.95788</ele>
        <time>2021-05-08T11:38:32.120Z</time>
      </trkpt>
      <trkpt lat="43.41014" lon="2.44567">
        <ele>922.018465</ele>
        <time>2021-05-08T11:38:34.103Z</time>
      </trkpt>
      <trkpt lat="43.41001" lon="2.44551">
        <ele>921.236341</ele>
        <time>2021-05-08T11:38:36.109Z</time>
      </trkpt>
      <trkpt lat="43.40988" lon="2.44535">
        <ele>920.645795</ele>
        <time>2021-05-08T11:38:38.103Z</time>
      </trkpt>
      <trkpt lat="43.40976" lon="2.44521">
        <ele>920.08004</ele>
        <time>2021-05-08T11:38:40.135Z</time>
      </trkpt>
      <trkpt lat="43.40962" lon="2.44506">
        <ele>919.501138</ele>
        <time>2021-05-08T11:38:42.110Z</time>
      </trkpt>
      <trkpt lat="43.40951" lon="2.4449">
        <ele>918.925626</ele>
        <time>2021-05-08T11:38:44.095Z</time>
      </trkpt>
      <trkpt lat="43.40941" lon="2.44473">
        <ele>918.381331</ele>
        <time>2021-05-08T11:38:46.100Z</time>
      </trkpt>
      <trkpt lat="43.4093" lon="2.44455">
        <ele>917.828598</ele>
        <time>2021-05-08T11:38:48.110Z</time>
      </trkpt>
      <trkpt lat="43.40921" lon="2.44436">
        <ele>917.260427</ele>
        <time>2021-05-08T11:38:50.136Z</time>
      </trkpt>
      <trkpt lat="43.40912" lon="2.44416">
        <ele>916.668992</ele>
        <time>2021-05-08T11:38:52.095Z</time>
      </trkpt>
      <trkpt lat="43.40907" lon="2.44406">
        <ele>916.357858</ele>
        <time>2021-05-08T11:38:53.112Z</time>
      </trkpt>
      <trkpt lat="43.40903" lon="2.44395">
        <ele>916.044189</ele>
        <time>2021-05-08T11:38:54.109Z</time>
      </trkpt>
      <trkpt lat="43.40898" lon="2.44384">
        <ele>915.721577</ele>
        <time>2021-05-08T11:38:55.101Z</time>
      </trkpt>
      <trkpt lat="43.40892" lon="2.44373">
        <ele>915.393288</ele>
        <time>2021-05-08T11:38:56.137Z</time>
      </trkpt>
      <trkpt lat="43.40887" lon="2.44362">
        <ele>914.663531</ele>
        <time>2021-05-08T11:38:57.106Z</time>
      </trkpt>
      <trkpt lat="43.40882" lon="2.44351">
        <ele>913.888008</ele>
        <time>2021-05-08T11:38:58.111Z</time>
      </trkpt>
      <trkpt lat="43.40877" lon="2.4434">
        <ele>913.140346</ele>
        <time>2021-05-08T11:38:59.095Z</time>
      </trkpt>
      <trkpt lat="43.4087" lon="2.44319">
        <ele>911.691641</ele>
        <time>2021-05-08T11:39:01.088Z</time>
      </trkpt>
      <trkpt lat="43.40863" lon="2.44296">
        <ele>910.236865</ele>
        <time>2021-05-08T11:39:03.089Z</time>
      </trkpt>
      <trkpt lat="43.40858" lon="2.44273">
        <ele>908.759686</ele>
        <time>2021-05-08T11:39:05.119Z</time>
      </trkpt>
      <trkpt lat="43.40855" lon="2.44261">
        <ele>907.998716</ele>
        <time>2021-05-08T11:39:06.091Z</time>
      </trkpt>
      <trkpt lat="43.40852" lon="2.44248">
        <ele>907.211174</ele>
        <time>2021-05-08T11:39:07.098Z</time>
      </trkpt>
      <trkpt lat="43.40849" lon="2.44236">
        <ele>906.42115</ele>
        <time>2021-05-08T11:39:08.109Z</time>
      </trkpt>
      <trkpt lat="43.40846" lon="2.44223">
        <ele>905.59738</ele>
        <time>2021-05-08T11:39:09.130Z</time>
      </trkpt>
      <trkpt lat="43.40843" lon="2.44209">
        <ele>904.748144</ele>
        <time>2021-05-08T11:39:10.127Z</time>
      </trkpt>
      <trkpt lat="43.4084" lon="2.44196">
        <ele>903.893185</ele>
        <time>2021-05-08T11:39:11.123Z</time>
      </trkpt>
      <trkpt lat="43.40837" lon="2.44182">
        <ele>903.029911</ele>
        <time>2021-05-08T11:39:12.098Z</time>
      </trkpt>
      <trkpt lat="43.40833" lon="2.44169">
        <ele>902.163976</ele>
        <time>2021-05-08T11:39:13.119Z</time>
      </trkpt>
      <trkpt lat="43.4083" lon="2.44155">
        <ele>901.306648</ele>
        <time>2021-05-08T11:39:14.108Z</time>
      </trkpt>
      <trkpt lat="43.40826" lon="2.44142">
        <ele>900.463447</ele>
        <time>2021-05-08T11:39:15.104Z</time>
      </trkpt>
      <trkpt lat="43.40823" lon="2.44129">
        <ele>899.74613</ele>
        <time>2021-05-08T11:39:16.119Z</time>
      </trkpt>
      <trkpt lat="43.4082" lon="2.44117">
        <ele>899.049355</ele>
        <time>2021-05-08T11:39:17.090Z</time>
      </trkpt>
      <trkpt lat="43.40814" lon="2.44095">
        <ele>897.76375</ele>
        <time>2021-05-08T11:39:19.121Z</time>
      </trkpt>
      <trkpt lat="43.40806" lon="2.44075">
        <ele>896.598957</ele>
        <time>2021-05-08T11:39:21.128Z</time>
      </trkpt>
      <trkpt lat="43.40795" lon="2.4406">
        <ele>895.432022</ele>
        <time>2021-05-08T11:39:23.094Z</time>
      </trkpt>
      <trkpt lat="43.40783" lon="2.44045">
        <ele>894.234311</ele>
        <time>2021-05-08T11:39:25.105Z</time>
      </trkpt>
      <trkpt lat="43.40771" lon="2.4403">
        <ele>893.046339</ele>
        <time>2021-05-08T11:39:27.110Z</time>
      </trkpt>
      <trkpt lat="43.40761" lon="2.44016">
        <ele>892.012988</ele>
        <time>2021-05-08T11:39:29.128Z</time>
      </trkpt>
      <trkpt lat="43.40752" lon="2.44009">
        <ele>891.231714</ele>
        <time>2021-05-08T11:39:31.096Z</time>
      </trkpt>
      <trkpt lat="43.40743" lon="2.44012">
        <ele>890.562249</ele>
        <time>2021-05-08T11:39:33.098Z</time>
      </trkpt>
      <trkpt lat="43.4074" lon="2.44025">
        <ele>889.834841</ele>
        <time>2021-05-08T11:39:35.105Z</time>
      </trkpt>
      <trkpt lat="43.40746" lon="2.44042">
        <ele>888.88131</ele>
        <time>2021-05-08T11:39:37.128Z</time>
      </trkpt>
      <trkpt lat="43.40754" lon="2.44054">
        <ele>887.984998</ele>
        <time>2021-05-08T11:39:39.095Z</time>
      </trkpt>
      <trkpt lat="43.40761" lon="2.44066">
        <ele>887.140861</ele>
        <time>2021-05-08T11:39:41.088Z</time>
      </trkpt>
      <trkpt lat="43.40768" lon="2.44079">
        <ele>886.317528</ele>
        <time>2021-05-08T11:39:43.091Z</time>
      </trkpt>
      <trkpt lat="43.40772" lon="2.44092">
        <ele>885.520714</ele>
        <time>2021-05-08T11:39:45.127Z</time>
      </trkpt>
      <trkpt lat="43.40776" lon="2.44107">
        <ele>884.651412</ele>
        <time>2021-05-08T11:39:47.090Z</time>
      </trkpt>
      <trkpt lat="43.40778" lon="2.44122">
        <ele>883.811152</ele>
        <time>2021-05-08T11:39:49.095Z</time>
      </trkpt>
      <trkpt lat="43.40778" lon="2.4414">
        <ele>882.848441</ele>
        <time>2021-05-08T11:39:51.100Z</time>
      </trkpt>
      <trkpt lat="43.40778" lon="2.44159">
        <ele>881.815302</ele>
        <time>2021-05-08T11:39:53.094Z</time>
      </trkpt>
      <trkpt lat="43.40777" lon="2.44178">
        <ele>880.781733</ele>
        <time>2021-05-08T11:39:55.124Z</time>
      </trkpt>
      <trkpt lat="43.40776" lon="2.44195">
        <ele>879.88248</ele>
        <time>2021-05-08T11:39:57.103Z</time>
      </trkpt>
      <trkpt lat="43.40771" lon="2.44207">
        <ele>879.147374</ele>
        <time>2021-05-08T11:39:59.096Z</time>
      </trkpt>
      <trkpt lat="43.40763" lon="2.44214">
        <ele>878.413612</ele>
        <time>2021-05-08T11:40:01.093Z</time>
      </trkpt>
      <trkpt lat="43.40751" lon="2.4421">
        <ele>877.543722</ele>
        <time>2021-05-08T11:40:04.104Z</time>
      </trkpt>
      <trkpt lat="43.40746" lon="2.44199">
        <ele>876.846593</ele>
        <time>2021-05-08T11:40:06.102Z</time>
      </trkpt>
      <trkpt lat="43.40743" lon="2.44185">
        <ele>876.045828</ele>
        <time>2021-05-08T11:40:08.119Z</time>
      </trkpt>
      <trkpt lat="43.40737" lon="2.44172">
        <ele>875.212418</ele>
        <time>2021-05-08T11:40:10.124Z</time>
      </trkpt>
      <trkpt lat="43.40731" lon="2.44159">
        <ele>874.418878</ele>
        <time>2021-05-08T11:40:12.097Z</time>
      </trkpt>
      <trkpt lat="43.40726" lon="2.44147">
        <ele>873.828429</ele>
        <time>2021-05-08T11:40:14.097Z</time>
      </trkpt>
      <trkpt lat="43.4072" lon="2.44135">
        <ele>873.762148</ele>
        <time>2021-05-08T11:40:16.103Z</time>
      </trkpt>
      <trkpt lat="43.40714" lon="2.44121">
        <ele>873.683699</ele>
        <time>2021-05-08T11:40:19.091Z</time>
      </trkpt>
      <trkpt lat="43.40706" lon="2.4411">
        <ele>873.615236</ele>
        <time>2021-05-08T11:40:22.125Z</time>
      </trkpt>
      <trkpt lat="43.40692" lon="2.44097">
        <ele>873.508204</ele>
        <time>2021-05-08T11:40:26.097Z</time>
      </trkpt>
      <trkpt lat="43.40683" lon="2.44095">
        <ele>873.445318</ele>
        <time>2021-05-08T11:40:30.131Z</time>
      </trkpt>
      <trkpt lat="43.40662" lon="2.44037">
        <ele>873.14556</ele>
        <time>2021-05-08T11:42:37.100Z</time>
      </trkpt>
      <trkpt lat="43.40658" lon="2.44026">
        <ele>873.087959</ele>
        <time>2021-05-08T11:42:39.089Z</time>
      </trkpt>
      <trkpt lat="43.40655" lon="2.44014">
        <ele>873.02678</ele>
        <time>2021-05-08T11:42:41.091Z</time>
      </trkpt>
      <trkpt lat="43.40651" lon="2.44001">
        <ele>872.962328</ele>
        <time>2021-05-08T11:42:43.094Z</time>
      </trkpt>
      <trkpt lat="43.40646" lon="2.43988">
        <ele>872.895868</ele>
        <time>2021-05-08T11:42:45.092Z</time>
      </trkpt>
      <trkpt lat="43.4064" lon="2.43976">
        <ele>872.828145</ele>
        <time>2021-05-08T11:42:47.094Z</time>
      </trkpt>
      <trkpt lat="43.40633" lon="2.43965">
        <ele>872.759682</ele>
        <time>2021-05-08T11:42:49.124Z</time>
      </trkpt>
      <trkpt lat="43.40625" lon="2.43955">
        <ele>872.677241</ele>
        <time>2021-05-08T11:42:51.097Z</time>
      </trkpt>
      <trkpt lat="43.40617" lon="2.43947">
        <ele>872.432936</ele>
        <time>2021-05-08T11:42:53.097Z</time>
      </trkpt>
      <trkpt lat="43.40609" lon="2.43939">
        <ele>872.182982</ele>
        <time>2021-05-08T11:42:55.131Z</time>
      </trkpt>
      <trkpt lat="43.406" lon="2.4393">
        <ele>871.910554</ele>
        <time>2021-05-08T11:42:57.101Z</time>
      </trkpt>
      <trkpt lat="43.4059" lon="2.43921">
        <ele>871.617932</ele>
        <time>2021-05-08T11:42:59.093Z</time>
      </trkpt>
      <trkpt lat="43.40581" lon="2.43912">
        <ele>871.325259</ele>
        <time>2021-05-08T11:43:01.141Z</time>
      </trkpt>
      <trkpt lat="43.4057" lon="2.43902">
        <ele>871.008118</ele>
        <time>2021-05-08T11:43:03.122Z</time>
      </trkpt>
      <trkpt lat="43.40559" lon="2.43893">
        <ele>870.691945</ele>
        <time>2021-05-08T11:43:05.136Z</time>
      </trkpt>
      <trkpt lat="43.40547" lon="2.43884">
        <ele>870.360881</ele>
        <time>2021-05-08T11:43:07.121Z</time>
      </trkpt>
      <trkpt lat="43.40535" lon="2.43875">
        <ele>870.031508</ele>
        <time>2021-05-08T11:43:09.093Z</time>
      </trkpt>
      <trkpt lat="43.40524" lon="2.43869">
        <ele>869.722239</ele>
        <time>2021-05-08T11:43:11.117Z</time>
      </trkpt>
      <trkpt lat="43.40512" lon="2.43865">
        <ele>869.427798</ele>
        <time>2021-05-08T11:43:13.125Z</time>
      </trkpt>
      <trkpt lat="43.40501" lon="2.43861">
        <ele>869.138451</ele>
        <time>2021-05-08T11:43:15.097Z</time>
      </trkpt>
      <trkpt lat="43.40489" lon="2.43858">
        <ele>868.842762</ele>
        <time>2021-05-08T11:43:17.128Z</time>
      </trkpt>
      <trkpt lat="43.40478" lon="2.43855">
        <ele>868.575441</ele>
        <time>2021-05-08T11:43:19.131Z</time>
      </trkpt>
      <trkpt lat="43.40468" lon="2.43852">
        <ele>868.30812</ele>
        <time>2021-05-08T11:43:21.123Z</time>
      </trkpt>
      <trkpt lat="43.40457" lon="2.43848">
        <ele>868.317608</ele>
        <time>2021-05-08T11:43:23.118Z</time>
      </trkpt>
      <trkpt lat="43.40447" lon="2.43843">
        <ele>868.386178</ele>
        <time>2021-05-08T11:43:25.100Z</time>
      </trkpt>
      <trkpt lat="43.40436" lon="2.43834">
        <ele>868.460916</ele>
        <time>2021-05-08T11:43:27.103Z</time>
      </trkpt>
      <trkpt lat="43.40426" lon="2.43824">
        <ele>868.538851</ele>
        <time>2021-05-08T11:43:29.088Z</time>
      </trkpt>
      <trkpt lat="43.40417" lon="2.43812">
        <ele>868.614519</ele>
        <time>2021-05-08T11:43:31.093Z</time>
      </trkpt>
      <trkpt lat="43.40409" lon="2.43802">
        <ele>868.685123</ele>
        <time>2021-05-08T11:43:33.095Z</time>
      </trkpt>
      <trkpt lat="43.40402" lon="2.43792">
        <ele>868.750236</ele>
        <time>2021-05-08T11:43:35.101Z</time>
      </trkpt>
      <trkpt lat="43.40393" lon="2.43782">
        <ele>868.822566</ele>
        <time>2021-05-08T11:43:37.096Z</time>
      </trkpt>
      <trkpt lat="43.40383" lon="2.43773">
        <ele>868.894761</ele>
        <time>2021-05-08T11:43:39.099Z</time>
      </trkpt>
      <trkpt lat="43.40372" lon="2.43765">
        <ele>868.973204</ele>
        <time>2021-05-08T11:43:41.096Z</time>
      </trkpt>
      <trkpt lat="43.4036" lon="2.43757">
        <ele>869.054521</ele>
        <time>2021-05-08T11:43:43.103Z</time>
      </trkpt>
      <trkpt lat="43.40348" lon="2.43748">
        <ele>869.139308</ele>
        <time>2021-05-08T11:43:45.108Z</time>
      </trkpt>
      <trkpt lat="43.40336" lon="2.4374">
        <ele>869.224334</ele>
        <time>2021-05-08T11:43:47.128Z</time>
      </trkpt>
      <trkpt lat="43.40324" lon="2.43731">
        <ele>869.308699</ele>
        <time>2021-05-08T11:43:49.096Z</time>
      </trkpt>
      <trkpt lat="43.40312" lon="2.43722">
        <ele>869.269765</ele>
        <time>2021-05-08T11:43:51.094Z</time>
      </trkpt>
      <trkpt lat="43.403" lon="2.43713">
        <ele>868.533748</ele>
        <time>2021-05-08T11:43:53.097Z</time>
      </trkpt>
      <trkpt lat="43.40289" lon="2.43703">
        <ele>867.803713</ele>
        <time>2021-05-08T11:43:55.132Z</time>
      </trkpt>
      <trkpt lat="43.40281" lon="2.43689">
        <ele>867.088239</ele>
        <time>2021-05-08T11:43:57.092Z</time>
      </trkpt>
      <trkpt lat="43.40276" lon="2.43672">
        <ele>866.357299</ele>
        <time>2021-05-08T11:43:59.100Z</time>
      </trkpt>
      <trkpt lat="43.40273" lon="2.43653">
        <ele>865.576193</ele>
        <time>2021-05-08T11:44:01.100Z</time>
      </trkpt>
      <trkpt lat="43.40271" lon="2.43633">
        <ele>864.771461</ele>
        <time>2021-05-08T11:44:03.129Z</time>
      </trkpt>
      <trkpt lat="43.40268" lon="2.43613">
        <ele>863.977617</ele>
        <time>2021-05-08T11:44:05.098Z</time>
      </trkpt>
      <trkpt lat="43.40266" lon="2.43594">
        <ele>863.21934</ele>
        <time>2021-05-08T11:44:07.095Z</time>
      </trkpt>
      <trkpt lat="43.40265" lon="2.43577">
        <ele>862.532635</ele>
        <time>2021-05-08T11:44:09.117Z</time>
      </trkpt>
      <trkpt lat="43.40264" lon="2.4356">
        <ele>861.874617</ele>
        <time>2021-05-08T11:44:11.126Z</time>
      </trkpt>
      <trkpt lat="43.40263" lon="2.43544">
        <ele>861.211081</ele>
        <time>2021-05-08T11:44:13.096Z</time>
      </trkpt>
      <trkpt lat="43.40262" lon="2.43526">
        <ele>860.51345</ele>
        <time>2021-05-08T11:44:15.130Z</time>
      </trkpt>
      <trkpt lat="43.40261" lon="2.43508">
        <ele>859.800369</ele>
        <time>2021-05-08T11:44:17.113Z</time>
      </trkpt>
      <trkpt lat="43.40259" lon="2.4349">
        <ele>859.176343</ele>
        <time>2021-05-08T11:44:19.096Z</time>
      </trkpt>
      <trkpt lat="43.40258" lon="2.43472">
        <ele>858.603736</ele>
        <time>2021-05-08T11:44:21.134Z</time>
      </trkpt>
      <trkpt lat="43.40256" lon="2.43453">
        <ele>858.022452</ele>
        <time>2021-05-08T11:44:23.096Z</time>
      </trkpt>
      <trkpt lat="43.40254" lon="2.43436">
        <ele>857.486574</ele>
        <time>2021-05-08T11:44:25.132Z</time>
      </trkpt>
      <trkpt lat="43.40253" lon="2.43421">
        <ele>857.01409</ele>
        <time>2021-05-08T11:44:27.090Z</time>
      </trkpt>
      <trkpt lat="43.40252" lon="2.43406">
        <ele>856.541605</ele>
        <time>2021-05-08T11:44:29.132Z</time>
      </trkpt>
      <trkpt lat="43.4025" lon="2.43389">
        <ele>856.037443</ele>
        <time>2021-05-08T11:44:31.094Z</time>
      </trkpt>
      <trkpt lat="43.40248" lon="2.43373">
        <ele>855.530853</ele>
        <time>2021-05-08T11:44:33.129Z</time>
      </trkpt>
      <trkpt lat="43.40246" lon="2.43358">
        <ele>855.065726</ele>
        <time>2021-05-08T11:44:35.127Z</time>
      </trkpt>
      <trkpt lat="43.40242" lon="2.43345">
        <ele>854.600984</ele>
        <time>2021-05-08T11:44:38.128Z</time>
      </trkpt>
      <trkpt lat="43.40232" lon="2.43345">
        <ele>854.200808</ele>
        <time>2021-05-08T11:44:43.094Z</time>
      </trkpt>
      <trkpt lat="43.40219" lon="2.43348">
        <ele>853.628144</ele>
        <time>2021-05-08T11:44:46.099Z</time>
      </trkpt>
      <trkpt lat="43.40209" lon="2.43351">
        <ele>853.180072</ele>
        <time>2021-05-08T11:44:48.111Z</time>
      </trkpt>
      <trkpt lat="43.40198" lon="2.43356">
        <ele>852.690768</ele>
        <time>2021-05-08T11:44:50.099Z</time>
      </trkpt>
      <trkpt lat="43.40189" lon="2.43368">
        <ele>852.168208</ele>
        <time>2021-05-08T11:44:52.096Z</time>
      </trkpt>
      <trkpt lat="43.40185" lon="2.43387">
        <ele>851.473812</ele>
        <time>2021-05-08T11:44:54.092Z</time>
      </trkpt>
      <trkpt lat="43.40187" lon="2.43406">
        <ele>850.657353</ele>
        <time>2021-05-08T11:44:56.101Z</time>
      </trkpt>
      <trkpt lat="43.40191" lon="2.43424">
        <ele>849.884029</ele>
        <time>2021-05-08T11:44:58.120Z</time>
      </trkpt>
      <trkpt lat="43.4019" lon="2.43443">
        <ele>849.117052</ele>
        <time>2021-05-08T11:45:00.088Z</time>
      </trkpt>
      <trkpt lat="43.40181" lon="2.43458">
        <ele>848.345916</ele>
        <time>2021-05-08T11:45:02.104Z</time>
      </trkpt>
      <trkpt lat="43.40167" lon="2.43463">
        <ele>847.507102</ele>
        <time>2021-05-08T11:45:04.101Z</time>
      </trkpt>
      <trkpt lat="43.40151" lon="2.43461">
        <ele>846.587849</ele>
        <time>2021-05-08T11:45:06.095Z</time>
      </trkpt>
      <trkpt lat="43.40134" lon="2.43456">
        <ele>845.63708</ele>
        <time>2021-05-08T11:45:08.094Z</time>
      </trkpt>
      <trkpt lat="43.40118" lon="2.43452">
        <ele>844.691969</ele>
        <time>2021-05-08T11:45:10.099Z</time>
      </trkpt>
      <trkpt lat="43.40102" lon="2.43448">
        <ele>843.800287</ele>
        <time>2021-05-08T11:45:12.143Z</time>
      </trkpt>
      <trkpt lat="43.40089" lon="2.43437">
        <ele>842.93863</ele>
        <time>2021-05-08T11:45:14.093Z</time>
      </trkpt>
      <trkpt lat="43.40079" lon="2.43417">
        <ele>841.928915</ele>
        <time>2021-05-08T11:45:16.097Z</time>
      </trkpt>
      <trkpt lat="43.40075" lon="2.43405">
        <ele>841.425644</ele>
        <time>2021-05-08T11:45:17.096Z</time>
      </trkpt>
      <trkpt lat="43.40072" lon="2.43393">
        <ele>840.974793</ele>
        <time>2021-05-08T11:45:18.098Z</time>
      </trkpt>
      <trkpt lat="43.40067" lon="2.43371">
        <ele>840.143396</ele>
        <time>2021-05-08T11:45:20.128Z</time>
      </trkpt>
      <trkpt lat="43.40058" lon="2.43354">
        <ele>839.376384</ele>
        <time>2021-05-08T11:45:22.099Z</time>
      </trkpt>
      <trkpt lat="43.40042" lon="2.43345">
        <ele>838.512962</ele>
        <time>2021-05-08T11:45:24.114Z</time>
      </trkpt>
      <trkpt lat="43.40024" lon="2.4334">
        <ele>837.62132</ele>
        <time>2021-05-08T11:45:26.095Z</time>
      </trkpt>
      <trkpt lat="43.40008" lon="2.43335">
        <ele>836.767765</ele>
        <time>2021-05-08T11:45:28.094Z</time>
      </trkpt>
      <trkpt lat="43.39993" lon="2.43325">
        <ele>835.972643</ele>
        <time>2021-05-08T11:45:30.093Z</time>
      </trkpt>
      <trkpt lat="43.3998" lon="2.43309">
        <ele>835.100063</ele>
        <time>2021-05-08T11:45:32.100Z</time>
      </trkpt>
      <trkpt lat="43.39975" lon="2.43297">
        <ele>834.60518</ele>
        <time>2021-05-08T11:45:33.101Z</time>
      </trkpt>
      <trkpt lat="43.3997" lon="2.43284">
        <ele>834.082887</ele>
        <time>2021-05-08T11:45:34.099Z</time>
      </trkpt>
      <trkpt lat="43.39967" lon="2.43271">
        <ele>833.579724</ele>
        <time>2021-05-08T11:45:35.121Z</time>
      </trkpt>
      <trkpt lat="43.39965" lon="2.43258">
        <ele>833.104284</ele>
        <time>2021-05-08T11:45:36.106Z</time>
      </trkpt>
      <trkpt lat="43.39964" lon="2.43245">
        <ele>832.540916</ele>
        <time>2021-05-08T11:45:37.099Z</time>
      </trkpt>
      <trkpt lat="43.39963" lon="2.43231">
        <ele>831.845925</ele>
        <time>2021-05-08T11:45:38.096Z</time>
      </trkpt>
      <trkpt lat="43.39962" lon="2.43216">
        <ele>831.139113</ele>
        <time>2021-05-08T11:45:39.090Z</time>
      </trkpt>
      <trkpt lat="43.39961" lon="2.43201">
        <ele>830.407908</ele>
        <time>2021-05-08T11:45:40.090Z</time>
      </trkpt>
      <trkpt lat="43.39959" lon="2.43186">
        <ele>829.657879</ele>
        <time>2021-05-08T11:45:41.115Z</time>
      </trkpt>
      <trkpt lat="43.39958" lon="2.43171">
        <ele>828.907151</ele>
        <time>2021-05-08T11:45:42.136Z</time>
      </trkpt>
      <trkpt lat="43.39957" lon="2.43156">
        <ele>828.145908</ele>
        <time>2021-05-08T11:45:43.097Z</time>
      </trkpt>
      <trkpt lat="43.39956" lon="2.4314">
        <ele>827.391629</ele>
        <time>2021-05-08T11:45:44.092Z</time>
      </trkpt>
      <trkpt lat="43.39955" lon="2.43125">
        <ele>826.612278</ele>
        <time>2021-05-08T11:45:45.095Z</time>
      </trkpt>
      <trkpt lat="43.39953" lon="2.43109">
        <ele>825.849358</ele>
        <time>2021-05-08T11:45:46.094Z</time>
      </trkpt>
      <trkpt lat="43.39952" lon="2.43094">
        <ele>825.100089</ele>
        <time>2021-05-08T11:45:47.104Z</time>
      </trkpt>
      <trkpt lat="43.3995" lon="2.43079">
        <ele>824.371219</ele>
        <time>2021-05-08T11:45:48.098Z</time>
      </trkpt>
      <trkpt lat="43.39949" lon="2.43065">
        <ele>823.665649</ele>
        <time>2021-05-08T11:45:49.128Z</time>
      </trkpt>
      <trkpt lat="43.39947" lon="2.43051">
        <ele>822.973542</ele>
        <time>2021-05-08T11:45:50.099Z</time>
      </trkpt>
      <trkpt lat="43.39945" lon="2.43037">
        <ele>822.281435</ele>
        <time>2021-05-08T11:45:51.094Z</time>
      </trkpt>
      <trkpt lat="43.39943" lon="2.43023">
        <ele>821.563991</ele>
        <time>2021-05-08T11:45:52.099Z</time>
      </trkpt>
      <trkpt lat="43.39942" lon="2.43008">
        <ele>820.812651</ele>
        <time>2021-05-08T11:45:53.144Z</time>
      </trkpt>
      <trkpt lat="43.3994" lon="2.42993">
        <ele>820.12795</ele>
        <time>2021-05-08T11:45:54.143Z</time>
      </trkpt>
      <trkpt lat="43.39939" lon="2.42977">
        <ele>819.461586</ele>
        <time>2021-05-08T11:45:55.132Z</time>
      </trkpt>
      <trkpt lat="43.39937" lon="2.42962">
        <ele>818.817397</ele>
        <time>2021-05-08T11:45:56.098Z</time>
      </trkpt>
      <trkpt lat="43.39936" lon="2.42948">
        <ele>818.200365</ele>
        <time>2021-05-08T11:45:57.104Z</time>
      </trkpt>
      <trkpt lat="43.39936" lon="2.42935">
        <ele>817.621505</ele>
        <time>2021-05-08T11:45:58.104Z</time>
      </trkpt>
      <trkpt lat="43.39936" lon="2.42922">
        <ele>817.067468</ele>
        <time>2021-05-08T11:45:59.098Z</time>
      </trkpt>
      <trkpt lat="43.39938" lon="2.42909">
        <ele>816.518171</ele>
        <time>2021-05-08T11:46:00.114Z</time>
      </trkpt>
      <trkpt lat="43.3994" lon="2.42897">
        <ele>815.978334</ele>
        <time>2021-05-08T11:46:01.098Z</time>
      </trkpt>
      <trkpt lat="43.39946" lon="2.42875">
        <ele>814.943848</ele>
        <time>2021-05-08T11:46:03.090Z</time>
      </trkpt>
      <trkpt lat="43.39951" lon="2.42853">
        <ele>813.95761</ele>
        <time>2021-05-08T11:46:05.109Z</time>
      </trkpt>
      <trkpt lat="43.39954" lon="2.42832">
        <ele>813.021814</ele>
        <time>2021-05-08T11:46:07.100Z</time>
      </trkpt>
      <trkpt lat="43.39952" lon="2.42812">
        <ele>812.128851</ele>
        <time>2021-05-08T11:46:09.101Z</time>
      </trkpt>
      <trkpt lat="43.39942" lon="2.42794">
        <ele>811.17882</ele>
        <time>2021-05-08T11:46:11.093Z</time>
      </trkpt>
      <trkpt lat="43.39931" lon="2.42778">
        <ele>810.197006</ele>
        <time>2021-05-08T11:46:13.095Z</time>
      </trkpt>
      <trkpt lat="43.3992" lon="2.42761">
        <ele>809.292454</ele>
        <time>2021-05-08T11:46:15.091Z</time>
      </trkpt>
      <trkpt lat="43.39911" lon="2.42745">
        <ele>808.495189</ele>
        <time>2021-05-08T11:46:17.095Z</time>
      </trkpt>
      <trkpt lat="43.39903" lon="2.4273">
        <ele>807.749052</ele>
        <time>2021-05-08T11:46:19.098Z</time>
      </trkpt>
      <trkpt lat="43.39893" lon="2.42715">
        <ele>806.974651</ele>
        <time>2021-05-08T11:46:21.115Z</time>
      </trkpt>
      <trkpt lat="43.39884" lon="2.427">
        <ele>806.179815</ele>
        <time>2021-05-08T11:46:23.089Z</time>
      </trkpt>
      <trkpt lat="43.39874" lon="2.42685">
        <ele>805.36103</ele>
        <time>2021-05-08T11:46:25.093Z</time>
      </trkpt>
      <trkpt lat="43.39864" lon="2.42667">
        <ele>804.475487</ele>
        <time>2021-05-08T11:46:27.121Z</time>
      </trkpt>
      <trkpt lat="43.39851" lon="2.4265">
        <ele>803.482251</ele>
        <time>2021-05-08T11:46:29.096Z</time>
      </trkpt>
      <trkpt lat="43.39844" lon="2.42641">
        <ele>802.958451</ele>
        <time>2021-05-08T11:46:30.094Z</time>
      </trkpt>
      <trkpt lat="43.39837" lon="2.42632">
        <ele>802.422545</ele>
        <time>2021-05-08T11:46:31.094Z</time>
      </trkpt>
      <trkpt lat="43.39829" lon="2.42623">
        <ele>801.885177</ele>
        <time>2021-05-08T11:46:32.101Z</time>
      </trkpt>
      <trkpt lat="43.39822" lon="2.42614">
        <ele>801.357367</ele>
        <time>2021-05-08T11:46:33.115Z</time>
      </trkpt>
      <trkpt lat="43.39815" lon="2.42604">
        <ele>800.815901</ele>
        <time>2021-05-08T11:46:34.138Z</time>
      </trkpt>
      <trkpt lat="43.39807" lon="2.42595">
        <ele>800.246426</ele>
        <time>2021-05-08T11:46:35.105Z</time>
      </trkpt>
      <trkpt lat="43.39799" lon="2.42585">
        <ele>799.616687</ele>
        <time>2021-05-08T11:46:36.111Z</time>
      </trkpt>
      <trkpt lat="43.39791" lon="2.42576">
        <ele>798.992035</ele>
        <time>2021-05-08T11:46:37.096Z</time>
      </trkpt>
      <trkpt lat="43.39784" lon="2.42567">
        <ele>798.39347</ele>
        <time>2021-05-08T11:46:38.110Z</time>
      </trkpt>
      <trkpt lat="43.39776" lon="2.4256">
        <ele>797.796742</ele>
        <time>2021-05-08T11:46:39.100Z</time>
      </trkpt>
      <trkpt lat="43.39767" lon="2.42553">
        <ele>797.208686</ele>
        <time>2021-05-08T11:46:40.101Z</time>
      </trkpt>
      <trkpt lat="43.39758" lon="2.42549">
        <ele>796.649216</ele>
        <time>2021-05-08T11:46:41.097Z</time>
      </trkpt>
      <trkpt lat="43.39749" lon="2.42545">
        <ele>796.068153</ele>
        <time>2021-05-08T11:46:42.109Z</time>
      </trkpt>
      <trkpt lat="43.3974" lon="2.42541">
        <ele>795.477351</ele>
        <time>2021-05-08T11:46:43.128Z</time>
      </trkpt>
      <trkpt lat="43.39731" lon="2.42536">
        <ele>794.925054</ele>
        <time>2021-05-08T11:46:44.128Z</time>
      </trkpt>
      <trkpt lat="43.39716" lon="2.42528">
        <ele>793.922725</ele>
        <time>2021-05-08T11:46:46.133Z</time>
      </trkpt>
      <trkpt lat="43.397" lon="2.42523">
        <ele>792.962385</ele>
        <time>2021-05-08T11:46:48.118Z</time>
      </trkpt>
      <trkpt lat="43.39685" lon="2.4252">
        <ele>792.03289</ele>
        <time>2021-05-08T11:46:50.109Z</time>
      </trkpt>
      <trkpt lat="43.39669" lon="2.4252">
        <ele>791.091256</ele>
        <time>2021-05-08T11:46:52.096Z</time>
      </trkpt>
      <trkpt lat="43.39654" lon="2.42522">
        <ele>790.145556</ele>
        <time>2021-05-08T11:46:54.117Z</time>
      </trkpt>
      <trkpt lat="43.39638" lon="2.42525">
        <ele>789.21299</ele>
        <time>2021-05-08T11:46:56.094Z</time>
      </trkpt>
      <trkpt lat="43.39623" lon="2.42527">
        <ele>788.465708</ele>
        <time>2021-05-08T11:46:58.096Z</time>
      </trkpt>
      <trkpt lat="43.3961" lon="2.42529">
        <ele>787.766612</ele>
        <time>2021-05-08T11:47:00.108Z</time>
      </trkpt>
      <trkpt lat="43.39596" lon="2.42531">
        <ele>787.104617</ele>
        <time>2021-05-08T11:47:02.096Z</time>
      </trkpt>
      <trkpt lat="43.39583" lon="2.42532">
        <ele>786.416175</ele>
        <time>2021-05-08T11:47:04.098Z</time>
      </trkpt>
      <trkpt lat="43.39568" lon="2.42533">
        <ele>785.677279</ele>
        <time>2021-05-08T11:47:06.108Z</time>
      </trkpt>
      <trkpt lat="43.39553" lon="2.42534">
        <ele>784.917807</ele>
        <time>2021-05-08T11:47:08.103Z</time>
      </trkpt>
      <trkpt lat="43.39538" lon="2.42535">
        <ele>784.163351</ele>
        <time>2021-05-08T11:47:10.093Z</time>
      </trkpt>
      <trkpt lat="43.39523" lon="2.42536">
        <ele>783.389451</ele>
        <time>2021-05-08T11:47:12.094Z</time>
      </trkpt>
      <trkpt lat="43.39506" lon="2.42535">
        <ele>782.574975</ele>
        <time>2021-05-08T11:47:14.101Z</time>
      </trkpt>
      <trkpt lat="43.3949" lon="2.42529">
        <ele>781.734586</ele>
        <time>2021-05-08T11:47:16.104Z</time>
      </trkpt>
      <trkpt lat="43.39476" lon="2.42518">
        <ele>780.920001</ele>
        <time>2021-05-08T11:47:18.099Z</time>
      </trkpt>
      <trkpt lat="43.39465" lon="2.42502">
        <ele>780.098001</ele>
        <time>2021-05-08T11:47:20.096Z</time>
      </trkpt>
      <trkpt lat="43.39455" lon="2.42486">
        <ele>779.199033</ele>
        <time>2021-05-08T11:47:22.099Z</time>
      </trkpt>
      <trkpt lat="43.39444" lon="2.42469">
        <ele>778.291213</ele>
        <time>2021-05-08T11:47:24.114Z</time>
      </trkpt>
      <trkpt lat="43.39434" lon="2.42452">
        <ele>777.386543</ele>
        <time>2021-05-08T11:47:26.092Z</time>
      </trkpt>
      <trkpt lat="43.39424" lon="2.42436">
        <ele>776.547751</ele>
        <time>2021-05-08T11:47:28.122Z</time>
      </trkpt>
      <trkpt lat="43.39415" lon="2.42423">
        <ele>775.772254</ele>
        <time>2021-05-08T11:47:30.097Z</time>
      </trkpt>
      <trkpt lat="43.39406" lon="2.42409">
        <ele>775.001463</ele>
        <time>2021-05-08T11:47:32.096Z</time>
      </trkpt>
      <trkpt lat="43.39397" lon="2.42396">
        <ele>774.28094</ele>
        <time>2021-05-08T11:47:34.102Z</time>
      </trkpt>
      <trkpt lat="43.39388" lon="2.42384">
        <ele>773.564624</ele>
        <time>2021-05-08T11:47:36.136Z</time>
      </trkpt>
      <trkpt lat="43.39379" lon="2.4237">
        <ele>772.781305</ele>
        <time>2021-05-08T11:47:38.134Z</time>
      </trkpt>
      <trkpt lat="43.39367" lon="2.42357">
        <ele>771.934732</ele>
        <time>2021-05-08T11:47:40.110Z</time>
      </trkpt>
      <trkpt lat="43.39353" lon="2.42346">
        <ele>771.003881</ele>
        <time>2021-05-08T11:47:42.096Z</time>
      </trkpt>
      <trkpt lat="43.39337" lon="2.42339">
        <ele>770.063924</ele>
        <time>2021-05-08T11:47:44.092Z</time>
      </trkpt>
      <trkpt lat="43.39322" lon="2.42333">
        <ele>770.565085</ele>
        <time>2021-05-08T11:47:46.105Z</time>
      </trkpt>
      <trkpt lat="43.39306" lon="2.42329">
        <ele>771.060107</ele>
        <time>2021-05-08T11:47:48.104Z</time>
      </trkpt>
      <trkpt lat="43.39293" lon="2.42327">
        <ele>771.47529</ele>
        <time>2021-05-08T11:47:50.133Z</time>
      </trkpt>
      <trkpt lat="43.39281" lon="2.42323">
        <ele>771.868135</ele>
        <time>2021-05-08T11:47:52.140Z</time>
      </trkpt>
      <trkpt lat="43.39268" lon="2.42321">
        <ele>772.260184</ele>
        <time>2021-05-08T11:47:54.124Z</time>
      </trkpt>
      <trkpt lat="43.39256" lon="2.42318">
        <ele>772.667007</ele>
        <time>2021-05-08T11:47:56.118Z</time>
      </trkpt>
      <trkpt lat="43.39243" lon="2.42315">
        <ele>773.07108</ele>
        <time>2021-05-08T11:47:58.095Z</time>
      </trkpt>
      <trkpt lat="43.39232" lon="2.42313">
        <ele>773.429305</ele>
        <time>2021-05-08T11:48:00.096Z</time>
      </trkpt>
      <trkpt lat="43.39222" lon="2.4231">
        <ele>773.748275</ele>
        <time>2021-05-08T11:48:02.094Z</time>
      </trkpt>
      <trkpt lat="43.39213" lon="2.42308">
        <ele>774.038944</ele>
        <time>2021-05-08T11:48:04.102Z</time>
      </trkpt>
      <trkpt lat="43.392" lon="2.42306">
        <ele>774.42805</ele>
        <time>2021-05-08T11:48:07.135Z</time>
      </trkpt>
      <trkpt lat="43.3919" lon="2.42303">
        <ele>774.755511</ele>
        <time>2021-05-08T11:48:10.130Z</time>
      </trkpt>
      <trkpt lat="43.3918" lon="2.42302">
        <ele>775.065549</ele>
        <time>2021-05-08T11:48:13.105Z</time>
      </trkpt>
      <trkpt lat="43.39171" lon="2.423">
        <ele>775.357814</ele>
        <time>2021-05-08T11:48:16.109Z</time>
      </trkpt>
      <trkpt lat="43.3916" lon="2.42297">
        <ele>775.709283</ele>
        <time>2021-05-08T11:48:20.096Z</time>
      </trkpt>
      <trkpt lat="43.39149" lon="2.42294">
        <ele>775.467958</ele>
        <time>2021-05-08T11:48:24.096Z</time>
      </trkpt>
      <trkpt lat="43.39138" lon="2.4229">
        <ele>775.21836</ele>
        <time>2021-05-08T11:48:28.144Z</time>
      </trkpt>
      <trkpt lat="43.39128" lon="2.42287">
        <ele>775.003189</ele>
        <time>2021-05-08T11:48:31.147Z</time>
      </trkpt>
      <trkpt lat="43.39117" lon="2.42284">
        <ele>774.750501</ele>
        <time>2021-05-08T11:48:34.111Z</time>
      </trkpt>
      <trkpt lat="43.39108" lon="2.4228">
        <ele>774.547223</ele>
        <time>2021-05-08T11:48:36.106Z</time>
      </trkpt>
      <trkpt lat="43.39098" lon="2.42274">
        <ele>774.294976</ele>
        <time>2021-05-08T11:48:38.087Z</time>
      </trkpt>
      <trkpt lat="43.39086" lon="2.42266">
        <ele>774.006012</ele>
        <time>2021-05-08T11:48:40.105Z</time>
      </trkpt>
      <trkpt lat="43.39075" lon="2.42253">
        <ele>773.694095</ele>
        <time>2021-05-08T11:48:42.105Z</time>
      </trkpt>
      <trkpt lat="43.39068" lon="2.42232">
        <ele>773.323718</ele>
        <time>2021-05-08T11:48:44.104Z</time>
      </trkpt>
      <trkpt lat="43.39064" lon="2.42208">
        <ele>772.926196</ele>
        <time>2021-05-08T11:48:46.105Z</time>
      </trkpt>
      <trkpt lat="43.39063" lon="2.42196">
        <ele>772.72831</ele>
        <time>2021-05-08T11:48:47.126Z</time>
      </trkpt>
      <trkpt lat="43.3906" lon="2.42172">
        <ele>772.343404</ele>
        <time>2021-05-08T11:48:49.109Z</time>
      </trkpt>
      <trkpt lat="43.39057" lon="2.42149">
        <ele>771.974741</ele>
        <time>2021-05-08T11:48:51.124Z</time>
      </trkpt>
      <trkpt lat="43.39054" lon="2.42127">
        <ele>771.272632</ele>
        <time>2021-05-08T11:48:53.099Z</time>
      </trkpt>
      <trkpt lat="43.39051" lon="2.42105">
        <ele>770.070799</ele>
        <time>2021-05-08T11:48:55.101Z</time>
      </trkpt>
      <trkpt lat="43.39049" lon="2.42083">
        <ele>768.880832</ele>
        <time>2021-05-08T11:48:57.104Z</time>
      </trkpt>
      <trkpt lat="43.39046" lon="2.42061">
        <ele>767.669684</ele>
        <time>2021-05-08T11:48:59.133Z</time>
      </trkpt>
      <trkpt lat="43.39043" lon="2.4204">
        <ele>766.491639</ele>
        <time>2021-05-08T11:49:01.110Z</time>
      </trkpt>
      <trkpt lat="43.3904" lon="2.42019">
        <ele>765.39306</ele>
        <time>2021-05-08T11:49:03.128Z</time>
      </trkpt>
      <trkpt lat="43.39038" lon="2.42003">
        <ele>764.491371</ele>
        <time>2021-05-08T11:49:05.121Z</time>
      </trkpt>
      <trkpt lat="43.39035" lon="2.4199">
        <ele>763.764259</ele>
        <time>2021-05-08T11:49:07.127Z</time>
      </trkpt>
      <trkpt lat="43.39034" lon="2.41976">
        <ele>763.00118</ele>
        <time>2021-05-08T11:49:09.103Z</time>
      </trkpt>
      <trkpt lat="43.39032" lon="2.41961">
        <ele>762.190515</ele>
        <time>2021-05-08T11:49:11.097Z</time>
      </trkpt>
      <trkpt lat="43.39026" lon="2.41943">
        <ele>761.130989</ele>
        <time>2021-05-08T11:49:13.093Z</time>
      </trkpt>
      <trkpt lat="43.39019" lon="2.41923">
        <ele>759.956973</ele>
        <time>2021-05-08T11:49:15.095Z</time>
      </trkpt>
      <trkpt lat="43.39008" lon="2.41905">
        <ele>758.692043</ele>
        <time>2021-05-08T11:49:17.132Z</time>
      </trkpt>
      <trkpt lat="43.39001" lon="2.41897">
        <ele>758.12656</ele>
        <time>2021-05-08T11:49:18.095Z</time>
      </trkpt>
      <trkpt lat="43.38987" lon="2.41883">
        <ele>757.182021</ele>
        <time>2021-05-08T11:49:20.120Z</time>
      </trkpt>
      <trkpt lat="43.38978" lon="2.4187">
        <ele>756.44644</ele>
        <time>2021-05-08T11:49:22.098Z</time>
      </trkpt>
      <trkpt lat="43.38977" lon="2.41852">
        <ele>755.73069</ele>
        <time>2021-05-08T11:49:24.124Z</time>
      </trkpt>
      <trkpt lat="43.38979" lon="2.41835">
        <ele>755.049178</ele>
        <time>2021-05-08T11:49:26.118Z</time>
      </trkpt>
      <trkpt lat="43.38976" lon="2.41812">
        <ele>754.136803</ele>
        <time>2021-05-08T11:49:28.095Z</time>
      </trkpt>
      <trkpt lat="43.38972" lon="2.418">
        <ele>753.611663</ele>
        <time>2021-05-08T11:49:29.096Z</time>
      </trkpt>
      <trkpt lat="43.38966" lon="2.4179">
        <ele>753.091609</ele>
        <time>2021-05-08T11:49:30.099Z</time>
      </trkpt>
      <trkpt lat="43.38961" lon="2.41779">
        <ele>752.574818</ele>
        <time>2021-05-08T11:49:31.129Z</time>
      </trkpt>
      <trkpt lat="43.38955" lon="2.41768">
        <ele>752.054937</ele>
        <time>2021-05-08T11:49:32.090Z</time>
      </trkpt>
      <trkpt lat="43.38949" lon="2.41758">
        <ele>751.538182</ele>
        <time>2021-05-08T11:49:33.099Z</time>
      </trkpt>
      <trkpt lat="43.38944" lon="2.41748">
        <ele>751.027512</ele>
        <time>2021-05-08T11:49:34.093Z</time>
      </trkpt>
      <trkpt lat="43.38937" lon="2.41738">
        <ele>750.516516</ele>
        <time>2021-05-08T11:49:35.105Z</time>
      </trkpt>
      <trkpt lat="43.38924" lon="2.41723">
        <ele>749.548316</ele>
        <time>2021-05-08T11:49:37.098Z</time>
      </trkpt>
      <trkpt lat="43.38909" lon="2.41708">
        <ele>748.541681</ele>
        <time>2021-05-08T11:49:39.092Z</time>
      </trkpt>
      <trkpt lat="43.38898" lon="2.41693">
        <ele>747.071125</ele>
        <time>2021-05-08T11:49:41.131Z</time>
      </trkpt>
      <trkpt lat="43.38893" lon="2.41675">
        <ele>745.774393</ele>
        <time>2021-05-08T11:49:43.143Z</time>
      </trkpt>
      <trkpt lat="43.38896" lon="2.41658">
        <ele>744.593073</ele>
        <time>2021-05-08T11:49:45.093Z</time>
      </trkpt>
      <trkpt lat="43.38907" lon="2.41645">
        <ele>743.29794</ele>
        <time>2021-05-08T11:49:47.102Z</time>
      </trkpt>
      <trkpt lat="43.38917" lon="2.41631">
        <ele>741.958679</ele>
        <time>2021-05-08T11:49:49.093Z</time>
      </trkpt>
      <trkpt lat="43.38919" lon="2.4161">
        <ele>740.577917</ele>
        <time>2021-05-08T11:49:51.097Z</time>
      </trkpt>
      <trkpt lat="43.38914" lon="2.4159">
        <ele>739.107528</ele>
        <time>2021-05-08T11:49:53.122Z</time>
      </trkpt>
      <trkpt lat="43.38905" lon="2.4157">
        <ele>737.605439</ele>
        <time>2021-05-08T11:49:55.125Z</time>
      </trkpt>
      <trkpt lat="43.38897" lon="2.4155">
        <ele>736.059212</ele>
        <time>2021-05-08T11:49:57.109Z</time>
      </trkpt>
      <trkpt lat="43.38893" lon="2.41528">
        <ele>734.543217</ele>
        <time>2021-05-08T11:49:59.103Z</time>
      </trkpt>
      <trkpt lat="43.38894" lon="2.41507">
        <ele>733.085322</ele>
        <time>2021-05-08T11:50:01.093Z</time>
      </trkpt>
      <trkpt lat="43.38892" lon="2.41483">
        <ele>731.628023</ele>
        <time>2021-05-08T11:50:03.127Z</time>
      </trkpt>
      <trkpt lat="43.38888" lon="2.41462">
        <ele>730.468136</ele>
        <time>2021-05-08T11:50:05.097Z</time>
      </trkpt>
      <trkpt lat="43.38878" lon="2.41445">
        <ele>729.322324</ele>
        <time>2021-05-08T11:50:07.094Z</time>
      </trkpt>
      <trkpt lat="43.38864" lon="2.41433">
        <ele>728.121237</ele>
        <time>2021-05-08T11:50:09.095Z</time>
      </trkpt>
      <trkpt lat="43.38847" lon="2.41424">
        <ele>726.82068</ele>
        <time>2021-05-08T11:50:11.128Z</time>
      </trkpt>
      <trkpt lat="43.38838" lon="2.4142">
        <ele>726.135844</ele>
        <time>2021-05-08T11:50:12.096Z</time>
      </trkpt>
      <trkpt lat="43.3883" lon="2.41414">
        <ele>725.466898</ele>
        <time>2021-05-08T11:50:13.094Z</time>
      </trkpt>
      <trkpt lat="43.38821" lon="2.4141">
        <ele>724.813583</ele>
        <time>2021-05-08T11:50:14.138Z</time>
      </trkpt>
      <trkpt lat="43.38808" lon="2.41402">
        <ele>723.803561</ele>
        <time>2021-05-08T11:50:16.126Z</time>
      </trkpt>
      <trkpt lat="43.38805" lon="2.41389">
        <ele>723.064098</ele>
        <time>2021-05-08T11:50:18.105Z</time>
      </trkpt>
      <trkpt lat="43.38808" lon="2.41369">
        <ele>722.011083</ele>
        <time>2021-05-08T11:50:20.096Z</time>
      </trkpt>
      <trkpt lat="43.38818" lon="2.41352">
        <ele>720.861399</ele>
        <time>2021-05-08T11:50:22.099Z</time>
      </trkpt>
      <trkpt lat="43.38825" lon="2.4133">
        <ele>719.606395</ele>
        <time>2021-05-08T11:50:24.100Z</time>
      </trkpt>
      <trkpt lat="43.38826" lon="2.41306">
        <ele>718.140895</ele>
        <time>2021-05-08T11:50:26.099Z</time>
      </trkpt>
      <trkpt lat="43.38824" lon="2.41294">
        <ele>717.286845</ele>
        <time>2021-05-08T11:50:27.097Z</time>
      </trkpt>
      <trkpt lat="43.38822" lon="2.41281">
        <ele>716.416613</ele>
        <time>2021-05-08T11:50:28.092Z</time>
      </trkpt>
      <trkpt lat="43.3882" lon="2.41269">
        <ele>715.54638</ele>
        <time>2021-05-08T11:50:29.119Z</time>
      </trkpt>
      <trkpt lat="43.38816" lon="2.41245">
        <ele>713.885688</ele>
        <time>2021-05-08T11:50:31.093Z</time>
      </trkpt>
      <trkpt lat="43.38813" lon="2.41223">
        <ele>712.362262</ele>
        <time>2021-05-08T11:50:33.130Z</time>
      </trkpt>
      <trkpt lat="43.38815" lon="2.41202">
        <ele>710.902066</ele>
        <time>2021-05-08T11:50:35.131Z</time>
      </trkpt>
      <trkpt lat="43.38815" lon="2.41182">
        <ele>709.52139</ele>
        <time>2021-05-08T11:50:37.109Z</time>
      </trkpt>
      <trkpt lat="43.38808" lon="2.41165">
        <ele>708.194564</ele>
        <time>2021-05-08T11:50:39.098Z</time>
      </trkpt>
      <trkpt lat="43.38799" lon="2.41152">
        <ele>706.936276</ele>
        <time>2021-05-08T11:50:41.097Z</time>
      </trkpt>
      <trkpt lat="43.38797" lon="2.41138">
        <ele>705.994588</ele>
        <time>2021-05-08T11:50:43.087Z</time>
      </trkpt>
      <trkpt lat="43.38803" lon="2.41124">
        <ele>704.903721</ele>
        <time>2021-05-08T11:50:45.107Z</time>
      </trkpt>
      <trkpt lat="43.38813" lon="2.41111">
        <ele>703.603014</ele>
        <time>2021-05-08T11:50:47.134Z</time>
      </trkpt>
      <trkpt lat="43.38826" lon="2.41095">
        <ele>701.957978</ele>
        <time>2021-05-08T11:50:49.137Z</time>
      </trkpt>
      <trkpt lat="43.38833" lon="2.41087">
        <ele>701.283313</ele>
        <time>2021-05-08T11:50:50.106Z</time>
      </trkpt>
      <trkpt lat="43.38842" lon="2.41068">
        <ele>700.056842</ele>
        <time>2021-05-08T11:50:52.091Z</time>
      </trkpt>
      <trkpt lat="43.38848" lon="2.41046">
        <ele>698.789348</ele>
        <time>2021-05-08T11:50:54.093Z</time>
      </trkpt>
      <trkpt lat="43.38855" lon="2.41024">
        <ele>697.507653</ele>
        <time>2021-05-08T11:50:56.100Z</time>
      </trkpt>
      <trkpt lat="43.38863" lon="2.41003">
        <ele>696.227351</ele>
        <time>2021-05-08T11:50:58.095Z</time>
      </trkpt>
      <trkpt lat="43.38871" lon="2.40984">
        <ele>695.046605</ele>
        <time>2021-05-08T11:51:00.099Z</time>
      </trkpt>
      <trkpt lat="43.38878" lon="2.40966">
        <ele>693.974898</ele>
        <time>2021-05-08T11:51:02.105Z</time>
      </trkpt>
      <trkpt lat="43.38879" lon="2.40949">
        <ele>693.055615</ele>
        <time>2021-05-08T11:51:04.099Z</time>
      </trkpt>
      <trkpt lat="43.38873" lon="2.40935">
        <ele>692.127457</ele>
        <time>2021-05-08T11:51:06.150Z</time>
      </trkpt>
      <trkpt lat="43.3886" lon="2.40927">
        <ele>691.056875</ele>
        <time>2021-05-08T11:51:08.090Z</time>
      </trkpt>
      <trkpt lat="43.38843" lon="2.4092">
        <ele>689.793276</ele>
        <time>2021-05-08T11:51:10.130Z</time>
      </trkpt>
      <trkpt lat="43.38827" lon="2.40909">
        <ele>688.504325</ele>
        <time>2021-05-08T11:51:12.095Z</time>
      </trkpt>
      <trkpt lat="43.38819" lon="2.40903">
        <ele>687.909626</ele>
        <time>2021-05-08T11:51:13.104Z</time>
      </trkpt>
      <trkpt lat="43.38804" lon="2.40893">
        <ele>686.778079</ele>
        <time>2021-05-08T11:51:15.096Z</time>
      </trkpt>
      <trkpt lat="43.38792" lon="2.40881">
        <ele>685.857462</ele>
        <time>2021-05-08T11:51:17.099Z</time>
      </trkpt>
      <trkpt lat="43.38788" lon="2.40863">
        <ele>684.936483</ele>
        <time>2021-05-08T11:51:19.093Z</time>
      </trkpt>
      <trkpt lat="43.38786" lon="2.4085">
        <ele>684.347217</ele>
        <time>2021-05-08T11:51:20.095Z</time>
      </trkpt>
      <trkpt lat="43.38785" lon="2.40838">
        <ele>683.756711</ele>
        <time>2021-05-08T11:51:21.098Z</time>
      </trkpt>
      <trkpt lat="43.38785" lon="2.40816">
        <ele>682.69642</ele>
        <time>2021-05-08T11:51:23.091Z</time>
      </trkpt>
      <trkpt lat="43.38786" lon="2.40793">
        <ele>681.612465</ele>
        <time>2021-05-08T11:51:25.107Z</time>
      </trkpt>
      <trkpt lat="43.38784" lon="2.4078">
        <ele>681.016508</ele>
        <time>2021-05-08T11:51:26.100Z</time>
      </trkpt>
      <trkpt lat="43.38783" lon="2.40768">
        <ele>680.416701</ele>
        <time>2021-05-08T11:51:27.088Z</time>
      </trkpt>
      <trkpt lat="43.3878" lon="2.40756">
        <ele>679.815664</ele>
        <time>2021-05-08T11:51:28.098Z</time>
      </trkpt>
      <trkpt lat="43.38777" lon="2.40744">
        <ele>679.206216</ele>
        <time>2021-05-08T11:51:29.100Z</time>
      </trkpt>
      <trkpt lat="43.38772" lon="2.40733">
        <ele>678.616876</ele>
        <time>2021-05-08T11:51:30.091Z</time>
      </trkpt>
      <trkpt lat="43.38761" lon="2.40715">
        <ele>677.496273</ele>
        <time>2021-05-08T11:51:32.099Z</time>
      </trkpt>
      <trkpt lat="43.38749" lon="2.40703">
        <ele>676.479759</ele>
        <time>2021-05-08T11:51:34.138Z</time>
      </trkpt>
      <trkpt lat="43.38744" lon="2.40687">
        <ele>675.591953</ele>
        <time>2021-05-08T11:51:36.103Z</time>
      </trkpt>
      <trkpt lat="43.38749" lon="2.40668">
        <ele>674.555167</ele>
        <time>2021-05-08T11:51:38.124Z</time>
      </trkpt>
      <trkpt lat="43.38759" lon="2.40654">
        <ele>673.512626</ele>
        <time>2021-05-08T11:51:40.093Z</time>
      </trkpt>
      <trkpt lat="43.38771" lon="2.40639">
        <ele>672.406035</ele>
        <time>2021-05-08T11:51:42.097Z</time>
      </trkpt>
      <trkpt lat="43.38781" lon="2.4062">
        <ele>671.198037</ele>
        <time>2021-05-08T11:51:44.094Z</time>
      </trkpt>
      <trkpt lat="43.38787" lon="2.40598">
        <ele>669.958023</ele>
        <time>2021-05-08T11:51:46.105Z</time>
      </trkpt>
      <trkpt lat="43.38788" lon="2.40574">
        <ele>668.722397</ele>
        <time>2021-05-08T11:51:48.124Z</time>
      </trkpt>
      <trkpt lat="43.38787" lon="2.40551">
        <ele>667.511716</ele>
        <time>2021-05-08T11:51:50.138Z</time>
      </trkpt>
      <trkpt lat="43.38784" lon="2.40527">
        <ele>666.232446</ele>
        <time>2021-05-08T11:51:52.134Z</time>
      </trkpt>
      <trkpt lat="43.38783" lon="2.40514">
        <ele>665.55543</ele>
        <time>2021-05-08T11:51:53.136Z</time>
      </trkpt>
      <trkpt lat="43.3878" lon="2.40501">
        <ele>664.847463</ele>
        <time>2021-05-08T11:51:54.093Z</time>
      </trkpt>
      <trkpt lat="43.38777" lon="2.40487">
        <ele>664.110796</ele>
        <time>2021-05-08T11:51:55.092Z</time>
      </trkpt>
      <trkpt lat="43.38774" lon="2.40474">
        <ele>663.132483</ele>
        <time>2021-05-08T11:51:56.099Z</time>
      </trkpt>
      <trkpt lat="43.38771" lon="2.40461">
        <ele>662.167251</ele>
        <time>2021-05-08T11:51:57.103Z</time>
      </trkpt>
      <trkpt lat="43.38767" lon="2.40448">
        <ele>661.221339</ele>
        <time>2021-05-08T11:51:58.121Z</time>
      </trkpt>
      <trkpt lat="43.38764" lon="2.40436">
        <ele>660.291712</ele>
        <time>2021-05-08T11:51:59.090Z</time>
      </trkpt>
      <trkpt lat="43.38761" lon="2.40423">
        <ele>659.342749</ele>
        <time>2021-05-08T11:52:00.092Z</time>
      </trkpt>
      <trkpt lat="43.38758" lon="2.4041">
        <ele>658.404569</ele>
        <time>2021-05-08T11:52:01.101Z</time>
      </trkpt>
      <trkpt lat="43.38756" lon="2.40397">
        <ele>657.498632</ele>
        <time>2021-05-08T11:52:02.135Z</time>
      </trkpt>
      <trkpt lat="43.38754" lon="2.40385">
        <ele>656.612493</ele>
        <time>2021-05-08T11:52:03.119Z</time>
      </trkpt>
      <trkpt lat="43.38752" lon="2.40372">
        <ele>655.741741</ele>
        <time>2021-05-08T11:52:04.127Z</time>
      </trkpt>
      <trkpt lat="43.38751" lon="2.4036">
        <ele>654.872402</ele>
        <time>2021-05-08T11:52:05.099Z</time>
      </trkpt>
      <trkpt lat="43.38749" lon="2.40348">
        <ele>654.010428</ele>
        <time>2021-05-08T11:52:06.134Z</time>
      </trkpt>
      <trkpt lat="43.38746" lon="2.40323">
        <ele>652.305072</ele>
        <time>2021-05-08T11:52:08.117Z</time>
      </trkpt>
      <trkpt lat="43.38744" lon="2.40311">
        <ele>651.448047</ele>
        <time>2021-05-08T11:52:09.096Z</time>
      </trkpt>
      <trkpt lat="43.38739" lon="2.40289">
        <ele>649.847512</ele>
        <time>2021-05-08T11:52:11.093Z</time>
      </trkpt>
      <trkpt lat="43.3873" lon="2.40272">
        <ele>648.337501</ele>
        <time>2021-05-08T11:52:13.099Z</time>
      </trkpt>
      <trkpt lat="43.38718" lon="2.40256">
        <ele>646.789547</ele>
        <time>2021-05-08T11:52:15.097Z</time>
      </trkpt>
      <trkpt lat="43.38707" lon="2.40242">
        <ele>645.638092</ele>
        <time>2021-05-08T11:52:17.096Z</time>
      </trkpt>
      <trkpt lat="43.38701" lon="2.40231">
        <ele>644.872612</ele>
        <time>2021-05-08T11:52:19.099Z</time>
      </trkpt>
      <trkpt lat="43.38703" lon="2.40216">
        <ele>644.057871</ele>
        <time>2021-05-08T11:52:21.124Z</time>
      </trkpt>
      <trkpt lat="43.38709" lon="2.40201">
        <ele>643.107131</ele>
        <time>2021-05-08T11:52:23.085Z</time>
      </trkpt>
      <trkpt lat="43.38717" lon="2.40185">
        <ele>642.001711</ele>
        <time>2021-05-08T11:52:25.092Z</time>
      </trkpt>
      <trkpt lat="43.38725" lon="2.40166">
        <ele>640.805629</ele>
        <time>2021-05-08T11:52:27.092Z</time>
      </trkpt>
      <trkpt lat="43.38727" lon="2.40144">
        <ele>639.582235</ele>
        <time>2021-05-08T11:52:29.094Z</time>
      </trkpt>
      <trkpt lat="43.38723" lon="2.40121">
        <ele>638.281237</ele>
        <time>2021-05-08T11:52:31.101Z</time>
      </trkpt>
      <trkpt lat="43.38718" lon="2.40099">
        <ele>636.988491</ele>
        <time>2021-05-08T11:52:33.095Z</time>
      </trkpt>
      <trkpt lat="43.38711" lon="2.40079">
        <ele>635.769244</ele>
        <time>2021-05-08T11:52:35.127Z</time>
      </trkpt>
      <trkpt lat="43.38701" lon="2.40062">
        <ele>634.518605</ele>
        <time>2021-05-08T11:52:37.093Z</time>
      </trkpt>
      <trkpt lat="43.38687" lon="2.40048">
        <ele>633.223102</ele>
        <time>2021-05-08T11:52:39.098Z</time>
      </trkpt>
      <trkpt lat="43.38671" lon="2.40039">
        <ele>631.969364</ele>
        <time>2021-05-08T11:52:41.111Z</time>
      </trkpt>
      <trkpt lat="43.38653" lon="2.40033">
        <ele>630.687976</ele>
        <time>2021-05-08T11:52:43.096Z</time>
      </trkpt>
      <trkpt lat="43.38645" lon="2.40029">
        <ele>630.027983</ele>
        <time>2021-05-08T11:52:44.113Z</time>
      </trkpt>
      <trkpt lat="43.38635" lon="2.40025">
        <ele>629.317041</ele>
        <time>2021-05-08T11:52:45.115Z</time>
      </trkpt>
      <trkpt lat="43.38626" lon="2.4002">
        <ele>628.607645</ele>
        <time>2021-05-08T11:52:46.128Z</time>
      </trkpt>
      <trkpt lat="43.38616" lon="2.40015">
        <ele>627.87081</ele>
        <time>2021-05-08T11:52:47.095Z</time>
      </trkpt>
      <trkpt lat="43.38607" lon="2.4001">
        <ele>627.14539</ele>
        <time>2021-05-08T11:52:48.097Z</time>
      </trkpt>
      <trkpt lat="43.38598" lon="2.40005">
        <ele>626.476897</ele>
        <time>2021-05-08T11:52:49.092Z</time>
      </trkpt>
      <trkpt lat="43.38585" lon="2.39995">
        <ele>625.394172</ele>
        <time>2021-05-08T11:52:51.087Z</time>
      </trkpt>
      <trkpt lat="43.38576" lon="2.39982">
        <ele>624.484819</ele>
        <time>2021-05-08T11:52:53.099Z</time>
      </trkpt>
      <trkpt lat="43.38572" lon="2.39966">
        <ele>623.570155</ele>
        <time>2021-05-08T11:52:55.100Z</time>
      </trkpt>
      <trkpt lat="43.38569" lon="2.39945">
        <ele>622.477023</ele>
        <time>2021-05-08T11:52:57.093Z</time>
      </trkpt>
      <trkpt lat="43.38567" lon="2.39924">
        <ele>621.347979</ele>
        <time>2021-05-08T11:52:59.092Z</time>
      </trkpt>
      <trkpt lat="43.38561" lon="2.39905">
        <ele>620.318197</ele>
        <time>2021-05-08T11:53:01.087Z</time>
      </trkpt>
      <trkpt lat="43.38552" lon="2.3989">
        <ele>619.427784</ele>
        <time>2021-05-08T11:53:03.095Z</time>
      </trkpt>
      <trkpt lat="43.38539" lon="2.39883">
        <ele>618.597977</ele>
        <time>2021-05-08T11:53:05.106Z</time>
      </trkpt>
      <trkpt lat="43.38524" lon="2.39886">
        <ele>617.697536</ele>
        <time>2021-05-08T11:53:07.099Z</time>
      </trkpt>
      <trkpt lat="43.38511" lon="2.39898">
        <ele>616.730455</ele>
        <time>2021-05-08T11:53:09.092Z</time>
      </trkpt>
      <trkpt lat="43.38499" lon="2.39913">
        <ele>615.745563</ele>
        <time>2021-05-08T11:53:11.093Z</time>
      </trkpt>
      <trkpt lat="43.38485" lon="2.39928">
        <ele>614.68703</ele>
        <time>2021-05-08T11:53:13.096Z</time>
      </trkpt>
      <trkpt lat="43.38471" lon="2.39941">
        <ele>613.639367</ele>
        <time>2021-05-08T11:53:15.093Z</time>
      </trkpt>
      <trkpt lat="43.38457" lon="2.39953">
        <ele>612.66963</ele>
        <time>2021-05-08T11:53:17.108Z</time>
      </trkpt>
      <trkpt lat="43.38444" lon="2.3996">
        <ele>611.816319</ele>
        <time>2021-05-08T11:53:19.097Z</time>
      </trkpt>
      <trkpt lat="43.38431" lon="2.39964">
        <ele>610.99456</ele>
        <time>2021-05-08T11:53:21.093Z</time>
      </trkpt>
      <trkpt lat="43.38416" lon="2.39968">
        <ele>610.089697</ele>
        <time>2021-05-08T11:53:23.123Z</time>
      </trkpt>
      <trkpt lat="43.38398" lon="2.39966">
        <ele>608.691945</ele>
        <time>2021-05-08T11:53:25.091Z</time>
      </trkpt>
      <trkpt lat="43.38388" lon="2.39964">
        <ele>607.821296</ele>
        <time>2021-05-08T11:53:26.107Z</time>
      </trkpt>
      <trkpt lat="43.38371" lon="2.3996">
        <ele>606.328785</ele>
        <time>2021-05-08T11:53:28.091Z</time>
      </trkpt>
      <trkpt lat="43.3836" lon="2.39952">
        <ele>605.206259</ele>
        <time>2021-05-08T11:53:30.093Z</time>
      </trkpt>
      <trkpt lat="43.38353" lon="2.39938">
        <ele>604.154327</ele>
        <time>2021-05-08T11:53:32.091Z</time>
      </trkpt>
      <trkpt lat="43.38346" lon="2.3992">
        <ele>602.830464</ele>
        <time>2021-05-08T11:53:34.103Z</time>
      </trkpt>
      <trkpt lat="43.38337" lon="2.399">
        <ele>601.290633</ele>
        <time>2021-05-08T11:53:36.098Z</time>
      </trkpt>
      <trkpt lat="43.38327" lon="2.39883">
        <ele>599.861773</ele>
        <time>2021-05-08T11:53:38.099Z</time>
      </trkpt>
      <trkpt lat="43.38314" lon="2.39876">
        <ele>598.641916</ele>
        <time>2021-05-08T11:53:40.097Z</time>
      </trkpt>
      <trkpt lat="43.383" lon="2.39882">
        <ele>597.34783</ele>
        <time>2021-05-08T11:53:42.105Z</time>
      </trkpt>
      <trkpt lat="43.38287" lon="2.39894">
        <ele>595.921251</ele>
        <time>2021-05-08T11:53:44.137Z</time>
      </trkpt>
      <trkpt lat="43.38272" lon="2.39905">
        <ele>594.464068</ele>
        <time>2021-05-08T11:53:46.093Z</time>
      </trkpt>
      <trkpt lat="43.38256" lon="2.39913">
        <ele>592.84222</ele>
        <time>2021-05-08T11:53:48.099Z</time>
      </trkpt>
      <trkpt lat="43.3824" lon="2.3992">
        <ele>591.139147</ele>
        <time>2021-05-08T11:53:50.090Z</time>
      </trkpt>
      <trkpt lat="43.38227" lon="2.39929">
        <ele>589.600293</ele>
        <time>2021-05-08T11:53:52.096Z</time>
      </trkpt>
      <trkpt lat="43.38215" lon="2.39942">
        <ele>588.082101</ele>
        <time>2021-05-08T11:53:54.107Z</time>
      </trkpt>
      <trkpt lat="43.38204" lon="2.39956">
        <ele>586.568195</ele>
        <time>2021-05-08T11:53:56.123Z</time>
      </trkpt>
      <trkpt lat="43.38193" lon="2.39964">
        <ele>585.250283</ele>
        <time>2021-05-08T11:53:58.126Z</time>
      </trkpt>
      <trkpt lat="43.3818" lon="2.39962">
        <ele>583.982865</ele>
        <time>2021-05-08T11:54:00.103Z</time>
      </trkpt>
      <trkpt lat="43.38168" lon="2.39951">
        <ele>582.468885</ele>
        <time>2021-05-08T11:54:02.098Z</time>
      </trkpt>
      <trkpt lat="43.38154" lon="2.3994">
        <ele>580.803733</ele>
        <time>2021-05-08T11:54:04.093Z</time>
      </trkpt>
      <trkpt lat="43.3814" lon="2.39924">
        <ele>578.966358</ele>
        <time>2021-05-08T11:54:06.095Z</time>
      </trkpt>
      <trkpt lat="43.38134" lon="2.39913">
        <ele>577.956418</ele>
        <time>2021-05-08T11:54:07.121Z</time>
      </trkpt>
      <trkpt lat="43.38128" lon="2.39901">
        <ele>576.873754</ele>
        <time>2021-05-08T11:54:08.101Z</time>
      </trkpt>
      <trkpt lat="43.38124" lon="2.39888">
        <ele>575.797468</ele>
        <time>2021-05-08T11:54:09.109Z</time>
      </trkpt>
      <trkpt lat="43.3812" lon="2.39875">
        <ele>574.702007</ele>
        <time>2021-05-08T11:54:10.097Z</time>
      </trkpt>
      <trkpt lat="43.38116" lon="2.39861">
        <ele>573.54231</ele>
        <time>2021-05-08T11:54:11.099Z</time>
      </trkpt>
      <trkpt lat="43.38111" lon="2.39847">
        <ele>572.378759</ele>
        <time>2021-05-08T11:54:12.088Z</time>
      </trkpt>
      <trkpt lat="43.38107" lon="2.39834">
        <ele>571.234238</ele>
        <time>2021-05-08T11:54:13.100Z</time>
      </trkpt>
      <trkpt lat="43.38102" lon="2.39821">
        <ele>570.108534</ele>
        <time>2021-05-08T11:54:14.107Z</time>
      </trkpt>
      <trkpt lat="43.38098" lon="2.39809">
        <ele>569.013388</ele>
        <time>2021-05-08T11:54:15.102Z</time>
      </trkpt>
      <trkpt lat="43.38093" lon="2.39796">
        <ele>567.937029</ele>
        <time>2021-05-08T11:54:16.106Z</time>
      </trkpt>
      <trkpt lat="43.38089" lon="2.39784">
        <ele>566.891043</ele>
        <time>2021-05-08T11:54:17.102Z</time>
      </trkpt>
      <trkpt lat="43.38082" lon="2.39764">
        <ele>565.147011</ele>
        <time>2021-05-08T11:54:19.099Z</time>
      </trkpt>
      <trkpt lat="43.38082" lon="2.39748">
        <ele>563.859973</ele>
        <time>2021-05-08T11:54:21.136Z</time>
      </trkpt>
      <trkpt lat="43.38087" lon="2.39733">
        <ele>562.562595</ele>
        <time>2021-05-08T11:54:23.094Z</time>
      </trkpt>
      <trkpt lat="43.38094" lon="2.39718">
        <ele>561.157601</ele>
        <time>2021-05-08T11:54:25.129Z</time>
      </trkpt>
      <trkpt lat="43.38098" lon="2.39696">
        <ele>559.376172</ele>
        <time>2021-05-08T11:54:27.137Z</time>
      </trkpt>
      <trkpt lat="43.38099" lon="2.39671">
        <ele>557.455686</ele>
        <time>2021-05-08T11:54:29.113Z</time>
      </trkpt>
      <trkpt lat="43.38099" lon="2.39659">
        <ele>556.467626</ele>
        <time>2021-05-08T11:54:30.091Z</time>
      </trkpt>
      <trkpt lat="43.38098" lon="2.39646">
        <ele>555.490672</ele>
        <time>2021-05-08T11:54:31.097Z</time>
      </trkpt>
      <trkpt lat="43.38096" lon="2.39633">
        <ele>554.557367</ele>
        <time>2021-05-08T11:54:32.130Z</time>
      </trkpt>
      <trkpt lat="43.38095" lon="2.39621">
        <ele>553.653096</ele>
        <time>2021-05-08T11:54:33.091Z</time>
      </trkpt>
      <trkpt lat="43.3809" lon="2.39599">
        <ele>551.961536</ele>
        <time>2021-05-08T11:54:35.102Z</time>
      </trkpt>
      <trkpt lat="43.38081" lon="2.3958">
        <ele>550.31672</ele>
        <time>2021-05-08T11:54:37.101Z</time>
      </trkpt>
      <trkpt lat="43.38066" lon="2.39568">
        <ele>548.530963</ele>
        <time>2021-05-08T11:54:39.099Z</time>
      </trkpt>
      <trkpt lat="43.38057" lon="2.39563">
        <ele>547.542236</ele>
        <time>2021-05-08T11:54:40.086Z</time>
      </trkpt>
      <trkpt lat="43.38048" lon="2.39557">
        <ele>546.52931</ele>
        <time>2021-05-08T11:54:41.099Z</time>
      </trkpt>
      <trkpt lat="43.38038" lon="2.39552">
        <ele>545.492791</ele>
        <time>2021-05-08T11:54:42.090Z</time>
      </trkpt>
      <trkpt lat="43.38029" lon="2.39545">
        <ele>544.428676</ele>
        <time>2021-05-08T11:54:43.104Z</time>
      </trkpt>
      <trkpt lat="43.3802" lon="2.3954">
        <ele>543.440916</ele>
        <time>2021-05-08T11:54:44.122Z</time>
      </trkpt>
      <trkpt lat="43.38012" lon="2.39534">
        <ele>542.529857</ele>
        <time>2021-05-08T11:54:45.113Z</time>
      </trkpt>
      <trkpt lat="43.38" lon="2.39525">
        <ele>541.162754</ele>
        <time>2021-05-08T11:54:47.110Z</time>
      </trkpt>
      <trkpt lat="43.37996" lon="2.39512">
        <ele>540.150317</ele>
        <time>2021-05-08T11:54:49.138Z</time>
      </trkpt>
      <trkpt lat="43.37995" lon="2.39496">
        <ele>538.916219</ele>
        <time>2021-05-08T11:54:51.102Z</time>
      </trkpt>
      <trkpt lat="43.37995" lon="2.39474">
        <ele>537.285837</ele>
        <time>2021-05-08T11:54:53.094Z</time>
      </trkpt>
      <trkpt lat="43.37993" lon="2.39462">
        <ele>536.21064</ele>
        <time>2021-05-08T11:54:54.133Z</time>
      </trkpt>
      <trkpt lat="43.3799" lon="2.39449">
        <ele>535.059546</ele>
        <time>2021-05-08T11:54:55.092Z</time>
      </trkpt>
      <trkpt lat="43.37985" lon="2.39437">
        <ele>533.862549</ele>
        <time>2021-05-08T11:54:56.091Z</time>
      </trkpt>
      <trkpt lat="43.37981" lon="2.39425">
        <ele>532.684564</ele>
        <time>2021-05-08T11:54:57.103Z</time>
      </trkpt>
      <trkpt lat="43.37976" lon="2.39413">
        <ele>531.478092</ele>
        <time>2021-05-08T11:54:58.096Z</time>
      </trkpt>
      <trkpt lat="43.37971" lon="2.394">
        <ele>530.26295</ele>
        <time>2021-05-08T11:54:59.093Z</time>
      </trkpt>
      <trkpt lat="43.37968" lon="2.39387">
        <ele>529.00604</ele>
        <time>2021-05-08T11:55:00.098Z</time>
      </trkpt>
      <trkpt lat="43.37963" lon="2.39374">
        <ele>527.790467</ele>
        <time>2021-05-08T11:55:01.107Z</time>
      </trkpt>
      <trkpt lat="43.37958" lon="2.39362">
        <ele>526.602181</ele>
        <time>2021-05-08T11:55:02.094Z</time>
      </trkpt>
      <trkpt lat="43.37952" lon="2.39352">
        <ele>525.446104</ele>
        <time>2021-05-08T11:55:03.089Z</time>
      </trkpt>
      <trkpt lat="43.37946" lon="2.39342">
        <ele>524.302337</ele>
        <time>2021-05-08T11:55:04.105Z</time>
      </trkpt>
      <trkpt lat="43.37939" lon="2.39333">
        <ele>523.216359</ele>
        <time>2021-05-08T11:55:05.099Z</time>
      </trkpt>
      <trkpt lat="43.3793" lon="2.39318">
        <ele>521.53946</ele>
        <time>2021-05-08T11:55:07.107Z</time>
      </trkpt>
      <trkpt lat="43.37929" lon="2.39301">
        <ele>520.048621</ele>
        <time>2021-05-08T11:55:10.109Z</time>
      </trkpt>
      <trkpt lat="43.37937" lon="2.39292">
        <ele>518.770037</ele>
        <time>2021-05-08T11:55:12.093Z</time>
      </trkpt>
      <trkpt lat="43.37947" lon="2.39294">
        <ele>517.57843</ele>
        <time>2021-05-08T11:55:14.096Z</time>
      </trkpt>
      <trkpt lat="43.37954" lon="2.39307">
        <ele>516.201852</ele>
        <time>2021-05-08T11:55:16.134Z</time>
      </trkpt>
      <trkpt lat="43.3796" lon="2.39322">
        <ele>514.614448</ele>
        <time>2021-05-08T11:55:18.137Z</time>
      </trkpt>
      <trkpt lat="43.37967" lon="2.39336">
        <ele>512.97748</ele>
        <time>2021-05-08T11:55:20.096Z</time>
      </trkpt>
      <trkpt lat="43.37976" lon="2.3935">
        <ele>511.197164</ele>
        <time>2021-05-08T11:55:22.093Z</time>
      </trkpt>
      <trkpt lat="43.37988" lon="2.39365">
        <ele>509.093794</ele>
        <time>2021-05-08T11:55:24.089Z</time>
      </trkpt>
      <trkpt lat="43.38002" lon="2.39381">
        <ele>506.79199</ele>
        <time>2021-05-08T11:55:26.137Z</time>
      </trkpt>
      <trkpt lat="43.38014" lon="2.39397">
        <ele>504.585128</ele>
        <time>2021-05-08T11:55:28.104Z</time>
      </trkpt>
      <trkpt lat="43.38025" lon="2.39412">
        <ele>502.61687</ele>
        <time>2021-05-08T11:55:30.094Z</time>
      </trkpt>
      <trkpt lat="43.38032" lon="2.39428">
        <ele>500.842233</ele>
        <time>2021-05-08T11:55:32.133Z</time>
      </trkpt>
      <trkpt lat="43.38037" lon="2.39443">
        <ele>499.236838</ele>
        <time>2021-05-08T11:55:34.107Z</time>
      </trkpt>
      <trkpt lat="43.38042" lon="2.39456">
        <ele>497.851725</ele>
        <time>2021-05-08T11:55:36.116Z</time>
      </trkpt>
      <trkpt lat="43.38048" lon="2.39471">
        <ele>496.293941</ele>
        <time>2021-05-08T11:55:39.092Z</time>
      </trkpt>
      <trkpt lat="43.3806" lon="2.39467">
        <ele>494.770031</ele>
        <time>2021-05-08T11:55:43.099Z</time>
      </trkpt>
      <trkpt lat="43.38063" lon="2.39454">
        <ele>493.473247</ele>
        <time>2021-05-08T11:55:46.095Z</time>
      </trkpt>
      <trkpt lat="43.38055" lon="2.3944">
        <ele>492.752666</ele>
        <time>2021-05-08T11:55:49.097Z</time>
      </trkpt>
      <trkpt lat="43.38049" lon="2.3943">
        <ele>492.521551</ele>
        <time>2021-05-08T11:55:51.087Z</time>
      </trkpt>
      <trkpt lat="43.38043" lon="2.39414">
        <ele>492.180476</ele>
        <time>2021-05-08T11:55:54.125Z</time>
      </trkpt>
      <trkpt lat="43.38038" lon="2.39402">
        <ele>491.927315</ele>
        <time>2021-05-08T11:55:56.135Z</time>
      </trkpt>
      <trkpt lat="43.38034" lon="2.39389">
        <ele>491.663331</ele>
        <time>2021-05-08T11:55:58.096Z</time>
      </trkpt>
      <trkpt lat="43.3803" lon="2.39377">
        <ele>491.421918</ele>
        <time>2021-05-08T11:56:00.106Z</time>
      </trkpt>
      <trkpt lat="43.38022" lon="2.39363">
        <ele>491.082641</ele>
        <time>2021-05-08T11:56:03.093Z</time>
      </trkpt>
      <trkpt lat="43.38016" lon="2.39353">
        <ele>490.849309</ele>
        <time>2021-05-08T11:56:05.127Z</time>
      </trkpt>
      <trkpt lat="43.3801" lon="2.39342">
        <ele>490.582325</ele>
        <time>2021-05-08T11:56:07.098Z</time>
      </trkpt>
      <trkpt lat="43.38003" lon="2.39329">
        <ele>490.2927</ele>
        <time>2021-05-08T11:56:09.111Z</time>
      </trkpt>
      <trkpt lat="43.37996" lon="2.39317">
        <ele>490.003171</ele>
        <time>2021-05-08T11:56:11.098Z</time>
      </trkpt>
      <trkpt lat="43.37989" lon="2.39304">
        <ele>489.716712</ele>
        <time>2021-05-08T11:56:13.126Z</time>
      </trkpt>
      <trkpt lat="43.37983" lon="2.39292">
        <ele>489.434333</ele>
        <time>2021-05-08T11:56:15.105Z</time>
      </trkpt>
      <trkpt lat="43.37977" lon="2.39278">
        <ele>489.139835</ele>
        <time>2021-05-08T11:56:17.100Z</time>
      </trkpt>
      <trkpt lat="43.37971" lon="2.39266">
        <ele>488.8697</ele>
        <time>2021-05-08T11:56:19.095Z</time>
      </trkpt>
      <trkpt lat="43.37964" lon="2.39254">
        <ele>488.586133</ele>
        <time>2021-05-08T11:56:21.092Z</time>
      </trkpt>
      <trkpt lat="43.37957" lon="2.39241">
        <ele>488.205401</ele>
        <time>2021-05-08T11:56:23.127Z</time>
      </trkpt>
      <trkpt lat="43.37949" lon="2.39229">
        <ele>487.710696</ele>
        <time>2021-05-08T11:56:25.114Z</time>
      </trkpt>
      <trkpt lat="43.37941" lon="2.39219">
        <ele>487.214287</ele>
        <time>2021-05-08T11:56:27.085Z</time>
      </trkpt>
      <trkpt lat="43.37932" lon="2.39207">
        <ele>486.707359</ele>
        <time>2021-05-08T11:56:29.114Z</time>
      </trkpt>
      <trkpt lat="43.37931" lon="2.3919">
        <ele>486.150425</ele>
        <time>2021-05-08T11:56:32.098Z</time>
      </trkpt>
      <trkpt lat="43.37936" lon="2.39174">
        <ele>485.593506</ele>
        <time>2021-05-08T11:56:34.103Z</time>
      </trkpt>
      <trkpt lat="43.37943" lon="2.39153">
        <ele>484.901284</ele>
        <time>2021-05-08T11:56:36.093Z</time>
      </trkpt>
      <trkpt lat="43.37947" lon="2.39129">
        <ele>484.110183</ele>
        <time>2021-05-08T11:56:38.096Z</time>
      </trkpt>
      <trkpt lat="43.37948" lon="2.39116">
        <ele>483.696388</ele>
        <time>2021-05-08T11:56:39.096Z</time>
      </trkpt>
      <trkpt lat="43.37947" lon="2.39102">
        <ele>483.281718</ele>
        <time>2021-05-08T11:56:40.101Z</time>
      </trkpt>
      <trkpt lat="43.37945" lon="2.3909">
        <ele>482.881028</ele>
        <time>2021-05-08T11:56:41.097Z</time>
      </trkpt>
      <trkpt lat="43.37942" lon="2.39078">
        <ele>482.49076</ele>
        <time>2021-05-08T11:56:42.093Z</time>
      </trkpt>
      <trkpt lat="43.37937" lon="2.39056">
        <ele>481.770833</ele>
        <time>2021-05-08T11:56:44.125Z</time>
      </trkpt>
      <trkpt lat="43.37935" lon="2.39035">
        <ele>481.104118</ele>
        <time>2021-05-08T11:56:46.099Z</time>
      </trkpt>
      <trkpt lat="43.37936" lon="2.39015">
        <ele>480.353269</ele>
        <time>2021-05-08T11:56:48.099Z</time>
      </trkpt>
      <trkpt lat="43.37938" lon="2.38996">
        <ele>479.244626</ele>
        <time>2021-05-08T11:56:50.097Z</time>
      </trkpt>
      <trkpt lat="43.37937" lon="2.38975">
        <ele>478.037454</ele>
        <time>2021-05-08T11:56:52.105Z</time>
      </trkpt>
      <trkpt lat="43.37934" lon="2.38952">
        <ele>476.737985</ele>
        <time>2021-05-08T11:56:54.085Z</time>
      </trkpt>
      <trkpt lat="43.3793" lon="2.38929">
        <ele>475.372515</ele>
        <time>2021-05-08T11:56:56.098Z</time>
      </trkpt>
      <trkpt lat="43.37926" lon="2.38906">
        <ele>474.020484</ele>
        <time>2021-05-08T11:56:58.104Z</time>
      </trkpt>
      <trkpt lat="43.37924" lon="2.38884">
        <ele>472.764068</ele>
        <time>2021-05-08T11:57:00.107Z</time>
      </trkpt>
      <trkpt lat="43.37921" lon="2.38863">
        <ele>471.545813</ele>
        <time>2021-05-08T11:57:02.098Z</time>
      </trkpt>
      <trkpt lat="43.37914" lon="2.38845">
        <ele>470.36065</ele>
        <time>2021-05-08T11:57:04.097Z</time>
      </trkpt>
      <trkpt lat="43.37902" lon="2.3883">
        <ele>469.094722</ele>
        <time>2021-05-08T11:57:06.117Z</time>
      </trkpt>
      <trkpt lat="43.37887" lon="2.38824">
        <ele>467.888894</ele>
        <time>2021-05-08T11:57:08.105Z</time>
      </trkpt>
      <trkpt lat="43.37871" lon="2.3882">
        <ele>466.647135</ele>
        <time>2021-05-08T11:57:10.102Z</time>
      </trkpt>
      <trkpt lat="43.37854" lon="2.38814">
        <ele>465.19554</ele>
        <time>2021-05-08T11:57:12.131Z</time>
      </trkpt>
      <trkpt lat="43.37845" lon="2.3881">
        <ele>464.394995</ele>
        <time>2021-05-08T11:57:13.099Z</time>
      </trkpt>
      <trkpt lat="43.37836" lon="2.38806">
        <ele>463.540991</ele>
        <time>2021-05-08T11:57:14.111Z</time>
      </trkpt>
      <trkpt lat="43.37826" lon="2.38801">
        <ele>462.645548</ele>
        <time>2021-05-08T11:57:15.101Z</time>
      </trkpt>
      <trkpt lat="43.37816" lon="2.38795">
        <ele>461.758619</ele>
        <time>2021-05-08T11:57:16.146Z</time>
      </trkpt>
      <trkpt lat="43.37806" lon="2.38791">
        <ele>460.886795</ele>
        <time>2021-05-08T11:57:17.095Z</time>
      </trkpt>
      <trkpt lat="43.37796" lon="2.38788">
        <ele>460.030232</ele>
        <time>2021-05-08T11:57:18.093Z</time>
      </trkpt>
      <trkpt lat="43.37786" lon="2.38783">
        <ele>459.192164</ele>
        <time>2021-05-08T11:57:19.097Z</time>
      </trkpt>
      <trkpt lat="43.37777" lon="2.38779">
        <ele>458.383631</ele>
        <time>2021-05-08T11:57:20.115Z</time>
      </trkpt>
      <trkpt lat="43.37768" lon="2.38775">
        <ele>457.608884</ele>
        <time>2021-05-08T11:57:21.123Z</time>
      </trkpt>
      <trkpt lat="43.37753" lon="2.3877">
        <ele>456.240096</ele>
        <time>2021-05-08T11:57:23.092Z</time>
      </trkpt>
      <trkpt lat="43.3774" lon="2.38764">
        <ele>455.100362</ele>
        <time>2021-05-08T11:57:25.102Z</time>
      </trkpt>
      <trkpt lat="43.37728" lon="2.38751">
        <ele>453.794886</ele>
        <time>2021-05-08T11:57:27.105Z</time>
      </trkpt>
      <trkpt lat="43.37718" lon="2.38731">
        <ele>452.383427</ele>
        <time>2021-05-08T11:57:29.099Z</time>
      </trkpt>
      <trkpt lat="43.3771" lon="2.38715">
        <ele>451.147197</ele>
        <time>2021-05-08T11:57:31.089Z</time>
      </trkpt>
      <trkpt lat="43.377" lon="2.38702">
        <ele>450.031827</ele>
        <time>2021-05-08T11:57:33.132Z</time>
      </trkpt>
      <trkpt lat="43.3769" lon="2.38691">
        <ele>449.022015</ele>
        <time>2021-05-08T11:57:35.090Z</time>
      </trkpt>
      <trkpt lat="43.37682" lon="2.38678">
        <ele>448.010163</ele>
        <time>2021-05-08T11:57:37.094Z</time>
      </trkpt>
      <trkpt lat="43.37675" lon="2.38664">
        <ele>447.056846</ele>
        <time>2021-05-08T11:57:39.112Z</time>
      </trkpt>
      <trkpt lat="43.37671" lon="2.3865">
        <ele>446.132453</ele>
        <time>2021-05-08T11:57:41.097Z</time>
      </trkpt>
      <trkpt lat="43.37665" lon="2.38636">
        <ele>445.163192</ele>
        <time>2021-05-08T11:57:43.094Z</time>
      </trkpt>
      <trkpt lat="43.37656" lon="2.38627">
        <ele>444.270795</ele>
        <time>2021-05-08T11:57:45.107Z</time>
      </trkpt>
      <trkpt lat="43.37643" lon="2.38625">
        <ele>443.170199</ele>
        <time>2021-05-08T11:57:47.102Z</time>
      </trkpt>
      <trkpt lat="43.37627" lon="2.38627">
        <ele>441.833093</ele>
        <time>2021-05-08T11:57:49.107Z</time>
      </trkpt>
      <trkpt lat="43.37609" lon="2.38625">
        <ele>440.423711</ele>
        <time>2021-05-08T11:57:51.096Z</time>
      </trkpt>
      <trkpt lat="43.37593" lon="2.38622">
        <ele>439.080165</ele>
        <time>2021-05-08T11:57:53.094Z</time>
      </trkpt>
      <trkpt lat="43.37578" lon="2.38616">
        <ele>437.808297</ele>
        <time>2021-05-08T11:57:55.098Z</time>
      </trkpt>
      <trkpt lat="43.37566" lon="2.38607">
        <ele>436.652756</ele>
        <time>2021-05-08T11:57:57.137Z</time>
      </trkpt>
      <trkpt lat="43.37556" lon="2.38596">
        <ele>435.344914</ele>
        <time>2021-05-08T11:57:59.097Z</time>
      </trkpt>
      <trkpt lat="43.37546" lon="2.38582">
        <ele>433.765841</ele>
        <time>2021-05-08T11:58:01.134Z</time>
      </trkpt>
      <trkpt lat="43.37537" lon="2.38562">
        <ele>431.987162</ele>
        <time>2021-05-08T11:58:03.096Z</time>
      </trkpt>
      <trkpt lat="43.37535" lon="2.3854">
        <ele>430.292244</ele>
        <time>2021-05-08T11:58:05.098Z</time>
      </trkpt>
      <trkpt lat="43.37538" lon="2.38517">
        <ele>428.499641</ele>
        <time>2021-05-08T11:58:07.101Z</time>
      </trkpt>
      <trkpt lat="43.37543" lon="2.38495">
        <ele>426.687747</ele>
        <time>2021-05-08T11:58:09.100Z</time>
      </trkpt>
      <trkpt lat="43.37549" lon="2.38473">
        <ele>424.915995</ele>
        <time>2021-05-08T11:58:11.095Z</time>
      </trkpt>
      <trkpt lat="43.37556" lon="2.38451">
        <ele>423.094881</ele>
        <time>2021-05-08T11:58:13.146Z</time>
      </trkpt>
      <trkpt lat="43.37561" lon="2.38431">
        <ele>421.417059</ele>
        <time>2021-05-08T11:58:15.129Z</time>
      </trkpt>
      <trkpt lat="43.37565" lon="2.38412">
        <ele>419.907964</ele>
        <time>2021-05-08T11:58:17.121Z</time>
      </trkpt>
      <trkpt lat="43.37564" lon="2.38396">
        <ele>418.618114</ele>
        <time>2021-05-08T11:58:19.086Z</time>
      </trkpt>
      <trkpt lat="43.37553" lon="2.3839">
        <ele>417.527976</ele>
        <time>2021-05-08T11:58:21.095Z</time>
      </trkpt>
      <trkpt lat="43.37538" lon="2.38393">
        <ele>416.356546</ele>
        <time>2021-05-08T11:58:23.099Z</time>
      </trkpt>
      <trkpt lat="43.37523" lon="2.38399">
        <ele>415.183603</ele>
        <time>2021-05-08T11:58:25.095Z</time>
      </trkpt>
      <trkpt lat="43.37509" lon="2.38399">
        <ele>414.114102</ele>
        <time>2021-05-08T11:58:27.082Z</time>
      </trkpt>
      <trkpt lat="43.37495" lon="2.38392">
        <ele>412.989014</ele>
        <time>2021-05-08T11:58:29.098Z</time>
      </trkpt>
      <trkpt lat="43.37483" lon="2.38375">
        <ele>411.687915</ele>
        <time>2021-05-08T11:58:31.094Z</time>
      </trkpt>
      <trkpt lat="43.37473" lon="2.38355">
        <ele>410.361854</ele>
        <time>2021-05-08T11:58:33.112Z</time>
      </trkpt>
      <trkpt lat="43.37466" lon="2.38334">
        <ele>409.10676</ele>
        <time>2021-05-08T11:58:35.431Z</time>
      </trkpt>
      <trkpt lat="43.37462" lon="2.38313">
        <ele>407.894364</ele>
        <time>2021-05-08T11:58:37.137Z</time>
      </trkpt>
      <trkpt lat="43.37461" lon="2.38292">
        <ele>406.703169</ele>
        <time>2021-05-08T11:58:39.131Z</time>
      </trkpt>
      <trkpt lat="43.37459" lon="2.38269">
        <ele>405.447534</ele>
        <time>2021-05-08T11:58:41.153Z</time>
      </trkpt>
      <trkpt lat="43.37457" lon="2.38246">
        <ele>404.197235</ele>
        <time>2021-05-08T11:58:43.093Z</time>
      </trkpt>
      <trkpt lat="43.37456" lon="2.38224">
        <ele>402.631937</ele>
        <time>2021-05-08T11:58:45.107Z</time>
      </trkpt>
      <trkpt lat="43.37452" lon="2.38201">
        <ele>400.983752</ele>
        <time>2021-05-08T11:58:47.093Z</time>
      </trkpt>
      <trkpt lat="43.37446" lon="2.3818">
        <ele>399.393223</ele>
        <time>2021-05-08T11:58:49.131Z</time>
      </trkpt>
      <trkpt lat="43.37442" lon="2.38159">
        <ele>397.871483</ele>
        <time>2021-05-08T11:58:51.099Z</time>
      </trkpt>
      <trkpt lat="43.37437" lon="2.38139">
        <ele>396.457986</ele>
        <time>2021-05-08T11:58:53.117Z</time>
      </trkpt>
      <trkpt lat="43.37428" lon="2.38126">
        <ele>395.216842</ele>
        <time>2021-05-08T11:58:55.121Z</time>
      </trkpt>
      <trkpt lat="43.37421" lon="2.38114">
        <ele>394.099792</ele>
        <time>2021-05-08T11:58:57.099Z</time>
      </trkpt>
      <trkpt lat="43.37419" lon="2.381">
        <ele>393.131457</ele>
        <time>2021-05-08T11:58:59.112Z</time>
      </trkpt>
      <trkpt lat="43.37426" lon="2.38085">
        <ele>391.882663</ele>
        <time>2021-05-08T11:59:01.096Z</time>
      </trkpt>
      <trkpt lat="43.37434" lon="2.38068">
        <ele>390.437554</ele>
        <time>2021-05-08T11:59:03.104Z</time>
      </trkpt>
      <trkpt lat="43.37443" lon="2.3805">
        <ele>388.960168</ele>
        <time>2021-05-08T11:59:05.099Z</time>
      </trkpt>
      <trkpt lat="43.37448" lon="2.3803">
        <ele>387.467492</ele>
        <time>2021-05-08T11:59:07.093Z</time>
      </trkpt>
      <trkpt lat="43.37451" lon="2.38012">
        <ele>386.10983</ele>
        <time>2021-05-08T11:59:09.092Z</time>
      </trkpt>
      <trkpt lat="43.37451" lon="2.37996">
        <ele>384.974959</ele>
        <time>2021-05-08T11:59:11.091Z</time>
      </trkpt>
      <trkpt lat="43.37445" lon="2.37986">
        <ele>383.976107</ele>
        <time>2021-05-08T11:59:13.100Z</time>
      </trkpt>
      <trkpt lat="43.37432" lon="2.37978">
        <ele>382.595807</ele>
        <time>2021-05-08T11:59:15.135Z</time>
      </trkpt>
      <trkpt lat="43.37418" lon="2.3797">
        <ele>381.028027</ele>
        <time>2021-05-08T11:59:17.089Z</time>
      </trkpt>
      <trkpt lat="43.37405" lon="2.37958">
        <ele>379.460972</ele>
        <time>2021-05-08T11:59:19.093Z</time>
      </trkpt>
      <trkpt lat="43.37394" lon="2.37942">
        <ele>377.897316</ele>
        <time>2021-05-08T11:59:21.104Z</time>
      </trkpt>
      <trkpt lat="43.37385" lon="2.37924">
        <ele>376.329722</ele>
        <time>2021-05-08T11:59:23.108Z</time>
      </trkpt>
      <trkpt lat="43.3738" lon="2.37905">
        <ele>374.814258</ele>
        <time>2021-05-08T11:59:25.108Z</time>
      </trkpt>
      <trkpt lat="43.37378" lon="2.37886">
        <ele>373.450524</ele>
        <time>2021-05-08T11:59:27.097Z</time>
      </trkpt>
      <trkpt lat="43.37377" lon="2.3787">
        <ele>372.234179</ele>
        <time>2021-05-08T11:59:29.089Z</time>
      </trkpt>
      <trkpt lat="43.37377" lon="2.37856">
        <ele>371.222808</ele>
        <time>2021-05-08T11:59:31.096Z</time>
      </trkpt>
      <trkpt lat="43.37366" lon="2.37854">
        <ele>370.115805</ele>
        <time>2021-05-08T11:59:35.100Z</time>
      </trkpt>
      <trkpt lat="43.37358" lon="2.3786">
        <ele>369.193045</ele>
        <time>2021-05-08T11:59:37.098Z</time>
      </trkpt>
      <trkpt lat="43.37346" lon="2.37865">
        <ele>368.137634</ele>
        <time>2021-05-08T11:59:40.096Z</time>
      </trkpt>
      <trkpt lat="43.37336" lon="2.37871">
        <ele>367.338762</ele>
        <time>2021-05-08T11:59:42.124Z</time>
      </trkpt>
      <trkpt lat="43.37325" lon="2.37875">
        <ele>366.450925</ele>
        <time>2021-05-08T11:59:44.123Z</time>
      </trkpt>
      <trkpt lat="43.37313" lon="2.3788">
        <ele>365.441605</ele>
        <time>2021-05-08T11:59:46.140Z</time>
      </trkpt>
      <trkpt lat="43.37301" lon="2.37888">
        <ele>364.371592</ele>
        <time>2021-05-08T11:59:48.134Z</time>
      </trkpt>
      <trkpt lat="43.37289" lon="2.37891">
        <ele>363.483193</ele>
        <time>2021-05-08T11:59:50.116Z</time>
      </trkpt>
      <trkpt lat="43.37281" lon="2.37884">
        <ele>362.742242</ele>
        <time>2021-05-08T11:59:52.102Z</time>
      </trkpt>
      <trkpt lat="43.37276" lon="2.37871">
        <ele>361.893465</ele>
        <time>2021-05-08T11:59:54.097Z</time>
      </trkpt>
      <trkpt lat="43.37271" lon="2.37857">
        <ele>361.014717</ele>
        <time>2021-05-08T11:59:56.095Z</time>
      </trkpt>
      <trkpt lat="43.37266" lon="2.37845">
        <ele>360.245337</ele>
        <time>2021-05-08T11:59:58.105Z</time>
      </trkpt>
      <trkpt lat="43.3726" lon="2.37831">
        <ele>359.320679</ele>
        <time>2021-05-08T12:00:01.103Z</time>
      </trkpt>
      <trkpt lat="43.37255" lon="2.37819">
        <ele>358.570991</ele>
        <time>2021-05-08T12:00:04.096Z</time>
      </trkpt>
      <trkpt lat="43.3725" lon="2.37806">
        <ele>357.722211</ele>
        <time>2021-05-08T12:00:08.101Z</time>
      </trkpt>
      <trkpt lat="43.37241" lon="2.37793">
        <ele>356.712639</ele>
        <time>2021-05-08T12:00:11.088Z</time>
      </trkpt>
      <trkpt lat="43.37229" lon="2.37782">
        <ele>355.619676</ele>
        <time>2021-05-08T12:00:14.091Z</time>
      </trkpt>
      <trkpt lat="43.3722" lon="2.37777">
        <ele>354.973589</ele>
        <time>2021-05-08T12:00:16.091Z</time>
      </trkpt>
      <trkpt lat="43.37211" lon="2.37776">
        <ele>355.304516</ele>
        <time>2021-05-08T12:00:18.102Z</time>
      </trkpt>
      <trkpt lat="43.372" lon="2.37776">
        <ele>355.691041</ele>
        <time>2021-05-08T12:00:20.091Z</time>
      </trkpt>
      <trkpt lat="43.37188" lon="2.37778">
        <ele>356.102259</ele>
        <time>2021-05-08T12:00:22.090Z</time>
      </trkpt>
      <trkpt lat="43.37176" lon="2.37781">
        <ele>356.549704</ele>
        <time>2021-05-08T12:00:24.092Z</time>
      </trkpt>
      <trkpt lat="43.37166" lon="2.37781">
        <ele>356.925856</ele>
        <time>2021-05-08T12:00:26.108Z</time>
      </trkpt>
      <trkpt lat="43.37157" lon="2.37766">
        <ele>357.414121</ele>
        <time>2021-05-08T12:00:29.096Z</time>
      </trkpt>
      <trkpt lat="43.37153" lon="2.37752">
        <ele>357.788501</ele>
        <time>2021-05-08T12:00:31.095Z</time>
      </trkpt>
      <trkpt lat="43.3715" lon="2.37736">
        <ele>358.223847</ele>
        <time>2021-05-08T12:00:33.094Z</time>
      </trkpt>
      <trkpt lat="43.37143" lon="2.3772">
        <ele>358.698863</ele>
        <time>2021-05-08T12:00:35.115Z</time>
      </trkpt>
      <trkpt lat="43.37134" lon="2.37707">
        <ele>359.178876</ele>
        <time>2021-05-08T12:00:37.094Z</time>
      </trkpt>
      <trkpt lat="43.37121" lon="2.37698">
        <ele>359.715104</ele>
        <time>2021-05-08T12:00:39.087Z</time>
      </trkpt>
      <trkpt lat="43.37106" lon="2.37696">
        <ele>360.238615</ele>
        <time>2021-05-08T12:00:41.130Z</time>
      </trkpt>
      <trkpt lat="43.3709" lon="2.37698">
        <ele>360.801259</ele>
        <time>2021-05-08T12:00:43.105Z</time>
      </trkpt>
      <trkpt lat="43.37076" lon="2.37696">
        <ele>361.328341</ele>
        <time>2021-05-08T12:00:45.108Z</time>
      </trkpt>
      <trkpt lat="43.37061" lon="2.37695">
        <ele>360.883102</ele>
        <time>2021-05-08T12:00:47.094Z</time>
      </trkpt>
      <trkpt lat="43.37048" lon="2.37694">
        <ele>360.402065</ele>
        <time>2021-05-08T12:00:49.094Z</time>
      </trkpt>
      <trkpt lat="43.37035" lon="2.37694">
        <ele>359.922653</ele>
        <time>2021-05-08T12:00:51.128Z</time>
      </trkpt>
      <trkpt lat="43.37023" lon="2.37696">
        <ele>359.476112</ele>
        <time>2021-05-08T12:00:53.105Z</time>
      </trkpt>
      <trkpt lat="43.37011" lon="2.377">
        <ele>359.017375</ele>
        <time>2021-05-08T12:00:55.096Z</time>
      </trkpt>
      <trkpt lat="43.37" lon="2.37708">
        <ele>358.572357</ele>
        <time>2021-05-08T12:00:57.093Z</time>
      </trkpt>
      <trkpt lat="43.3699" lon="2.37718">
        <ele>358.139755</ele>
        <time>2021-05-08T12:00:59.097Z</time>
      </trkpt>
      <trkpt lat="43.36981" lon="2.37727">
        <ele>357.726137</ele>
        <time>2021-05-08T12:01:01.119Z</time>
      </trkpt>
      <trkpt lat="43.36973" lon="2.37736">
        <ele>357.347414</ele>
        <time>2021-05-08T12:01:03.097Z</time>
      </trkpt>
      <trkpt lat="43.36964" lon="2.37744">
        <ele>356.944918</ele>
        <time>2021-05-08T12:01:05.102Z</time>
      </trkpt>
      <trkpt lat="43.36955" lon="2.37751">
        <ele>356.577043</ele>
        <time>2021-05-08T12:01:07.084Z</time>
      </trkpt>
      <trkpt lat="43.36944" lon="2.37752">
        <ele>356.191841</ele>
        <time>2021-05-08T12:01:10.094Z</time>
      </trkpt>
      <trkpt lat="43.36938" lon="2.37739">
        <ele>355.78373</ele>
        <time>2021-05-08T12:01:13.098Z</time>
      </trkpt>
      <trkpt lat="43.36934" lon="2.37727">
        <ele>355.453158</ele>
        <time>2021-05-08T12:01:15.109Z</time>
      </trkpt>
      <trkpt lat="43.36931" lon="2.37715">
        <ele>355.100782</ele>
        <time>2021-05-08T12:01:17.095Z</time>
      </trkpt>
      <trkpt lat="43.36928" lon="2.37701">
        <ele>354.759518</ele>
        <time>2021-05-08T12:01:19.094Z</time>
      </trkpt>
      <trkpt lat="43.36925" lon="2.37688">
        <ele>354.516132</ele>
        <time>2021-05-08T12:01:21.117Z</time>
      </trkpt>
      <trkpt lat="43.36922" lon="2.37675">
        <ele>354.257939</ele>
        <time>2021-05-08T12:01:23.096Z</time>
      </trkpt>
      <trkpt lat="43.36916" lon="2.3766">
        <ele>353.967172</ele>
        <time>2021-05-08T12:01:25.100Z</time>
      </trkpt>
      <trkpt lat="43.3691" lon="2.37646">
        <ele>353.669232</ele>
        <time>2021-05-08T12:01:27.094Z</time>
      </trkpt>
      <trkpt lat="43.36904" lon="2.37632">
        <ele>353.369702</ele>
        <time>2021-05-08T12:01:29.147Z</time>
      </trkpt>
      <trkpt lat="43.36897" lon="2.37618">
        <ele>353.076352</ele>
        <time>2021-05-08T12:01:31.101Z</time>
      </trkpt>
      <trkpt lat="43.36889" lon="2.37606">
        <ele>352.777668</ele>
        <time>2021-05-08T12:01:33.101Z</time>
      </trkpt>
      <trkpt lat="43.36881" lon="2.37592">
        <ele>352.458141</ele>
        <time>2021-05-08T12:01:35.093Z</time>
      </trkpt>
      <trkpt lat="43.36871" lon="2.37581">
        <ele>352.136286</ele>
        <time>2021-05-08T12:01:37.129Z</time>
      </trkpt>
      <trkpt lat="43.3686" lon="2.37571">
        <ele>351.821948</ele>
        <time>2021-05-08T12:01:39.091Z</time>
      </trkpt>
      <trkpt lat="43.36847" lon="2.37563">
        <ele>351.472518</ele>
        <time>2021-05-08T12:01:41.133Z</time>
      </trkpt>
      <trkpt lat="43.36832" lon="2.37558">
        <ele>351.093412</ele>
        <time>2021-05-08T12:01:43.123Z</time>
      </trkpt>
      <trkpt lat="43.36817" lon="2.37559">
        <ele>350.727911</ele>
        <time>2021-05-08T12:01:45.117Z</time>
      </trkpt>
      <trkpt lat="43.36802" lon="2.37559">
        <ele>350.355093</ele>
        <time>2021-05-08T12:01:47.112Z</time>
      </trkpt>
      <trkpt lat="43.36788" lon="2.37561">
        <ele>350.090358</ele>
        <time>2021-05-08T12:01:49.127Z</time>
      </trkpt>
      <trkpt lat="43.36777" lon="2.37562">
        <ele>349.882095</ele>
        <time>2021-05-08T12:01:51.131Z</time>
      </trkpt>
      <trkpt lat="43.36764" lon="2.37563">
        <ele>349.644075</ele>
        <time>2021-05-08T12:01:54.091Z</time>
      </trkpt>
      <trkpt lat="43.36753" lon="2.37567">
        <ele>349.419889</ele>
        <time>2021-05-08T12:01:57.101Z</time>
      </trkpt>
      <trkpt lat="43.36751" lon="2.37582">
        <ele>349.210178</ele>
        <time>2021-05-08T12:02:00.105Z</time>
      </trkpt>
      <trkpt lat="43.36754" lon="2.376">
        <ele>348.960176</ele>
        <time>2021-05-08T12:02:03.110Z</time>
      </trkpt>
      <trkpt lat="43.3675" lon="2.37614">
        <ele>348.756403</ele>
        <time>2021-05-08T12:02:06.109Z</time>
      </trkpt>
      <trkpt lat="43.36736" lon="2.37618">
        <ele>348.499349</ele>
        <time>2021-05-08T12:02:09.098Z</time>
      </trkpt>
      <trkpt lat="43.36725" lon="2.37616">
        <ele>348.290509</ele>
        <time>2021-05-08T12:02:11.098Z</time>
      </trkpt>
      <trkpt lat="43.36714" lon="2.3761">
        <ele>348.060258</ele>
        <time>2021-05-08T12:02:13.125Z</time>
      </trkpt>
      <trkpt lat="43.36703" lon="2.37604">
        <ele>347.839429</ele>
        <time>2021-05-08T12:02:15.103Z</time>
      </trkpt>
      <trkpt lat="43.36693" lon="2.37599">
        <ele>347.627251</ele>
        <time>2021-05-08T12:02:17.098Z</time>
      </trkpt>
      <trkpt lat="43.36682" lon="2.37594">
        <ele>347.421785</ele>
        <time>2021-05-08T12:02:19.096Z</time>
      </trkpt>
      <trkpt lat="43.36672" lon="2.37588">
        <ele>347.20643</ele>
        <time>2021-05-08T12:02:21.136Z</time>
      </trkpt>
      <trkpt lat="43.36661" lon="2.37584">
        <ele>347.001742</ele>
        <time>2021-05-08T12:02:23.123Z</time>
      </trkpt>
      <trkpt lat="43.36651" lon="2.37584">
        <ele>346.960405</ele>
        <time>2021-05-08T12:02:25.125Z</time>
      </trkpt>
      <trkpt lat="43.36642" lon="2.37587">
        <ele>346.926274</ele>
        <time>2021-05-08T12:02:27.116Z</time>
      </trkpt>
      <trkpt lat="43.36634" lon="2.37594">
        <ele>346.892095</ele>
        <time>2021-05-08T12:02:29.091Z</time>
      </trkpt>
      <trkpt lat="43.36625" lon="2.37607">
        <ele>346.84327</ele>
        <time>2021-05-08T12:02:32.092Z</time>
      </trkpt>
      <trkpt lat="43.36616" lon="2.3762">
        <ele>346.79417</ele>
        <time>2021-05-08T12:02:35.096Z</time>
      </trkpt>
      <trkpt lat="43.36608" lon="2.37634">
        <ele>346.746701</ele>
        <time>2021-05-08T12:02:38.119Z</time>
      </trkpt>
      <trkpt lat="43.366" lon="2.37648">
        <ele>346.698564</ele>
        <time>2021-05-08T12:02:41.110Z</time>
      </trkpt>
      <trkpt lat="43.3659" lon="2.37659">
        <ele>346.651801</ele>
        <time>2021-05-08T12:02:44.090Z</time>
      </trkpt>
      <trkpt lat="43.3658" lon="2.37671">
        <ele>346.604932</ele>
        <time>2021-05-08T12:02:47.135Z</time>
      </trkpt>
      <trkpt lat="43.36573" lon="2.37679">
        <ele>346.57092</ele>
        <time>2021-05-08T12:02:49.125Z</time>
      </trkpt>
      <trkpt lat="43.36565" lon="2.37688">
        <ele>346.533437</ele>
        <time>2021-05-08T12:02:51.129Z</time>
      </trkpt>
      <trkpt lat="43.36557" lon="2.37696">
        <ele>346.494986</ele>
        <time>2021-05-08T12:02:53.094Z</time>
      </trkpt>
      <trkpt lat="43.36548" lon="2.37704">
        <ele>346.45636</ele>
        <time>2021-05-08T12:02:55.100Z</time>
      </trkpt>
      <trkpt lat="43.36539" lon="2.37711">
        <ele>346.416236</ele>
        <time>2021-05-08T12:02:57.136Z</time>
      </trkpt>
      <trkpt lat="43.36529" lon="2.37718">
        <ele>346.375006</ele>
        <time>2021-05-08T12:02:59.095Z</time>
      </trkpt>
      <trkpt lat="43.36518" lon="2.37724">
        <ele>346.331418</ele>
        <time>2021-05-08T12:03:01.108Z</time>
      </trkpt>
      <trkpt lat="43.36507" lon="2.3773">
        <ele>346.112078</ele>
        <time>2021-05-08T12:03:03.120Z</time>
      </trkpt>
      <trkpt lat="43.36497" lon="2.37735">
        <ele>345.893255</ele>
        <time>2021-05-08T12:03:05.093Z</time>
      </trkpt>
      <trkpt lat="43.36485" lon="2.37738">
        <ele>345.672931</ele>
        <time>2021-05-08T12:03:07.131Z</time>
      </trkpt>
      <trkpt lat="43.36473" lon="2.37735">
        <ele>345.434504</ele>
        <time>2021-05-08T12:03:09.101Z</time>
      </trkpt>
      <trkpt lat="43.36463" lon="2.37725">
        <ele>345.20508</ele>
        <time>2021-05-08T12:03:11.115Z</time>
      </trkpt>
      <trkpt lat="43.36457" lon="2.37711">
        <ele>344.97262</ele>
        <time>2021-05-08T12:03:13.094Z</time>
      </trkpt>
      <trkpt lat="43.36451" lon="2.37696">
        <ele>344.739978</ele>
        <time>2021-05-08T12:03:15.091Z</time>
      </trkpt>
      <trkpt lat="43.36446" lon="2.37681">
        <ele>344.509368</ele>
        <time>2021-05-08T12:03:17.156Z</time>
      </trkpt>
      <trkpt lat="43.36441" lon="2.37667">
        <ele>344.300967</ele>
        <time>2021-05-08T12:03:19.110Z</time>
      </trkpt>
      <trkpt lat="43.36434" lon="2.37652">
        <ele>344.050148</ele>
        <time>2021-05-08T12:03:22.137Z</time>
      </trkpt>
      <trkpt lat="43.3643" lon="2.37641">
        <ele>343.874135</ele>
        <time>2021-05-08T12:03:24.134Z</time>
      </trkpt>
      <trkpt lat="43.36424" lon="2.37629">
        <ele>343.688757</ele>
        <time>2021-05-08T12:03:26.101Z</time>
      </trkpt>
      <trkpt lat="43.36417" lon="2.37619">
        <ele>343.501087</ele>
        <time>2021-05-08T12:03:28.090Z</time>
      </trkpt>
      <trkpt lat="43.36409" lon="2.37612">
        <ele>343.319656</ele>
        <time>2021-05-08T12:03:30.095Z</time>
      </trkpt>
      <trkpt lat="43.36401" lon="2.37607">
        <ele>343.141719</ele>
        <time>2021-05-08T12:03:32.101Z</time>
      </trkpt>
      <trkpt lat="43.36392" lon="2.37605">
        <ele>342.968201</ele>
        <time>2021-05-08T12:03:34.107Z</time>
      </trkpt>
      <trkpt lat="43.36381" lon="2.37606">
        <ele>342.812847</ele>
        <time>2021-05-08T12:03:36.109Z</time>
      </trkpt>
      <trkpt lat="43.36371" lon="2.3761">
        <ele>342.658952</ele>
        <time>2021-05-08T12:03:38.095Z</time>
      </trkpt>
      <trkpt lat="43.36361" lon="2.37614">
        <ele>342.512996</ele>
        <time>2021-05-08T12:03:40.118Z</time>
      </trkpt>
      <trkpt lat="43.36352" lon="2.37621">
        <ele>342.375375</ele>
        <time>2021-05-08T12:03:42.131Z</time>
      </trkpt>
      <trkpt lat="43.36344" lon="2.37629">
        <ele>342.23997</ele>
        <time>2021-05-08T12:03:44.124Z</time>
      </trkpt>
      <trkpt lat="43.36336" lon="2.37637">
        <ele>342.10568</ele>
        <time>2021-05-08T12:03:46.123Z</time>
      </trkpt>
      <trkpt lat="43.36328" lon="2.37645">
        <ele>341.97014</ele>
        <time>2021-05-08T12:03:48.099Z</time>
      </trkpt>
      <trkpt lat="43.36321" lon="2.37656">
        <ele>341.829203</ele>
        <time>2021-05-08T12:03:50.098Z</time>
      </trkpt>
      <trkpt lat="43.36315" lon="2.37667">
        <ele>341.686049</ele>
        <time>2021-05-08T12:03:52.123Z</time>
      </trkpt>
      <trkpt lat="43.3631" lon="2.3768">
        <ele>341.543437</ele>
        <time>2021-05-08T12:03:54.107Z</time>
      </trkpt>
      <trkpt lat="43.36308" lon="2.37693">
        <ele>341.405438</ele>
        <time>2021-05-08T12:03:56.105Z</time>
      </trkpt>
      <trkpt lat="43.36307" lon="2.37706">
        <ele>341.279404</ele>
        <time>2021-05-08T12:03:58.122Z</time>
      </trkpt>
      <trkpt lat="43.36307" lon="2.3772">
        <ele>341.139455</ele>
        <time>2021-05-08T12:04:00.104Z</time>
      </trkpt>
      <trkpt lat="43.36308" lon="2.37736">
        <ele>340.974316</ele>
        <time>2021-05-08T12:04:02.127Z</time>
      </trkpt>
      <trkpt lat="43.36311" lon="2.37752">
        <ele>340.812617</ele>
        <time>2021-05-08T12:04:04.107Z</time>
      </trkpt>
      <trkpt lat="43.36315" lon="2.37767">
        <ele>340.658832</ele>
        <time>2021-05-08T12:04:06.112Z</time>
      </trkpt>
      <trkpt lat="43.36317" lon="2.37781">
        <ele>340.505663</ele>
        <time>2021-05-08T12:04:08.109Z</time>
      </trkpt>
      <trkpt lat="43.3632" lon="2.37796">
        <ele>340.430651</ele>
        <time>2021-05-08T12:04:10.093Z</time>
      </trkpt>
      <trkpt lat="43.36322" lon="2.37811">
        <ele>340.404321</ele>
        <time>2021-05-08T12:04:12.097Z</time>
      </trkpt>
      <trkpt lat="43.36324" lon="2.37825">
        <ele>340.378802</ele>
        <time>2021-05-08T12:04:14.098Z</time>
      </trkpt>
      <trkpt lat="43.36326" lon="2.37838">
        <ele>340.355113</ele>
        <time>2021-05-08T12:04:16.145Z</time>
      </trkpt>
      <trkpt lat="43.36328" lon="2.3785">
        <ele>340.333089</ele>
        <time>2021-05-08T12:04:18.138Z</time>
      </trkpt>
      <trkpt lat="43.36329" lon="2.37862">
        <ele>340.311205</ele>
        <time>2021-05-08T12:04:20.090Z</time>
      </trkpt>
      <trkpt lat="43.36329" lon="2.37876">
        <ele>340.287158</ele>
        <time>2021-05-08T12:04:22.108Z</time>
      </trkpt>
      <trkpt lat="43.36329" lon="2.37891">
        <ele>340.261335</ele>
        <time>2021-05-08T12:04:24.099Z</time>
      </trkpt>
      <trkpt lat="43.36327" lon="2.37905">
        <ele>340.235646</ele>
        <time>2021-05-08T12:04:26.091Z</time>
      </trkpt>
      <trkpt lat="43.36325" lon="2.37919">
        <ele>340.210751</ele>
        <time>2021-05-08T12:04:28.123Z</time>
      </trkpt>
      <trkpt lat="43.3632" lon="2.37932">
        <ele>340.184845</ele>
        <time>2021-05-08T12:04:30.114Z</time>
      </trkpt>
      <trkpt lat="43.36314" lon="2.37945">
        <ele>340.157734</ele>
        <time>2021-05-08T12:04:32.098Z</time>
      </trkpt>
      <trkpt lat="43.36308" lon="2.37957">
        <ele>340.131024</ele>
        <time>2021-05-08T12:04:34.129Z</time>
      </trkpt>
      <trkpt lat="43.36302" lon="2.37969">
        <ele>340.105737</ele>
        <time>2021-05-08T12:04:36.174Z</time>
      </trkpt>
      <trkpt lat="43.36295" lon="2.37979">
        <ele>340.081646</ele>
        <time>2021-05-08T12:04:38.115Z</time>
      </trkpt>
      <trkpt lat="43.36287" lon="2.37987">
        <ele>340.058784</ele>
        <time>2021-05-08T12:04:40.136Z</time>
      </trkpt>
      <trkpt lat="43.3628" lon="2.37994">
        <ele>340.036157</ele>
        <time>2021-05-08T12:04:42.103Z</time>
      </trkpt>
      <trkpt lat="43.36272" lon="2.38002">
        <ele>340.012117</ele>
        <time>2021-05-08T12:04:44.114Z</time>
      </trkpt>
      <trkpt lat="43.36263" lon="2.3801">
        <ele>339.71036</ele>
        <time>2021-05-08T12:04:46.093Z</time>
      </trkpt>
      <trkpt lat="43.36254" lon="2.38018">
        <ele>339.376253</ele>
        <time>2021-05-08T12:04:48.100Z</time>
      </trkpt>
      <trkpt lat="43.36243" lon="2.38023">
        <ele>339.030579</ele>
        <time>2021-05-08T12:04:50.093Z</time>
      </trkpt>
      <trkpt lat="43.36232" lon="2.38024">
        <ele>338.672582</ele>
        <time>2021-05-08T12:04:52.104Z</time>
      </trkpt>
      <trkpt lat="43.36221" lon="2.38023">
        <ele>338.330965</ele>
        <time>2021-05-08T12:04:54.125Z</time>
      </trkpt>
      <trkpt lat="43.36211" lon="2.38021">
        <ele>338.016911</ele>
        <time>2021-05-08T12:04:56.096Z</time>
      </trkpt>
      <trkpt lat="43.36202" lon="2.38019">
        <ele>337.727981</ele>
        <time>2021-05-08T12:04:58.112Z</time>
      </trkpt>
      <trkpt lat="43.36189" lon="2.38023">
        <ele>337.300545</ele>
        <time>2021-05-08T12:05:01.099Z</time>
      </trkpt>
      <trkpt lat="43.36181" lon="2.38033">
        <ele>336.983446</ele>
        <time>2021-05-08T12:05:03.130Z</time>
      </trkpt>
      <trkpt lat="43.36179" lon="2.38046">
        <ele>336.664045</ele>
        <time>2021-05-08T12:05:05.101Z</time>
      </trkpt>
      <trkpt lat="43.36179" lon="2.38061">
        <ele>336.331901</ele>
        <time>2021-05-08T12:05:07.089Z</time>
      </trkpt>
      <trkpt lat="43.36183" lon="2.38074">
        <ele>336.018056</ele>
        <time>2021-05-08T12:05:09.110Z</time>
      </trkpt>
      <trkpt lat="43.3619" lon="2.38085">
        <ele>335.67883</ele>
        <time>2021-05-08T12:05:11.101Z</time>
      </trkpt>
      <trkpt lat="43.36197" lon="2.38098">
        <ele>335.324233</ele>
        <time>2021-05-08T12:05:13.098Z</time>
      </trkpt>
      <trkpt lat="43.36202" lon="2.38113">
        <ele>334.950881</ele>
        <time>2021-05-08T12:05:15.096Z</time>
      </trkpt>
      <trkpt lat="43.36201" lon="2.38128">
        <ele>334.591673</ele>
        <time>2021-05-08T12:05:17.094Z</time>
      </trkpt>
      <trkpt lat="43.36193" lon="2.38142">
        <ele>334.166458</ele>
        <time>2021-05-08T12:05:19.099Z</time>
      </trkpt>
      <trkpt lat="43.36179" lon="2.38152">
        <ele>333.632227</ele>
        <time>2021-05-08T12:05:21.097Z</time>
      </trkpt>
      <trkpt lat="43.36166" lon="2.38159">
        <ele>333.14578</ele>
        <time>2021-05-08T12:05:23.094Z</time>
      </trkpt>
      <trkpt lat="43.36156" lon="2.38166">
        <ele>332.747179</ele>
        <time>2021-05-08T12:05:25.102Z</time>
      </trkpt>
      <trkpt lat="43.36146" lon="2.38172">
        <ele>332.364218</ele>
        <time>2021-05-08T12:05:27.128Z</time>
      </trkpt>
      <trkpt lat="43.36136" lon="2.38178">
        <ele>331.997881</ele>
        <time>2021-05-08T12:05:29.092Z</time>
      </trkpt>
      <trkpt lat="43.36126" lon="2.38185">
        <ele>331.609692</ele>
        <time>2021-05-08T12:05:31.095Z</time>
      </trkpt>
      <trkpt lat="43.36116" lon="2.38192">
        <ele>331.238829</ele>
        <time>2021-05-08T12:05:33.091Z</time>
      </trkpt>
      <trkpt lat="43.36107" lon="2.38197">
        <ele>330.89783</ele>
        <time>2021-05-08T12:05:35.131Z</time>
      </trkpt>
      <trkpt lat="43.36098" lon="2.382">
        <ele>330.582091</ele>
        <time>2021-05-08T12:05:37.123Z</time>
      </trkpt>
      <trkpt lat="43.36088" lon="2.382">
        <ele>330.22304</ele>
        <time>2021-05-08T12:05:39.126Z</time>
      </trkpt>
      <trkpt lat="43.36076" lon="2.38199">
        <ele>329.818765</ele>
        <time>2021-05-08T12:05:41.107Z</time>
      </trkpt>
      <trkpt lat="43.36065" lon="2.38198">
        <ele>329.417538</ele>
        <time>2021-05-08T12:05:43.121Z</time>
      </trkpt>
      <trkpt lat="43.36054" lon="2.38195">
        <ele>329.050188</ele>
        <time>2021-05-08T12:05:45.097Z</time>
      </trkpt>
      <trkpt lat="43.36044" lon="2.3819">
        <ele>328.659975</ele>
        <time>2021-05-08T12:05:47.127Z</time>
      </trkpt>
      <trkpt lat="43.36034" lon="2.38184">
        <ele>328.290025</ele>
        <time>2021-05-08T12:05:49.096Z</time>
      </trkpt>
      <trkpt lat="43.36024" lon="2.38179">
        <ele>328.010222</ele>
        <time>2021-05-08T12:05:51.123Z</time>
      </trkpt>
      <trkpt lat="43.36015" lon="2.38173">
        <ele>327.772005</ele>
        <time>2021-05-08T12:05:53.136Z</time>
      </trkpt>
      <trkpt lat="43.36006" lon="2.38166">
        <ele>327.53899</ele>
        <time>2021-05-08T12:05:55.098Z</time>
      </trkpt>
      <trkpt lat="43.35998" lon="2.38159">
        <ele>327.30441</ele>
        <time>2021-05-08T12:05:57.102Z</time>
      </trkpt>
      <trkpt lat="43.35989" lon="2.38151">
        <ele>327.062148</ele>
        <time>2021-05-08T12:05:59.094Z</time>
      </trkpt>
      <trkpt lat="43.35981" lon="2.38144">
        <ele>326.817742</ele>
        <time>2021-05-08T12:06:01.129Z</time>
      </trkpt>
      <trkpt lat="43.35972" lon="2.38135">
        <ele>326.559702</ele>
        <time>2021-05-08T12:06:03.099Z</time>
      </trkpt>
      <trkpt lat="43.35963" lon="2.38127">
        <ele>326.309473</ele>
        <time>2021-05-08T12:06:05.112Z</time>
      </trkpt>
      <trkpt lat="43.35954" lon="2.3812">
        <ele>326.069114</ele>
        <time>2021-05-08T12:06:07.123Z</time>
      </trkpt>
      <trkpt lat="43.35944" lon="2.38116">
        <ele>325.824089</ele>
        <time>2021-05-08T12:06:09.118Z</time>
      </trkpt>
      <trkpt lat="43.35934" lon="2.38112">
        <ele>325.576884</ele>
        <time>2021-05-08T12:06:11.123Z</time>
      </trkpt>
      <trkpt lat="43.35924" lon="2.38106">
        <ele>325.324813</ele>
        <time>2021-05-08T12:06:13.102Z</time>
      </trkpt>
      <trkpt lat="43.35917" lon="2.38096">
        <ele>325.080361</ele>
        <time>2021-05-08T12:06:15.120Z</time>
      </trkpt>
      <trkpt lat="43.35916" lon="2.38083">
        <ele>324.859625</ele>
        <time>2021-05-08T12:06:17.133Z</time>
      </trkpt>
      <trkpt lat="43.35922" lon="2.3807">
        <ele>324.588034</ele>
        <time>2021-05-08T12:06:19.121Z</time>
      </trkpt>
      <trkpt lat="43.35931" lon="2.38057">
        <ele>324.286014</ele>
        <time>2021-05-08T12:06:21.134Z</time>
      </trkpt>
      <trkpt lat="43.35939" lon="2.38043">
        <ele>323.974253</ele>
        <time>2021-05-08T12:06:23.095Z</time>
      </trkpt>
      <trkpt lat="43.35946" lon="2.38029">
        <ele>323.412737</ele>
        <time>2021-05-08T12:06:25.115Z</time>
      </trkpt>
      <trkpt lat="43.35952" lon="2.38016">
        <ele>322.862486</ele>
        <time>2021-05-08T12:06:27.094Z</time>
      </trkpt>
      <trkpt lat="43.35956" lon="2.38002">
        <ele>322.342105</ele>
        <time>2021-05-08T12:06:29.092Z</time>
      </trkpt>
      <trkpt lat="43.35959" lon="2.37988">
        <ele>321.81976</ele>
        <time>2021-05-08T12:06:31.092Z</time>
      </trkpt>
      <trkpt lat="43.35961" lon="2.37973">
        <ele>321.291011</ele>
        <time>2021-05-08T12:06:33.125Z</time>
      </trkpt>
      <trkpt lat="43.35962" lon="2.37957">
        <ele>320.744844</ele>
        <time>2021-05-08T12:06:35.129Z</time>
      </trkpt>
      <trkpt lat="43.35963" lon="2.37942">
        <ele>320.203197</ele>
        <time>2021-05-08T12:06:37.108Z</time>
      </trkpt>
      <trkpt lat="43.35964" lon="2.37927">
        <ele>319.679281</ele>
        <time>2021-05-08T12:06:39.095Z</time>
      </trkpt>
      <trkpt lat="43.35964" lon="2.37912">
        <ele>319.162925</ele>
        <time>2021-05-08T12:06:41.095Z</time>
      </trkpt>
      <trkpt lat="43.35963" lon="2.37898">
        <ele>318.650852</ele>
        <time>2021-05-08T12:06:43.122Z</time>
      </trkpt>
      <trkpt lat="43.35961" lon="2.37883">
        <ele>318.115828</ele>
        <time>2021-05-08T12:06:45.104Z</time>
      </trkpt>
      <trkpt lat="43.35957" lon="2.3787">
        <ele>317.613892</ele>
        <time>2021-05-08T12:06:47.089Z</time>
      </trkpt>
      <trkpt lat="43.35951" lon="2.37858">
        <ele>317.119203</ele>
        <time>2021-05-08T12:06:49.131Z</time>
      </trkpt>
      <trkpt lat="43.35944" lon="2.37849">
        <ele>316.643239</ele>
        <time>2021-05-08T12:06:51.099Z</time>
      </trkpt>
      <trkpt lat="43.35935" lon="2.37843">
        <ele>316.174805</ele>
        <time>2021-05-08T12:06:53.103Z</time>
      </trkpt>
      <trkpt lat="43.35924" lon="2.37841">
        <ele>315.649875</ele>
        <time>2021-05-08T12:06:55.105Z</time>
      </trkpt>
      <trkpt lat="43.35913" lon="2.37842">
        <ele>315.191547</ele>
        <time>2021-05-08T12:06:57.103Z</time>
      </trkpt>
      <trkpt lat="43.35903" lon="2.37847">
        <ele>314.996011</ele>
        <time>2021-05-08T12:06:59.099Z</time>
      </trkpt>
      <trkpt lat="43.35894" lon="2.37851">
        <ele>314.818723</ele>
        <time>2021-05-08T12:07:01.131Z</time>
      </trkpt>
      <trkpt lat="43.35884" lon="2.37854">
        <ele>314.627193</ele>
        <time>2021-05-08T12:07:03.127Z</time>
      </trkpt>
      <trkpt lat="43.35872" lon="2.37853">
        <ele>314.401398</ele>
        <time>2021-05-08T12:07:05.104Z</time>
      </trkpt>
      <trkpt lat="43.3586" lon="2.3785">
        <ele>314.163799</ele>
        <time>2021-05-08T12:07:07.087Z</time>
      </trkpt>
      <trkpt lat="43.3585" lon="2.37841">
        <ele>313.946974</ele>
        <time>2021-05-08T12:07:09.097Z</time>
      </trkpt>
      <trkpt lat="43.35844" lon="2.37826">
        <ele>313.704034</ele>
        <time>2021-05-08T12:07:11.105Z</time>
      </trkpt>
      <trkpt lat="43.35845" lon="2.37807">
        <ele>313.444944</ele>
        <time>2021-05-08T12:07:13.097Z</time>
      </trkpt>
      <trkpt lat="43.35852" lon="2.37791">
        <ele>313.19757</ele>
        <time>2021-05-08T12:07:15.099Z</time>
      </trkpt>
      <trkpt lat="43.35861" lon="2.37779">
        <ele>312.964671</ele>
        <time>2021-05-08T12:07:17.102Z</time>
      </trkpt>
      <trkpt lat="43.35872" lon="2.37768">
        <ele>312.708261</ele>
        <time>2021-05-08T12:07:19.097Z</time>
      </trkpt>
      <trkpt lat="43.3588" lon="2.37756">
        <ele>312.475669</ele>
        <time>2021-05-08T12:07:21.112Z</time>
      </trkpt>
      <trkpt lat="43.35886" lon="2.37741">
        <ele>312.248613</ele>
        <time>2021-05-08T12:07:23.105Z</time>
      </trkpt>
      <trkpt lat="43.35889" lon="2.37726">
        <ele>312.036521</ele>
        <time>2021-05-08T12:07:25.101Z</time>
      </trkpt>
      <trkpt lat="43.35892" lon="2.37712">
        <ele>311.858406</ele>
        <time>2021-05-08T12:07:27.130Z</time>
      </trkpt>
      <trkpt lat="43.35894" lon="2.37699">
        <ele>311.810103</ele>
        <time>2021-05-08T12:07:29.147Z</time>
      </trkpt>
      <trkpt lat="43.35898" lon="2.37687">
        <ele>311.761722</ele>
        <time>2021-05-08T12:07:31.089Z</time>
      </trkpt>
      <trkpt lat="43.35905" lon="2.37676">
        <ele>311.710369</ele>
        <time>2021-05-08T12:07:33.097Z</time>
      </trkpt>
      <trkpt lat="43.35913" lon="2.37666">
        <ele>311.659261</ele>
        <time>2021-05-08T12:07:35.099Z</time>
      </trkpt>
      <trkpt lat="43.35919" lon="2.37657">
        <ele>311.611339</ele>
        <time>2021-05-08T12:07:37.126Z</time>
      </trkpt>
      <trkpt lat="43.35925" lon="2.37647">
        <ele>311.56588</ele>
        <time>2021-05-08T12:07:39.132Z</time>
      </trkpt>
      <trkpt lat="43.3593" lon="2.3763">
        <ele>311.502536</ele>
        <time>2021-05-08T12:07:42.131Z</time>
      </trkpt>
      <trkpt lat="43.35932" lon="2.37618">
        <ele>311.458275</ele>
        <time>2021-05-08T12:07:44.144Z</time>
      </trkpt>
      <trkpt lat="43.35932" lon="2.37605">
        <ele>311.41214</ele>
        <time>2021-05-08T12:07:46.096Z</time>
      </trkpt>
      <trkpt lat="43.35931" lon="2.37592">
        <ele>311.362998</ele>
        <time>2021-05-08T12:07:48.126Z</time>
      </trkpt>
      <trkpt lat="43.35928" lon="2.37577">
        <ele>311.310988</ele>
        <time>2021-05-08T12:07:50.097Z</time>
      </trkpt>
      <trkpt lat="43.35924" lon="2.37563">
        <ele>311.255658</ele>
        <time>2021-05-08T12:07:52.087Z</time>
      </trkpt>
      <trkpt lat="43.35919" lon="2.37549">
        <ele>311.199539</ele>
        <time>2021-05-08T12:07:54.134Z</time>
      </trkpt>
      <trkpt lat="43.35913" lon="2.37536">
        <ele>311.143527</ele>
        <time>2021-05-08T12:07:56.104Z</time>
      </trkpt>
      <trkpt lat="43.35906" lon="2.37525">
        <ele>311.093153</ele>
        <time>2021-05-08T12:07:58.105Z</time>
      </trkpt>
      <trkpt lat="43.35898" lon="2.37516">
        <ele>311.04322</ele>
        <time>2021-05-08T12:08:00.098Z</time>
      </trkpt>
      <trkpt lat="43.35891" lon="2.37509">
        <ele>310.999045</ele>
        <time>2021-05-08T12:08:02.095Z</time>
      </trkpt>
      <trkpt lat="43.35882" lon="2.37504">
        <ele>311.078156</ele>
        <time>2021-05-08T12:08:04.102Z</time>
      </trkpt>
      <trkpt lat="43.3587" lon="2.375">
        <ele>311.255143</ele>
        <time>2021-05-08T12:08:06.102Z</time>
      </trkpt>
      <trkpt lat="43.35858" lon="2.37501">
        <ele>311.440458</ele>
        <time>2021-05-08T12:08:08.123Z</time>
      </trkpt>
      <trkpt lat="43.35846" lon="2.37507">
        <ele>311.633443</ele>
        <time>2021-05-08T12:08:10.118Z</time>
      </trkpt>
      <trkpt lat="43.35834" lon="2.37517">
        <ele>311.848059</ele>
        <time>2021-05-08T12:08:12.103Z</time>
      </trkpt>
      <trkpt lat="43.35823" lon="2.37528">
        <ele>312.048781</ele>
        <time>2021-05-08T12:08:14.093Z</time>
      </trkpt>
      <trkpt lat="43.35811" lon="2.37541">
        <ele>312.282803</ele>
        <time>2021-05-08T12:08:16.093Z</time>
      </trkpt>
      <trkpt lat="43.35799" lon="2.37554">
        <ele>312.512014</ele>
        <time>2021-05-08T12:08:18.098Z</time>
      </trkpt>
      <trkpt lat="43.35788" lon="2.37565">
        <ele>312.729619</ele>
        <time>2021-05-08T12:08:20.105Z</time>
      </trkpt>
      <trkpt lat="43.35777" lon="2.37575">
        <ele>312.922786</ele>
        <time>2021-05-08T12:08:22.150Z</time>
      </trkpt>
      <trkpt lat="43.35768" lon="2.37585">
        <ele>313.101584</ele>
        <time>2021-05-08T12:08:24.093Z</time>
      </trkpt>
      <trkpt lat="43.35759" lon="2.37594">
        <ele>313.269637</ele>
        <time>2021-05-08T12:08:26.101Z</time>
      </trkpt>
      <trkpt lat="43.35751" lon="2.37604">
        <ele>313.437388</ele>
        <time>2021-05-08T12:08:28.103Z</time>
      </trkpt>
      <trkpt lat="43.35743" lon="2.37614">
        <ele>313.595467</ele>
        <time>2021-05-08T12:08:30.101Z</time>
      </trkpt>
      <trkpt lat="43.35735" lon="2.37622">
        <ele>313.692672</ele>
        <time>2021-05-08T12:08:32.127Z</time>
      </trkpt>
      <trkpt lat="43.35727" lon="2.3763">
        <ele>313.622658</ele>
        <time>2021-05-08T12:08:34.115Z</time>
      </trkpt>
      <trkpt lat="43.35718" lon="2.37637">
        <ele>313.550854</ele>
        <time>2021-05-08T12:08:36.098Z</time>
      </trkpt>
      <trkpt lat="43.35709" lon="2.37645">
        <ele>313.478229</ele>
        <time>2021-05-08T12:08:38.093Z</time>
      </trkpt>
      <trkpt lat="43.35701" lon="2.37653">
        <ele>313.408086</ele>
        <time>2021-05-08T12:08:40.102Z</time>
      </trkpt>
      <trkpt lat="43.35693" lon="2.37662">
        <ele>313.333934</ele>
        <time>2021-05-08T12:08:42.093Z</time>
      </trkpt>
      <trkpt lat="43.35684" lon="2.3767">
        <ele>313.260464</ele>
        <time>2021-05-08T12:08:44.124Z</time>
      </trkpt>
      <trkpt lat="43.35675" lon="2.37675">
        <ele>313.192123</ele>
        <time>2021-05-08T12:08:46.098Z</time>
      </trkpt>
      <trkpt lat="43.35665" lon="2.37677">
        <ele>313.120763</ele>
        <time>2021-05-08T12:08:48.103Z</time>
      </trkpt>
      <trkpt lat="43.35655" lon="2.37676">
        <ele>313.05211</ele>
        <time>2021-05-08T12:08:50.098Z</time>
      </trkpt>
      <trkpt lat="43.35646" lon="2.37673">
        <ele>312.988427</ele>
        <time>2021-05-08T12:08:52.097Z</time>
      </trkpt>
      <trkpt lat="43.35638" lon="2.37667">
        <ele>312.918659</ele>
        <time>2021-05-08T12:08:54.099Z</time>
      </trkpt>
      <trkpt lat="43.35628" lon="2.37659">
        <ele>312.839863</ele>
        <time>2021-05-08T12:08:56.092Z</time>
      </trkpt>
      <trkpt lat="43.35617" lon="2.37652">
        <ele>312.754004</ele>
        <time>2021-05-08T12:08:58.100Z</time>
      </trkpt>
      <trkpt lat="43.35606" lon="2.37644">
        <ele>312.672739</ele>
        <time>2021-05-08T12:09:00.124Z</time>
      </trkpt>
      <trkpt lat="43.35597" lon="2.37636">
        <ele>312.595758</ele>
        <time>2021-05-08T12:09:02.095Z</time>
      </trkpt>
      <trkpt lat="43.35589" lon="2.37628">
        <ele>312.524508</ele>
        <time>2021-05-08T12:09:04.130Z</time>
      </trkpt>
      <trkpt lat="43.35583" lon="2.37617">
        <ele>312.453665</ele>
        <time>2021-05-08T12:09:06.094Z</time>
      </trkpt>
      <trkpt lat="43.35577" lon="2.37604">
        <ele>312.079832</ele>
        <time>2021-05-08T12:09:08.092Z</time>
      </trkpt>
      <trkpt lat="43.35572" lon="2.37591">
        <ele>311.701241</ele>
        <time>2021-05-08T12:09:10.138Z</time>
      </trkpt>
      <trkpt lat="43.35569" lon="2.37577">
        <ele>311.322979</ele>
        <time>2021-05-08T12:09:12.117Z</time>
      </trkpt>
      <trkpt lat="43.35568" lon="2.37562">
        <ele>310.930599</ele>
        <time>2021-05-08T12:09:14.091Z</time>
      </trkpt>
      <trkpt lat="43.35569" lon="2.37547">
        <ele>310.540805</ele>
        <time>2021-05-08T12:09:16.097Z</time>
      </trkpt>
      <trkpt lat="43.3557" lon="2.37532">
        <ele>310.155239</ele>
        <time>2021-05-08T12:09:18.093Z</time>
      </trkpt>
      <trkpt lat="43.35571" lon="2.37519">
        <ele>309.802484</ele>
        <time>2021-05-08T12:09:20.100Z</time>
      </trkpt>
      <trkpt lat="43.3557" lon="2.37505">
        <ele>309.436902</ele>
        <time>2021-05-08T12:09:22.129Z</time>
      </trkpt>
      <trkpt lat="43.35571" lon="2.37491">
        <ele>309.076589</ele>
        <time>2021-05-08T12:09:24.098Z</time>
      </trkpt>
      <trkpt lat="43.35568" lon="2.37477">
        <ele>308.707137</ele>
        <time>2021-05-08T12:09:26.094Z</time>
      </trkpt>
      <trkpt lat="43.35566" lon="2.37463">
        <ele>308.344267</ele>
        <time>2021-05-08T12:09:28.120Z</time>
      </trkpt>
      <trkpt lat="43.35561" lon="2.37449">
        <ele>307.942271</ele>
        <time>2021-05-08T12:09:30.124Z</time>
      </trkpt>
      <trkpt lat="43.35554" lon="2.37437">
        <ele>307.545929</ele>
        <time>2021-05-08T12:09:32.131Z</time>
      </trkpt>
      <trkpt lat="43.35547" lon="2.37428">
        <ele>307.19823</ele>
        <time>2021-05-08T12:09:34.102Z</time>
      </trkpt>
      <trkpt lat="43.35539" lon="2.3742">
        <ele>306.858668</ele>
        <time>2021-05-08T12:09:36.102Z</time>
      </trkpt>
      <trkpt lat="43.35532" lon="2.37413">
        <ele>306.536901</ele>
        <time>2021-05-08T12:09:38.093Z</time>
      </trkpt>
      <trkpt lat="43.35524" lon="2.37407">
        <ele>306.215786</ele>
        <time>2021-05-08T12:09:40.099Z</time>
      </trkpt>
      <trkpt lat="43.35516" lon="2.37401">
        <ele>305.80226</ele>
        <time>2021-05-08T12:09:42.097Z</time>
      </trkpt>
      <trkpt lat="43.35507" lon="2.37395">
        <ele>305.285957</ele>
        <time>2021-05-08T12:09:44.095Z</time>
      </trkpt>
      <trkpt lat="43.35499" lon="2.37388">
        <ele>304.727386</ele>
        <time>2021-05-08T12:09:46.098Z</time>
      </trkpt>
      <trkpt lat="43.35489" lon="2.37383">
        <ele>304.15714</ele>
        <time>2021-05-08T12:09:48.109Z</time>
      </trkpt>
      <trkpt lat="43.35478" lon="2.37379">
        <ele>303.548393</ele>
        <time>2021-05-08T12:09:50.101Z</time>
      </trkpt>
      <trkpt lat="43.35467" lon="2.37379">
        <ele>302.906484</ele>
        <time>2021-05-08T12:09:52.097Z</time>
      </trkpt>
      <trkpt lat="43.35456" lon="2.37382">
        <ele>302.293289</ele>
        <time>2021-05-08T12:09:54.122Z</time>
      </trkpt>
      <trkpt lat="43.35445" lon="2.3739">
        <ele>301.641467</ele>
        <time>2021-05-08T12:09:56.125Z</time>
      </trkpt>
      <trkpt lat="43.35436" lon="2.37399">
        <ele>301.003939</ele>
        <time>2021-05-08T12:09:58.132Z</time>
      </trkpt>
      <trkpt lat="43.35426" lon="2.37407">
        <ele>300.397858</ele>
        <time>2021-05-08T12:10:00.106Z</time>
      </trkpt>
      <trkpt lat="43.35417" lon="2.37416">
        <ele>299.789824</ele>
        <time>2021-05-08T12:10:02.133Z</time>
      </trkpt>
      <trkpt lat="43.35409" lon="2.37426">
        <ele>299.191192</ele>
        <time>2021-05-08T12:10:04.096Z</time>
      </trkpt>
      <trkpt lat="43.354" lon="2.37436">
        <ele>298.575897</ele>
        <time>2021-05-08T12:10:06.093Z</time>
      </trkpt>
      <trkpt lat="43.35391" lon="2.37445">
        <ele>297.956261</ele>
        <time>2021-05-08T12:10:08.128Z</time>
      </trkpt>
      <trkpt lat="43.35382" lon="2.37452">
        <ele>297.377227</ele>
        <time>2021-05-08T12:10:10.131Z</time>
      </trkpt>
      <trkpt lat="43.35372" lon="2.37455">
        <ele>296.792159</ele>
        <time>2021-05-08T12:10:12.104Z</time>
      </trkpt>
      <trkpt lat="43.35361" lon="2.37457">
        <ele>296.21164</ele>
        <time>2021-05-08T12:10:14.127Z</time>
      </trkpt>
      <trkpt lat="43.35351" lon="2.37453">
        <ele>296.050312</ele>
        <time>2021-05-08T12:10:16.109Z</time>
      </trkpt>
      <trkpt lat="43.35341" lon="2.37445">
        <ele>295.90322</ele>
        <time>2021-05-08T12:10:18.095Z</time>
      </trkpt>
      <trkpt lat="43.35331" lon="2.37434">
        <ele>295.743269</ele>
        <time>2021-05-08T12:10:20.106Z</time>
      </trkpt>
      <trkpt lat="43.35321" lon="2.37423">
        <ele>295.580229</ele>
        <time>2021-05-08T12:10:22.095Z</time>
      </trkpt>
      <trkpt lat="43.3531" lon="2.37414">
        <ele>295.417071</ele>
        <time>2021-05-08T12:10:24.101Z</time>
      </trkpt>
      <trkpt lat="43.35297" lon="2.3741">
        <ele>295.252361</ele>
        <time>2021-05-08T12:10:26.104Z</time>
      </trkpt>
      <trkpt lat="43.35285" lon="2.37413">
        <ele>295.105758</ele>
        <time>2021-05-08T12:10:28.100Z</time>
      </trkpt>
      <trkpt lat="43.35277" lon="2.37426">
        <ele>294.944662</ele>
        <time>2021-05-08T12:10:30.099Z</time>
      </trkpt>
      <trkpt lat="43.35269" lon="2.3744">
        <ele>294.784904</ele>
        <time>2021-05-08T12:10:32.099Z</time>
      </trkpt>
      <trkpt lat="43.35258" lon="2.37449">
        <ele>294.624463</ele>
        <time>2021-05-08T12:10:34.095Z</time>
      </trkpt>
      <trkpt lat="43.35244" lon="2.37454">
        <ele>294.442661</ele>
        <time>2021-05-08T12:10:36.089Z</time>
      </trkpt>
      <trkpt lat="43.3523" lon="2.37459">
        <ele>294.270729</ele>
        <time>2021-05-08T12:10:38.097Z</time>
      </trkpt>
      <trkpt lat="43.35221" lon="2.37468">
        <ele>294.126312</ele>
        <time>2021-05-08T12:10:40.098Z</time>
      </trkpt>
      <trkpt lat="43.35218" lon="2.37483">
        <ele>293.984071</ele>
        <time>2021-05-08T12:10:42.097Z</time>
      </trkpt>
      <trkpt lat="43.35222" lon="2.375">
        <ele>293.837035</ele>
        <time>2021-05-08T12:10:44.104Z</time>
      </trkpt>
      <trkpt lat="43.35227" lon="2.37516">
        <ele>293.696696</ele>
        <time>2021-05-08T12:10:46.093Z</time>
      </trkpt>
      <trkpt lat="43.35233" lon="2.37532">
        <ele>293.556321</ele>
        <time>2021-05-08T12:10:48.098Z</time>
      </trkpt>
      <trkpt lat="43.35237" lon="2.37549">
        <ele>293.417016</ele>
        <time>2021-05-08T12:10:50.099Z</time>
      </trkpt>
      <trkpt lat="43.35238" lon="2.37567">
        <ele>293.271978</ele>
        <time>2021-05-08T12:10:52.097Z</time>
      </trkpt>
      <trkpt lat="43.35236" lon="2.37586">
        <ele>293.120312</ele>
        <time>2021-05-08T12:10:54.097Z</time>
      </trkpt>
      <trkpt lat="43.3523" lon="2.37603">
        <ele>292.969927</ele>
        <time>2021-05-08T12:10:56.101Z</time>
      </trkpt>
      <trkpt lat="43.35222" lon="2.37618">
        <ele>292.82227</ele>
        <time>2021-05-08T12:10:58.132Z</time>
      </trkpt>
      <trkpt lat="43.35213" lon="2.37632">
        <ele>292.676611</ele>
        <time>2021-05-08T12:11:00.094Z</time>
      </trkpt>
      <trkpt lat="43.35204" lon="2.37644">
        <ele>292.537192</ele>
        <time>2021-05-08T12:11:02.124Z</time>
      </trkpt>
      <trkpt lat="43.35194" lon="2.37654">
        <ele>292.408393</ele>
        <time>2021-05-08T12:11:04.121Z</time>
      </trkpt>
      <trkpt lat="43.35185" lon="2.37664">
        <ele>292.281788</ele>
        <time>2021-05-08T12:11:06.124Z</time>
      </trkpt>
      <trkpt lat="43.35177" lon="2.37675">
        <ele>292.156175</ele>
        <time>2021-05-08T12:11:08.127Z</time>
      </trkpt>
      <trkpt lat="43.35172" lon="2.37689">
        <ele>292.032493</ele>
        <time>2021-05-08T12:11:10.085Z</time>
      </trkpt>
      <trkpt lat="43.35166" lon="2.37706">
        <ele>291.768372</ele>
        <time>2021-05-08T12:11:12.089Z</time>
      </trkpt>
      <trkpt lat="43.35158" lon="2.37717">
        <ele>291.429275</ele>
        <time>2021-05-08T12:11:14.093Z</time>
      </trkpt>
      <trkpt lat="43.35147" lon="2.37725">
        <ele>291.052892</ele>
        <time>2021-05-08T12:11:16.108Z</time>
      </trkpt>
      <trkpt lat="43.35136" lon="2.37733">
        <ele>290.6948</ele>
        <time>2021-05-08T12:11:18.097Z</time>
      </trkpt>
      <trkpt lat="43.35126" lon="2.37739">
        <ele>290.371609</ele>
        <time>2021-05-08T12:11:20.102Z</time>
      </trkpt>
      <trkpt lat="43.35117" lon="2.37746">
        <ele>290.077607</ele>
        <time>2021-05-08T12:11:22.107Z</time>
      </trkpt>
      <trkpt lat="43.35108" lon="2.37751">
        <ele>289.793485</ele>
        <time>2021-05-08T12:11:24.092Z</time>
      </trkpt>
      <trkpt lat="43.351" lon="2.37757">
        <ele>289.517317</ele>
        <time>2021-05-08T12:11:26.107Z</time>
      </trkpt>
      <trkpt lat="43.35091" lon="2.37763">
        <ele>289.226616</ele>
        <time>2021-05-08T12:11:28.099Z</time>
      </trkpt>
      <trkpt lat="43.35083" lon="2.3777">
        <ele>288.946744</ele>
        <time>2021-05-08T12:11:30.131Z</time>
      </trkpt>
      <trkpt lat="43.35072" lon="2.3778">
        <ele>288.563963</ele>
        <time>2021-05-08T12:11:33.093Z</time>
      </trkpt>
      <trkpt lat="43.35062" lon="2.37791">
        <ele>288.177193</ele>
        <time>2021-05-08T12:11:36.097Z</time>
      </trkpt>
      <trkpt lat="43.35054" lon="2.378">
        <ele>287.892745</ele>
        <time>2021-05-08T12:11:38.095Z</time>
      </trkpt>
      <trkpt lat="43.35046" lon="2.37808">
        <ele>287.593351</ele>
        <time>2021-05-08T12:11:40.102Z</time>
      </trkpt>
      <trkpt lat="43.35036" lon="2.37814">
        <ele>287.280819</ele>
        <time>2021-05-08T12:11:42.100Z</time>
      </trkpt>
      <trkpt lat="43.35026" lon="2.37818">
        <ele>286.980212</ele>
        <time>2021-05-08T12:11:44.092Z</time>
      </trkpt>
      <trkpt lat="43.35016" lon="2.37821">
        <ele>286.686929</ele>
        <time>2021-05-08T12:11:46.135Z</time>
      </trkpt>
      <trkpt lat="43.35006" lon="2.37824">
        <ele>286.608116</ele>
        <time>2021-05-08T12:11:48.094Z</time>
      </trkpt>
      <trkpt lat="43.34996" lon="2.37827">
        <ele>286.527256</ele>
        <time>2021-05-08T12:11:50.091Z</time>
      </trkpt>
      <trkpt lat="43.34986" lon="2.3783">
        <ele>286.449079</ele>
        <time>2021-05-08T12:11:52.104Z</time>
      </trkpt>
      <trkpt lat="43.34977" lon="2.37834">
        <ele>286.37795</ele>
        <time>2021-05-08T12:11:54.132Z</time>
      </trkpt>
      <trkpt lat="43.34968" lon="2.37835">
        <ele>286.305916</ele>
        <time>2021-05-08T12:11:56.091Z</time>
      </trkpt>
      <trkpt lat="43.34959" lon="2.37836">
        <ele>286.235559</ele>
        <time>2021-05-08T12:11:58.104Z</time>
      </trkpt>
      <trkpt lat="43.34949" lon="2.37837">
        <ele>286.15709</ele>
        <time>2021-05-08T12:12:00.144Z</time>
      </trkpt>
      <trkpt lat="43.34937" lon="2.37839">
        <ele>286.065032</ele>
        <time>2021-05-08T12:12:03.125Z</time>
      </trkpt>
      <trkpt lat="43.34925" lon="2.3784">
        <ele>285.971177</ele>
        <time>2021-05-08T12:12:06.128Z</time>
      </trkpt>
      <trkpt lat="43.34915" lon="2.37841">
        <ele>285.897702</ele>
        <time>2021-05-08T12:12:08.093Z</time>
      </trkpt>
      <trkpt lat="43.34905" lon="2.37842">
        <ele>285.81517</ele>
        <time>2021-05-08T12:12:10.092Z</time>
      </trkpt>
      <trkpt lat="43.34894" lon="2.37843">
        <ele>285.730747</ele>
        <time>2021-05-08T12:12:12.095Z</time>
      </trkpt>
      <trkpt lat="43.34882" lon="2.37845">
        <ele>285.637659</ele>
        <time>2021-05-08T12:12:14.098Z</time>
      </trkpt>
      <trkpt lat="43.34869" lon="2.37845">
        <ele>285.541993</ele>
        <time>2021-05-08T12:12:16.130Z</time>
      </trkpt>
      <trkpt lat="43.34857" lon="2.37846">
        <ele>285.446367</ele>
        <time>2021-05-08T12:12:18.128Z</time>
      </trkpt>
      <trkpt lat="43.34844" lon="2.37846">
        <ele>285.347601</ele>
        <time>2021-05-08T12:12:20.110Z</time>
      </trkpt>
      <trkpt lat="43.34831" lon="2.37848">
        <ele>285.269394</ele>
        <time>2021-05-08T12:12:22.094Z</time>
      </trkpt>
      <trkpt lat="43.34818" lon="2.3785">
        <ele>285.206045</ele>
        <time>2021-05-08T12:12:24.121Z</time>
      </trkpt>
      <trkpt lat="43.34805" lon="2.37851">
        <ele>285.143945</ele>
        <time>2021-05-08T12:12:26.114Z</time>
      </trkpt>
      <trkpt lat="43.34791" lon="2.37853">
        <ele>285.078806</ele>
        <time>2021-05-08T12:12:28.094Z</time>
      </trkpt>
      <trkpt lat="43.34778" lon="2.37856">
        <ele>285.016674</ele>
        <time>2021-05-08T12:12:30.089Z</time>
      </trkpt>
      <trkpt lat="43.34765" lon="2.37856">
        <ele>284.955641</ele>
        <time>2021-05-08T12:12:32.127Z</time>
      </trkpt>
      <trkpt lat="43.34749" lon="2.37854">
        <ele>284.880982</ele>
        <time>2021-05-08T12:12:34.084Z</time>
      </trkpt>
      <trkpt lat="43.34732" lon="2.37849">
        <ele>284.80121</ele>
        <time>2021-05-08T12:12:36.094Z</time>
      </trkpt>
      <trkpt lat="43.34716" lon="2.37845">
        <ele>284.725795</ele>
        <time>2021-05-08T12:12:38.122Z</time>
      </trkpt>
      <trkpt lat="43.34701" lon="2.37842">
        <ele>284.651247</ele>
        <time>2021-05-08T12:12:40.093Z</time>
      </trkpt>
      <trkpt lat="43.34685" lon="2.37841">
        <ele>284.579308</ele>
        <time>2021-05-08T12:12:42.123Z</time>
      </trkpt>
      <trkpt lat="43.3467" lon="2.37835">
        <ele>284.506427</ele>
        <time>2021-05-08T12:12:44.121Z</time>
      </trkpt>
      <trkpt lat="43.34656" lon="2.37825">
        <ele>284.3839</ele>
        <time>2021-05-08T12:12:46.090Z</time>
      </trkpt>
      <trkpt lat="43.34644" lon="2.37813">
        <ele>284.212274</ele>
        <time>2021-05-08T12:12:48.096Z</time>
      </trkpt>
      <trkpt lat="43.34632" lon="2.37802">
        <ele>284.047772</ele>
        <time>2021-05-08T12:12:50.134Z</time>
      </trkpt>
      <trkpt lat="43.34622" lon="2.37788">
        <ele>283.882061</ele>
        <time>2021-05-08T12:12:52.094Z</time>
      </trkpt>
      <trkpt lat="43.34613" lon="2.37772">
        <ele>283.711868</ele>
        <time>2021-05-08T12:12:54.124Z</time>
      </trkpt>
      <trkpt lat="43.34604" lon="2.37755">
        <ele>283.536303</ele>
        <time>2021-05-08T12:12:56.103Z</time>
      </trkpt>
      <trkpt lat="43.34593" lon="2.3774">
        <ele>283.35824</ele>
        <time>2021-05-08T12:12:58.125Z</time>
      </trkpt>
      <trkpt lat="43.34579" lon="2.37733">
        <ele>283.188375</ele>
        <time>2021-05-08T12:13:00.133Z</time>
      </trkpt>
      <trkpt lat="43.34564" lon="2.37734">
        <ele>283.006493</ele>
        <time>2021-05-08T12:13:02.095Z</time>
      </trkpt>
      <trkpt lat="43.3455" lon="2.37743">
        <ele>282.831886</ele>
        <time>2021-05-08T12:13:04.096Z</time>
      </trkpt>
      <trkpt lat="43.34538" lon="2.37755">
        <ele>282.663937</ele>
        <time>2021-05-08T12:13:06.099Z</time>
      </trkpt>
      <trkpt lat="43.34532" lon="2.37771">
        <ele>282.510497</ele>
        <time>2021-05-08T12:13:08.090Z</time>
      </trkpt>
      <trkpt lat="43.34531" lon="2.37789">
        <ele>282.421074</ele>
        <time>2021-05-08T12:13:10.098Z</time>
      </trkpt>
      <trkpt lat="43.34529" lon="2.37808">
        <ele>282.750695</ele>
        <time>2021-05-08T12:13:12.118Z</time>
      </trkpt>
      <trkpt lat="43.34526" lon="2.37827">
        <ele>283.08812</ele>
        <time>2021-05-08T12:13:14.094Z</time>
      </trkpt>
      <trkpt lat="43.34522" lon="2.37846">
        <ele>283.43017</ele>
        <time>2021-05-08T12:13:16.091Z</time>
      </trkpt>
      <trkpt lat="43.34518" lon="2.37864">
        <ele>283.7573</ele>
        <time>2021-05-08T12:13:18.093Z</time>
      </trkpt>
      <trkpt lat="43.34513" lon="2.37881">
        <ele>284.067776</ele>
        <time>2021-05-08T12:13:20.139Z</time>
      </trkpt>
      <trkpt lat="43.34505" lon="2.37897">
        <ele>284.404995</ele>
        <time>2021-05-08T12:13:22.109Z</time>
      </trkpt>
      <trkpt lat="43.34494" lon="2.37902">
        <ele>284.677093</ele>
        <time>2021-05-08T12:13:24.099Z</time>
      </trkpt>
      <trkpt lat="43.34485" lon="2.3789">
        <ele>284.961666</ele>
        <time>2021-05-08T12:13:26.099Z</time>
      </trkpt>
      <trkpt lat="43.3448" lon="2.37872">
        <ele>285.312817</ele>
        <time>2021-05-08T12:13:28.104Z</time>
      </trkpt>
      <trkpt lat="43.34474" lon="2.37853">
        <ele>285.658669</ele>
        <time>2021-05-08T12:13:30.102Z</time>
      </trkpt>
      <trkpt lat="43.34464" lon="2.37841">
        <ele>285.975632</ele>
        <time>2021-05-08T12:13:32.130Z</time>
      </trkpt>
      <trkpt lat="43.3445" lon="2.37835">
        <ele>286.329903</ele>
        <time>2021-05-08T12:13:34.093Z</time>
      </trkpt>
      <trkpt lat="43.34434" lon="2.37832">
        <ele>286.627862</ele>
        <time>2021-05-08T12:13:36.094Z</time>
      </trkpt>
      <trkpt lat="43.34419" lon="2.3783">
        <ele>286.427121</ele>
        <time>2021-05-08T12:13:38.094Z</time>
      </trkpt>
      <trkpt lat="43.34405" lon="2.37829">
        <ele>286.22838</ele>
        <time>2021-05-08T12:13:40.101Z</time>
      </trkpt>
      <trkpt lat="43.3439" lon="2.37829">
        <ele>286.030027</ele>
        <time>2021-05-08T12:13:42.103Z</time>
      </trkpt>
      <trkpt lat="43.34376" lon="2.3783">
        <ele>285.836791</ele>
        <time>2021-05-08T12:13:44.103Z</time>
      </trkpt>
      <trkpt lat="43.34362" lon="2.37831">
        <ele>285.65448</ele>
        <time>2021-05-08T12:13:46.101Z</time>
      </trkpt>
      <trkpt lat="43.3435" lon="2.3783">
        <ele>285.483063</ele>
        <time>2021-05-08T12:13:48.112Z</time>
      </trkpt>
      <trkpt lat="43.34338" lon="2.37827">
        <ele>285.325875</ele>
        <time>2021-05-08T12:13:50.098Z</time>
      </trkpt>
      <trkpt lat="43.34329" lon="2.37815">
        <ele>285.158456</ele>
        <time>2021-05-08T12:13:52.101Z</time>
      </trkpt>
      <trkpt lat="43.34322" lon="2.378">
        <ele>284.983475</ele>
        <time>2021-05-08T12:13:54.098Z</time>
      </trkpt>
      <trkpt lat="43.34318" lon="2.37785">
        <ele>284.821933</ele>
        <time>2021-05-08T12:13:56.105Z</time>
      </trkpt>
      <trkpt lat="43.34314" lon="2.37773">
        <ele>284.6945</ele>
        <time>2021-05-08T12:13:58.089Z</time>
      </trkpt>
      <trkpt lat="43.3431" lon="2.37756">
        <ele>284.51925</ele>
        <time>2021-05-08T12:14:01.109Z</time>
      </trkpt>
      <trkpt lat="43.34307" lon="2.3774">
        <ele>284.356065</ele>
        <time>2021-05-08T12:14:04.101Z</time>
      </trkpt>
      <trkpt lat="43.34303" lon="2.37724">
        <ele>284.126641</ele>
        <time>2021-05-08T12:14:07.095Z</time>
      </trkpt>
      <trkpt lat="43.34298" lon="2.37708">
        <ele>283.697297</ele>
        <time>2021-05-08T12:14:10.114Z</time>
      </trkpt>
      <trkpt lat="43.34292" lon="2.37692">
        <ele>283.233728</ele>
        <time>2021-05-08T12:14:13.108Z</time>
      </trkpt>
      <trkpt lat="43.34286" lon="2.37683">
        <ele>282.921461</ele>
        <time>2021-05-08T12:14:15.094Z</time>
      </trkpt>
      <trkpt lat="43.34276" lon="2.37677">
        <ele>282.556849</ele>
        <time>2021-05-08T12:14:17.124Z</time>
      </trkpt>
      <trkpt lat="43.34265" lon="2.37676">
        <ele>282.186571</ele>
        <time>2021-05-08T12:14:19.098Z</time>
      </trkpt>
      <trkpt lat="43.34255" lon="2.37681">
        <ele>281.805043</ele>
        <time>2021-05-08T12:14:21.098Z</time>
      </trkpt>
      <trkpt lat="43.34246" lon="2.37687">
        <ele>281.448472</ele>
        <time>2021-05-08T12:14:23.095Z</time>
      </trkpt>
      <trkpt lat="43.34237" lon="2.37693">
        <ele>281.117595</ele>
        <time>2021-05-08T12:14:25.129Z</time>
      </trkpt>
      <trkpt lat="43.34229" lon="2.37698">
        <ele>280.799386</ele>
        <time>2021-05-08T12:14:27.128Z</time>
      </trkpt>
      <trkpt lat="43.34221" lon="2.37704">
        <ele>280.472543</ele>
        <time>2021-05-08T12:14:29.093Z</time>
      </trkpt>
      <trkpt lat="43.34212" lon="2.3771">
        <ele>280.120935</ele>
        <time>2021-05-08T12:14:31.097Z</time>
      </trkpt>
      <trkpt lat="43.34201" lon="2.37717">
        <ele>279.723404</ele>
        <time>2021-05-08T12:14:33.148Z</time>
      </trkpt>
      <trkpt lat="43.3419" lon="2.37727">
        <ele>279.252968</ele>
        <time>2021-05-08T12:14:35.100Z</time>
      </trkpt>
      <trkpt lat="43.34179" lon="2.37736">
        <ele>278.810086</ele>
        <time>2021-05-08T12:14:37.106Z</time>
      </trkpt>
      <trkpt lat="43.3417" lon="2.37746">
        <ele>278.390557</ele>
        <time>2021-05-08T12:14:39.094Z</time>
      </trkpt>
      <trkpt lat="43.34162" lon="2.37756">
        <ele>278.029779</ele>
        <time>2021-05-08T12:14:41.099Z</time>
      </trkpt>
      <trkpt lat="43.34155" lon="2.37767">
        <ele>277.724909</ele>
        <time>2021-05-08T12:14:43.092Z</time>
      </trkpt>
      <trkpt lat="43.34148" lon="2.37777">
        <ele>277.421674</ele>
        <time>2021-05-08T12:14:45.118Z</time>
      </trkpt>
      <trkpt lat="43.3414" lon="2.37787">
        <ele>277.111527</ele>
        <time>2021-05-08T12:14:47.097Z</time>
      </trkpt>
      <trkpt lat="43.34129" lon="2.37795">
        <ele>276.769411</ele>
        <time>2021-05-08T12:14:49.093Z</time>
      </trkpt>
      <trkpt lat="43.34119" lon="2.37801">
        <ele>276.442971</ele>
        <time>2021-05-08T12:14:51.093Z</time>
      </trkpt>
      <trkpt lat="43.34108" lon="2.37801">
        <ele>276.117545</ele>
        <time>2021-05-08T12:14:53.101Z</time>
      </trkpt>
      <trkpt lat="43.34097" lon="2.37794">
        <ele>275.772804</ele>
        <time>2021-05-08T12:14:55.104Z</time>
      </trkpt>
      <trkpt lat="43.34088" lon="2.37786">
        <ele>275.465441</ele>
        <time>2021-05-08T12:14:57.103Z</time>
      </trkpt>
      <trkpt lat="43.3408" lon="2.37779">
        <ele>275.193694</ele>
        <time>2021-05-08T12:14:59.100Z</time>
      </trkpt>
      <trkpt lat="43.34072" lon="2.37771">
        <ele>274.895733</ele>
        <time>2021-05-08T12:15:01.130Z</time>
      </trkpt>
      <trkpt lat="43.34063" lon="2.37762">
        <ele>274.582467</ele>
        <time>2021-05-08T12:15:03.105Z</time>
      </trkpt>
      <trkpt lat="43.34054" lon="2.37755">
        <ele>274.274757</ele>
        <time>2021-05-08T12:15:05.130Z</time>
      </trkpt>
      <trkpt lat="43.34046" lon="2.37748">
        <ele>274.012096</ele>
        <time>2021-05-08T12:15:07.123Z</time>
      </trkpt>
      <trkpt lat="43.34037" lon="2.37742">
        <ele>273.73716</ele>
        <time>2021-05-08T12:15:09.094Z</time>
      </trkpt>
      <trkpt lat="43.34028" lon="2.37737">
        <ele>273.448822</ele>
        <time>2021-05-08T12:15:11.095Z</time>
      </trkpt>
      <trkpt lat="43.34019" lon="2.37732">
        <ele>273.164218</ele>
        <time>2021-05-08T12:15:13.147Z</time>
      </trkpt>
      <trkpt lat="43.34009" lon="2.37729">
        <ele>272.870326</ele>
        <time>2021-05-08T12:15:15.095Z</time>
      </trkpt>
      <trkpt lat="43.33998" lon="2.37727">
        <ele>272.697612</ele>
        <time>2021-05-08T12:15:17.098Z</time>
      </trkpt>
      <trkpt lat="43.33988" lon="2.37728">
        <ele>272.571925</ele>
        <time>2021-05-08T12:15:19.094Z</time>
      </trkpt>
      <trkpt lat="43.33978" lon="2.37732">
        <ele>272.449535</ele>
        <time>2021-05-08T12:15:21.091Z</time>
      </trkpt>
      <trkpt lat="43.33968" lon="2.37735">
        <ele>272.324096</ele>
        <time>2021-05-08T12:15:23.094Z</time>
      </trkpt>
      <trkpt lat="43.33957" lon="2.37741">
        <ele>272.178837</ele>
        <time>2021-05-08T12:15:25.120Z</time>
      </trkpt>
      <trkpt lat="43.33947" lon="2.37747">
        <ele>272.045571</ele>
        <time>2021-05-08T12:15:27.090Z</time>
      </trkpt>
      <trkpt lat="43.33938" lon="2.37753">
        <ele>271.926886</ele>
        <time>2021-05-08T12:15:29.095Z</time>
      </trkpt>
      <trkpt lat="43.33931" lon="2.37762">
        <ele>271.81087</ele>
        <time>2021-05-08T12:15:31.093Z</time>
      </trkpt>
      <trkpt lat="43.33924" lon="2.37772">
        <ele>271.687569</ele>
        <time>2021-05-08T12:15:33.095Z</time>
      </trkpt>
      <trkpt lat="43.33919" lon="2.37787">
        <ele>271.548028</ele>
        <time>2021-05-08T12:15:35.093Z</time>
      </trkpt>
      <trkpt lat="43.33915" lon="2.37804">
        <ele>271.392433</ele>
        <time>2021-05-08T12:15:37.092Z</time>
      </trkpt>
      <trkpt lat="43.33912" lon="2.37821">
        <ele>271.235327</ele>
        <time>2021-05-08T12:15:39.103Z</time>
      </trkpt>
      <trkpt lat="43.33909" lon="2.3784">
        <ele>271.06146</ele>
        <time>2021-05-08T12:15:41.091Z</time>
      </trkpt>
      <trkpt lat="43.33908" lon="2.37859">
        <ele>270.898006</ele>
        <time>2021-05-08T12:15:43.101Z</time>
      </trkpt>
      <trkpt lat="43.33907" lon="2.37878">
        <ele>270.732898</ele>
        <time>2021-05-08T12:15:45.136Z</time>
      </trkpt>
      <trkpt lat="43.33906" lon="2.37896">
        <ele>270.481794</ele>
        <time>2021-05-08T12:15:47.125Z</time>
      </trkpt>
      <trkpt lat="43.33906" lon="2.37916">
        <ele>270.058149</ele>
        <time>2021-05-08T12:15:49.091Z</time>
      </trkpt>
      <trkpt lat="43.33906" lon="2.37934">
        <ele>269.659131</ele>
        <time>2021-05-08T12:15:51.098Z</time>
      </trkpt>
      <trkpt lat="43.33901" lon="2.37949">
        <ele>269.28486</ele>
        <time>2021-05-08T12:15:53.101Z</time>
      </trkpt>
      <trkpt lat="43.33892" lon="2.37962">
        <ele>268.901135</ele>
        <time>2021-05-08T12:15:55.127Z</time>
      </trkpt>
      <trkpt lat="43.33883" lon="2.37974">
        <ele>268.512349</ele>
        <time>2021-05-08T12:15:57.130Z</time>
      </trkpt>
      <trkpt lat="43.33873" lon="2.37985">
        <ele>268.126318</ele>
        <time>2021-05-08T12:15:59.101Z</time>
      </trkpt>
      <trkpt lat="43.33863" lon="2.37991">
        <ele>267.799345</ele>
        <time>2021-05-08T12:16:01.088Z</time>
      </trkpt>
      <trkpt lat="43.3385" lon="2.37992">
        <ele>267.401405</ele>
        <time>2021-05-08T12:16:03.103Z</time>
      </trkpt>
      <trkpt lat="43.33836" lon="2.37983">
        <ele>266.945823</ele>
        <time>2021-05-08T12:16:05.098Z</time>
      </trkpt>
      <trkpt lat="43.33826" lon="2.3797">
        <ele>266.510865</ele>
        <time>2021-05-08T12:16:07.090Z</time>
      </trkpt>
      <trkpt lat="43.33815" lon="2.37959">
        <ele>266.113161</ele>
        <time>2021-05-08T12:16:09.122Z</time>
      </trkpt>
      <trkpt lat="43.33804" lon="2.37951">
        <ele>265.730903</ele>
        <time>2021-05-08T12:16:11.096Z</time>
      </trkpt>
      <trkpt lat="43.33794" lon="2.37946">
        <ele>265.398005</ele>
        <time>2021-05-08T12:16:13.096Z</time>
      </trkpt>
      <trkpt lat="43.33781" lon="2.37942">
        <ele>265.054311</ele>
        <time>2021-05-08T12:16:16.123Z</time>
      </trkpt>
      <trkpt lat="43.33771" lon="2.3794">
        <ele>264.860738</ele>
        <time>2021-05-08T12:16:18.128Z</time>
      </trkpt>
      <trkpt lat="43.33762" lon="2.37937">
        <ele>264.657426</ele>
        <time>2021-05-08T12:16:20.127Z</time>
      </trkpt>
      <trkpt lat="43.33751" lon="2.37936">
        <ele>264.432862</ele>
        <time>2021-05-08T12:16:22.093Z</time>
      </trkpt>
      <trkpt lat="43.3374" lon="2.37936">
        <ele>264.217457</ele>
        <time>2021-05-08T12:16:24.096Z</time>
      </trkpt>
      <trkpt lat="43.33731" lon="2.37937">
        <ele>264.020256</ele>
        <time>2021-05-08T12:16:26.681Z</time>
      </trkpt>
      <trkpt lat="43.33722" lon="2.37941">
        <ele>263.822327</ele>
        <time>2021-05-08T12:16:28.094Z</time>
      </trkpt>
      <trkpt lat="43.33713" lon="2.37946">
        <ele>263.622145</ele>
        <time>2021-05-08T12:16:30.125Z</time>
      </trkpt>
      <trkpt lat="43.33704" lon="2.37954">
        <ele>263.404995</ele>
        <time>2021-05-08T12:16:32.103Z</time>
      </trkpt>
      <trkpt lat="43.33693" lon="2.37962">
        <ele>263.151763</ele>
        <time>2021-05-08T12:16:34.114Z</time>
      </trkpt>
      <trkpt lat="43.33683" lon="2.37972">
        <ele>262.911672</ele>
        <time>2021-05-08T12:16:36.128Z</time>
      </trkpt>
      <trkpt lat="43.33675" lon="2.37983">
        <ele>262.669595</ele>
        <time>2021-05-08T12:16:38.098Z</time>
      </trkpt>
      <trkpt lat="43.3367" lon="2.37998">
        <ele>262.422013</ele>
        <time>2021-05-08T12:16:40.095Z</time>
      </trkpt>
      <trkpt lat="43.33663" lon="2.38009">
        <ele>262.209092</ele>
        <time>2021-05-08T12:16:42.128Z</time>
      </trkpt>
      <trkpt lat="43.33656" lon="2.38017">
        <ele>262.02079</ele>
        <time>2021-05-08T12:16:44.100Z</time>
      </trkpt>
      <trkpt lat="43.33648" lon="2.38024">
        <ele>261.823583</ele>
        <time>2021-05-08T12:16:46.099Z</time>
      </trkpt>
      <trkpt lat="43.3364" lon="2.3803">
        <ele>261.634467</ele>
        <time>2021-05-08T12:16:48.138Z</time>
      </trkpt>
      <trkpt lat="43.33628" lon="2.38037">
        <ele>261.172197</ele>
        <time>2021-05-08T12:16:51.121Z</time>
      </trkpt>
      <trkpt lat="43.33615" lon="2.38038">
        <ele>260.413852</ele>
        <time>2021-05-08T12:16:54.092Z</time>
      </trkpt>
      <trkpt lat="43.33606" lon="2.38037">
        <ele>259.875067</ele>
        <time>2021-05-08T12:16:56.090Z</time>
      </trkpt>
      <trkpt lat="43.33596" lon="2.38036">
        <ele>259.291296</ele>
        <time>2021-05-08T12:16:58.102Z</time>
      </trkpt>
      <trkpt lat="43.33586" lon="2.38036">
        <ele>258.686103</ele>
        <time>2021-05-08T12:17:00.104Z</time>
      </trkpt>
      <trkpt lat="43.33573" lon="2.38037">
        <ele>257.982301</ele>
        <time>2021-05-08T12:17:02.145Z</time>
      </trkpt>
      <trkpt lat="43.33561" lon="2.38035">
        <ele>257.270669</ele>
        <time>2021-05-08T12:17:04.092Z</time>
      </trkpt>
      <trkpt lat="43.3355" lon="2.38032">
        <ele>256.625008</ele>
        <time>2021-05-08T12:17:06.122Z</time>
      </trkpt>
      <trkpt lat="43.33541" lon="2.38029">
        <ele>256.040702</ele>
        <time>2021-05-08T12:17:08.107Z</time>
      </trkpt>
      <trkpt lat="43.33532" lon="2.38023">
        <ele>255.485573</ele>
        <time>2021-05-08T12:17:10.099Z</time>
      </trkpt>
      <trkpt lat="43.33524" lon="2.38016">
        <ele>254.946405</ele>
        <time>2021-05-08T12:17:12.090Z</time>
      </trkpt>
      <trkpt lat="43.33514" lon="2.38004">
        <ele>254.128108</ele>
        <time>2021-05-08T12:17:15.133Z</time>
      </trkpt>
      <trkpt lat="43.33505" lon="2.37993">
        <ele>253.472163</ele>
        <time>2021-05-08T12:17:17.128Z</time>
      </trkpt>
      <trkpt lat="43.33498" lon="2.3798">
        <ele>252.787453</ele>
        <time>2021-05-08T12:17:19.093Z</time>
      </trkpt>
      <trkpt lat="43.33493" lon="2.37968">
        <ele>252.173804</ele>
        <time>2021-05-08T12:17:21.098Z</time>
      </trkpt>
      <trkpt lat="43.3349" lon="2.37956">
        <ele>251.633164</ele>
        <time>2021-05-08T12:17:23.117Z</time>
      </trkpt>
      <trkpt lat="43.33487" lon="2.37944">
        <ele>251.109687</ele>
        <time>2021-05-08T12:17:25.092Z</time>
      </trkpt>
      <trkpt lat="43.33484" lon="2.37927">
        <ele>250.786097</ele>
        <time>2021-05-08T12:17:28.103Z</time>
      </trkpt>
      <trkpt lat="43.33482" lon="2.37912">
        <ele>250.531914</ele>
        <time>2021-05-08T12:17:31.088Z</time>
      </trkpt>
      <trkpt lat="43.33479" lon="2.37895">
        <ele>250.266414</ele>
        <time>2021-05-08T12:17:34.122Z</time>
      </trkpt>
      <trkpt lat="43.33476" lon="2.3788">
        <ele>250.005334</ele>
        <time>2021-05-08T12:17:37.094Z</time>
      </trkpt>
      <trkpt lat="43.33472" lon="2.37865">
        <ele>249.759035</ele>
        <time>2021-05-08T12:17:40.102Z</time>
      </trkpt>
      <trkpt lat="43.33466" lon="2.37848">
        <ele>249.462957</ele>
        <time>2021-05-08T12:17:43.094Z</time>
      </trkpt>
      <trkpt lat="43.33461" lon="2.37835">
        <ele>249.237055</ele>
        <time>2021-05-08T12:17:45.101Z</time>
      </trkpt>
      <trkpt lat="43.33455" lon="2.37822">
        <ele>248.988675</ele>
        <time>2021-05-08T12:17:47.119Z</time>
      </trkpt>
      <trkpt lat="43.33447" lon="2.37809">
        <ele>248.707223</ele>
        <time>2021-05-08T12:17:49.120Z</time>
      </trkpt>
      <trkpt lat="43.33437" lon="2.378">
        <ele>248.442709</ele>
        <time>2021-05-08T12:17:51.098Z</time>
      </trkpt>
      <trkpt lat="43.33426" lon="2.37796">
        <ele>248.20821</ele>
        <time>2021-05-08T12:17:53.107Z</time>
      </trkpt>
      <trkpt lat="43.33416" lon="2.37793">
        <ele>247.979403</ele>
        <time>2021-05-08T12:17:57.094Z</time>
      </trkpt>
      <trkpt lat="43.33405" lon="2.37798">
        <ele>247.719066</ele>
        <time>2021-05-08T12:18:01.123Z</time>
      </trkpt>
      <trkpt lat="43.33397" lon="2.37806">
        <ele>247.511842</ele>
        <time>2021-05-08T12:18:03.091Z</time>
      </trkpt>
      <trkpt lat="43.3339" lon="2.37817">
        <ele>247.275345</ele>
        <time>2021-05-08T12:18:05.093Z</time>
      </trkpt>
      <trkpt lat="43.33384" lon="2.37829">
        <ele>247.160506</ele>
        <time>2021-05-08T12:18:07.089Z</time>
      </trkpt>
      <trkpt lat="43.33379" lon="2.37842">
        <ele>247.473627</ele>
        <time>2021-05-08T12:18:09.090Z</time>
      </trkpt>
      <trkpt lat="43.33376" lon="2.37858">
        <ele>247.811581</ele>
        <time>2021-05-08T12:18:11.106Z</time>
      </trkpt>
      <trkpt lat="43.33375" lon="2.37873">
        <ele>248.113064</ele>
        <time>2021-05-08T12:18:13.097Z</time>
      </trkpt>
      <trkpt lat="43.33374" lon="2.37887">
        <ele>248.412584</ele>
        <time>2021-05-08T12:18:15.093Z</time>
      </trkpt>
      <trkpt lat="43.33373" lon="2.379">
        <ele>248.692649</ele>
        <time>2021-05-08T12:18:17.109Z</time>
      </trkpt>
      <trkpt lat="43.3337" lon="2.37918">
        <ele>249.06438</ele>
        <time>2021-05-08T12:18:20.101Z</time>
      </trkpt>
      <trkpt lat="43.33368" lon="2.37936">
        <ele>249.440224</ele>
        <time>2021-05-08T12:18:23.116Z</time>
      </trkpt>
      <trkpt lat="43.33368" lon="2.37949">
        <ele>249.700133</ele>
        <time>2021-05-08T12:18:25.096Z</time>
      </trkpt>
      <trkpt lat="43.33367" lon="2.37963">
        <ele>249.988103</ele>
        <time>2021-05-08T12:18:27.083Z</time>
      </trkpt>
      <trkpt lat="43.33365" lon="2.37976">
        <ele>250.274989</ele>
        <time>2021-05-08T12:18:29.124Z</time>
      </trkpt>
      <trkpt lat="43.33365" lon="2.3799">
        <ele>250.557566</ele>
        <time>2021-05-08T12:18:31.107Z</time>
      </trkpt>
      <trkpt lat="43.33368" lon="2.38003">
        <ele>250.842247</ele>
        <time>2021-05-08T12:18:33.088Z</time>
      </trkpt>
      <trkpt lat="43.33368" lon="2.38022">
        <ele>251.215408</ele>
        <time>2021-05-08T12:18:36.109Z</time>
      </trkpt>
      <trkpt lat="43.33367" lon="2.3804">
        <ele>251.590803</ele>
        <time>2021-05-08T12:18:39.122Z</time>
      </trkpt>
      <trkpt lat="43.33368" lon="2.38053">
        <ele>251.857497</ele>
        <time>2021-05-08T12:18:41.091Z</time>
      </trkpt>
      <trkpt lat="43.33368" lon="2.38066">
        <ele>252.131758</ele>
        <time>2021-05-08T12:18:43.099Z</time>
      </trkpt>
      <trkpt lat="43.33367" lon="2.38079">
        <ele>251.963661</ele>
        <time>2021-05-08T12:18:45.091Z</time>
      </trkpt>
      <trkpt lat="43.33364" lon="2.38093">
        <ele>251.629196</ele>
        <time>2021-05-08T12:18:47.092Z</time>
      </trkpt>
      <trkpt lat="43.33361" lon="2.38106">
        <ele>251.316301</ele>
        <time>2021-05-08T12:18:49.105Z</time>
      </trkpt>
      <trkpt lat="43.33356" lon="2.38117">
        <ele>250.991345</ele>
        <time>2021-05-08T12:18:51.090Z</time>
      </trkpt>
      <trkpt lat="43.33346" lon="2.38121">
        <ele>250.681304</ele>
        <time>2021-05-08T12:18:53.095Z</time>
      </trkpt>
      <trkpt lat="43.33334" lon="2.38119">
        <ele>250.287211</ele>
        <time>2021-05-08T12:18:56.097Z</time>
      </trkpt>
      <trkpt lat="43.33321" lon="2.38115">
        <ele>249.880401</ele>
        <time>2021-05-08T12:18:59.096Z</time>
      </trkpt>
      <trkpt lat="43.33312" lon="2.38111">
        <ele>249.565138</ele>
        <time>2021-05-08T12:19:01.142Z</time>
      </trkpt>
      <trkpt lat="43.33304" lon="2.38105">
        <ele>249.270224</ele>
        <time>2021-05-08T12:19:03.108Z</time>
      </trkpt>
      <trkpt lat="43.33295" lon="2.381">
        <ele>248.972058</ele>
        <time>2021-05-08T12:19:05.116Z</time>
      </trkpt>
      <trkpt lat="43.33283" lon="2.38096">
        <ele>248.559044</ele>
        <time>2021-05-08T12:19:08.099Z</time>
      </trkpt>
      <trkpt lat="43.33269" lon="2.38095">
        <ele>248.130709</ele>
        <time>2021-05-08T12:19:11.087Z</time>
      </trkpt>
      <trkpt lat="43.3326" lon="2.38096">
        <ele>247.838629</ele>
        <time>2021-05-08T12:19:13.095Z</time>
      </trkpt>
      <trkpt lat="43.33247" lon="2.381">
        <ele>247.425007</ele>
        <time>2021-05-08T12:19:16.088Z</time>
      </trkpt>
      <trkpt lat="43.33238" lon="2.38104">
        <ele>247.110679</ele>
        <time>2021-05-08T12:19:18.096Z</time>
      </trkpt>
      <trkpt lat="43.33228" lon="2.38109">
        <ele>246.777123</ele>
        <time>2021-05-08T12:19:20.117Z</time>
      </trkpt>
      <trkpt lat="43.33219" lon="2.38119">
        <ele>246.459958</ele>
        <time>2021-05-08T12:19:22.094Z</time>
      </trkpt>
      <trkpt lat="43.33212" lon="2.38133">
        <ele>246.459958</ele>
        <time>2021-05-08T12:19:24.164Z</time>
      </trkpt>
      <trkpt lat="43.33208" lon="2.38148">
        <ele>246.459958</ele>
        <time>2021-05-08T12:19:26.129Z</time>
      </trkpt>
      <trkpt lat="43.33202" lon="2.38161">
        <ele>246.459958</ele>
        <time>2021-05-08T12:19:28.095Z</time>
      </trkpt>
      <trkpt lat="43.33194" lon="2.38174">
        <ele>246.459958</ele>
        <time>2021-05-08T12:19:30.110Z</time>
      </trkpt>
      <trkpt lat="43.33185" lon="2.38185">
        <ele>246.459958</ele>
        <time>2021-05-08T12:19:32.117Z</time>
      </trkpt>
      <trkpt lat="43.33177" lon="2.38196">
        <ele>246.459958</ele>
        <time>2021-05-08T12:19:34.101Z</time>
      </trkpt>
      <trkpt lat="43.33167" lon="2.38206">
        <ele>246.459958</ele>
        <time>2021-05-08T12:19:36.106Z</time>
      </trkpt>
      <trkpt lat="43.33158" lon="2.38214">
        <ele>246.459958</ele>
        <time>2021-05-08T12:19:38.095Z</time>
      </trkpt>
      <trkpt lat="43.33146" lon="2.38223">
        <ele>246.459958</ele>
        <time>2021-05-08T12:19:41.128Z</time>
      </trkpt>
      <trkpt lat="43.33139" lon="2.38234">
        <ele>246.459958</ele>
        <time>2021-05-08T12:19:44.104Z</time>
      </trkpt>
      <trkpt lat="43.33147" lon="2.38244">
        <ele>246.459958</ele>
        <time>2021-05-08T12:19:48.094Z</time>
      </trkpt>
      <trkpt lat="43.33159" lon="2.38237">
        <ele>246.459958</ele>
        <time>2021-05-08T12:19:51.087Z</time>
      </trkpt>
      <trkpt lat="43.33169" lon="2.38228">
        <ele>246.459958</ele>
        <time>2021-05-08T12:19:54.091Z</time>
      </trkpt>
      <trkpt lat="43.33178" lon="2.38219">
        <ele>246.459958</ele>
        <time>2021-05-08T12:19:57.113Z</time>
      </trkpt>
      <trkpt lat="43.33187" lon="2.38209">
        <ele>246.459958</ele>
        <time>2021-05-08T12:20:00.142Z</time>
      </trkpt>
      <trkpt lat="43.33195" lon="2.38199">
        <ele>246.459958</ele>
        <time>2021-05-08T12:20:03.125Z</time>
      </trkpt>
      <trkpt lat="43.33203" lon="2.38188">
        <ele>246.459958</ele>
        <time>2021-05-08T12:20:06.142Z</time>
      </trkpt>
      <trkpt lat="43.33211" lon="2.38178">
        <ele>246.459958</ele>
        <time>2021-05-08T12:20:09.125Z</time>
      </trkpt>
      <trkpt lat="43.33219" lon="2.38168">
        <ele>246.459958</ele>
        <time>2021-05-08T12:20:12.082Z</time>
      </trkpt>
      <trkpt lat="43.33227" lon="2.3816">
        <ele>246.459958</ele>
        <time>2021-05-08T12:20:15.128Z</time>
      </trkpt>
      <trkpt lat="43.33234" lon="2.38152">
        <ele>246.459958</ele>
        <time>2021-05-08T12:20:18.087Z</time>
      </trkpt>
      <trkpt lat="43.33243" lon="2.38144">
        <ele>246.459958</ele>
        <time>2021-05-08T12:20:22.085Z</time>
      </trkpt>
      <trkpt lat="43.33253" lon="2.38132">
        <ele>246.459958</ele>
        <time>2021-05-08T12:21:07.267Z</time>
      </trkpt>
    </trkseg>
  </trk>
</gpx>